<?xml version="1.0" encoding="UTF-8" standalone="no" ?>
<gpx xmlns="http://www.topografix.com/GPX/1/1" xmlns:xsi="http://www.w3.org/2001/XMLSchema-instance" xsi:schemaLocation="http://www.topografix.com/GPX/1/1 http://www.topografix.com/GPX/1/1/gpx.xsd" version="1.1" creator="VisuGPX - https://www.visugpx.com">
  <metadata>
    <name>LE GRAND TRUC</name>
    <desc><![CDATA[LE GRAND TRUC]]></desc>
  </metadata>
  <trk>
    <name><![CDATA[Move]]></name>
    <trkseg>
      <trkpt lat="45.31095" lon="6.25709">
        <ele>898</ele>
        <time>2015-11-15T07:42:08.550Z</time>
      </trkpt>
      <trkpt lat="45.31092" lon="6.25707">
        <ele>898.47170130294</ele>
        <time>2015-11-15T07:42:11.550Z</time>
      </trkpt>
      <trkpt lat="45.3109" lon="6.25706">
        <ele>899</ele>
        <time>2015-11-15T07:42:13.550Z</time>
      </trkpt>
      <trkpt lat="45.31087" lon="6.25703">
        <ele>899</ele>
        <time>2015-11-15T07:42:15.550Z</time>
      </trkpt>
      <trkpt lat="45.31077" lon="6.257">
        <ele>899</ele>
        <time>2015-11-15T07:42:21.550Z</time>
      </trkpt>
      <trkpt lat="45.31067" lon="6.25698">
        <ele>899</ele>
        <time>2015-11-15T07:42:27.550Z</time>
      </trkpt>
      <trkpt lat="45.31056" lon="6.25694">
        <ele>900</ele>
        <time>2015-11-15T07:42:34.550Z</time>
      </trkpt>
      <trkpt lat="45.31046" lon="6.25689">
        <ele>900.5000064</ele>
        <time>2015-11-15T07:42:41.550Z</time>
      </trkpt>
      <trkpt lat="45.31036" lon="6.25686">
        <ele>901</ele>
        <time>2015-11-15T07:42:48.550Z</time>
      </trkpt>
      <trkpt lat="45.31026" lon="6.25682">
        <ele>902</ele>
        <time>2015-11-15T07:42:55.550Z</time>
      </trkpt>
      <trkpt lat="45.31016" lon="6.25677">
        <ele>903</ele>
        <time>2015-11-15T07:43:02.550Z</time>
      </trkpt>
      <trkpt lat="45.31005" lon="6.25673">
        <ele>903.5000064</ele>
        <time>2015-11-15T07:43:09.550Z</time>
      </trkpt>
      <trkpt lat="45.30995" lon="6.25669">
        <ele>904</ele>
        <time>2015-11-15T07:43:15.550Z</time>
      </trkpt>
      <trkpt lat="45.30986" lon="6.25663">
        <ele>906</ele>
        <time>2015-11-15T07:43:21.550Z</time>
      </trkpt>
      <trkpt lat="45.30974" lon="6.25663">
        <ele>906</ele>
        <time>2015-11-15T07:43:27.550Z</time>
      </trkpt>
      <trkpt lat="45.30964" lon="6.25662">
        <ele>907</ele>
        <time>2015-11-15T07:43:32.550Z</time>
      </trkpt>
      <trkpt lat="45.30956" lon="6.25663">
        <ele>907</ele>
        <time>2015-11-15T07:43:36.550Z</time>
      </trkpt>
      <trkpt lat="45.30946" lon="6.25664">
        <ele>907.82242744695</ele>
        <time>2015-11-15T07:43:40.550Z</time>
      </trkpt>
      <trkpt lat="45.30937" lon="6.25667">
        <ele>909</ele>
        <time>2015-11-15T07:43:44.550Z</time>
      </trkpt>
      <trkpt lat="45.30929" lon="6.25667">
        <ele>909</ele>
        <time>2015-11-15T07:43:48.550Z</time>
      </trkpt>
      <trkpt lat="45.3092" lon="6.25664">
        <ele>911</ele>
        <time>2015-11-15T07:43:53.550Z</time>
      </trkpt>
      <trkpt lat="45.30913" lon="6.25662">
        <ele>911</ele>
        <time>2015-11-15T07:43:57.550Z</time>
      </trkpt>
      <trkpt lat="45.30906" lon="6.25659">
        <ele>913</ele>
        <time>2015-11-15T07:44:01.550Z</time>
      </trkpt>
      <trkpt lat="45.30899" lon="6.25657">
        <ele>913</ele>
        <time>2015-11-15T07:44:05.550Z</time>
      </trkpt>
      <trkpt lat="45.30891" lon="6.25655">
        <ele>913.82000409605</ele>
        <time>2015-11-15T07:44:10.550Z</time>
      </trkpt>
      <trkpt lat="45.30882" lon="6.25652">
        <ele>915</ele>
        <time>2015-11-15T07:44:15.550Z</time>
      </trkpt>
      <trkpt lat="45.30874" lon="6.2565">
        <ele>915</ele>
        <time>2015-11-15T07:44:19.550Z</time>
      </trkpt>
      <trkpt lat="45.30867" lon="6.25646">
        <ele>916</ele>
        <time>2015-11-15T07:44:23.550Z</time>
      </trkpt>
      <trkpt lat="45.30861" lon="6.25643">
        <ele>916</ele>
        <time>2015-11-15T07:44:26.550Z</time>
      </trkpt>
      <trkpt lat="45.30856" lon="6.25639">
        <ele>916</ele>
        <time>2015-11-15T07:44:29.550Z</time>
      </trkpt>
      <trkpt lat="45.30852" lon="6.25633">
        <ele>917</ele>
        <time>2015-11-15T07:44:32.550Z</time>
      </trkpt>
      <trkpt lat="45.30849" lon="6.25627">
        <ele>917</ele>
        <time>2015-11-15T07:44:35.550Z</time>
      </trkpt>
      <trkpt lat="45.30846" lon="6.2562">
        <ele>917</ele>
        <time>2015-11-15T07:44:38.550Z</time>
      </trkpt>
      <trkpt lat="45.30842" lon="6.25613">
        <ele>917.71740219266</ele>
        <time>2015-11-15T07:44:41.550Z</time>
      </trkpt>
      <trkpt lat="45.30839" lon="6.25607">
        <ele>919</ele>
        <time>2015-11-15T07:44:44.550Z</time>
      </trkpt>
      <trkpt lat="45.30836" lon="6.256">
        <ele>919</ele>
        <time>2015-11-15T07:44:47.550Z</time>
      </trkpt>
      <trkpt lat="45.30833" lon="6.25593">
        <ele>919</ele>
        <time>2015-11-15T07:44:50.550Z</time>
      </trkpt>
      <trkpt lat="45.3083" lon="6.25586">
        <ele>921</ele>
        <time>2015-11-15T07:44:53.550Z</time>
      </trkpt>
      <trkpt lat="45.30828" lon="6.25579">
        <ele>921</ele>
        <time>2015-11-15T07:44:56.550Z</time>
      </trkpt>
      <trkpt lat="45.30825" lon="6.25571">
        <ele>921</ele>
        <time>2015-11-15T07:44:59.550Z</time>
      </trkpt>
      <trkpt lat="45.30823" lon="6.25563">
        <ele>922</ele>
        <time>2015-11-15T07:45:02.550Z</time>
      </trkpt>
      <trkpt lat="45.3082" lon="6.25556">
        <ele>922</ele>
        <time>2015-11-15T07:45:05.550Z</time>
      </trkpt>
      <trkpt lat="45.30817" lon="6.25549">
        <ele>922</ele>
        <time>2015-11-15T07:45:08.550Z</time>
      </trkpt>
      <trkpt lat="45.30811" lon="6.25544">
        <ele>922.37778220244</ele>
        <time>2015-11-15T07:45:11.550Z</time>
      </trkpt>
      <trkpt lat="45.30807" lon="6.25542">
        <ele>923</ele>
        <time>2015-11-15T07:45:13.550Z</time>
      </trkpt>
      <trkpt lat="45.30801" lon="6.25542">
        <ele>923</ele>
        <time>2015-11-15T07:45:16.550Z</time>
      </trkpt>
      <trkpt lat="45.30795" lon="6.25543">
        <ele>923</ele>
        <time>2015-11-15T07:45:19.550Z</time>
      </trkpt>
      <trkpt lat="45.30784" lon="6.25545">
        <ele>924</ele>
        <time>2015-11-15T07:45:24.550Z</time>
      </trkpt>
      <trkpt lat="45.30774" lon="6.25544">
        <ele>924</ele>
        <time>2015-11-15T07:45:29.550Z</time>
      </trkpt>
      <trkpt lat="45.30765" lon="6.25538">
        <ele>925</ele>
        <time>2015-11-15T07:45:34.550Z</time>
      </trkpt>
      <trkpt lat="45.30763" lon="6.25529">
        <ele>925</ele>
        <time>2015-11-15T07:45:37.550Z</time>
      </trkpt>
      <trkpt lat="45.30761" lon="6.2552">
        <ele>926.29312</ele>
        <time>2015-11-15T07:45:40.550Z</time>
      </trkpt>
      <trkpt lat="45.30758" lon="6.25512">
        <ele>928</ele>
        <time>2015-11-15T07:45:43.550Z</time>
      </trkpt>
      <trkpt lat="45.30755" lon="6.25505">
        <ele>928</ele>
        <time>2015-11-15T07:45:46.550Z</time>
      </trkpt>
      <trkpt lat="45.30752" lon="6.25498">
        <ele>928</ele>
        <time>2015-11-15T07:45:49.550Z</time>
      </trkpt>
      <trkpt lat="45.30749" lon="6.25489">
        <ele>930</ele>
        <time>2015-11-15T07:45:53.550Z</time>
      </trkpt>
      <trkpt lat="45.30746" lon="6.25482">
        <ele>931</ele>
        <time>2015-11-15T07:45:56.550Z</time>
      </trkpt>
      <trkpt lat="45.30742" lon="6.25476">
        <ele>931.5000064</ele>
        <time>2015-11-15T07:45:59.550Z</time>
      </trkpt>
      <trkpt lat="45.30738" lon="6.25469">
        <ele>932</ele>
        <time>2015-11-15T07:46:02.550Z</time>
      </trkpt>
      <trkpt lat="45.30735" lon="6.25463">
        <ele>932</ele>
        <time>2015-11-15T07:46:05.550Z</time>
      </trkpt>
      <trkpt lat="45.3073" lon="6.25456">
        <ele>932</ele>
        <time>2015-11-15T07:46:08.550Z</time>
      </trkpt>
      <trkpt lat="45.30727" lon="6.2545">
        <ele>932</ele>
        <time>2015-11-15T07:46:11.550Z</time>
      </trkpt>
      <trkpt lat="45.30723" lon="6.25445">
        <ele>933.0000128</ele>
        <time>2015-11-15T07:46:14.550Z</time>
      </trkpt>
      <trkpt lat="45.30718" lon="6.25441">
        <ele>934</ele>
        <time>2015-11-15T07:46:17.550Z</time>
      </trkpt>
      <trkpt lat="45.30714" lon="6.25437">
        <ele>934</ele>
        <time>2015-11-15T07:46:20.550Z</time>
      </trkpt>
      <trkpt lat="45.30709" lon="6.25433">
        <ele>934</ele>
        <time>2015-11-15T07:46:23.550Z</time>
      </trkpt>
      <trkpt lat="45.30704" lon="6.25429">
        <ele>935</ele>
        <time>2015-11-15T07:46:26.550Z</time>
      </trkpt>
      <trkpt lat="45.30699" lon="6.25427">
        <ele>935</ele>
        <time>2015-11-15T07:46:29.550Z</time>
      </trkpt>
      <trkpt lat="45.30694" lon="6.25425">
        <ele>935</ele>
        <time>2015-11-15T07:46:32.550Z</time>
      </trkpt>
      <trkpt lat="45.30689" lon="6.25422">
        <ele>937</ele>
        <time>2015-11-15T07:46:35.550Z</time>
      </trkpt>
      <trkpt lat="45.30684" lon="6.2542">
        <ele>937</ele>
        <time>2015-11-15T07:46:38.550Z</time>
      </trkpt>
      <trkpt lat="45.30678" lon="6.2542">
        <ele>937</ele>
        <time>2015-11-15T07:46:41.550Z</time>
      </trkpt>
      <trkpt lat="45.30667" lon="6.25425">
        <ele>939</ele>
        <time>2015-11-15T07:46:47.550Z</time>
      </trkpt>
      <trkpt lat="45.30661" lon="6.25435">
        <ele>939</ele>
        <time>2015-11-15T07:46:52.550Z</time>
      </trkpt>
      <trkpt lat="45.30657" lon="6.25448">
        <ele>941</ele>
        <time>2015-11-15T07:46:57.550Z</time>
      </trkpt>
      <trkpt lat="45.30652" lon="6.25462">
        <ele>941</ele>
        <time>2015-11-15T07:47:03.550Z</time>
      </trkpt>
      <trkpt lat="45.30649" lon="6.25475">
        <ele>942.0000128</ele>
        <time>2015-11-15T07:47:09.550Z</time>
      </trkpt>
      <trkpt lat="45.30646" lon="6.2549">
        <ele>943</ele>
        <time>2015-11-15T07:47:15.550Z</time>
      </trkpt>
      <trkpt lat="45.30642" lon="6.25501">
        <ele>944</ele>
        <time>2015-11-15T07:47:20.550Z</time>
      </trkpt>
      <trkpt lat="45.30635" lon="6.25513">
        <ele>944</ele>
        <time>2015-11-15T07:47:25.550Z</time>
      </trkpt>
      <trkpt lat="45.30625" lon="6.25517">
        <ele>945</ele>
        <time>2015-11-15T07:47:30.550Z</time>
      </trkpt>
      <trkpt lat="45.30615" lon="6.25517">
        <ele>945</ele>
        <time>2015-11-15T07:47:35.550Z</time>
      </trkpt>
      <trkpt lat="45.3061" lon="6.25514">
        <ele>945</ele>
        <time>2015-11-15T07:47:38.550Z</time>
      </trkpt>
      <trkpt lat="45.30604" lon="6.25512">
        <ele>947</ele>
        <time>2015-11-15T07:47:41.550Z</time>
      </trkpt>
      <trkpt lat="45.306" lon="6.25508">
        <ele>947</ele>
        <time>2015-11-15T07:47:44.550Z</time>
      </trkpt>
      <trkpt lat="45.30595" lon="6.25504">
        <ele>947</ele>
        <time>2015-11-15T07:47:47.550Z</time>
      </trkpt>
      <trkpt lat="45.30591" lon="6.25498">
        <ele>949</ele>
        <time>2015-11-15T07:47:50.550Z</time>
      </trkpt>
      <trkpt lat="45.30586" lon="6.25495">
        <ele>949</ele>
        <time>2015-11-15T07:47:53.550Z</time>
      </trkpt>
      <trkpt lat="45.30582" lon="6.25493">
        <ele>949</ele>
        <time>2015-11-15T07:47:55.550Z</time>
      </trkpt>
      <trkpt lat="45.30578" lon="6.25489">
        <ele>949</ele>
        <time>2015-11-15T07:47:58.550Z</time>
      </trkpt>
      <trkpt lat="45.30574" lon="6.25487">
        <ele>950</ele>
        <time>2015-11-15T07:48:00.550Z</time>
      </trkpt>
      <trkpt lat="45.30569" lon="6.25484">
        <ele>950</ele>
        <time>2015-11-15T07:48:03.550Z</time>
      </trkpt>
      <trkpt lat="45.30565" lon="6.25479">
        <ele>950</ele>
        <time>2015-11-15T07:48:06.550Z</time>
      </trkpt>
      <trkpt lat="45.30561" lon="6.25474">
        <ele>951.0000128</ele>
        <time>2015-11-15T07:48:09.550Z</time>
      </trkpt>
      <trkpt lat="45.30558" lon="6.25468">
        <ele>952</ele>
        <time>2015-11-15T07:48:12.550Z</time>
      </trkpt>
      <trkpt lat="45.30554" lon="6.25463">
        <ele>952</ele>
        <time>2015-11-15T07:48:15.550Z</time>
      </trkpt>
      <trkpt lat="45.30551" lon="6.25456">
        <ele>952</ele>
        <time>2015-11-15T07:48:18.550Z</time>
      </trkpt>
      <trkpt lat="45.30547" lon="6.25451">
        <ele>953</ele>
        <time>2015-11-15T07:48:21.550Z</time>
      </trkpt>
      <trkpt lat="45.30542" lon="6.25445">
        <ele>953</ele>
        <time>2015-11-15T07:48:24.550Z</time>
      </trkpt>
      <trkpt lat="45.30538" lon="6.2544">
        <ele>953</ele>
        <time>2015-11-15T07:48:27.550Z</time>
      </trkpt>
      <trkpt lat="45.30533" lon="6.25435">
        <ele>955</ele>
        <time>2015-11-15T07:48:30.550Z</time>
      </trkpt>
      <trkpt lat="45.30529" lon="6.2543">
        <ele>955</ele>
        <time>2015-11-15T07:48:33.550Z</time>
      </trkpt>
      <trkpt lat="45.30524" lon="6.25425">
        <ele>955</ele>
        <time>2015-11-15T07:48:36.550Z</time>
      </trkpt>
      <trkpt lat="45.3052" lon="6.2542">
        <ele>956.0000128</ele>
        <time>2015-11-15T07:48:39.550Z</time>
      </trkpt>
      <trkpt lat="45.30515" lon="6.25416">
        <ele>957</ele>
        <time>2015-11-15T07:48:42.550Z</time>
      </trkpt>
      <trkpt lat="45.3051" lon="6.25413">
        <ele>957</ele>
        <time>2015-11-15T07:48:45.550Z</time>
      </trkpt>
      <trkpt lat="45.30506" lon="6.25409">
        <ele>957</ele>
        <time>2015-11-15T07:48:48.550Z</time>
      </trkpt>
      <trkpt lat="45.30501" lon="6.25406">
        <ele>959</ele>
        <time>2015-11-15T07:48:51.550Z</time>
      </trkpt>
      <trkpt lat="45.30496" lon="6.25402">
        <ele>959</ele>
        <time>2015-11-15T07:48:54.550Z</time>
      </trkpt>
      <trkpt lat="45.30491" lon="6.25397">
        <ele>959</ele>
        <time>2015-11-15T07:48:57.550Z</time>
      </trkpt>
      <trkpt lat="45.30488" lon="6.2539">
        <ele>961</ele>
        <time>2015-11-15T07:49:00.550Z</time>
      </trkpt>
      <trkpt lat="45.30485" lon="6.25383">
        <ele>961</ele>
        <time>2015-11-15T07:49:03.550Z</time>
      </trkpt>
      <trkpt lat="45.30483" lon="6.25376">
        <ele>961</ele>
        <time>2015-11-15T07:49:06.550Z</time>
      </trkpt>
      <trkpt lat="45.3048" lon="6.2537">
        <ele>961</ele>
        <time>2015-11-15T07:49:09.550Z</time>
      </trkpt>
      <trkpt lat="45.30476" lon="6.25364">
        <ele>961</ele>
        <time>2015-11-15T07:49:12.550Z</time>
      </trkpt>
      <trkpt lat="45.30473" lon="6.25359">
        <ele>961</ele>
        <time>2015-11-15T07:49:15.550Z</time>
      </trkpt>
      <trkpt lat="45.30468" lon="6.25354">
        <ele>962.0000128</ele>
        <time>2015-11-15T07:49:19.550Z</time>
      </trkpt>
      <trkpt lat="45.30463" lon="6.25349">
        <ele>963</ele>
        <time>2015-11-15T07:49:23.550Z</time>
      </trkpt>
      <trkpt lat="45.30459" lon="6.25346">
        <ele>963</ele>
        <time>2015-11-15T07:49:26.550Z</time>
      </trkpt>
      <trkpt lat="45.30454" lon="6.25344">
        <ele>964.0000128</ele>
        <time>2015-11-15T07:49:29.550Z</time>
      </trkpt>
      <trkpt lat="45.3045" lon="6.25341">
        <ele>965</ele>
        <time>2015-11-15T07:49:32.550Z</time>
      </trkpt>
      <trkpt lat="45.30446" lon="6.25338">
        <ele>965</ele>
        <time>2015-11-15T07:49:35.550Z</time>
      </trkpt>
      <trkpt lat="45.30443" lon="6.25333">
        <ele>965</ele>
        <time>2015-11-15T07:49:38.550Z</time>
      </trkpt>
      <trkpt lat="45.3044" lon="6.25325">
        <ele>967</ele>
        <time>2015-11-15T07:49:42.550Z</time>
      </trkpt>
      <trkpt lat="45.30438" lon="6.25314">
        <ele>967</ele>
        <time>2015-11-15T07:49:47.550Z</time>
      </trkpt>
      <trkpt lat="45.30434" lon="6.25304">
        <ele>968</ele>
        <time>2015-11-15T07:49:52.550Z</time>
      </trkpt>
      <trkpt lat="45.30429" lon="6.25295">
        <ele>968</ele>
        <time>2015-11-15T07:49:57.550Z</time>
      </trkpt>
      <trkpt lat="45.30422" lon="6.25288">
        <ele>970</ele>
        <time>2015-11-15T07:50:02.550Z</time>
      </trkpt>
      <trkpt lat="45.30416" lon="6.25285">
        <ele>970</ele>
        <time>2015-11-15T07:50:06.550Z</time>
      </trkpt>
      <trkpt lat="45.30411" lon="6.25284">
        <ele>970.5000064</ele>
        <time>2015-11-15T07:50:09.550Z</time>
      </trkpt>
      <trkpt lat="45.30407" lon="6.25284">
        <ele>971</ele>
        <time>2015-11-15T07:50:12.550Z</time>
      </trkpt>
      <trkpt lat="45.30402" lon="6.25283">
        <ele>971</ele>
        <time>2015-11-15T07:50:15.550Z</time>
      </trkpt>
      <trkpt lat="45.30397" lon="6.25282">
        <ele>971</ele>
        <time>2015-11-15T07:50:18.550Z</time>
      </trkpt>
      <trkpt lat="45.30392" lon="6.25281">
        <ele>972</ele>
        <time>2015-11-15T07:50:21.550Z</time>
      </trkpt>
      <trkpt lat="45.30387" lon="6.2528">
        <ele>972</ele>
        <time>2015-11-15T07:50:24.550Z</time>
      </trkpt>
      <trkpt lat="45.30383" lon="6.2528">
        <ele>972</ele>
        <time>2015-11-15T07:50:27.550Z</time>
      </trkpt>
      <trkpt lat="45.30378" lon="6.2528">
        <ele>974</ele>
        <time>2015-11-15T07:50:30.550Z</time>
      </trkpt>
      <trkpt lat="45.30373" lon="6.2528">
        <ele>974</ele>
        <time>2015-11-15T07:50:33.550Z</time>
      </trkpt>
      <trkpt lat="45.30368" lon="6.25279">
        <ele>974</ele>
        <time>2015-11-15T07:50:36.550Z</time>
      </trkpt>
      <trkpt lat="45.30363" lon="6.25275">
        <ele>975.0000128</ele>
        <time>2015-11-15T07:50:39.550Z</time>
      </trkpt>
      <trkpt lat="45.30361" lon="6.25271">
        <ele>976</ele>
        <time>2015-11-15T07:50:41.550Z</time>
      </trkpt>
      <trkpt lat="45.30359" lon="6.25263">
        <ele>976</ele>
        <time>2015-11-15T07:50:45.550Z</time>
      </trkpt>
      <trkpt lat="45.30359" lon="6.25254">
        <ele>977.0000128</ele>
        <time>2015-11-15T07:50:49.550Z</time>
      </trkpt>
      <trkpt lat="45.30359" lon="6.25244">
        <ele>978</ele>
        <time>2015-11-15T07:50:53.550Z</time>
      </trkpt>
      <trkpt lat="45.30358" lon="6.25232">
        <ele>978</ele>
        <time>2015-11-15T07:50:58.550Z</time>
      </trkpt>
      <trkpt lat="45.30357" lon="6.25223">
        <ele>980</ele>
        <time>2015-11-15T07:51:02.550Z</time>
      </trkpt>
      <trkpt lat="45.30356" lon="6.25214">
        <ele>980</ele>
        <time>2015-11-15T07:51:06.550Z</time>
      </trkpt>
      <trkpt lat="45.30354" lon="6.25204">
        <ele>981</ele>
        <time>2015-11-15T07:51:10.550Z</time>
      </trkpt>
      <trkpt lat="45.30352" lon="6.25195">
        <ele>981</ele>
        <time>2015-11-15T07:51:14.550Z</time>
      </trkpt>
      <trkpt lat="45.3035" lon="6.25185">
        <ele>981</ele>
        <time>2015-11-15T07:51:18.550Z</time>
      </trkpt>
      <trkpt lat="45.30347" lon="6.25176">
        <ele>982</ele>
        <time>2015-11-15T07:51:22.550Z</time>
      </trkpt>
      <trkpt lat="45.30346" lon="6.25171">
        <ele>982</ele>
        <time>2015-11-15T07:51:24.550Z</time>
      </trkpt>
      <trkpt lat="45.30345" lon="6.25167">
        <ele>982</ele>
        <time>2015-11-15T07:51:26.550Z</time>
      </trkpt>
      <trkpt lat="45.30344" lon="6.25161">
        <ele>982</ele>
        <time>2015-11-15T07:51:28.550Z</time>
      </trkpt>
      <trkpt lat="45.30343" lon="6.25157">
        <ele>983</ele>
        <time>2015-11-15T07:51:30.550Z</time>
      </trkpt>
      <trkpt lat="45.30339" lon="6.25149">
        <ele>983</ele>
        <time>2015-11-15T07:51:34.550Z</time>
      </trkpt>
      <trkpt lat="45.30335" lon="6.25143">
        <ele>983</ele>
        <time>2015-11-15T07:51:38.550Z</time>
      </trkpt>
      <trkpt lat="45.30331" lon="6.25141">
        <ele>985</ele>
        <time>2015-11-15T07:51:41.550Z</time>
      </trkpt>
      <trkpt lat="45.30326" lon="6.25139">
        <ele>985</ele>
        <time>2015-11-15T07:51:44.550Z</time>
      </trkpt>
      <trkpt lat="45.30317" lon="6.25143">
        <ele>985</ele>
        <time>2015-11-15T07:51:50.550Z</time>
      </trkpt>
      <trkpt lat="45.30308" lon="6.25151">
        <ele>985</ele>
        <time>2015-11-15T07:51:56.550Z</time>
      </trkpt>
      <trkpt lat="45.303" lon="6.2516">
        <ele>987</ele>
        <time>2015-11-15T07:52:02.550Z</time>
      </trkpt>
      <trkpt lat="45.30293" lon="6.25168">
        <ele>987</ele>
        <time>2015-11-15T07:52:08.550Z</time>
      </trkpt>
      <trkpt lat="45.30285" lon="6.25173">
        <ele>988</ele>
        <time>2015-11-15T07:52:13.550Z</time>
      </trkpt>
      <trkpt lat="45.30278" lon="6.25182">
        <ele>988.5000064</ele>
        <time>2015-11-15T07:52:19.550Z</time>
      </trkpt>
      <trkpt lat="45.30268" lon="6.25186">
        <ele>989</ele>
        <time>2015-11-15T07:52:25.550Z</time>
      </trkpt>
      <trkpt lat="45.3026" lon="6.25187">
        <ele>989.5000064</ele>
        <time>2015-11-15T07:52:29.550Z</time>
      </trkpt>
      <trkpt lat="45.30256" lon="6.25183">
        <ele>990</ele>
        <time>2015-11-15T07:52:32.550Z</time>
      </trkpt>
      <trkpt lat="45.30253" lon="6.25177">
        <ele>990</ele>
        <time>2015-11-15T07:52:35.550Z</time>
      </trkpt>
      <trkpt lat="45.3025" lon="6.25171">
        <ele>990</ele>
        <time>2015-11-15T07:52:38.550Z</time>
      </trkpt>
      <trkpt lat="45.30248" lon="6.25165">
        <ele>992</ele>
        <time>2015-11-15T07:52:41.550Z</time>
      </trkpt>
      <trkpt lat="45.30244" lon="6.25157">
        <ele>992</ele>
        <time>2015-11-15T07:52:45.550Z</time>
      </trkpt>
      <trkpt lat="45.3024" lon="6.25149">
        <ele>992.5000064</ele>
        <time>2015-11-15T07:52:49.550Z</time>
      </trkpt>
      <trkpt lat="45.30238" lon="6.25142">
        <ele>993</ele>
        <time>2015-11-15T07:52:52.550Z</time>
      </trkpt>
      <trkpt lat="45.30234" lon="6.25134">
        <ele>993</ele>
        <time>2015-11-15T07:52:56.550Z</time>
      </trkpt>
      <trkpt lat="45.30231" lon="6.25125">
        <ele>995</ele>
        <time>2015-11-15T07:53:00.550Z</time>
      </trkpt>
      <trkpt lat="45.30229" lon="6.25117">
        <ele>995</ele>
        <time>2015-11-15T07:53:04.550Z</time>
      </trkpt>
      <trkpt lat="45.30227" lon="6.25107">
        <ele>995</ele>
        <time>2015-11-15T07:53:08.550Z</time>
      </trkpt>
      <trkpt lat="45.30226" lon="6.25096">
        <ele>995</ele>
        <time>2015-11-15T07:53:13.550Z</time>
      </trkpt>
      <trkpt lat="45.30223" lon="6.25085">
        <ele>995</ele>
        <time>2015-11-15T07:53:18.550Z</time>
      </trkpt>
      <trkpt lat="45.3022" lon="6.25072">
        <ele>996</ele>
        <time>2015-11-15T07:53:24.550Z</time>
      </trkpt>
      <trkpt lat="45.30217" lon="6.25062">
        <ele>997.0000128</ele>
        <time>2015-11-15T07:53:29.550Z</time>
      </trkpt>
      <trkpt lat="45.30214" lon="6.25054">
        <ele>998</ele>
        <time>2015-11-15T07:53:33.550Z</time>
      </trkpt>
      <trkpt lat="45.3021" lon="6.25048">
        <ele>998</ele>
        <time>2015-11-15T07:53:37.550Z</time>
      </trkpt>
      <trkpt lat="45.30207" lon="6.25041">
        <ele>999</ele>
        <time>2015-11-15T07:53:41.550Z</time>
      </trkpt>
      <trkpt lat="45.30202" lon="6.25035">
        <ele>999</ele>
        <time>2015-11-15T07:53:45.550Z</time>
      </trkpt>
      <trkpt lat="45.30199" lon="6.25028">
        <ele>999</ele>
        <time>2015-11-15T07:53:49.550Z</time>
      </trkpt>
      <trkpt lat="45.30196" lon="6.25022">
        <ele>999</ele>
        <time>2015-11-15T07:53:52.550Z</time>
      </trkpt>
      <trkpt lat="45.30194" lon="6.25016">
        <ele>999</ele>
        <time>2015-11-15T07:53:55.550Z</time>
      </trkpt>
      <trkpt lat="45.30192" lon="6.2501">
        <ele>999</ele>
        <time>2015-11-15T07:53:58.550Z</time>
      </trkpt>
      <trkpt lat="45.3019" lon="6.25003">
        <ele>1001</ele>
        <time>2015-11-15T07:54:01.550Z</time>
      </trkpt>
      <trkpt lat="45.30187" lon="6.24995">
        <ele>1001</ele>
        <time>2015-11-15T07:54:05.550Z</time>
      </trkpt>
      <trkpt lat="45.30185" lon="6.24987">
        <ele>1001.5000064</ele>
        <time>2015-11-15T07:54:09.550Z</time>
      </trkpt>
      <trkpt lat="45.30184" lon="6.24976">
        <ele>1002</ele>
        <time>2015-11-15T07:54:14.550Z</time>
      </trkpt>
      <trkpt lat="45.30185" lon="6.2496">
        <ele>1004</ele>
        <time>2015-11-15T07:54:21.550Z</time>
      </trkpt>
      <trkpt lat="45.30186" lon="6.24944">
        <ele>1004</ele>
        <time>2015-11-15T07:54:28.550Z</time>
      </trkpt>
      <trkpt lat="45.30189" lon="6.24936">
        <ele>1005</ele>
        <time>2015-11-15T07:54:32.550Z</time>
      </trkpt>
      <trkpt lat="45.30192" lon="6.24926">
        <ele>1005</ele>
        <time>2015-11-15T07:54:37.550Z</time>
      </trkpt>
      <trkpt lat="45.30192" lon="6.2491">
        <ele>1006</ele>
        <time>2015-11-15T07:54:44.550Z</time>
      </trkpt>
      <trkpt lat="45.30189" lon="6.24895">
        <ele>1007</ele>
        <time>2015-11-15T07:54:51.550Z</time>
      </trkpt>
      <trkpt lat="45.3018" lon="6.24885">
        <ele>1008.0000128</ele>
        <time>2015-11-15T07:54:59.550Z</time>
      </trkpt>
      <trkpt lat="45.30171" lon="6.2488">
        <ele>1009</ele>
        <time>2015-11-15T07:55:06.550Z</time>
      </trkpt>
      <trkpt lat="45.30164" lon="6.24874">
        <ele>1011</ele>
        <time>2015-11-15T07:55:11.550Z</time>
      </trkpt>
      <trkpt lat="45.30157" lon="6.24868">
        <ele>1011</ele>
        <time>2015-11-15T07:55:17.550Z</time>
      </trkpt>
      <trkpt lat="45.30151" lon="6.24858">
        <ele>1013</ele>
        <time>2015-11-15T07:55:23.550Z</time>
      </trkpt>
      <trkpt lat="45.30147" lon="6.24848">
        <ele>1013</ele>
        <time>2015-11-15T07:55:28.550Z</time>
      </trkpt>
      <trkpt lat="45.30145" lon="6.24833">
        <ele>1014</ele>
        <time>2015-11-15T07:55:35.550Z</time>
      </trkpt>
      <trkpt lat="45.30148" lon="6.24817">
        <ele>1016</ele>
        <time>2015-11-15T07:55:42.550Z</time>
      </trkpt>
      <trkpt lat="45.30151" lon="6.24808">
        <ele>1016</ele>
        <time>2015-11-15T07:55:47.550Z</time>
      </trkpt>
      <trkpt lat="45.30154" lon="6.248">
        <ele>1017</ele>
        <time>2015-11-15T07:55:51.550Z</time>
      </trkpt>
      <trkpt lat="45.30155" lon="6.2479">
        <ele>1017</ele>
        <time>2015-11-15T07:55:55.550Z</time>
      </trkpt>
      <trkpt lat="45.30156" lon="6.2478">
        <ele>1017</ele>
        <time>2015-11-15T07:55:59.550Z</time>
      </trkpt>
      <trkpt lat="45.30154" lon="6.24768">
        <ele>1018</ele>
        <time>2015-11-15T07:56:04.550Z</time>
      </trkpt>
      <trkpt lat="45.30151" lon="6.24758">
        <ele>1018</ele>
        <time>2015-11-15T07:56:09.550Z</time>
      </trkpt>
      <trkpt lat="45.30145" lon="6.24751">
        <ele>1019</ele>
        <time>2015-11-15T07:56:14.550Z</time>
      </trkpt>
      <trkpt lat="45.30139" lon="6.24746">
        <ele>1019</ele>
        <time>2015-11-15T07:56:19.550Z</time>
      </trkpt>
      <trkpt lat="45.30134" lon="6.24744">
        <ele>1020</ele>
        <time>2015-11-15T07:56:23.550Z</time>
      </trkpt>
      <trkpt lat="45.30129" lon="6.24743">
        <ele>1020</ele>
        <time>2015-11-15T07:56:26.550Z</time>
      </trkpt>
      <trkpt lat="45.30125" lon="6.24741">
        <ele>1020</ele>
        <time>2015-11-15T07:56:29.550Z</time>
      </trkpt>
      <trkpt lat="45.3012" lon="6.2474">
        <ele>1022</ele>
        <time>2015-11-15T07:56:32.550Z</time>
      </trkpt>
      <trkpt lat="45.30115" lon="6.24738">
        <ele>1022</ele>
        <time>2015-11-15T07:56:35.550Z</time>
      </trkpt>
      <trkpt lat="45.30111" lon="6.24736">
        <ele>1022</ele>
        <time>2015-11-15T07:56:38.550Z</time>
      </trkpt>
      <trkpt lat="45.30107" lon="6.24733">
        <ele>1023</ele>
        <time>2015-11-15T07:56:41.550Z</time>
      </trkpt>
      <trkpt lat="45.30103" lon="6.24729">
        <ele>1023</ele>
        <time>2015-11-15T07:56:44.550Z</time>
      </trkpt>
      <trkpt lat="45.30101" lon="6.24723">
        <ele>1023</ele>
        <time>2015-11-15T07:56:47.550Z</time>
      </trkpt>
      <trkpt lat="45.30098" lon="6.24717">
        <ele>1024.0000128</ele>
        <time>2015-11-15T07:56:50.550Z</time>
      </trkpt>
      <trkpt lat="45.30096" lon="6.24712">
        <ele>1025</ele>
        <time>2015-11-15T07:56:53.550Z</time>
      </trkpt>
      <trkpt lat="45.30095" lon="6.24705">
        <ele>1025</ele>
        <time>2015-11-15T07:56:56.550Z</time>
      </trkpt>
      <trkpt lat="45.30093" lon="6.24695">
        <ele>1025.4950574101</ele>
        <time>2015-11-15T07:57:00.550Z</time>
      </trkpt>
      <trkpt lat="45.30091" lon="6.24686">
        <ele>1026</ele>
        <time>2015-11-15T07:57:04.550Z</time>
      </trkpt>
      <trkpt lat="45.30087" lon="6.24671">
        <ele>1027</ele>
        <time>2015-11-15T07:57:11.550Z</time>
      </trkpt>
      <trkpt lat="45.30086" lon="6.2466">
        <ele>1027</ele>
        <time>2015-11-15T07:57:15.550Z</time>
      </trkpt>
      <trkpt lat="45.30084" lon="6.24651">
        <ele>1027</ele>
        <time>2015-11-15T07:57:19.550Z</time>
      </trkpt>
      <trkpt lat="45.30081" lon="6.24642">
        <ele>1028</ele>
        <time>2015-11-15T07:57:23.550Z</time>
      </trkpt>
      <trkpt lat="45.30078" lon="6.24634">
        <ele>1028</ele>
        <time>2015-11-15T07:57:27.550Z</time>
      </trkpt>
      <trkpt lat="45.30073" lon="6.24622">
        <ele>1029</ele>
        <time>2015-11-15T07:57:33.550Z</time>
      </trkpt>
      <trkpt lat="45.30068" lon="6.24611">
        <ele>1029</ele>
        <time>2015-11-15T07:57:39.550Z</time>
      </trkpt>
      <trkpt lat="45.30062" lon="6.24601">
        <ele>1031</ele>
        <time>2015-11-15T07:57:45.550Z</time>
      </trkpt>
      <trkpt lat="45.30056" lon="6.24595">
        <ele>1032.0000128</ele>
        <time>2015-11-15T07:57:50.550Z</time>
      </trkpt>
      <trkpt lat="45.30051" lon="6.2459">
        <ele>1033</ele>
        <time>2015-11-15T07:57:54.550Z</time>
      </trkpt>
      <trkpt lat="45.30046" lon="6.24586">
        <ele>1033</ele>
        <time>2015-11-15T07:57:58.550Z</time>
      </trkpt>
      <trkpt lat="45.3004" lon="6.24582">
        <ele>1034</ele>
        <time>2015-11-15T07:58:02.550Z</time>
      </trkpt>
      <trkpt lat="45.30036" lon="6.24579">
        <ele>1034</ele>
        <time>2015-11-15T07:58:05.550Z</time>
      </trkpt>
      <trkpt lat="45.30033" lon="6.24577">
        <ele>1034</ele>
        <time>2015-11-15T07:58:07.550Z</time>
      </trkpt>
      <trkpt lat="45.30028" lon="6.24572">
        <ele>1035</ele>
        <time>2015-11-15T07:58:11.550Z</time>
      </trkpt>
      <trkpt lat="45.30025" lon="6.24571">
        <ele>1035</ele>
        <time>2015-11-15T07:58:13.550Z</time>
      </trkpt>
      <trkpt lat="45.30021" lon="6.24568">
        <ele>1035</ele>
        <time>2015-11-15T07:58:16.550Z</time>
      </trkpt>
      <trkpt lat="45.30017" lon="6.24565">
        <ele>1035</ele>
        <time>2015-11-15T07:58:19.550Z</time>
      </trkpt>
      <trkpt lat="45.30013" lon="6.24561">
        <ele>1036</ele>
        <time>2015-11-15T07:58:22.550Z</time>
      </trkpt>
      <trkpt lat="45.3001" lon="6.24556">
        <ele>1036</ele>
        <time>2015-11-15T07:58:25.550Z</time>
      </trkpt>
      <trkpt lat="45.30007" lon="6.24551">
        <ele>1036</ele>
        <time>2015-11-15T07:58:28.550Z</time>
      </trkpt>
      <trkpt lat="45.30006" lon="6.24546">
        <ele>1037</ele>
        <time>2015-11-15T07:58:31.550Z</time>
      </trkpt>
      <trkpt lat="45.30004" lon="6.24537">
        <ele>1037</ele>
        <time>2015-11-15T07:58:35.550Z</time>
      </trkpt>
      <trkpt lat="45.30003" lon="6.24525">
        <ele>1039</ele>
        <time>2015-11-15T07:58:41.550Z</time>
      </trkpt>
      <trkpt lat="45.30003" lon="6.24517">
        <ele>1039</ele>
        <time>2015-11-15T07:58:45.550Z</time>
      </trkpt>
      <trkpt lat="45.30002" lon="6.24506">
        <ele>1039.5000064</ele>
        <time>2015-11-15T07:58:50.550Z</time>
      </trkpt>
      <trkpt lat="45.30002" lon="6.24496">
        <ele>1040</ele>
        <time>2015-11-15T07:58:55.550Z</time>
      </trkpt>
      <trkpt lat="45.30001" lon="6.24488">
        <ele>1040</ele>
        <time>2015-11-15T07:58:59.550Z</time>
      </trkpt>
      <trkpt lat="45.3" lon="6.24479">
        <ele>1041</ele>
        <time>2015-11-15T07:59:03.550Z</time>
      </trkpt>
      <trkpt lat="45.29999" lon="6.24469">
        <ele>1041</ele>
        <time>2015-11-15T07:59:08.550Z</time>
      </trkpt>
      <trkpt lat="45.29997" lon="6.24458">
        <ele>1043</ele>
        <time>2015-11-15T07:59:13.550Z</time>
      </trkpt>
      <trkpt lat="45.29995" lon="6.24447">
        <ele>1043</ele>
        <time>2015-11-15T07:59:18.550Z</time>
      </trkpt>
      <trkpt lat="45.29994" lon="6.24438">
        <ele>1045</ele>
        <time>2015-11-15T07:59:22.550Z</time>
      </trkpt>
      <trkpt lat="45.29992" lon="6.24427">
        <ele>1045</ele>
        <time>2015-11-15T07:59:27.550Z</time>
      </trkpt>
      <trkpt lat="45.2999" lon="6.24416">
        <ele>1047</ele>
        <time>2015-11-15T07:59:33.550Z</time>
      </trkpt>
      <trkpt lat="45.29989" lon="6.24403">
        <ele>1047</ele>
        <time>2015-11-15T07:59:39.550Z</time>
      </trkpt>
      <trkpt lat="45.2999" lon="6.24392">
        <ele>1049</ele>
        <time>2015-11-15T07:59:45.550Z</time>
      </trkpt>
      <trkpt lat="45.29991" lon="6.2438">
        <ele>1050</ele>
        <time>2015-11-15T07:59:52.550Z</time>
      </trkpt>
      <trkpt lat="45.29992" lon="6.2437">
        <ele>1050</ele>
        <time>2015-11-15T07:59:57.550Z</time>
      </trkpt>
      <trkpt lat="45.29989" lon="6.24359">
        <ele>1050</ele>
        <time>2015-11-15T08:00:02.550Z</time>
      </trkpt>
      <trkpt lat="45.29986" lon="6.24348">
        <ele>1051.0000128</ele>
        <time>2015-11-15T08:00:10.550Z</time>
      </trkpt>
      <trkpt lat="45.29983" lon="6.24336">
        <ele>1052</ele>
        <time>2015-11-15T08:00:16.550Z</time>
      </trkpt>
      <trkpt lat="45.2998" lon="6.24324">
        <ele>1053</ele>
        <time>2015-11-15T08:00:22.550Z</time>
      </trkpt>
      <trkpt lat="45.29978" lon="6.24312">
        <ele>1053</ele>
        <time>2015-11-15T08:00:28.550Z</time>
      </trkpt>
      <trkpt lat="45.29975" lon="6.243">
        <ele>1054</ele>
        <time>2015-11-15T08:00:33.550Z</time>
      </trkpt>
      <trkpt lat="45.29971" lon="6.24294">
        <ele>1054</ele>
        <time>2015-11-15T08:00:38.550Z</time>
      </trkpt>
      <trkpt lat="45.29965" lon="6.24294">
        <ele>1056</ele>
        <time>2015-11-15T08:00:45.550Z</time>
      </trkpt>
      <trkpt lat="45.29959" lon="6.24294">
        <ele>1056.5000064</ele>
        <time>2015-11-15T08:00:50.550Z</time>
      </trkpt>
      <trkpt lat="45.29952" lon="6.24293">
        <ele>1057</ele>
        <time>2015-11-15T08:00:56.550Z</time>
      </trkpt>
      <trkpt lat="45.29947" lon="6.2429">
        <ele>1059</ele>
        <time>2015-11-15T08:01:01.550Z</time>
      </trkpt>
      <trkpt lat="45.2994" lon="6.24283">
        <ele>1059</ele>
        <time>2015-11-15T08:01:07.550Z</time>
      </trkpt>
      <trkpt lat="45.29935" lon="6.24277">
        <ele>1061</ele>
        <time>2015-11-15T08:01:12.550Z</time>
      </trkpt>
      <trkpt lat="45.29929" lon="6.24271">
        <ele>1061</ele>
        <time>2015-11-15T08:01:17.550Z</time>
      </trkpt>
      <trkpt lat="45.2992" lon="6.2427">
        <ele>1062</ele>
        <time>2015-11-15T08:01:24.550Z</time>
      </trkpt>
      <trkpt lat="45.29912" lon="6.24279">
        <ele>1064</ele>
        <time>2015-11-15T08:01:31.550Z</time>
      </trkpt>
      <trkpt lat="45.29905" lon="6.24291">
        <ele>1065.0000128</ele>
        <time>2015-11-15T08:01:40.550Z</time>
      </trkpt>
      <trkpt lat="45.29896" lon="6.24296">
        <ele>1066</ele>
        <time>2015-11-15T08:01:47.550Z</time>
      </trkpt>
      <trkpt lat="45.29886" lon="6.24294">
        <ele>1066</ele>
        <time>2015-11-15T08:01:55.550Z</time>
      </trkpt>
      <trkpt lat="45.29882" lon="6.24291">
        <ele>1066</ele>
        <time>2015-11-15T08:01:59.550Z</time>
      </trkpt>
      <trkpt lat="45.29877" lon="6.24288">
        <ele>1067</ele>
        <time>2015-11-15T08:02:03.550Z</time>
      </trkpt>
      <trkpt lat="45.29873" lon="6.24286">
        <ele>1067</ele>
        <time>2015-11-15T08:02:06.550Z</time>
      </trkpt>
      <trkpt lat="45.2987" lon="6.24282">
        <ele>1067</ele>
        <time>2015-11-15T08:02:09.550Z</time>
      </trkpt>
      <trkpt lat="45.29866" lon="6.24279">
        <ele>1069</ele>
        <time>2015-11-15T08:02:13.550Z</time>
      </trkpt>
      <trkpt lat="45.29863" lon="6.24276">
        <ele>1069</ele>
        <time>2015-11-15T08:02:16.550Z</time>
      </trkpt>
      <trkpt lat="45.2986" lon="6.24272">
        <ele>1069</ele>
        <time>2015-11-15T08:02:19.550Z</time>
      </trkpt>
      <trkpt lat="45.29859" lon="6.24267">
        <ele>1071</ele>
        <time>2015-11-15T08:02:22.550Z</time>
      </trkpt>
      <trkpt lat="45.29858" lon="6.24255">
        <ele>1071</ele>
        <time>2015-11-15T08:02:28.550Z</time>
      </trkpt>
      <trkpt lat="45.2986" lon="6.24249">
        <ele>1071</ele>
        <time>2015-11-15T08:02:32.550Z</time>
      </trkpt>
      <trkpt lat="45.29863" lon="6.24243">
        <ele>1071</ele>
        <time>2015-11-15T08:02:36.550Z</time>
      </trkpt>
      <trkpt lat="45.29865" lon="6.24237">
        <ele>1071.5000064</ele>
        <time>2015-11-15T08:02:40.550Z</time>
      </trkpt>
      <trkpt lat="45.29867" lon="6.24231">
        <ele>1072</ele>
        <time>2015-11-15T08:02:44.550Z</time>
      </trkpt>
      <trkpt lat="45.2987" lon="6.24227">
        <ele>1072</ele>
        <time>2015-11-15T08:02:48.550Z</time>
      </trkpt>
      <trkpt lat="45.29874" lon="6.24222">
        <ele>1074</ele>
        <time>2015-11-15T08:02:52.550Z</time>
      </trkpt>
      <trkpt lat="45.29877" lon="6.24217">
        <ele>1074</ele>
        <time>2015-11-15T08:02:56.550Z</time>
      </trkpt>
      <trkpt lat="45.2988" lon="6.24212">
        <ele>1074</ele>
        <time>2015-11-15T08:03:00.550Z</time>
      </trkpt>
      <trkpt lat="45.29883" lon="6.24207">
        <ele>1074</ele>
        <time>2015-11-15T08:03:04.550Z</time>
      </trkpt>
      <trkpt lat="45.29886" lon="6.242">
        <ele>1074</ele>
        <time>2015-11-15T08:03:09.550Z</time>
      </trkpt>
      <trkpt lat="45.29887" lon="6.24191">
        <ele>1075</ele>
        <time>2015-11-15T08:03:14.550Z</time>
      </trkpt>
      <trkpt lat="45.2989" lon="6.24182">
        <ele>1075</ele>
        <time>2015-11-15T08:03:19.550Z</time>
      </trkpt>
      <trkpt lat="45.29891" lon="6.24173">
        <ele>1076</ele>
        <time>2015-11-15T08:03:23.550Z</time>
      </trkpt>
      <trkpt lat="45.2989" lon="6.24165">
        <ele>1076</ele>
        <time>2015-11-15T08:03:27.550Z</time>
      </trkpt>
      <trkpt lat="45.29887" lon="6.24155">
        <ele>1078</ele>
        <time>2015-11-15T08:03:31.550Z</time>
      </trkpt>
      <trkpt lat="45.29884" lon="6.24145">
        <ele>1078</ele>
        <time>2015-11-15T08:03:35.550Z</time>
      </trkpt>
      <trkpt lat="45.29882" lon="6.24136">
        <ele>1078</ele>
        <time>2015-11-15T08:03:39.550Z</time>
      </trkpt>
      <trkpt lat="45.29881" lon="6.24125">
        <ele>1079</ele>
        <time>2015-11-15T08:03:44.550Z</time>
      </trkpt>
      <trkpt lat="45.29879" lon="6.24114">
        <ele>1079</ele>
        <time>2015-11-15T08:03:49.550Z</time>
      </trkpt>
      <trkpt lat="45.29878" lon="6.24102">
        <ele>1081</ele>
        <time>2015-11-15T08:03:56.550Z</time>
      </trkpt>
      <trkpt lat="45.29876" lon="6.24091">
        <ele>1082</ele>
        <time>2015-11-15T08:04:02.550Z</time>
      </trkpt>
      <trkpt lat="45.29875" lon="6.24079">
        <ele>1082</ele>
        <time>2015-11-15T08:04:08.550Z</time>
      </trkpt>
      <trkpt lat="45.29872" lon="6.24069">
        <ele>1082</ele>
        <time>2015-11-15T08:04:13.550Z</time>
      </trkpt>
      <trkpt lat="45.29871" lon="6.24063">
        <ele>1082</ele>
        <time>2015-11-15T08:04:16.550Z</time>
      </trkpt>
      <trkpt lat="45.29869" lon="6.2406">
        <ele>1082</ele>
        <time>2015-11-15T08:04:18.550Z</time>
      </trkpt>
      <trkpt lat="45.29867" lon="6.24056">
        <ele>1084</ele>
        <time>2015-11-15T08:04:21.550Z</time>
      </trkpt>
      <trkpt lat="45.29863" lon="6.24053">
        <ele>1084</ele>
        <time>2015-11-15T08:04:24.550Z</time>
      </trkpt>
      <trkpt lat="45.29859" lon="6.24051">
        <ele>1084</ele>
        <time>2015-11-15T08:04:28.550Z</time>
      </trkpt>
      <trkpt lat="45.29855" lon="6.24052">
        <ele>1086</ele>
        <time>2015-11-15T08:04:31.550Z</time>
      </trkpt>
      <trkpt lat="45.2985" lon="6.24054">
        <ele>1086</ele>
        <time>2015-11-15T08:04:35.550Z</time>
      </trkpt>
      <trkpt lat="45.29845" lon="6.24056">
        <ele>1086</ele>
        <time>2015-11-15T08:04:39.550Z</time>
      </trkpt>
      <trkpt lat="45.29837" lon="6.24063">
        <ele>1087</ele>
        <time>2015-11-15T08:04:46.550Z</time>
      </trkpt>
      <trkpt lat="45.2983" lon="6.2407">
        <ele>1088</ele>
        <time>2015-11-15T08:04:53.550Z</time>
      </trkpt>
      <trkpt lat="45.29821" lon="6.24078">
        <ele>1088.5000064</ele>
        <time>2015-11-15T08:05:00.550Z</time>
      </trkpt>
      <trkpt lat="45.29815" lon="6.2408">
        <ele>1089</ele>
        <time>2015-11-15T08:05:05.550Z</time>
      </trkpt>
      <trkpt lat="45.29808" lon="6.24077">
        <ele>1089.5000064</ele>
        <time>2015-11-15T08:05:10.550Z</time>
      </trkpt>
      <trkpt lat="45.29804" lon="6.24074">
        <ele>1090</ele>
        <time>2015-11-15T08:05:13.550Z</time>
      </trkpt>
      <trkpt lat="45.29801" lon="6.2407">
        <ele>1090</ele>
        <time>2015-11-15T08:05:16.550Z</time>
      </trkpt>
      <trkpt lat="45.29797" lon="6.24065">
        <ele>1091.0000128</ele>
        <time>2015-11-15T08:05:20.550Z</time>
      </trkpt>
      <trkpt lat="45.29793" lon="6.24061">
        <ele>1092</ele>
        <time>2015-11-15T08:05:24.550Z</time>
      </trkpt>
      <trkpt lat="45.2979" lon="6.24057">
        <ele>1092</ele>
        <time>2015-11-15T08:05:27.550Z</time>
      </trkpt>
      <trkpt lat="45.29786" lon="6.24052">
        <ele>1092.4134646154</ele>
        <time>2015-11-15T08:05:31.550Z</time>
      </trkpt>
      <trkpt lat="45.29782" lon="6.24047">
        <ele>1093</ele>
        <time>2015-11-15T08:05:35.550Z</time>
      </trkpt>
      <trkpt lat="45.29779" lon="6.24044">
        <ele>1093</ele>
        <time>2015-11-15T08:05:39.550Z</time>
      </trkpt>
      <trkpt lat="45.29774" lon="6.24041">
        <ele>1092</ele>
        <time>2015-11-15T08:05:44.550Z</time>
      </trkpt>
      <trkpt lat="45.2977" lon="6.24042">
        <ele>1093</ele>
        <time>2015-11-15T08:05:51.550Z</time>
      </trkpt>
      <trkpt lat="45.29767" lon="6.2403">
        <ele>1092</ele>
        <time>2015-11-15T08:06:58.550Z</time>
      </trkpt>
      <trkpt lat="45.29762" lon="6.24017">
        <ele>1093</ele>
        <time>2015-11-15T08:07:04.550Z</time>
      </trkpt>
      <trkpt lat="45.29757" lon="6.24008">
        <ele>1093</ele>
        <time>2015-11-15T08:07:09.550Z</time>
      </trkpt>
      <trkpt lat="45.29755" lon="6.24002">
        <ele>1093.8000180707</ele>
        <time>2015-11-15T08:07:12.550Z</time>
      </trkpt>
      <trkpt lat="45.29753" lon="6.23996">
        <ele>1095</ele>
        <time>2015-11-15T08:07:15.550Z</time>
      </trkpt>
      <trkpt lat="45.29752" lon="6.23989">
        <ele>1095</ele>
        <time>2015-11-15T08:07:18.550Z</time>
      </trkpt>
      <trkpt lat="45.29751" lon="6.2398">
        <ele>1095.4574533273</ele>
        <time>2015-11-15T08:07:22.550Z</time>
      </trkpt>
      <trkpt lat="45.29752" lon="6.2397">
        <ele>1096</ele>
        <time>2015-11-15T08:07:27.550Z</time>
      </trkpt>
      <trkpt lat="45.29754" lon="6.23961">
        <ele>1096.3900032</ele>
        <time>2015-11-15T08:07:32.550Z</time>
      </trkpt>
      <trkpt lat="45.29755" lon="6.23953">
        <ele>1097</ele>
        <time>2015-11-15T08:07:36.550Z</time>
      </trkpt>
      <trkpt lat="45.29757" lon="6.23944">
        <ele>1096</ele>
        <time>2015-11-15T08:07:40.550Z</time>
      </trkpt>
      <trkpt lat="45.29756" lon="6.23935">
        <ele>1097</ele>
        <time>2015-11-15T08:07:44.550Z</time>
      </trkpt>
      <trkpt lat="45.29754" lon="6.23925">
        <ele>1097</ele>
        <time>2015-11-15T08:07:48.550Z</time>
      </trkpt>
      <trkpt lat="45.29751" lon="6.23917">
        <ele>1098</ele>
        <time>2015-11-15T08:07:52.550Z</time>
      </trkpt>
      <trkpt lat="45.29747" lon="6.23914">
        <ele>1098</ele>
        <time>2015-11-15T08:07:55.550Z</time>
      </trkpt>
      <trkpt lat="45.29743" lon="6.2391">
        <ele>1098</ele>
        <time>2015-11-15T08:07:58.550Z</time>
      </trkpt>
      <trkpt lat="45.29739" lon="6.23907">
        <ele>1099</ele>
        <time>2015-11-15T08:08:01.550Z</time>
      </trkpt>
      <trkpt lat="45.29735" lon="6.23903">
        <ele>1099</ele>
        <time>2015-11-15T08:08:04.550Z</time>
      </trkpt>
      <trkpt lat="45.29732" lon="6.23897">
        <ele>1099</ele>
        <time>2015-11-15T08:08:07.550Z</time>
      </trkpt>
      <trkpt lat="45.29731" lon="6.2389">
        <ele>1099</ele>
        <time>2015-11-15T08:08:10.550Z</time>
      </trkpt>
      <trkpt lat="45.29732" lon="6.23883">
        <ele>1101</ele>
        <time>2015-11-15T08:08:13.550Z</time>
      </trkpt>
      <trkpt lat="45.29733" lon="6.23877">
        <ele>1101</ele>
        <time>2015-11-15T08:08:16.550Z</time>
      </trkpt>
      <trkpt lat="45.29734" lon="6.23871">
        <ele>1101</ele>
        <time>2015-11-15T08:08:19.550Z</time>
      </trkpt>
      <trkpt lat="45.29736" lon="6.23863">
        <ele>1102</ele>
        <time>2015-11-15T08:08:23.550Z</time>
      </trkpt>
      <trkpt lat="45.29738" lon="6.23855">
        <ele>1102</ele>
        <time>2015-11-15T08:08:27.550Z</time>
      </trkpt>
      <trkpt lat="45.2974" lon="6.23847">
        <ele>1102.9052668454</ele>
        <time>2015-11-15T08:08:31.550Z</time>
      </trkpt>
      <trkpt lat="45.29739" lon="6.23838">
        <ele>1104</ele>
        <time>2015-11-15T08:08:35.550Z</time>
      </trkpt>
      <trkpt lat="45.29738" lon="6.23831">
        <ele>1104</ele>
        <time>2015-11-15T08:08:38.550Z</time>
      </trkpt>
      <trkpt lat="45.29735" lon="6.23825">
        <ele>1104.4095281052</ele>
        <time>2015-11-15T08:08:41.550Z</time>
      </trkpt>
      <trkpt lat="45.29732" lon="6.23822">
        <ele>1104</ele>
        <time>2015-11-15T08:08:44.550Z</time>
      </trkpt>
      <trkpt lat="45.29728" lon="6.23819">
        <ele>1104</ele>
        <time>2015-11-15T08:08:47.550Z</time>
      </trkpt>
      <trkpt lat="45.29725" lon="6.23817">
        <ele>1104</ele>
        <time>2015-11-15T08:08:49.550Z</time>
      </trkpt>
      <trkpt lat="45.29721" lon="6.23816">
        <ele>1105</ele>
        <time>2015-11-15T08:08:51.550Z</time>
      </trkpt>
      <trkpt lat="45.29718" lon="6.23814">
        <ele>1105</ele>
        <time>2015-11-15T08:08:53.550Z</time>
      </trkpt>
      <trkpt lat="45.29715" lon="6.2381">
        <ele>1105</ele>
        <time>2015-11-15T08:08:55.550Z</time>
      </trkpt>
      <trkpt lat="45.29713" lon="6.23806">
        <ele>1105</ele>
        <time>2015-11-15T08:08:57.550Z</time>
      </trkpt>
      <trkpt lat="45.29711" lon="6.23801">
        <ele>1105</ele>
        <time>2015-11-15T08:08:59.550Z</time>
      </trkpt>
      <trkpt lat="45.2971" lon="6.23793">
        <ele>1107</ele>
        <time>2015-11-15T08:09:02.550Z</time>
      </trkpt>
      <trkpt lat="45.2971" lon="6.23785">
        <ele>1107</ele>
        <time>2015-11-15T08:09:05.550Z</time>
      </trkpt>
      <trkpt lat="45.29712" lon="6.23775">
        <ele>1107</ele>
        <time>2015-11-15T08:09:10.550Z</time>
      </trkpt>
      <trkpt lat="45.29713" lon="6.23763">
        <ele>1108</ele>
        <time>2015-11-15T08:09:15.550Z</time>
      </trkpt>
      <trkpt lat="45.29714" lon="6.23753">
        <ele>1108</ele>
        <time>2015-11-15T08:09:19.550Z</time>
      </trkpt>
      <trkpt lat="45.29715" lon="6.23741">
        <ele>1109</ele>
        <time>2015-11-15T08:09:23.550Z</time>
      </trkpt>
      <trkpt lat="45.29716" lon="6.2373">
        <ele>1109</ele>
        <time>2015-11-15T08:09:27.550Z</time>
      </trkpt>
      <trkpt lat="45.29717" lon="6.2372">
        <ele>1109</ele>
        <time>2015-11-15T08:09:31.550Z</time>
      </trkpt>
      <trkpt lat="45.29718" lon="6.23709">
        <ele>1111</ele>
        <time>2015-11-15T08:09:35.550Z</time>
      </trkpt>
      <trkpt lat="45.29719" lon="6.237">
        <ele>1111</ele>
        <time>2015-11-15T08:09:39.550Z</time>
      </trkpt>
      <trkpt lat="45.29719" lon="6.23691">
        <ele>1111.39584</ele>
        <time>2015-11-15T08:09:42.550Z</time>
      </trkpt>
      <trkpt lat="45.2972" lon="6.23684">
        <ele>1112</ele>
        <time>2015-11-15T08:09:45.550Z</time>
      </trkpt>
      <trkpt lat="45.2972" lon="6.23674">
        <ele>1112</ele>
        <time>2015-11-15T08:09:48.550Z</time>
      </trkpt>
      <trkpt lat="45.29721" lon="6.23668">
        <ele>1112</ele>
        <time>2015-11-15T08:09:50.550Z</time>
      </trkpt>
      <trkpt lat="45.2972" lon="6.23658">
        <ele>1113</ele>
        <time>2015-11-15T08:09:53.550Z</time>
      </trkpt>
      <trkpt lat="45.29719" lon="6.2365">
        <ele>1113</ele>
        <time>2015-11-15T08:09:55.550Z</time>
      </trkpt>
      <trkpt lat="45.29715" lon="6.23636">
        <ele>1113</ele>
        <time>2015-11-15T08:09:59.550Z</time>
      </trkpt>
      <trkpt lat="45.29709" lon="6.2362">
        <ele>1112</ele>
        <time>2015-11-15T08:10:03.550Z</time>
      </trkpt>
      <trkpt lat="45.29705" lon="6.23608">
        <ele>1112</ele>
        <time>2015-11-15T08:10:06.550Z</time>
      </trkpt>
      <trkpt lat="45.29702" lon="6.236">
        <ele>1112</ele>
        <time>2015-11-15T08:10:08.550Z</time>
      </trkpt>
      <trkpt lat="45.29699" lon="6.23591">
        <ele>1112</ele>
        <time>2015-11-15T08:10:10.550Z</time>
      </trkpt>
      <trkpt lat="45.29696" lon="6.23583">
        <ele>1112</ele>
        <time>2015-11-15T08:10:12.550Z</time>
      </trkpt>
      <trkpt lat="45.29692" lon="6.23569">
        <ele>1112</ele>
        <time>2015-11-15T08:10:15.550Z</time>
      </trkpt>
      <trkpt lat="45.29688" lon="6.23554">
        <ele>1112</ele>
        <time>2015-11-15T08:10:18.550Z</time>
      </trkpt>
      <trkpt lat="45.29685" lon="6.23539">
        <ele>1111</ele>
        <time>2015-11-15T08:10:21.550Z</time>
      </trkpt>
      <trkpt lat="45.29682" lon="6.23522">
        <ele>1111</ele>
        <time>2015-11-15T08:10:24.550Z</time>
      </trkpt>
      <trkpt lat="45.29679" lon="6.23505">
        <ele>1111</ele>
        <time>2015-11-15T08:10:27.550Z</time>
      </trkpt>
      <trkpt lat="45.29676" lon="6.23488">
        <ele>1111</ele>
        <time>2015-11-15T08:10:30.550Z</time>
      </trkpt>
      <trkpt lat="45.29673" lon="6.23472">
        <ele>1111</ele>
        <time>2015-11-15T08:10:33.550Z</time>
      </trkpt>
      <trkpt lat="45.2967" lon="6.23456">
        <ele>1111</ele>
        <time>2015-11-15T08:10:36.550Z</time>
      </trkpt>
      <trkpt lat="45.29666" lon="6.2344">
        <ele>1111</ele>
        <time>2015-11-15T08:10:39.550Z</time>
      </trkpt>
      <trkpt lat="45.29664" lon="6.23424">
        <ele>1109</ele>
        <time>2015-11-15T08:10:42.550Z</time>
      </trkpt>
      <trkpt lat="45.29663" lon="6.23409">
        <ele>1109</ele>
        <time>2015-11-15T08:10:45.550Z</time>
      </trkpt>
      <trkpt lat="45.29663" lon="6.23394">
        <ele>1109</ele>
        <time>2015-11-15T08:10:48.550Z</time>
      </trkpt>
      <trkpt lat="45.29663" lon="6.23379">
        <ele>1109</ele>
        <time>2015-11-15T08:10:51.550Z</time>
      </trkpt>
      <trkpt lat="45.29664" lon="6.23364">
        <ele>1109</ele>
        <time>2015-11-15T08:10:54.550Z</time>
      </trkpt>
      <trkpt lat="45.29666" lon="6.2335">
        <ele>1109</ele>
        <time>2015-11-15T08:10:57.550Z</time>
      </trkpt>
      <trkpt lat="45.29667" lon="6.23334">
        <ele>1109</ele>
        <time>2015-11-15T08:11:00.550Z</time>
      </trkpt>
      <trkpt lat="45.29668" lon="6.23319">
        <ele>1109</ele>
        <time>2015-11-15T08:11:03.550Z</time>
      </trkpt>
      <trkpt lat="45.29668" lon="6.23304">
        <ele>1109</ele>
        <time>2015-11-15T08:11:06.550Z</time>
      </trkpt>
      <trkpt lat="45.29669" lon="6.23288">
        <ele>1109</ele>
        <time>2015-11-15T08:11:09.550Z</time>
      </trkpt>
      <trkpt lat="45.29669" lon="6.23274">
        <ele>1109</ele>
        <time>2015-11-15T08:11:12.550Z</time>
      </trkpt>
      <trkpt lat="45.29671" lon="6.23256">
        <ele>1109</ele>
        <time>2015-11-15T08:11:16.550Z</time>
      </trkpt>
      <trkpt lat="45.29671" lon="6.2324">
        <ele>1109</ele>
        <time>2015-11-15T08:11:19.550Z</time>
      </trkpt>
      <trkpt lat="45.2967" lon="6.23225">
        <ele>1108.6099968</ele>
        <time>2015-11-15T08:11:22.550Z</time>
      </trkpt>
      <trkpt lat="45.29667" lon="6.2321">
        <ele>1108</ele>
        <time>2015-11-15T08:11:25.550Z</time>
      </trkpt>
      <trkpt lat="45.29659" lon="6.23197">
        <ele>1108</ele>
        <time>2015-11-15T08:11:28.550Z</time>
      </trkpt>
      <trkpt lat="45.29648" lon="6.23191">
        <ele>1108</ele>
        <time>2015-11-15T08:11:31.550Z</time>
      </trkpt>
      <trkpt lat="45.29639" lon="6.23185">
        <ele>1107</ele>
        <time>2015-11-15T08:11:33.550Z</time>
      </trkpt>
      <trkpt lat="45.29632" lon="6.23174">
        <ele>1107</ele>
        <time>2015-11-15T08:11:35.550Z</time>
      </trkpt>
      <trkpt lat="45.29628" lon="6.23159">
        <ele>1107</ele>
        <time>2015-11-15T08:11:37.550Z</time>
      </trkpt>
      <trkpt lat="45.29625" lon="6.23145">
        <ele>1107</ele>
        <time>2015-11-15T08:11:39.550Z</time>
      </trkpt>
      <trkpt lat="45.2962" lon="6.2313">
        <ele>1107</ele>
        <time>2015-11-15T08:11:41.550Z</time>
      </trkpt>
      <trkpt lat="45.29616" lon="6.23115">
        <ele>1103</ele>
        <time>2015-11-15T08:11:43.550Z</time>
      </trkpt>
      <trkpt lat="45.2961" lon="6.231">
        <ele>1103</ele>
        <time>2015-11-15T08:11:45.550Z</time>
      </trkpt>
      <trkpt lat="45.29603" lon="6.23086">
        <ele>1101.0263187442</ele>
        <time>2015-11-15T08:11:47.550Z</time>
      </trkpt>
      <trkpt lat="45.29596" lon="6.23072">
        <ele>1098</ele>
        <time>2015-11-15T08:11:49.550Z</time>
      </trkpt>
      <trkpt lat="45.29587" lon="6.23059">
        <ele>1096.3999886221</ele>
        <time>2015-11-15T08:11:51.550Z</time>
      </trkpt>
      <trkpt lat="45.29579" lon="6.23045">
        <ele>1094</ele>
        <time>2015-11-15T08:11:53.550Z</time>
      </trkpt>
      <trkpt lat="45.2957" lon="6.23031">
        <ele>1094</ele>
        <time>2015-11-15T08:11:55.550Z</time>
      </trkpt>
      <trkpt lat="45.29561" lon="6.23017">
        <ele>1092.9666633482</ele>
        <time>2015-11-15T08:11:57.550Z</time>
      </trkpt>
      <trkpt lat="45.29551" lon="6.23002">
        <ele>1090.1228007141</ele>
        <time>2015-11-15T08:11:59.550Z</time>
      </trkpt>
      <trkpt lat="45.29541" lon="6.22988">
        <ele>1088.17856</ele>
        <time>2015-11-15T08:12:01.550Z</time>
      </trkpt>
      <trkpt lat="45.29531" lon="6.22971">
        <ele>1086.5981290523</ele>
        <time>2015-11-15T08:12:03.550Z</time>
      </trkpt>
      <trkpt lat="45.29521" lon="6.22955">
        <ele>1084.7999866435</ele>
        <time>2015-11-15T08:12:05.550Z</time>
      </trkpt>
      <trkpt lat="45.29512" lon="6.22937">
        <ele>1081</ele>
        <time>2015-11-15T08:12:07.550Z</time>
      </trkpt>
      <trkpt lat="45.29502" lon="6.22918">
        <ele>1079.588889521</ele>
        <time>2015-11-15T08:12:09.550Z</time>
      </trkpt>
      <trkpt lat="45.29492" lon="6.22898">
        <ele>1078.2307649028</ele>
        <time>2015-11-15T08:12:11.550Z</time>
      </trkpt>
      <trkpt lat="45.29485" lon="6.22888">
        <ele>1077</ele>
        <time>2015-11-15T08:12:12.550Z</time>
      </trkpt>
      <trkpt lat="45.29478" lon="6.22878">
        <ele>1076.1648240358</ele>
        <time>2015-11-15T08:12:13.550Z</time>
      </trkpt>
      <trkpt lat="45.2947" lon="6.22868">
        <ele>1075</ele>
        <time>2015-11-15T08:12:14.550Z</time>
      </trkpt>
      <trkpt lat="45.29462" lon="6.2286">
        <ele>1074.0210458239</ele>
        <time>2015-11-15T08:12:15.550Z</time>
      </trkpt>
      <trkpt lat="45.29453" lon="6.22852">
        <ele>1072</ele>
        <time>2015-11-15T08:12:16.550Z</time>
      </trkpt>
      <trkpt lat="45.29444" lon="6.22843">
        <ele>1071.5855810145</ele>
        <time>2015-11-15T08:12:17.550Z</time>
      </trkpt>
      <trkpt lat="45.29425" lon="6.22827">
        <ele>1071</ele>
        <time>2015-11-15T08:12:19.550Z</time>
      </trkpt>
      <trkpt lat="45.29416" lon="6.22819">
        <ele>1071</ele>
        <time>2015-11-15T08:12:20.550Z</time>
      </trkpt>
      <trkpt lat="45.29407" lon="6.22811">
        <ele>1071</ele>
        <time>2015-11-15T08:12:21.550Z</time>
      </trkpt>
      <trkpt lat="45.29399" lon="6.22804">
        <ele>1071</ele>
        <time>2015-11-15T08:12:22.550Z</time>
      </trkpt>
      <trkpt lat="45.29391" lon="6.22798">
        <ele>1071</ele>
        <time>2015-11-15T08:12:23.550Z</time>
      </trkpt>
      <trkpt lat="45.29383" lon="6.22794">
        <ele>1071</ele>
        <time>2015-11-15T08:12:24.550Z</time>
      </trkpt>
      <trkpt lat="45.2936" lon="6.2279">
        <ele>1071</ele>
        <time>2015-11-15T08:12:27.550Z</time>
      </trkpt>
      <trkpt lat="45.29347" lon="6.22792">
        <ele>1071</ele>
        <time>2015-11-15T08:12:29.550Z</time>
      </trkpt>
      <trkpt lat="45.29336" lon="6.22799">
        <ele>1071</ele>
        <time>2015-11-15T08:12:31.550Z</time>
      </trkpt>
      <trkpt lat="45.2933" lon="6.2281">
        <ele>1071</ele>
        <time>2015-11-15T08:12:33.550Z</time>
      </trkpt>
      <trkpt lat="45.29328" lon="6.22816">
        <ele>1071</ele>
        <time>2015-11-15T08:12:34.550Z</time>
      </trkpt>
      <trkpt lat="45.29327" lon="6.22822">
        <ele>1071</ele>
        <time>2015-11-15T08:12:35.550Z</time>
      </trkpt>
      <trkpt lat="45.29327" lon="6.22829">
        <ele>1071</ele>
        <time>2015-11-15T08:12:36.550Z</time>
      </trkpt>
      <trkpt lat="45.29327" lon="6.22835">
        <ele>1071</ele>
        <time>2015-11-15T08:12:37.550Z</time>
      </trkpt>
      <trkpt lat="45.29326" lon="6.22841">
        <ele>1071</ele>
        <time>2015-11-15T08:12:38.550Z</time>
      </trkpt>
      <trkpt lat="45.29326" lon="6.22848">
        <ele>1071</ele>
        <time>2015-11-15T08:12:39.550Z</time>
      </trkpt>
      <trkpt lat="45.29326" lon="6.22854">
        <ele>1071</ele>
        <time>2015-11-15T08:12:40.550Z</time>
      </trkpt>
      <trkpt lat="45.29325" lon="6.22859">
        <ele>1071.9423261538</ele>
        <time>2015-11-15T08:12:41.550Z</time>
      </trkpt>
      <trkpt lat="45.29324" lon="6.22865">
        <ele>1073</ele>
        <time>2015-11-15T08:12:42.550Z</time>
      </trkpt>
      <trkpt lat="45.29322" lon="6.22873">
        <ele>1073</ele>
        <time>2015-11-15T08:12:44.550Z</time>
      </trkpt>
      <trkpt lat="45.2932" lon="6.2288">
        <ele>1073</ele>
        <time>2015-11-15T08:12:46.550Z</time>
      </trkpt>
      <trkpt lat="45.29315" lon="6.22887">
        <ele>1073</ele>
        <time>2015-11-15T08:12:49.550Z</time>
      </trkpt>
      <trkpt lat="45.2931" lon="6.22896">
        <ele>1073</ele>
        <time>2015-11-15T08:12:52.550Z</time>
      </trkpt>
      <trkpt lat="45.29306" lon="6.22901">
        <ele>1073</ele>
        <time>2015-11-15T08:12:54.550Z</time>
      </trkpt>
      <trkpt lat="45.29303" lon="6.22906">
        <ele>1073</ele>
        <time>2015-11-15T08:12:56.550Z</time>
      </trkpt>
      <trkpt lat="45.29301" lon="6.22911">
        <ele>1073</ele>
        <time>2015-11-15T08:12:58.550Z</time>
      </trkpt>
      <trkpt lat="45.29298" lon="6.22921">
        <ele>1073.9333430856</ele>
        <time>2015-11-15T08:13:01.550Z</time>
      </trkpt>
      <trkpt lat="45.29297" lon="6.2293">
        <ele>1075</ele>
        <time>2015-11-15T08:13:04.550Z</time>
      </trkpt>
      <trkpt lat="45.29298" lon="6.22936">
        <ele>1075</ele>
        <time>2015-11-15T08:13:06.550Z</time>
      </trkpt>
      <trkpt lat="45.293" lon="6.22944">
        <ele>1075</ele>
        <time>2015-11-15T08:13:09.550Z</time>
      </trkpt>
      <trkpt lat="45.29303" lon="6.22951">
        <ele>1075.8380977923</ele>
        <time>2015-11-15T08:13:12.550Z</time>
      </trkpt>
      <trkpt lat="45.29307" lon="6.22956">
        <ele>1077</ele>
        <time>2015-11-15T08:13:15.550Z</time>
      </trkpt>
      <trkpt lat="45.29311" lon="6.22961">
        <ele>1077</ele>
        <time>2015-11-15T08:13:18.550Z</time>
      </trkpt>
      <trkpt lat="45.29315" lon="6.22967">
        <ele>1077</ele>
        <time>2015-11-15T08:13:21.550Z</time>
      </trkpt>
      <trkpt lat="45.29319" lon="6.22972">
        <ele>1079</ele>
        <time>2015-11-15T08:13:24.550Z</time>
      </trkpt>
      <trkpt lat="45.29322" lon="6.22977">
        <ele>1079</ele>
        <time>2015-11-15T08:13:27.550Z</time>
      </trkpt>
      <trkpt lat="45.29326" lon="6.22981">
        <ele>1079</ele>
        <time>2015-11-15T08:13:30.550Z</time>
      </trkpt>
      <trkpt lat="45.29331" lon="6.22985">
        <ele>1081</ele>
        <time>2015-11-15T08:13:33.550Z</time>
      </trkpt>
      <trkpt lat="45.29335" lon="6.22989">
        <ele>1081</ele>
        <time>2015-11-15T08:13:36.550Z</time>
      </trkpt>
      <trkpt lat="45.2934" lon="6.22993">
        <ele>1081</ele>
        <time>2015-11-15T08:13:39.550Z</time>
      </trkpt>
      <trkpt lat="45.29344" lon="6.22996">
        <ele>1081.7600128</ele>
        <time>2015-11-15T08:13:42.550Z</time>
      </trkpt>
      <trkpt lat="45.29348" lon="6.22998">
        <ele>1083</ele>
        <time>2015-11-15T08:13:45.550Z</time>
      </trkpt>
      <trkpt lat="45.29352" lon="6.23001">
        <ele>1083</ele>
        <time>2015-11-15T08:13:48.550Z</time>
      </trkpt>
      <trkpt lat="45.29359" lon="6.23006">
        <ele>1085</ele>
        <time>2015-11-15T08:13:53.550Z</time>
      </trkpt>
      <trkpt lat="45.29362" lon="6.23011">
        <ele>1085</ele>
        <time>2015-11-15T08:13:56.550Z</time>
      </trkpt>
      <trkpt lat="45.29366" lon="6.23016">
        <ele>1085.7111161679</ele>
        <time>2015-11-15T08:14:00.550Z</time>
      </trkpt>
      <trkpt lat="45.29368" lon="6.23022">
        <ele>1087</ele>
        <time>2015-11-15T08:14:03.550Z</time>
      </trkpt>
      <trkpt lat="45.2937" lon="6.23028">
        <ele>1087</ele>
        <time>2015-11-15T08:14:06.550Z</time>
      </trkpt>
      <trkpt lat="45.29372" lon="6.23035">
        <ele>1087</ele>
        <time>2015-11-15T08:14:09.550Z</time>
      </trkpt>
      <trkpt lat="45.29372" lon="6.23043">
        <ele>1087</ele>
        <time>2015-11-15T08:14:12.550Z</time>
      </trkpt>
      <trkpt lat="45.29372" lon="6.23049">
        <ele>1087</ele>
        <time>2015-11-15T08:14:15.550Z</time>
      </trkpt>
      <trkpt lat="45.29372" lon="6.23056">
        <ele>1087</ele>
        <time>2015-11-15T08:14:18.550Z</time>
      </trkpt>
      <trkpt lat="45.29373" lon="6.23063">
        <ele>1088</ele>
        <time>2015-11-15T08:14:21.550Z</time>
      </trkpt>
      <trkpt lat="45.29374" lon="6.23075">
        <ele>1088</ele>
        <time>2015-11-15T08:14:25.550Z</time>
      </trkpt>
      <trkpt lat="45.29375" lon="6.23085">
        <ele>1088</ele>
        <time>2015-11-15T08:14:28.550Z</time>
      </trkpt>
      <trkpt lat="45.29376" lon="6.23093">
        <ele>1088</ele>
        <time>2015-11-15T08:14:30.550Z</time>
      </trkpt>
      <trkpt lat="45.29377" lon="6.23101">
        <ele>1088</ele>
        <time>2015-11-15T08:14:32.550Z</time>
      </trkpt>
      <trkpt lat="45.29377" lon="6.2311">
        <ele>1088</ele>
        <time>2015-11-15T08:14:34.550Z</time>
      </trkpt>
      <trkpt lat="45.29377" lon="6.23118">
        <ele>1088</ele>
        <time>2015-11-15T08:14:36.550Z</time>
      </trkpt>
      <trkpt lat="45.29376" lon="6.23129">
        <ele>1088</ele>
        <time>2015-11-15T08:14:39.550Z</time>
      </trkpt>
      <trkpt lat="45.29375" lon="6.23136">
        <ele>1088</ele>
        <time>2015-11-15T08:14:41.550Z</time>
      </trkpt>
      <trkpt lat="45.29373" lon="6.23143">
        <ele>1088</ele>
        <time>2015-11-15T08:14:43.550Z</time>
      </trkpt>
      <trkpt lat="45.2937" lon="6.23153">
        <ele>1088</ele>
        <time>2015-11-15T08:14:46.550Z</time>
      </trkpt>
      <trkpt lat="45.29368" lon="6.2316">
        <ele>1088</ele>
        <time>2015-11-15T08:14:48.550Z</time>
      </trkpt>
      <trkpt lat="45.29366" lon="6.23166">
        <ele>1088</ele>
        <time>2015-11-15T08:14:50.550Z</time>
      </trkpt>
      <trkpt lat="45.29364" lon="6.23174">
        <ele>1088</ele>
        <time>2015-11-15T08:14:52.550Z</time>
      </trkpt>
      <trkpt lat="45.29363" lon="6.23181">
        <ele>1088</ele>
        <time>2015-11-15T08:14:54.550Z</time>
      </trkpt>
      <trkpt lat="45.29362" lon="6.23188">
        <ele>1088</ele>
        <time>2015-11-15T08:14:56.550Z</time>
      </trkpt>
      <trkpt lat="45.29361" lon="6.23196">
        <ele>1088</ele>
        <time>2015-11-15T08:14:58.550Z</time>
      </trkpt>
      <trkpt lat="45.29361" lon="6.23203">
        <ele>1088</ele>
        <time>2015-11-15T08:15:00.550Z</time>
      </trkpt>
      <trkpt lat="45.29361" lon="6.23211">
        <ele>1089</ele>
        <time>2015-11-15T08:15:02.550Z</time>
      </trkpt>
      <trkpt lat="45.29361" lon="6.23218">
        <ele>1089</ele>
        <time>2015-11-15T08:15:04.550Z</time>
      </trkpt>
      <trkpt lat="45.29361" lon="6.23226">
        <ele>1089</ele>
        <time>2015-11-15T08:15:06.550Z</time>
      </trkpt>
      <trkpt lat="45.29361" lon="6.23233">
        <ele>1089</ele>
        <time>2015-11-15T08:15:08.550Z</time>
      </trkpt>
      <trkpt lat="45.29362" lon="6.2324">
        <ele>1089</ele>
        <time>2015-11-15T08:15:10.550Z</time>
      </trkpt>
      <trkpt lat="45.29363" lon="6.23246">
        <ele>1089.355558084</ele>
        <time>2015-11-15T08:15:12.550Z</time>
      </trkpt>
      <trkpt lat="45.29364" lon="6.23253">
        <ele>1090</ele>
        <time>2015-11-15T08:15:14.550Z</time>
      </trkpt>
      <trkpt lat="45.29366" lon="6.2326">
        <ele>1090</ele>
        <time>2015-11-15T08:15:16.550Z</time>
      </trkpt>
      <trkpt lat="45.29368" lon="6.23267">
        <ele>1090</ele>
        <time>2015-11-15T08:15:18.550Z</time>
      </trkpt>
      <trkpt lat="45.29371" lon="6.23274">
        <ele>1090</ele>
        <time>2015-11-15T08:15:20.550Z</time>
      </trkpt>
      <trkpt lat="45.29373" lon="6.23281">
        <ele>1090</ele>
        <time>2015-11-15T08:15:22.550Z</time>
      </trkpt>
      <trkpt lat="45.29376" lon="6.23288">
        <ele>1090</ele>
        <time>2015-11-15T08:15:24.550Z</time>
      </trkpt>
      <trkpt lat="45.29378" lon="6.23295">
        <ele>1090</ele>
        <time>2015-11-15T08:15:26.550Z</time>
      </trkpt>
      <trkpt lat="45.29381" lon="6.23302">
        <ele>1090</ele>
        <time>2015-11-15T08:15:28.550Z</time>
      </trkpt>
      <trkpt lat="45.29383" lon="6.23309">
        <ele>1090</ele>
        <time>2015-11-15T08:15:30.550Z</time>
      </trkpt>
      <trkpt lat="45.29386" lon="6.23316">
        <ele>1090.3925281719</ele>
        <time>2015-11-15T08:15:32.550Z</time>
      </trkpt>
      <trkpt lat="45.29388" lon="6.23324">
        <ele>1091</ele>
        <time>2015-11-15T08:15:34.550Z</time>
      </trkpt>
      <trkpt lat="45.29391" lon="6.23332">
        <ele>1091</ele>
        <time>2015-11-15T08:15:36.550Z</time>
      </trkpt>
      <trkpt lat="45.29393" lon="6.23341">
        <ele>1091</ele>
        <time>2015-11-15T08:15:38.550Z</time>
      </trkpt>
      <trkpt lat="45.29396" lon="6.23351">
        <ele>1091</ele>
        <time>2015-11-15T08:15:40.550Z</time>
      </trkpt>
      <trkpt lat="45.29397" lon="6.23361">
        <ele>1091</ele>
        <time>2015-11-15T08:15:42.550Z</time>
      </trkpt>
      <trkpt lat="45.29398" lon="6.23371">
        <ele>1091</ele>
        <time>2015-11-15T08:15:44.550Z</time>
      </trkpt>
      <trkpt lat="45.29398" lon="6.23381">
        <ele>1091</ele>
        <time>2015-11-15T08:15:46.550Z</time>
      </trkpt>
      <trkpt lat="45.29398" lon="6.23391">
        <ele>1091</ele>
        <time>2015-11-15T08:15:48.550Z</time>
      </trkpt>
      <trkpt lat="45.29398" lon="6.234">
        <ele>1091</ele>
        <time>2015-11-15T08:15:50.550Z</time>
      </trkpt>
      <trkpt lat="45.29398" lon="6.23409">
        <ele>1091</ele>
        <time>2015-11-15T08:15:52.550Z</time>
      </trkpt>
      <trkpt lat="45.29397" lon="6.23419">
        <ele>1091</ele>
        <time>2015-11-15T08:15:54.550Z</time>
      </trkpt>
      <trkpt lat="45.29397" lon="6.23428">
        <ele>1091</ele>
        <time>2015-11-15T08:15:56.550Z</time>
      </trkpt>
      <trkpt lat="45.29397" lon="6.23436">
        <ele>1091</ele>
        <time>2015-11-15T08:15:58.550Z</time>
      </trkpt>
      <trkpt lat="45.29398" lon="6.23444">
        <ele>1091.3444504494</ele>
        <time>2015-11-15T08:16:00.550Z</time>
      </trkpt>
      <trkpt lat="45.29398" lon="6.23452">
        <ele>1092</ele>
        <time>2015-11-15T08:16:02.550Z</time>
      </trkpt>
      <trkpt lat="45.29399" lon="6.2346">
        <ele>1092</ele>
        <time>2015-11-15T08:16:04.550Z</time>
      </trkpt>
      <trkpt lat="45.294" lon="6.23464">
        <ele>1092</ele>
        <time>2015-11-15T08:16:05.550Z</time>
      </trkpt>
      <trkpt lat="45.29401" lon="6.23468">
        <ele>1092</ele>
        <time>2015-11-15T08:16:06.550Z</time>
      </trkpt>
      <trkpt lat="45.29402" lon="6.23472">
        <ele>1092</ele>
        <time>2015-11-15T08:16:07.550Z</time>
      </trkpt>
      <trkpt lat="45.29402" lon="6.23476">
        <ele>1092</ele>
        <time>2015-11-15T08:16:08.550Z</time>
      </trkpt>
      <trkpt lat="45.29403" lon="6.2348">
        <ele>1092</ele>
        <time>2015-11-15T08:16:09.550Z</time>
      </trkpt>
      <trkpt lat="45.29404" lon="6.23488">
        <ele>1092.44</ele>
        <time>2015-11-15T08:16:11.550Z</time>
      </trkpt>
      <trkpt lat="45.29405" lon="6.23493">
        <ele>1093</ele>
        <time>2015-11-15T08:16:12.550Z</time>
      </trkpt>
      <trkpt lat="45.29406" lon="6.23501">
        <ele>1093</ele>
        <time>2015-11-15T08:16:14.550Z</time>
      </trkpt>
      <trkpt lat="45.29407" lon="6.23509">
        <ele>1093</ele>
        <time>2015-11-15T08:16:16.550Z</time>
      </trkpt>
      <trkpt lat="45.29408" lon="6.23517">
        <ele>1093</ele>
        <time>2015-11-15T08:16:18.550Z</time>
      </trkpt>
      <trkpt lat="45.29408" lon="6.23525">
        <ele>1093</ele>
        <time>2015-11-15T08:16:20.550Z</time>
      </trkpt>
      <trkpt lat="45.29407" lon="6.23533">
        <ele>1094</ele>
        <time>2015-11-15T08:16:22.550Z</time>
      </trkpt>
      <trkpt lat="45.29406" lon="6.2354">
        <ele>1094</ele>
        <time>2015-11-15T08:16:24.550Z</time>
      </trkpt>
      <trkpt lat="45.29405" lon="6.23548">
        <ele>1094</ele>
        <time>2015-11-15T08:16:26.550Z</time>
      </trkpt>
      <trkpt lat="45.29403" lon="6.23555">
        <ele>1094</ele>
        <time>2015-11-15T08:16:28.550Z</time>
      </trkpt>
      <trkpt lat="45.29402" lon="6.23563">
        <ele>1094</ele>
        <time>2015-11-15T08:16:30.550Z</time>
      </trkpt>
      <trkpt lat="45.294" lon="6.2357">
        <ele>1094</ele>
        <time>2015-11-15T08:16:32.550Z</time>
      </trkpt>
      <trkpt lat="45.29398" lon="6.23577">
        <ele>1094</ele>
        <time>2015-11-15T08:16:34.550Z</time>
      </trkpt>
      <trkpt lat="45.29395" lon="6.23588">
        <ele>1094</ele>
        <time>2015-11-15T08:16:37.550Z</time>
      </trkpt>
      <trkpt lat="45.29391" lon="6.236">
        <ele>1094</ele>
        <time>2015-11-15T08:16:40.550Z</time>
      </trkpt>
      <trkpt lat="45.29388" lon="6.23612">
        <ele>1095</ele>
        <time>2015-11-15T08:16:43.550Z</time>
      </trkpt>
      <trkpt lat="45.29386" lon="6.23619">
        <ele>1095</ele>
        <time>2015-11-15T08:16:45.550Z</time>
      </trkpt>
      <trkpt lat="45.29382" lon="6.23629">
        <ele>1095</ele>
        <time>2015-11-15T08:16:48.550Z</time>
      </trkpt>
      <trkpt lat="45.29378" lon="6.23641">
        <ele>1096</ele>
        <time>2015-11-15T08:16:52.550Z</time>
      </trkpt>
      <trkpt lat="45.29375" lon="6.23649">
        <ele>1096</ele>
        <time>2015-11-15T08:16:55.550Z</time>
      </trkpt>
      <trkpt lat="45.29371" lon="6.23662">
        <ele>1096</ele>
        <time>2015-11-15T08:17:00.550Z</time>
      </trkpt>
      <trkpt lat="45.29366" lon="6.2367">
        <ele>1097</ele>
        <time>2015-11-15T08:17:04.550Z</time>
      </trkpt>
      <trkpt lat="45.29358" lon="6.23678">
        <ele>1097</ele>
        <time>2015-11-15T08:17:09.550Z</time>
      </trkpt>
      <trkpt lat="45.29353" lon="6.23682">
        <ele>1097.8222377085</ele>
        <time>2015-11-15T08:17:12.550Z</time>
      </trkpt>
      <trkpt lat="45.29344" lon="6.23682">
        <ele>1099</ele>
        <time>2015-11-15T08:17:18.550Z</time>
      </trkpt>
      <trkpt lat="45.2934" lon="6.23678">
        <ele>1099.8666676148</ele>
        <time>2015-11-15T08:17:21.550Z</time>
      </trkpt>
      <trkpt lat="45.29336" lon="6.23673">
        <ele>1101</ele>
        <time>2015-11-15T08:17:24.550Z</time>
      </trkpt>
      <trkpt lat="45.29333" lon="6.23669">
        <ele>1101</ele>
        <time>2015-11-15T08:17:27.550Z</time>
      </trkpt>
      <trkpt lat="45.29331" lon="6.23662">
        <ele>1101</ele>
        <time>2015-11-15T08:17:30.550Z</time>
      </trkpt>
      <trkpt lat="45.29329" lon="6.23653">
        <ele>1103</ele>
        <time>2015-11-15T08:17:34.550Z</time>
      </trkpt>
      <trkpt lat="45.29326" lon="6.23639">
        <ele>1104</ele>
        <time>2015-11-15T08:17:40.550Z</time>
      </trkpt>
      <trkpt lat="45.29324" lon="6.23626">
        <ele>1105</ele>
        <time>2015-11-15T08:17:46.550Z</time>
      </trkpt>
      <trkpt lat="45.29323" lon="6.23612">
        <ele>1106</ele>
        <time>2015-11-15T08:17:52.550Z</time>
      </trkpt>
      <trkpt lat="45.29322" lon="6.23603">
        <ele>1105</ele>
        <time>2015-11-15T08:17:56.550Z</time>
      </trkpt>
      <trkpt lat="45.29321" lon="6.23597">
        <ele>1105</ele>
        <time>2015-11-15T08:17:59.550Z</time>
      </trkpt>
      <trkpt lat="45.2932" lon="6.2359">
        <ele>1105</ele>
        <time>2015-11-15T08:18:02.550Z</time>
      </trkpt>
      <trkpt lat="45.29318" lon="6.23583">
        <ele>1105</ele>
        <time>2015-11-15T08:18:05.550Z</time>
      </trkpt>
      <trkpt lat="45.29316" lon="6.23576">
        <ele>1105</ele>
        <time>2015-11-15T08:18:08.550Z</time>
      </trkpt>
      <trkpt lat="45.29314" lon="6.2357">
        <ele>1105.3786427071</ele>
        <time>2015-11-15T08:18:11.550Z</time>
      </trkpt>
      <trkpt lat="45.29311" lon="6.23566">
        <ele>1106</ele>
        <time>2015-11-15T08:18:14.550Z</time>
      </trkpt>
      <trkpt lat="45.29307" lon="6.23564">
        <ele>1106</ele>
        <time>2015-11-15T08:18:17.550Z</time>
      </trkpt>
      <trkpt lat="45.29301" lon="6.23565">
        <ele>1108</ele>
        <time>2015-11-15T08:18:22.550Z</time>
      </trkpt>
      <trkpt lat="45.29296" lon="6.23567">
        <ele>1108</ele>
        <time>2015-11-15T08:18:26.550Z</time>
      </trkpt>
      <trkpt lat="45.2929" lon="6.23575">
        <ele>1109</ele>
        <time>2015-11-15T08:18:32.550Z</time>
      </trkpt>
      <trkpt lat="45.29284" lon="6.23582">
        <ele>1109</ele>
        <time>2015-11-15T08:18:39.550Z</time>
      </trkpt>
      <trkpt lat="45.29279" lon="6.23592">
        <ele>1111</ele>
        <time>2015-11-15T08:18:46.550Z</time>
      </trkpt>
      <trkpt lat="45.29275" lon="6.23602">
        <ele>1113</ele>
        <time>2015-11-15T08:18:52.550Z</time>
      </trkpt>
      <trkpt lat="45.29274" lon="6.23613">
        <ele>1113</ele>
        <time>2015-11-15T08:18:58.550Z</time>
      </trkpt>
      <trkpt lat="45.2927" lon="6.23623">
        <ele>1115</ele>
        <time>2015-11-15T08:19:04.550Z</time>
      </trkpt>
      <trkpt lat="45.29266" lon="6.23629">
        <ele>1115</ele>
        <time>2015-11-15T08:19:09.550Z</time>
      </trkpt>
      <trkpt lat="45.29262" lon="6.23632">
        <ele>1116</ele>
        <time>2015-11-15T08:19:14.550Z</time>
      </trkpt>
      <trkpt lat="45.29258" lon="6.23629">
        <ele>1115</ele>
        <time>2015-11-15T08:19:18.550Z</time>
      </trkpt>
      <trkpt lat="45.29254" lon="6.23627">
        <ele>1115</ele>
        <time>2015-11-15T08:19:21.550Z</time>
      </trkpt>
      <trkpt lat="45.29251" lon="6.23622">
        <ele>1117</ele>
        <time>2015-11-15T08:19:25.550Z</time>
      </trkpt>
      <trkpt lat="45.29249" lon="6.23615">
        <ele>1117</ele>
        <time>2015-11-15T08:19:29.550Z</time>
      </trkpt>
      <trkpt lat="45.29248" lon="6.23604">
        <ele>1118</ele>
        <time>2015-11-15T08:19:35.550Z</time>
      </trkpt>
      <trkpt lat="45.29247" lon="6.23589">
        <ele>1119</ele>
        <time>2015-11-15T08:19:43.550Z</time>
      </trkpt>
      <trkpt lat="45.29246" lon="6.23575">
        <ele>1119.8547047819</ele>
        <time>2015-11-15T08:19:51.550Z</time>
      </trkpt>
      <trkpt lat="45.29247" lon="6.23561">
        <ele>1122.4565286956</ele>
        <time>2015-11-15T08:20:00.550Z</time>
      </trkpt>
      <trkpt lat="45.29245" lon="6.23547">
        <ele>1123</ele>
        <time>2015-11-15T08:20:08.550Z</time>
      </trkpt>
      <trkpt lat="45.29243" lon="6.23535">
        <ele>1123</ele>
        <time>2015-11-15T08:20:15.550Z</time>
      </trkpt>
      <trkpt lat="45.29241" lon="6.23528">
        <ele>1124</ele>
        <time>2015-11-15T08:20:19.550Z</time>
      </trkpt>
      <trkpt lat="45.29239" lon="6.23518">
        <ele>1124</ele>
        <time>2015-11-15T08:20:25.550Z</time>
      </trkpt>
      <trkpt lat="45.29238" lon="6.23511">
        <ele>1126</ele>
        <time>2015-11-15T08:20:29.550Z</time>
      </trkpt>
      <trkpt lat="45.29236" lon="6.23504">
        <ele>1126</ele>
        <time>2015-11-15T08:20:33.550Z</time>
      </trkpt>
      <trkpt lat="45.29233" lon="6.23498">
        <ele>1128</ele>
        <time>2015-11-15T08:20:37.550Z</time>
      </trkpt>
      <trkpt lat="45.29232" lon="6.23492">
        <ele>1128</ele>
        <time>2015-11-15T08:20:41.550Z</time>
      </trkpt>
      <trkpt lat="45.29229" lon="6.23486">
        <ele>1128.4000073143</ele>
        <time>2015-11-15T08:20:45.550Z</time>
      </trkpt>
      <trkpt lat="45.29227" lon="6.23481">
        <ele>1129</ele>
        <time>2015-11-15T08:20:49.550Z</time>
      </trkpt>
      <trkpt lat="45.29225" lon="6.23472">
        <ele>1129</ele>
        <time>2015-11-15T08:20:55.550Z</time>
      </trkpt>
      <trkpt lat="45.29223" lon="6.23467">
        <ele>1131</ele>
        <time>2015-11-15T08:20:59.550Z</time>
      </trkpt>
      <trkpt lat="45.29221" lon="6.23461">
        <ele>1130.6043914309</ele>
        <time>2015-11-15T08:21:03.550Z</time>
      </trkpt>
      <trkpt lat="45.29218" lon="6.23455">
        <ele>1130</ele>
        <time>2015-11-15T08:21:07.550Z</time>
      </trkpt>
      <trkpt lat="45.29216" lon="6.23449">
        <ele>1130.4424847929</ele>
        <time>2015-11-15T08:21:11.550Z</time>
      </trkpt>
      <trkpt lat="45.29215" lon="6.23444">
        <ele>1131</ele>
        <time>2015-11-15T08:21:14.550Z</time>
      </trkpt>
      <trkpt lat="45.29214" lon="6.23438">
        <ele>1131</ele>
        <time>2015-11-15T08:21:18.550Z</time>
      </trkpt>
      <trkpt lat="45.29216" lon="6.23427">
        <ele>1133</ele>
        <time>2015-11-15T08:21:25.550Z</time>
      </trkpt>
      <trkpt lat="45.29217" lon="6.23419">
        <ele>1133</ele>
        <time>2015-11-15T08:21:29.550Z</time>
      </trkpt>
      <trkpt lat="45.29217" lon="6.23408">
        <ele>1134</ele>
        <time>2015-11-15T08:21:35.550Z</time>
      </trkpt>
      <trkpt lat="45.29215" lon="6.23401">
        <ele>1134</ele>
        <time>2015-11-15T08:21:39.550Z</time>
      </trkpt>
      <trkpt lat="45.29209" lon="6.23398">
        <ele>1134</ele>
        <time>2015-11-15T08:21:45.550Z</time>
      </trkpt>
      <trkpt lat="45.29203" lon="6.23403">
        <ele>1134.8849695858</ele>
        <time>2015-11-15T08:21:51.550Z</time>
      </trkpt>
      <trkpt lat="45.292" lon="6.23411">
        <ele>1136</ele>
        <time>2015-11-15T08:21:56.550Z</time>
      </trkpt>
      <trkpt lat="45.29198" lon="6.23422">
        <ele>1137</ele>
        <time>2015-11-15T08:22:02.550Z</time>
      </trkpt>
      <trkpt lat="45.29196" lon="6.23432">
        <ele>1137</ele>
        <time>2015-11-15T08:22:08.550Z</time>
      </trkpt>
      <trkpt lat="45.29195" lon="6.23441">
        <ele>1138</ele>
        <time>2015-11-15T08:22:13.550Z</time>
      </trkpt>
      <trkpt lat="45.29194" lon="6.23451">
        <ele>1138</ele>
        <time>2015-11-15T08:22:18.550Z</time>
      </trkpt>
      <trkpt lat="45.29194" lon="6.2346">
        <ele>1140</ele>
        <time>2015-11-15T08:22:23.550Z</time>
      </trkpt>
      <trkpt lat="45.29195" lon="6.23468">
        <ele>1140</ele>
        <time>2015-11-15T08:22:28.550Z</time>
      </trkpt>
      <trkpt lat="45.29195" lon="6.23477">
        <ele>1141</ele>
        <time>2015-11-15T08:22:33.550Z</time>
      </trkpt>
      <trkpt lat="45.29194" lon="6.23485">
        <ele>1142</ele>
        <time>2015-11-15T08:22:38.550Z</time>
      </trkpt>
      <trkpt lat="45.29192" lon="6.23494">
        <ele>1143</ele>
        <time>2015-11-15T08:22:43.550Z</time>
      </trkpt>
      <trkpt lat="45.2919" lon="6.23505">
        <ele>1144</ele>
        <time>2015-11-15T08:22:50.550Z</time>
      </trkpt>
      <trkpt lat="45.29188" lon="6.23512">
        <ele>1145</ele>
        <time>2015-11-15T08:22:56.550Z</time>
      </trkpt>
      <trkpt lat="45.29184" lon="6.23526">
        <ele>1146</ele>
        <time>2015-11-15T08:23:06.550Z</time>
      </trkpt>
      <trkpt lat="45.29181" lon="6.23539">
        <ele>1147</ele>
        <time>2015-11-15T08:23:16.550Z</time>
      </trkpt>
      <trkpt lat="45.29178" lon="6.2355">
        <ele>1148</ele>
        <time>2015-11-15T08:23:22.550Z</time>
      </trkpt>
      <trkpt lat="45.29174" lon="6.23562">
        <ele>1148</ele>
        <time>2015-11-15T08:23:29.550Z</time>
      </trkpt>
      <trkpt lat="45.2917" lon="6.23571">
        <ele>1150</ele>
        <time>2015-11-15T08:23:36.550Z</time>
      </trkpt>
      <trkpt lat="45.29167" lon="6.23579">
        <ele>1151</ele>
        <time>2015-11-15T08:23:41.550Z</time>
      </trkpt>
      <trkpt lat="45.29162" lon="6.23587">
        <ele>1152</ele>
        <time>2015-11-15T08:23:48.550Z</time>
      </trkpt>
      <trkpt lat="45.29158" lon="6.23592">
        <ele>1152</ele>
        <time>2015-11-15T08:23:52.550Z</time>
      </trkpt>
      <trkpt lat="45.29154" lon="6.23596">
        <ele>1152</ele>
        <time>2015-11-15T08:23:56.550Z</time>
      </trkpt>
      <trkpt lat="45.29148" lon="6.23604">
        <ele>1154</ele>
        <time>2015-11-15T08:24:04.550Z</time>
      </trkpt>
      <trkpt lat="45.2914" lon="6.23612">
        <ele>1154</ele>
        <time>2015-11-15T08:24:13.550Z</time>
      </trkpt>
      <trkpt lat="45.29133" lon="6.23623">
        <ele>1156</ele>
        <time>2015-11-15T08:24:23.550Z</time>
      </trkpt>
      <trkpt lat="45.29125" lon="6.23633">
        <ele>1157</ele>
        <time>2015-11-15T08:24:31.550Z</time>
      </trkpt>
      <trkpt lat="45.29121" lon="6.2364">
        <ele>1157</ele>
        <time>2015-11-15T08:24:37.550Z</time>
      </trkpt>
      <trkpt lat="45.29116" lon="6.23648">
        <ele>1158</ele>
        <time>2015-11-15T08:24:44.550Z</time>
      </trkpt>
      <trkpt lat="45.29113" lon="6.23656">
        <ele>1158</ele>
        <time>2015-11-15T08:24:48.550Z</time>
      </trkpt>
      <trkpt lat="45.29108" lon="6.23664">
        <ele>1160</ele>
        <time>2015-11-15T08:24:53.550Z</time>
      </trkpt>
      <trkpt lat="45.29104" lon="6.23671">
        <ele>1160</ele>
        <time>2015-11-15T08:25:00.550Z</time>
      </trkpt>
      <trkpt lat="45.291" lon="6.2368">
        <ele>1160</ele>
        <time>2015-11-15T08:25:06.550Z</time>
      </trkpt>
      <trkpt lat="45.291" lon="6.23691">
        <ele>1160.6888911012</ele>
        <time>2015-11-15T08:25:11.550Z</time>
      </trkpt>
      <trkpt lat="45.29102" lon="6.237">
        <ele>1162</ele>
        <time>2015-11-15T08:25:17.550Z</time>
      </trkpt>
      <trkpt lat="45.29105" lon="6.23709">
        <ele>1164</ele>
        <time>2015-11-15T08:25:24.550Z</time>
      </trkpt>
      <trkpt lat="45.29106" lon="6.23718">
        <ele>1164</ele>
        <time>2015-11-15T08:25:31.550Z</time>
      </trkpt>
      <trkpt lat="45.29105" lon="6.23729">
        <ele>1165</ele>
        <time>2015-11-15T08:25:36.550Z</time>
      </trkpt>
      <trkpt lat="45.29103" lon="6.23737">
        <ele>1166</ele>
        <time>2015-11-15T08:25:43.550Z</time>
      </trkpt>
      <trkpt lat="45.29104" lon="6.23747">
        <ele>1166</ele>
        <time>2015-11-15T08:25:48.550Z</time>
      </trkpt>
      <trkpt lat="45.29106" lon="6.23756">
        <ele>1166.4505506871</ele>
        <time>2015-11-15T08:25:52.550Z</time>
      </trkpt>
      <trkpt lat="45.29107" lon="6.23765">
        <ele>1167</ele>
        <time>2015-11-15T08:25:58.550Z</time>
      </trkpt>
      <trkpt lat="45.29108" lon="6.23775">
        <ele>1168</ele>
        <time>2015-11-15T08:26:04.550Z</time>
      </trkpt>
      <trkpt lat="45.29109" lon="6.23785">
        <ele>1168.8695739281</ele>
        <time>2015-11-15T08:26:11.550Z</time>
      </trkpt>
      <trkpt lat="45.29109" lon="6.23796">
        <ele>1170.382721512</ele>
        <time>2015-11-15T08:26:16.550Z</time>
      </trkpt>
      <trkpt lat="45.29109" lon="6.23805">
        <ele>1171</ele>
        <time>2015-11-15T08:26:21.550Z</time>
      </trkpt>
      <trkpt lat="45.29108" lon="6.23814">
        <ele>1171</ele>
        <time>2015-11-15T08:26:25.550Z</time>
      </trkpt>
      <trkpt lat="45.29108" lon="6.23823">
        <ele>1171</ele>
        <time>2015-11-15T08:26:30.550Z</time>
      </trkpt>
      <trkpt lat="45.29109" lon="6.23831">
        <ele>1173</ele>
        <time>2015-11-15T08:26:38.550Z</time>
      </trkpt>
      <trkpt lat="45.29107" lon="6.23841">
        <ele>1175</ele>
        <time>2015-11-15T08:26:43.550Z</time>
      </trkpt>
      <trkpt lat="45.29104" lon="6.2385">
        <ele>1175</ele>
        <time>2015-11-15T08:26:48.550Z</time>
      </trkpt>
      <trkpt lat="45.29102" lon="6.23859">
        <ele>1175</ele>
        <time>2015-11-15T08:26:53.550Z</time>
      </trkpt>
      <trkpt lat="45.29101" lon="6.2387">
        <ele>1175</ele>
        <time>2015-11-15T08:27:00.550Z</time>
      </trkpt>
      <trkpt lat="45.29099" lon="6.23881">
        <ele>1176</ele>
        <time>2015-11-15T08:27:07.550Z</time>
      </trkpt>
      <trkpt lat="45.29097" lon="6.23891">
        <ele>1178</ele>
        <time>2015-11-15T08:27:14.550Z</time>
      </trkpt>
      <trkpt lat="45.29096" lon="6.23901">
        <ele>1178</ele>
        <time>2015-11-15T08:27:20.550Z</time>
      </trkpt>
      <trkpt lat="45.29096" lon="6.2391">
        <ele>1180</ele>
        <time>2015-11-15T08:27:25.550Z</time>
      </trkpt>
      <trkpt lat="45.29096" lon="6.23921">
        <ele>1182</ele>
        <time>2015-11-15T08:27:32.550Z</time>
      </trkpt>
      <trkpt lat="45.29096" lon="6.2393">
        <ele>1182</ele>
        <time>2015-11-15T08:27:37.550Z</time>
      </trkpt>
      <trkpt lat="45.29097" lon="6.23939">
        <ele>1182</ele>
        <time>2015-11-15T08:27:42.550Z</time>
      </trkpt>
      <trkpt lat="45.29099" lon="6.23949">
        <ele>1182</ele>
        <time>2015-11-15T08:27:49.550Z</time>
      </trkpt>
      <trkpt lat="45.29102" lon="6.23957">
        <ele>1184</ele>
        <time>2015-11-15T08:27:54.550Z</time>
      </trkpt>
      <trkpt lat="45.29103" lon="6.23967">
        <ele>1185</ele>
        <time>2015-11-15T08:28:01.550Z</time>
      </trkpt>
      <trkpt lat="45.29106" lon="6.23982">
        <ele>1185.9247412464</ele>
        <time>2015-11-15T08:28:10.550Z</time>
      </trkpt>
      <trkpt lat="45.29102" lon="6.23996">
        <ele>1187.3975911047</ele>
        <time>2015-11-15T08:28:20.550Z</time>
      </trkpt>
      <trkpt lat="45.29103" lon="6.2401">
        <ele>1188</ele>
        <time>2015-11-15T08:28:29.550Z</time>
      </trkpt>
      <trkpt lat="45.29106" lon="6.24023">
        <ele>1190</ele>
        <time>2015-11-15T08:28:36.550Z</time>
      </trkpt>
      <trkpt lat="45.29106" lon="6.24037">
        <ele>1191</ele>
        <time>2015-11-15T08:28:45.550Z</time>
      </trkpt>
      <trkpt lat="45.29103" lon="6.24052">
        <ele>1192</ele>
        <time>2015-11-15T08:28:54.550Z</time>
      </trkpt>
      <trkpt lat="45.29101" lon="6.2406">
        <ele>1192</ele>
        <time>2015-11-15T08:28:59.550Z</time>
      </trkpt>
      <trkpt lat="45.29101" lon="6.2407">
        <ele>1193</ele>
        <time>2015-11-15T08:29:06.550Z</time>
      </trkpt>
      <trkpt lat="45.29106" lon="6.24077">
        <ele>1195</ele>
        <time>2015-11-15T08:29:14.550Z</time>
      </trkpt>
      <trkpt lat="45.29109" lon="6.24085">
        <ele>1195</ele>
        <time>2015-11-15T08:29:20.550Z</time>
      </trkpt>
      <trkpt lat="45.29112" lon="6.24097">
        <ele>1197</ele>
        <time>2015-11-15T08:29:28.550Z</time>
      </trkpt>
      <trkpt lat="45.29113" lon="6.24112">
        <ele>1197</ele>
        <time>2015-11-15T08:29:38.550Z</time>
      </trkpt>
      <trkpt lat="45.29112" lon="6.24126">
        <ele>1198</ele>
        <time>2015-11-15T08:29:47.550Z</time>
      </trkpt>
      <trkpt lat="45.2911" lon="6.24139">
        <ele>1200</ele>
        <time>2015-11-15T08:29:55.550Z</time>
      </trkpt>
      <trkpt lat="45.2911" lon="6.24149">
        <ele>1202</ele>
        <time>2015-11-15T08:30:02.550Z</time>
      </trkpt>
      <trkpt lat="45.29114" lon="6.24158">
        <ele>1203</ele>
        <time>2015-11-15T08:30:13.550Z</time>
      </trkpt>
      <trkpt lat="45.2912" lon="6.2416">
        <ele>1205</ele>
        <time>2015-11-15T08:30:22.550Z</time>
      </trkpt>
      <trkpt lat="45.29125" lon="6.24163">
        <ele>1205</ele>
        <time>2015-11-15T08:30:29.550Z</time>
      </trkpt>
      <trkpt lat="45.29131" lon="6.24167">
        <ele>1206</ele>
        <time>2015-11-15T08:30:34.550Z</time>
      </trkpt>
      <trkpt lat="45.29136" lon="6.24174">
        <ele>1207</ele>
        <time>2015-11-15T08:30:39.550Z</time>
      </trkpt>
      <trkpt lat="45.29141" lon="6.24182">
        <ele>1207</ele>
        <time>2015-11-15T08:30:45.550Z</time>
      </trkpt>
      <trkpt lat="45.29145" lon="6.2419">
        <ele>1208</ele>
        <time>2015-11-15T08:30:51.550Z</time>
      </trkpt>
      <trkpt lat="45.29152" lon="6.24202">
        <ele>1208</ele>
        <time>2015-11-15T08:30:59.550Z</time>
      </trkpt>
      <trkpt lat="45.29158" lon="6.2421">
        <ele>1209</ele>
        <time>2015-11-15T08:31:05.550Z</time>
      </trkpt>
      <trkpt lat="45.29162" lon="6.24219">
        <ele>1210</ele>
        <time>2015-11-15T08:31:11.550Z</time>
      </trkpt>
      <trkpt lat="45.29168" lon="6.24231">
        <ele>1210</ele>
        <time>2015-11-15T08:31:19.550Z</time>
      </trkpt>
      <trkpt lat="45.29171" lon="6.24243">
        <ele>1212</ele>
        <time>2015-11-15T08:31:27.550Z</time>
      </trkpt>
      <trkpt lat="45.29173" lon="6.24251">
        <ele>1214</ele>
        <time>2015-11-15T08:31:33.550Z</time>
      </trkpt>
      <trkpt lat="45.29175" lon="6.24258">
        <ele>1214</ele>
        <time>2015-11-15T08:31:38.550Z</time>
      </trkpt>
      <trkpt lat="45.29177" lon="6.24266">
        <ele>1215</ele>
        <time>2015-11-15T08:31:44.550Z</time>
      </trkpt>
      <trkpt lat="45.29179" lon="6.24275">
        <ele>1215</ele>
        <time>2015-11-15T08:31:50.550Z</time>
      </trkpt>
      <trkpt lat="45.29181" lon="6.24283">
        <ele>1217</ele>
        <time>2015-11-15T08:31:55.550Z</time>
      </trkpt>
      <trkpt lat="45.29183" lon="6.24291">
        <ele>1217</ele>
        <time>2015-11-15T08:32:00.550Z</time>
      </trkpt>
      <trkpt lat="45.29187" lon="6.24304">
        <ele>1218</ele>
        <time>2015-11-15T08:32:09.550Z</time>
      </trkpt>
      <trkpt lat="45.29191" lon="6.24317">
        <ele>1220</ele>
        <time>2015-11-15T08:32:18.550Z</time>
      </trkpt>
      <trkpt lat="45.29193" lon="6.24325">
        <ele>1221</ele>
        <time>2015-11-15T08:32:23.550Z</time>
      </trkpt>
      <trkpt lat="45.29197" lon="6.24335">
        <ele>1221</ele>
        <time>2015-11-15T08:32:30.550Z</time>
      </trkpt>
      <trkpt lat="45.29199" lon="6.24343">
        <ele>1222</ele>
        <time>2015-11-15T08:32:36.550Z</time>
      </trkpt>
      <trkpt lat="45.29203" lon="6.24351">
        <ele>1222</ele>
        <time>2015-11-15T08:32:41.550Z</time>
      </trkpt>
      <trkpt lat="45.29207" lon="6.24361">
        <ele>1224</ele>
        <time>2015-11-15T08:32:47.550Z</time>
      </trkpt>
      <trkpt lat="45.29213" lon="6.24373">
        <ele>1225</ele>
        <time>2015-11-15T08:32:55.550Z</time>
      </trkpt>
      <trkpt lat="45.29216" lon="6.24385">
        <ele>1226</ele>
        <time>2015-11-15T08:33:03.550Z</time>
      </trkpt>
      <trkpt lat="45.2922" lon="6.24398">
        <ele>1228</ele>
        <time>2015-11-15T08:33:12.550Z</time>
      </trkpt>
      <trkpt lat="45.29226" lon="6.24411">
        <ele>1228</ele>
        <time>2015-11-15T08:33:21.550Z</time>
      </trkpt>
      <trkpt lat="45.29229" lon="6.24423">
        <ele>1228</ele>
        <time>2015-11-15T08:33:29.550Z</time>
      </trkpt>
      <trkpt lat="45.29232" lon="6.24436">
        <ele>1229</ele>
        <time>2015-11-15T08:33:39.550Z</time>
      </trkpt>
      <trkpt lat="45.29234" lon="6.24442">
        <ele>1231</ele>
        <time>2015-11-15T08:33:43.550Z</time>
      </trkpt>
      <trkpt lat="45.29236" lon="6.2445">
        <ele>1232</ele>
        <time>2015-11-15T08:33:49.550Z</time>
      </trkpt>
      <trkpt lat="45.29238" lon="6.24458">
        <ele>1232</ele>
        <time>2015-11-15T08:33:54.550Z</time>
      </trkpt>
      <trkpt lat="45.29241" lon="6.24471">
        <ele>1234</ele>
        <time>2015-11-15T08:34:03.550Z</time>
      </trkpt>
      <trkpt lat="45.29243" lon="6.24478">
        <ele>1234</ele>
        <time>2015-11-15T08:34:08.550Z</time>
      </trkpt>
      <trkpt lat="45.29246" lon="6.24486">
        <ele>1235</ele>
        <time>2015-11-15T08:34:14.550Z</time>
      </trkpt>
      <trkpt lat="45.29248" lon="6.24492">
        <ele>1236</ele>
        <time>2015-11-15T08:34:19.550Z</time>
      </trkpt>
      <trkpt lat="45.29251" lon="6.245">
        <ele>1237</ele>
        <time>2015-11-15T08:34:25.550Z</time>
      </trkpt>
      <trkpt lat="45.29253" lon="6.24508">
        <ele>1237.4505584156</ele>
        <time>2015-11-15T08:34:31.550Z</time>
      </trkpt>
      <trkpt lat="45.29257" lon="6.24518">
        <ele>1238</ele>
        <time>2015-11-15T08:34:39.550Z</time>
      </trkpt>
      <trkpt lat="45.29259" lon="6.24529">
        <ele>1239</ele>
        <time>2015-11-15T08:34:47.550Z</time>
      </trkpt>
      <trkpt lat="45.29262" lon="6.2454">
        <ele>1239</ele>
        <time>2015-11-15T08:34:54.550Z</time>
      </trkpt>
      <trkpt lat="45.29264" lon="6.24551">
        <ele>1241</ele>
        <time>2015-11-15T08:35:02.550Z</time>
      </trkpt>
      <trkpt lat="45.29265" lon="6.24562">
        <ele>1241</ele>
        <time>2015-11-15T08:35:09.550Z</time>
      </trkpt>
      <trkpt lat="45.29267" lon="6.24571">
        <ele>1243</ele>
        <time>2015-11-15T08:35:16.550Z</time>
      </trkpt>
      <trkpt lat="45.2927" lon="6.24581">
        <ele>1243</ele>
        <time>2015-11-15T08:35:23.550Z</time>
      </trkpt>
      <trkpt lat="45.29272" lon="6.24591">
        <ele>1243.380953542</ele>
        <time>2015-11-15T08:35:30.550Z</time>
      </trkpt>
      <trkpt lat="45.29275" lon="6.24602">
        <ele>1244</ele>
        <time>2015-11-15T08:35:38.550Z</time>
      </trkpt>
      <trkpt lat="45.29279" lon="6.24611">
        <ele>1246</ele>
        <time>2015-11-15T08:35:44.550Z</time>
      </trkpt>
      <trkpt lat="45.2928" lon="6.24623">
        <ele>1247</ele>
        <time>2015-11-15T08:35:52.550Z</time>
      </trkpt>
      <trkpt lat="45.29282" lon="6.24633">
        <ele>1247</ele>
        <time>2015-11-15T08:35:59.550Z</time>
      </trkpt>
      <trkpt lat="45.29285" lon="6.24643">
        <ele>1248</ele>
        <time>2015-11-15T08:36:05.550Z</time>
      </trkpt>
      <trkpt lat="45.29289" lon="6.24652">
        <ele>1250</ele>
        <time>2015-11-15T08:36:12.550Z</time>
      </trkpt>
      <trkpt lat="45.29293" lon="6.24661">
        <ele>1251</ele>
        <time>2015-11-15T08:36:20.550Z</time>
      </trkpt>
      <trkpt lat="45.29299" lon="6.2467">
        <ele>1251</ele>
        <time>2015-11-15T08:36:26.550Z</time>
      </trkpt>
      <trkpt lat="45.29304" lon="6.24681">
        <ele>1253</ele>
        <time>2015-11-15T08:36:34.550Z</time>
      </trkpt>
      <trkpt lat="45.29307" lon="6.24693">
        <ele>1254</ele>
        <time>2015-11-15T08:36:42.550Z</time>
      </trkpt>
      <trkpt lat="45.29306" lon="6.24703">
        <ele>1254</ele>
        <time>2015-11-15T08:36:49.550Z</time>
      </trkpt>
      <trkpt lat="45.29308" lon="6.24712">
        <ele>1255</ele>
        <time>2015-11-15T08:36:55.550Z</time>
      </trkpt>
      <trkpt lat="45.29311" lon="6.24724">
        <ele>1256</ele>
        <time>2015-11-15T08:37:03.550Z</time>
      </trkpt>
      <trkpt lat="45.29313" lon="6.24735">
        <ele>1256.4047695238</ele>
        <time>2015-11-15T08:37:10.550Z</time>
      </trkpt>
      <trkpt lat="45.29316" lon="6.24748">
        <ele>1257</ele>
        <time>2015-11-15T08:37:19.550Z</time>
      </trkpt>
      <trkpt lat="45.29316" lon="6.24761">
        <ele>1259</ele>
        <time>2015-11-15T08:37:28.550Z</time>
      </trkpt>
      <trkpt lat="45.29318" lon="6.24772">
        <ele>1260</ele>
        <time>2015-11-15T08:37:35.550Z</time>
      </trkpt>
      <trkpt lat="45.29316" lon="6.24784">
        <ele>1261</ele>
        <time>2015-11-15T08:37:42.550Z</time>
      </trkpt>
      <trkpt lat="45.29314" lon="6.24796">
        <ele>1262</ele>
        <time>2015-11-15T08:37:51.550Z</time>
      </trkpt>
      <trkpt lat="45.29314" lon="6.24809">
        <ele>1262</ele>
        <time>2015-11-15T08:37:59.550Z</time>
      </trkpt>
      <trkpt lat="45.29313" lon="6.2482">
        <ele>1264</ele>
        <time>2015-11-15T08:38:11.550Z</time>
      </trkpt>
      <trkpt lat="45.29313" lon="6.24832">
        <ele>1266</ele>
        <time>2015-11-15T08:38:17.550Z</time>
      </trkpt>
      <trkpt lat="45.29312" lon="6.24842">
        <ele>1266.3675251078</ele>
        <time>2015-11-15T08:38:23.550Z</time>
      </trkpt>
      <trkpt lat="45.29307" lon="6.24852">
        <ele>1267</ele>
        <time>2015-11-15T08:38:29.550Z</time>
      </trkpt>
      <trkpt lat="45.29303" lon="6.24861">
        <ele>1267</ele>
        <time>2015-11-15T08:38:35.550Z</time>
      </trkpt>
      <trkpt lat="45.29296" lon="6.24866">
        <ele>1267</ele>
        <time>2015-11-15T08:38:41.550Z</time>
      </trkpt>
      <trkpt lat="45.2929" lon="6.24873">
        <ele>1269</ele>
        <time>2015-11-15T08:38:48.550Z</time>
      </trkpt>
      <trkpt lat="45.29282" lon="6.24877">
        <ele>1269</ele>
        <time>2015-11-15T08:38:55.550Z</time>
      </trkpt>
      <trkpt lat="45.29275" lon="6.24881">
        <ele>1270</ele>
        <time>2015-11-15T08:39:01.550Z</time>
      </trkpt>
      <trkpt lat="45.29268" lon="6.2488">
        <ele>1270</ele>
        <time>2015-11-15T08:39:09.550Z</time>
      </trkpt>
      <trkpt lat="45.29268" lon="6.24868">
        <ele>1271</ele>
        <time>2015-11-15T08:39:18.550Z</time>
      </trkpt>
      <trkpt lat="45.29271" lon="6.24859">
        <ele>1272</ele>
        <time>2015-11-15T08:39:27.550Z</time>
      </trkpt>
      <trkpt lat="45.29276" lon="6.2485">
        <ele>1273</ele>
        <time>2015-11-15T08:39:34.550Z</time>
      </trkpt>
      <trkpt lat="45.29279" lon="6.2484">
        <ele>1273.5000064</ele>
        <time>2015-11-15T08:39:41.550Z</time>
      </trkpt>
      <trkpt lat="45.29278" lon="6.24828">
        <ele>1275.4587228146</ele>
        <time>2015-11-15T08:39:50.550Z</time>
      </trkpt>
      <trkpt lat="45.29277" lon="6.24815">
        <ele>1276</ele>
        <time>2015-11-15T08:39:59.550Z</time>
      </trkpt>
      <trkpt lat="45.29276" lon="6.24802">
        <ele>1278</ele>
        <time>2015-11-15T08:40:08.550Z</time>
      </trkpt>
      <trkpt lat="45.29271" lon="6.2479">
        <ele>1279</ele>
        <time>2015-11-15T08:40:15.550Z</time>
      </trkpt>
      <trkpt lat="45.2927" lon="6.24777">
        <ele>1281</ele>
        <time>2015-11-15T08:40:24.550Z</time>
      </trkpt>
      <trkpt lat="45.29271" lon="6.24762">
        <ele>1283</ele>
        <time>2015-11-15T08:40:35.550Z</time>
      </trkpt>
      <trkpt lat="45.2927" lon="6.24746">
        <ele>1284</ele>
        <time>2015-11-15T08:40:46.550Z</time>
      </trkpt>
      <trkpt lat="45.29269" lon="6.24732">
        <ele>1285</ele>
        <time>2015-11-15T08:40:55.550Z</time>
      </trkpt>
      <trkpt lat="45.29263" lon="6.2472">
        <ele>1287</ele>
        <time>2015-11-15T08:41:03.550Z</time>
      </trkpt>
      <trkpt lat="45.29261" lon="6.24706">
        <ele>1287.4700032</ele>
        <time>2015-11-15T08:41:11.550Z</time>
      </trkpt>
      <trkpt lat="45.29258" lon="6.24691">
        <ele>1288</ele>
        <time>2015-11-15T08:41:20.550Z</time>
      </trkpt>
      <trkpt lat="45.29252" lon="6.24683">
        <ele>1289</ele>
        <time>2015-11-15T08:41:27.550Z</time>
      </trkpt>
      <trkpt lat="45.29242" lon="6.2469">
        <ele>1290</ele>
        <time>2015-11-15T08:41:39.550Z</time>
      </trkpt>
      <trkpt lat="45.29241" lon="6.24704">
        <ele>1291</ele>
        <time>2015-11-15T08:41:50.550Z</time>
      </trkpt>
      <trkpt lat="45.29246" lon="6.24718">
        <ele>1291.990003072</ele>
        <time>2015-11-15T08:42:00.550Z</time>
      </trkpt>
      <trkpt lat="45.29248" lon="6.24732">
        <ele>1294</ele>
        <time>2015-11-15T08:42:09.550Z</time>
      </trkpt>
      <trkpt lat="45.29246" lon="6.24746">
        <ele>1296</ele>
        <time>2015-11-15T08:42:21.550Z</time>
      </trkpt>
      <trkpt lat="45.29242" lon="6.2476">
        <ele>1297</ele>
        <time>2015-11-15T08:42:33.550Z</time>
      </trkpt>
      <trkpt lat="45.29239" lon="6.24774">
        <ele>1299</ele>
        <time>2015-11-15T08:42:44.550Z</time>
      </trkpt>
      <trkpt lat="45.29234" lon="6.24784">
        <ele>1300</ele>
        <time>2015-11-15T08:42:53.550Z</time>
      </trkpt>
      <trkpt lat="45.29229" lon="6.24796">
        <ele>1301</ele>
        <time>2015-11-15T08:43:03.550Z</time>
      </trkpt>
      <trkpt lat="45.29225" lon="6.24804">
        <ele>1301</ele>
        <time>2015-11-15T08:43:09.550Z</time>
      </trkpt>
      <trkpt lat="45.29222" lon="6.24816">
        <ele>1302</ele>
        <time>2015-11-15T08:43:17.550Z</time>
      </trkpt>
      <trkpt lat="45.29218" lon="6.24827">
        <ele>1303</ele>
        <time>2015-11-15T08:43:27.550Z</time>
      </trkpt>
      <trkpt lat="45.29212" lon="6.24839">
        <ele>1304</ele>
        <time>2015-11-15T08:43:36.550Z</time>
      </trkpt>
      <trkpt lat="45.29206" lon="6.24851">
        <ele>1305</ele>
        <time>2015-11-15T08:43:43.550Z</time>
      </trkpt>
      <trkpt lat="45.29201" lon="6.24861">
        <ele>1305</ele>
        <time>2015-11-15T08:43:50.550Z</time>
      </trkpt>
      <trkpt lat="45.29194" lon="6.24871">
        <ele>1308</ele>
        <time>2015-11-15T08:43:58.550Z</time>
      </trkpt>
      <trkpt lat="45.29188" lon="6.2488">
        <ele>1308</ele>
        <time>2015-11-15T08:44:05.550Z</time>
      </trkpt>
      <trkpt lat="45.29183" lon="6.24888">
        <ele>1308</ele>
        <time>2015-11-15T08:44:13.550Z</time>
      </trkpt>
      <trkpt lat="45.29178" lon="6.24899">
        <ele>1308</ele>
        <time>2015-11-15T08:44:22.550Z</time>
      </trkpt>
      <trkpt lat="45.29171" lon="6.24909">
        <ele>1310</ele>
        <time>2015-11-15T08:44:29.550Z</time>
      </trkpt>
      <trkpt lat="45.29164" lon="6.24903">
        <ele>1312</ele>
        <time>2015-11-15T08:44:42.550Z</time>
      </trkpt>
      <trkpt lat="45.29166" lon="6.24889">
        <ele>1314</ele>
        <time>2015-11-15T08:44:52.550Z</time>
      </trkpt>
      <trkpt lat="45.29173" lon="6.2488">
        <ele>1315</ele>
        <time>2015-11-15T08:45:02.550Z</time>
      </trkpt>
      <trkpt lat="45.29178" lon="6.24868">
        <ele>1315.4117700208</ele>
        <time>2015-11-15T08:45:11.550Z</time>
      </trkpt>
      <trkpt lat="45.29182" lon="6.24854">
        <ele>1316.6578973962</ele>
        <time>2015-11-15T08:45:22.550Z</time>
      </trkpt>
      <trkpt lat="45.29183" lon="6.24841">
        <ele>1318.3100032</ele>
        <time>2015-11-15T08:45:31.550Z</time>
      </trkpt>
      <trkpt lat="45.29184" lon="6.24826">
        <ele>1319</ele>
        <time>2015-11-15T08:45:39.550Z</time>
      </trkpt>
      <trkpt lat="45.29183" lon="6.24812">
        <ele>1320.3272746314</ele>
        <time>2015-11-15T08:45:50.550Z</time>
      </trkpt>
      <trkpt lat="45.29182" lon="6.24796">
        <ele>1323</ele>
        <time>2015-11-15T08:46:01.550Z</time>
      </trkpt>
      <trkpt lat="45.29184" lon="6.24782">
        <ele>1323</ele>
        <time>2015-11-15T08:46:09.550Z</time>
      </trkpt>
      <trkpt lat="45.29187" lon="6.24767">
        <ele>1323</ele>
        <time>2015-11-15T08:46:19.550Z</time>
      </trkpt>
      <trkpt lat="45.29188" lon="6.24752">
        <ele>1325</ele>
        <time>2015-11-15T08:46:27.550Z</time>
      </trkpt>
      <trkpt lat="45.2919" lon="6.24736">
        <ele>1326</ele>
        <time>2015-11-15T08:46:38.550Z</time>
      </trkpt>
      <trkpt lat="45.29189" lon="6.24722">
        <ele>1327</ele>
        <time>2015-11-15T08:46:48.550Z</time>
      </trkpt>
      <trkpt lat="45.29186" lon="6.24708">
        <ele>1329</ele>
        <time>2015-11-15T08:46:56.550Z</time>
      </trkpt>
      <trkpt lat="45.29181" lon="6.24695">
        <ele>1331</ele>
        <time>2015-11-15T08:47:04.550Z</time>
      </trkpt>
      <trkpt lat="45.29177" lon="6.24681">
        <ele>1331</ele>
        <time>2015-11-15T08:47:12.550Z</time>
      </trkpt>
      <trkpt lat="45.29174" lon="6.24669">
        <ele>1333</ele>
        <time>2015-11-15T08:47:21.550Z</time>
      </trkpt>
      <trkpt lat="45.2917" lon="6.24655">
        <ele>1333.4600064</ele>
        <time>2015-11-15T08:47:31.550Z</time>
      </trkpt>
      <trkpt lat="45.29168" lon="6.2464">
        <ele>1334.850593653</ele>
        <time>2015-11-15T08:47:40.550Z</time>
      </trkpt>
      <trkpt lat="45.29167" lon="6.24626">
        <ele>1336</ele>
        <time>2015-11-15T08:47:49.550Z</time>
      </trkpt>
      <trkpt lat="45.29166" lon="6.2461">
        <ele>1338</ele>
        <time>2015-11-15T08:47:57.550Z</time>
      </trkpt>
      <trkpt lat="45.29162" lon="6.24598">
        <ele>1338</ele>
        <time>2015-11-15T08:48:06.550Z</time>
      </trkpt>
      <trkpt lat="45.29159" lon="6.24585">
        <ele>1340</ele>
        <time>2015-11-15T08:48:15.550Z</time>
      </trkpt>
      <trkpt lat="45.29153" lon="6.24572">
        <ele>1341</ele>
        <time>2015-11-15T08:48:23.550Z</time>
      </trkpt>
      <trkpt lat="45.29147" lon="6.24562">
        <ele>1341.8764148366</ele>
        <time>2015-11-15T08:48:30.550Z</time>
      </trkpt>
      <trkpt lat="45.29141" lon="6.24551">
        <ele>1343</ele>
        <time>2015-11-15T08:48:37.550Z</time>
      </trkpt>
      <trkpt lat="45.29138" lon="6.24541">
        <ele>1343</ele>
        <time>2015-11-15T08:48:43.550Z</time>
      </trkpt>
      <trkpt lat="45.29131" lon="6.24534">
        <ele>1345</ele>
        <time>2015-11-15T08:48:49.550Z</time>
      </trkpt>
      <trkpt lat="45.29126" lon="6.24545">
        <ele>1345</ele>
        <time>2015-11-15T08:48:59.550Z</time>
      </trkpt>
      <trkpt lat="45.29132" lon="6.24556">
        <ele>1346</ele>
        <time>2015-11-15T08:49:07.550Z</time>
      </trkpt>
      <trkpt lat="45.29137" lon="6.24566">
        <ele>1348</ele>
        <time>2015-11-15T08:49:15.550Z</time>
      </trkpt>
      <trkpt lat="45.29138" lon="6.24578">
        <ele>1348.7800064</ele>
        <time>2015-11-15T08:49:22.550Z</time>
      </trkpt>
      <trkpt lat="45.29139" lon="6.24589">
        <ele>1350</ele>
        <time>2015-11-15T08:49:28.550Z</time>
      </trkpt>
      <trkpt lat="45.29135" lon="6.24602">
        <ele>1352</ele>
        <time>2015-11-15T08:49:36.550Z</time>
      </trkpt>
      <trkpt lat="45.29131" lon="6.24613">
        <ele>1353</ele>
        <time>2015-11-15T08:49:46.550Z</time>
      </trkpt>
      <trkpt lat="45.29133" lon="6.24627">
        <ele>1355</ele>
        <time>2015-11-15T08:49:54.550Z</time>
      </trkpt>
      <trkpt lat="45.29134" lon="6.24642">
        <ele>1357</ele>
        <time>2015-11-15T08:50:03.550Z</time>
      </trkpt>
      <trkpt lat="45.29133" lon="6.24654">
        <ele>1357</ele>
        <time>2015-11-15T08:50:10.550Z</time>
      </trkpt>
      <trkpt lat="45.29136" lon="6.24665">
        <ele>1357</ele>
        <time>2015-11-15T08:50:17.550Z</time>
      </trkpt>
      <trkpt lat="45.29137" lon="6.24675">
        <ele>1358</ele>
        <time>2015-11-15T08:50:24.550Z</time>
      </trkpt>
      <trkpt lat="45.29137" lon="6.24686">
        <ele>1358.7600128</ele>
        <time>2015-11-15T08:50:31.550Z</time>
      </trkpt>
      <trkpt lat="45.29139" lon="6.24699">
        <ele>1360</ele>
        <time>2015-11-15T08:50:40.550Z</time>
      </trkpt>
      <trkpt lat="45.29137" lon="6.24712">
        <ele>1361</ele>
        <time>2015-11-15T08:50:49.550Z</time>
      </trkpt>
      <trkpt lat="45.29135" lon="6.24725">
        <ele>1362</ele>
        <time>2015-11-15T08:50:59.550Z</time>
      </trkpt>
      <trkpt lat="45.29132" lon="6.24737">
        <ele>1363</ele>
        <time>2015-11-15T08:51:07.550Z</time>
      </trkpt>
      <trkpt lat="45.29126" lon="6.24748">
        <ele>1365.4646514274</ele>
        <time>2015-11-15T08:51:16.550Z</time>
      </trkpt>
      <trkpt lat="45.29122" lon="6.24761">
        <ele>1367</ele>
        <time>2015-11-15T08:51:26.550Z</time>
      </trkpt>
      <trkpt lat="45.29117" lon="6.24771">
        <ele>1368</ele>
        <time>2015-11-15T08:51:33.550Z</time>
      </trkpt>
      <trkpt lat="45.29111" lon="6.24783">
        <ele>1370</ele>
        <time>2015-11-15T08:51:42.550Z</time>
      </trkpt>
      <trkpt lat="45.29105" lon="6.24794">
        <ele>1370</ele>
        <time>2015-11-15T08:51:50.550Z</time>
      </trkpt>
      <trkpt lat="45.291" lon="6.24804">
        <ele>1372</ele>
        <time>2015-11-15T08:51:59.550Z</time>
      </trkpt>
      <trkpt lat="45.29093" lon="6.24811">
        <ele>1373</ele>
        <time>2015-11-15T08:52:06.550Z</time>
      </trkpt>
      <trkpt lat="45.29086" lon="6.24818">
        <ele>1373</ele>
        <time>2015-11-15T08:52:12.550Z</time>
      </trkpt>
      <trkpt lat="45.29078" lon="6.24827">
        <ele>1375</ele>
        <time>2015-11-15T08:52:20.550Z</time>
      </trkpt>
      <trkpt lat="45.2907" lon="6.24837">
        <ele>1376</ele>
        <time>2015-11-15T08:52:31.550Z</time>
      </trkpt>
      <trkpt lat="45.29062" lon="6.24843">
        <ele>1377</ele>
        <time>2015-11-15T08:52:40.550Z</time>
      </trkpt>
      <trkpt lat="45.29056" lon="6.24853">
        <ele>1379</ele>
        <time>2015-11-15T08:52:48.550Z</time>
      </trkpt>
      <trkpt lat="45.29049" lon="6.24861">
        <ele>1380</ele>
        <time>2015-11-15T08:52:56.550Z</time>
      </trkpt>
      <trkpt lat="45.29041" lon="6.24868">
        <ele>1380</ele>
        <time>2015-11-15T08:53:05.550Z</time>
      </trkpt>
      <trkpt lat="45.29034" lon="6.24876">
        <ele>1381</ele>
        <time>2015-11-15T08:53:13.550Z</time>
      </trkpt>
      <trkpt lat="45.29028" lon="6.24881">
        <ele>1381</ele>
        <time>2015-11-15T08:53:19.550Z</time>
      </trkpt>
      <trkpt lat="45.29021" lon="6.24889">
        <ele>1383</ele>
        <time>2015-11-15T08:53:28.550Z</time>
      </trkpt>
      <trkpt lat="45.29014" lon="6.24896">
        <ele>1384</ele>
        <time>2015-11-15T08:53:36.550Z</time>
      </trkpt>
      <trkpt lat="45.29009" lon="6.24903">
        <ele>1386</ele>
        <time>2015-11-15T08:53:42.550Z</time>
      </trkpt>
      <trkpt lat="45.29003" lon="6.24891">
        <ele>1388.4424847929</ele>
        <time>2015-11-15T08:54:01.550Z</time>
      </trkpt>
      <trkpt lat="45.29008" lon="6.24879">
        <ele>1390</ele>
        <time>2015-11-15T08:54:13.550Z</time>
      </trkpt>
      <trkpt lat="45.29015" lon="6.24869">
        <ele>1391</ele>
        <time>2015-11-15T08:54:24.550Z</time>
      </trkpt>
      <trkpt lat="45.29019" lon="6.2486">
        <ele>1392</ele>
        <time>2015-11-15T08:54:33.550Z</time>
      </trkpt>
      <trkpt lat="45.29026" lon="6.24848">
        <ele>1393</ele>
        <time>2015-11-15T08:54:43.550Z</time>
      </trkpt>
      <trkpt lat="45.29032" lon="6.24839">
        <ele>1393.7179546089</ele>
        <time>2015-11-15T08:54:51.550Z</time>
      </trkpt>
      <trkpt lat="45.29037" lon="6.24829">
        <ele>1396</ele>
        <time>2015-11-15T08:55:02.550Z</time>
      </trkpt>
      <trkpt lat="45.29041" lon="6.24817">
        <ele>1396.8928685714</ele>
        <time>2015-11-15T08:55:11.550Z</time>
      </trkpt>
      <trkpt lat="45.29046" lon="6.24805">
        <ele>1398.4098391615</ele>
        <time>2015-11-15T08:55:20.550Z</time>
      </trkpt>
      <trkpt lat="45.2905" lon="6.24792">
        <ele>1400</ele>
        <time>2015-11-15T08:55:30.550Z</time>
      </trkpt>
      <trkpt lat="45.29055" lon="6.24778">
        <ele>1401</ele>
        <time>2015-11-15T08:55:41.550Z</time>
      </trkpt>
      <trkpt lat="45.29055" lon="6.24764">
        <ele>1402</ele>
        <time>2015-11-15T08:55:51.550Z</time>
      </trkpt>
      <trkpt lat="45.29057" lon="6.2475">
        <ele>1403</ele>
        <time>2015-11-15T08:56:00.550Z</time>
      </trkpt>
      <trkpt lat="45.29061" lon="6.24736">
        <ele>1403</ele>
        <time>2015-11-15T08:56:08.550Z</time>
      </trkpt>
      <trkpt lat="45.29064" lon="6.24722">
        <ele>1405</ele>
        <time>2015-11-15T08:56:16.550Z</time>
      </trkpt>
      <trkpt lat="45.29065" lon="6.24706">
        <ele>1406</ele>
        <time>2015-11-15T08:56:25.550Z</time>
      </trkpt>
      <trkpt lat="45.29066" lon="6.24691">
        <ele>1407</ele>
        <time>2015-11-15T08:56:35.550Z</time>
      </trkpt>
      <trkpt lat="45.29064" lon="6.24676">
        <ele>1409</ele>
        <time>2015-11-15T08:56:45.550Z</time>
      </trkpt>
      <trkpt lat="45.2906" lon="6.24662">
        <ele>1409</ele>
        <time>2015-11-15T08:56:53.550Z</time>
      </trkpt>
      <trkpt lat="45.29057" lon="6.24648">
        <ele>1411</ele>
        <time>2015-11-15T08:57:03.550Z</time>
      </trkpt>
      <trkpt lat="45.29052" lon="6.24635">
        <ele>1413</ele>
        <time>2015-11-15T08:57:11.550Z</time>
      </trkpt>
      <trkpt lat="45.29045" lon="6.24626">
        <ele>1413</ele>
        <time>2015-11-15T08:57:17.550Z</time>
      </trkpt>
      <trkpt lat="45.2904" lon="6.24617">
        <ele>1414</ele>
        <time>2015-11-15T08:57:23.550Z</time>
      </trkpt>
      <trkpt lat="45.29033" lon="6.24606">
        <ele>1416</ele>
        <time>2015-11-15T08:57:31.550Z</time>
      </trkpt>
      <trkpt lat="45.29029" lon="6.24595">
        <ele>1416</ele>
        <time>2015-11-15T08:57:39.550Z</time>
      </trkpt>
      <trkpt lat="45.29021" lon="6.24586">
        <ele>1417</ele>
        <time>2015-11-15T08:57:46.550Z</time>
      </trkpt>
      <trkpt lat="45.29014" lon="6.24576">
        <ele>1418</ele>
        <time>2015-11-15T08:57:56.550Z</time>
      </trkpt>
      <trkpt lat="45.29007" lon="6.24568">
        <ele>1420</ele>
        <time>2015-11-15T08:58:02.550Z</time>
      </trkpt>
      <trkpt lat="45.29" lon="6.24558">
        <ele>1420.8764148366</ele>
        <time>2015-11-15T08:58:11.550Z</time>
      </trkpt>
      <trkpt lat="45.28994" lon="6.2455">
        <ele>1422</ele>
        <time>2015-11-15T08:58:18.550Z</time>
      </trkpt>
      <trkpt lat="45.2899" lon="6.24543">
        <ele>1422</ele>
        <time>2015-11-15T08:58:23.550Z</time>
      </trkpt>
      <trkpt lat="45.28986" lon="6.24537">
        <ele>1422</ele>
        <time>2015-11-15T08:58:28.550Z</time>
      </trkpt>
      <trkpt lat="45.28981" lon="6.24531">
        <ele>1424</ele>
        <time>2015-11-15T08:58:33.550Z</time>
      </trkpt>
      <trkpt lat="45.28977" lon="6.24525">
        <ele>1424</ele>
        <time>2015-11-15T08:58:38.550Z</time>
      </trkpt>
      <trkpt lat="45.28974" lon="6.24514">
        <ele>1426</ele>
        <time>2015-11-15T08:58:46.550Z</time>
      </trkpt>
      <trkpt lat="45.28969" lon="6.24506">
        <ele>1428</ele>
        <time>2015-11-15T08:58:53.550Z</time>
      </trkpt>
      <trkpt lat="45.28964" lon="6.24499">
        <ele>1428</ele>
        <time>2015-11-15T08:59:00.550Z</time>
      </trkpt>
      <trkpt lat="45.28958" lon="6.24492">
        <ele>1428</ele>
        <time>2015-11-15T08:59:05.550Z</time>
      </trkpt>
      <trkpt lat="45.28954" lon="6.24485">
        <ele>1428</ele>
        <time>2015-11-15T08:59:10.550Z</time>
      </trkpt>
      <trkpt lat="45.28949" lon="6.24479">
        <ele>1430</ele>
        <time>2015-11-15T08:59:17.550Z</time>
      </trkpt>
      <trkpt lat="45.28944" lon="6.24473">
        <ele>1433</ele>
        <time>2015-11-15T08:59:23.550Z</time>
      </trkpt>
      <trkpt lat="45.28939" lon="6.24469">
        <ele>1433</ele>
        <time>2015-11-15T08:59:28.550Z</time>
      </trkpt>
      <trkpt lat="45.28935" lon="6.24463">
        <ele>1433</ele>
        <time>2015-11-15T08:59:33.550Z</time>
      </trkpt>
      <trkpt lat="45.28931" lon="6.24458">
        <ele>1433</ele>
        <time>2015-11-15T08:59:38.550Z</time>
      </trkpt>
      <trkpt lat="45.28927" lon="6.24457">
        <ele>1434</ele>
        <time>2015-11-15T09:02:50.550Z</time>
      </trkpt>
      <trkpt lat="45.28922" lon="6.24446">
        <ele>1435</ele>
        <time>2015-11-15T09:04:05.550Z</time>
      </trkpt>
      <trkpt lat="45.28916" lon="6.24435">
        <ele>1436</ele>
        <time>2015-11-15T09:04:14.550Z</time>
      </trkpt>
      <trkpt lat="45.28908" lon="6.24426">
        <ele>1438</ele>
        <time>2015-11-15T09:04:24.550Z</time>
      </trkpt>
      <trkpt lat="45.28901" lon="6.24419">
        <ele>1438.6888911012</ele>
        <time>2015-11-15T09:04:31.550Z</time>
      </trkpt>
      <trkpt lat="45.28892" lon="6.24413">
        <ele>1441</ele>
        <time>2015-11-15T09:04:39.550Z</time>
      </trkpt>
      <trkpt lat="45.28883" lon="6.24408">
        <ele>1442</ele>
        <time>2015-11-15T09:04:50.550Z</time>
      </trkpt>
      <trkpt lat="45.28874" lon="6.24401">
        <ele>1443</ele>
        <time>2015-11-15T09:05:02.550Z</time>
      </trkpt>
      <trkpt lat="45.28864" lon="6.24398">
        <ele>1443</ele>
        <time>2015-11-15T09:05:10.550Z</time>
      </trkpt>
      <trkpt lat="45.28855" lon="6.24391">
        <ele>1445.9011168312</ele>
        <time>2015-11-15T09:05:21.550Z</time>
      </trkpt>
      <trkpt lat="45.28846" lon="6.24385">
        <ele>1447</ele>
        <time>2015-11-15T09:05:30.550Z</time>
      </trkpt>
      <trkpt lat="45.28837" lon="6.24377">
        <ele>1448</ele>
        <time>2015-11-15T09:05:42.550Z</time>
      </trkpt>
      <trkpt lat="45.28828" lon="6.24371">
        <ele>1449</ele>
        <time>2015-11-15T09:05:53.550Z</time>
      </trkpt>
      <trkpt lat="45.28819" lon="6.24364">
        <ele>1451</ele>
        <time>2015-11-15T09:06:03.550Z</time>
      </trkpt>
      <trkpt lat="45.2881" lon="6.24356">
        <ele>1451</ele>
        <time>2015-11-15T09:06:10.550Z</time>
      </trkpt>
      <trkpt lat="45.28801" lon="6.24344">
        <ele>1452</ele>
        <time>2015-11-15T09:06:16.550Z</time>
      </trkpt>
      <trkpt lat="45.28799" lon="6.2433">
        <ele>1454</ele>
        <time>2015-11-15T09:06:23.550Z</time>
      </trkpt>
      <trkpt lat="45.28799" lon="6.24315">
        <ele>1456</ele>
        <time>2015-11-15T09:06:33.550Z</time>
      </trkpt>
      <trkpt lat="45.28798" lon="6.24301">
        <ele>1458</ele>
        <time>2015-11-15T09:06:42.550Z</time>
      </trkpt>
      <trkpt lat="45.28797" lon="6.24286">
        <ele>1459</ele>
        <time>2015-11-15T09:06:52.550Z</time>
      </trkpt>
      <trkpt lat="45.28799" lon="6.24271">
        <ele>1461</ele>
        <time>2015-11-15T09:07:02.550Z</time>
      </trkpt>
      <trkpt lat="45.288" lon="6.2426">
        <ele>1462</ele>
        <time>2015-11-15T09:07:10.550Z</time>
      </trkpt>
      <trkpt lat="45.28795" lon="6.24247">
        <ele>1463</ele>
        <time>2015-11-15T09:07:21.550Z</time>
      </trkpt>
      <trkpt lat="45.28788" lon="6.24238">
        <ele>1465</ele>
        <time>2015-11-15T09:07:29.550Z</time>
      </trkpt>
      <trkpt lat="45.28782" lon="6.2423">
        <ele>1466</ele>
        <time>2015-11-15T09:07:36.550Z</time>
      </trkpt>
      <trkpt lat="45.28774" lon="6.24221">
        <ele>1467</ele>
        <time>2015-11-15T09:07:49.550Z</time>
      </trkpt>
      <trkpt lat="45.28766" lon="6.24215">
        <ele>1469</ele>
        <time>2015-11-15T09:07:59.550Z</time>
      </trkpt>
      <trkpt lat="45.28756" lon="6.24207">
        <ele>1470</ele>
        <time>2015-11-15T09:08:08.550Z</time>
      </trkpt>
      <trkpt lat="45.28748" lon="6.242">
        <ele>1471</ele>
        <time>2015-11-15T09:08:14.550Z</time>
      </trkpt>
      <trkpt lat="45.28741" lon="6.24189">
        <ele>1471</ele>
        <time>2015-11-15T09:08:20.550Z</time>
      </trkpt>
      <trkpt lat="45.28736" lon="6.24174">
        <ele>1472</ele>
        <time>2015-11-15T09:08:27.550Z</time>
      </trkpt>
      <trkpt lat="45.28738" lon="6.24162">
        <ele>1474</ele>
        <time>2015-11-15T09:08:37.550Z</time>
      </trkpt>
      <trkpt lat="45.28739" lon="6.24152">
        <ele>1475.4382074183</ele>
        <time>2015-11-15T09:08:45.550Z</time>
      </trkpt>
      <trkpt lat="45.28741" lon="6.24137">
        <ele>1477</ele>
        <time>2015-11-15T09:08:56.550Z</time>
      </trkpt>
      <trkpt lat="45.28746" lon="6.24127">
        <ele>1477</ele>
        <time>2015-11-15T09:09:05.550Z</time>
      </trkpt>
      <trkpt lat="45.28753" lon="6.24117">
        <ele>1479</ele>
        <time>2015-11-15T09:09:15.550Z</time>
      </trkpt>
      <trkpt lat="45.28754" lon="6.24103">
        <ele>1479</ele>
        <time>2015-11-15T09:09:25.550Z</time>
      </trkpt>
      <trkpt lat="45.28752" lon="6.24088">
        <ele>1481</ele>
        <time>2015-11-15T09:09:34.550Z</time>
      </trkpt>
      <trkpt lat="45.28754" lon="6.24073">
        <ele>1483</ele>
        <time>2015-11-15T09:09:43.550Z</time>
      </trkpt>
      <trkpt lat="45.28753" lon="6.24058">
        <ele>1484</ele>
        <time>2015-11-15T09:09:53.550Z</time>
      </trkpt>
      <trkpt lat="45.28753" lon="6.24042">
        <ele>1486</ele>
        <time>2015-11-15T09:10:04.550Z</time>
      </trkpt>
      <trkpt lat="45.28752" lon="6.24028">
        <ele>1487</ele>
        <time>2015-11-15T09:10:12.550Z</time>
      </trkpt>
      <trkpt lat="45.2875" lon="6.24012">
        <ele>1489</ele>
        <time>2015-11-15T09:10:22.550Z</time>
      </trkpt>
      <trkpt lat="45.28745" lon="6.24">
        <ele>1489</ele>
        <time>2015-11-15T09:10:30.550Z</time>
      </trkpt>
      <trkpt lat="45.28739" lon="6.23987">
        <ele>1490</ele>
        <time>2015-11-15T09:10:39.550Z</time>
      </trkpt>
      <trkpt lat="45.28735" lon="6.23974">
        <ele>1491</ele>
        <time>2015-11-15T09:10:48.550Z</time>
      </trkpt>
      <trkpt lat="45.28733" lon="6.2396">
        <ele>1493</ele>
        <time>2015-11-15T09:10:58.550Z</time>
      </trkpt>
      <trkpt lat="45.28727" lon="6.23947">
        <ele>1494</ele>
        <time>2015-11-15T09:11:08.550Z</time>
      </trkpt>
      <trkpt lat="45.28721" lon="6.23935">
        <ele>1496</ele>
        <time>2015-11-15T09:11:15.550Z</time>
      </trkpt>
      <trkpt lat="45.28716" lon="6.23924">
        <ele>1498</ele>
        <time>2015-11-15T09:11:23.550Z</time>
      </trkpt>
      <trkpt lat="45.28712" lon="6.23912">
        <ele>1498.4159332133</ele>
        <time>2015-11-15T09:11:31.550Z</time>
      </trkpt>
      <trkpt lat="45.28706" lon="6.23904">
        <ele>1499</ele>
        <time>2015-11-15T09:11:39.550Z</time>
      </trkpt>
      <trkpt lat="45.28702" lon="6.23896">
        <ele>1501</ele>
        <time>2015-11-15T09:11:46.550Z</time>
      </trkpt>
      <trkpt lat="45.28697" lon="6.23888">
        <ele>1502</ele>
        <time>2015-11-15T09:11:53.550Z</time>
      </trkpt>
      <trkpt lat="45.28692" lon="6.2388">
        <ele>1503</ele>
        <time>2015-11-15T09:12:02.550Z</time>
      </trkpt>
      <trkpt lat="45.28688" lon="6.23871">
        <ele>1503</ele>
        <time>2015-11-15T09:12:09.550Z</time>
      </trkpt>
      <trkpt lat="45.28681" lon="6.23861">
        <ele>1505</ele>
        <time>2015-11-15T09:12:18.550Z</time>
      </trkpt>
      <trkpt lat="45.28674" lon="6.23851">
        <ele>1506</ele>
        <time>2015-11-15T09:12:27.550Z</time>
      </trkpt>
      <trkpt lat="45.28666" lon="6.23841">
        <ele>1507</ele>
        <time>2015-11-15T09:12:39.550Z</time>
      </trkpt>
      <trkpt lat="45.2866" lon="6.2383">
        <ele>1510</ele>
        <time>2015-11-15T09:12:52.550Z</time>
      </trkpt>
      <trkpt lat="45.28652" lon="6.2382">
        <ele>1511</ele>
        <time>2015-11-15T09:13:05.550Z</time>
      </trkpt>
      <trkpt lat="45.28643" lon="6.23811">
        <ele>1513</ele>
        <time>2015-11-15T09:13:14.550Z</time>
      </trkpt>
      <trkpt lat="45.28636" lon="6.23801">
        <ele>1514</ele>
        <time>2015-11-15T09:13:25.550Z</time>
      </trkpt>
      <trkpt lat="45.28628" lon="6.23791">
        <ele>1516</ele>
        <time>2015-11-15T09:13:36.550Z</time>
      </trkpt>
      <trkpt lat="45.2862" lon="6.23781">
        <ele>1517</ele>
        <time>2015-11-15T09:13:47.550Z</time>
      </trkpt>
      <trkpt lat="45.28614" lon="6.2377">
        <ele>1518</ele>
        <time>2015-11-15T09:13:58.550Z</time>
      </trkpt>
      <trkpt lat="45.28606" lon="6.23761">
        <ele>1519.4237319391</ele>
        <time>2015-11-15T09:14:10.550Z</time>
      </trkpt>
      <trkpt lat="45.28599" lon="6.2375">
        <ele>1522</ele>
        <time>2015-11-15T09:14:23.550Z</time>
      </trkpt>
      <trkpt lat="45.28592" lon="6.23739">
        <ele>1522</ele>
        <time>2015-11-15T09:14:35.550Z</time>
      </trkpt>
      <trkpt lat="45.28586" lon="6.23728">
        <ele>1524</ele>
        <time>2015-11-15T09:14:46.550Z</time>
      </trkpt>
      <trkpt lat="45.28578" lon="6.23719">
        <ele>1525</ele>
        <time>2015-11-15T09:14:57.550Z</time>
      </trkpt>
      <trkpt lat="45.2857" lon="6.23709">
        <ele>1527</ele>
        <time>2015-11-15T09:15:07.550Z</time>
      </trkpt>
      <trkpt lat="45.28564" lon="6.23698">
        <ele>1528</ele>
        <time>2015-11-15T09:15:19.550Z</time>
      </trkpt>
      <trkpt lat="45.28558" lon="6.23686">
        <ele>1529.7111161679</ele>
        <time>2015-11-15T09:15:32.550Z</time>
      </trkpt>
      <trkpt lat="45.28553" lon="6.23677">
        <ele>1531</ele>
        <time>2015-11-15T09:15:41.550Z</time>
      </trkpt>
      <trkpt lat="45.28547" lon="6.23667">
        <ele>1532</ele>
        <time>2015-11-15T09:15:52.550Z</time>
      </trkpt>
      <trkpt lat="45.28541" lon="6.23659">
        <ele>1532.3678147391</ele>
        <time>2015-11-15T09:16:00.550Z</time>
      </trkpt>
      <trkpt lat="45.28534" lon="6.23653">
        <ele>1533.9130573913</ele>
        <time>2015-11-15T09:16:10.550Z</time>
      </trkpt>
      <trkpt lat="45.28528" lon="6.23647">
        <ele>1536</ele>
        <time>2015-11-15T09:16:16.550Z</time>
      </trkpt>
      <trkpt lat="45.28523" lon="6.23643">
        <ele>1537</ele>
        <time>2015-11-15T09:16:21.550Z</time>
      </trkpt>
      <trkpt lat="45.28517" lon="6.23638">
        <ele>1537</ele>
        <time>2015-11-15T09:16:27.550Z</time>
      </trkpt>
      <trkpt lat="45.2851" lon="6.23634">
        <ele>1538</ele>
        <time>2015-11-15T09:16:33.550Z</time>
      </trkpt>
      <trkpt lat="45.28504" lon="6.23629">
        <ele>1538.4273570663</ele>
        <time>2015-11-15T09:16:40.550Z</time>
      </trkpt>
      <trkpt lat="45.28499" lon="6.23625">
        <ele>1539</ele>
        <time>2015-11-15T09:16:46.550Z</time>
      </trkpt>
      <trkpt lat="45.28493" lon="6.23621">
        <ele>1540</ele>
        <time>2015-11-15T09:16:53.550Z</time>
      </trkpt>
      <trkpt lat="45.28486" lon="6.23616">
        <ele>1540.3975911047</ele>
        <time>2015-11-15T09:17:00.550Z</time>
      </trkpt>
      <trkpt lat="45.28477" lon="6.2361">
        <ele>1541</ele>
        <time>2015-11-15T09:17:09.550Z</time>
      </trkpt>
      <trkpt lat="45.28468" lon="6.23604">
        <ele>1543</ele>
        <time>2015-11-15T09:17:18.550Z</time>
      </trkpt>
      <trkpt lat="45.28459" lon="6.23598">
        <ele>1545</ele>
        <time>2015-11-15T09:17:28.550Z</time>
      </trkpt>
      <trkpt lat="45.2845" lon="6.23592">
        <ele>1546</ele>
        <time>2015-11-15T09:17:37.550Z</time>
      </trkpt>
      <trkpt lat="45.2844" lon="6.23586">
        <ele>1549.0000128</ele>
        <time>2015-11-15T09:17:50.550Z</time>
      </trkpt>
      <trkpt lat="45.28432" lon="6.23584">
        <ele>1550</ele>
        <time>2015-11-15T09:17:59.550Z</time>
      </trkpt>
      <trkpt lat="45.28424" lon="6.23582">
        <ele>1552</ele>
        <time>2015-11-15T09:18:07.550Z</time>
      </trkpt>
      <trkpt lat="45.28414" lon="6.23579">
        <ele>1552</ele>
        <time>2015-11-15T09:18:19.550Z</time>
      </trkpt>
      <trkpt lat="45.28405" lon="6.23578">
        <ele>1554</ele>
        <time>2015-11-15T09:18:28.550Z</time>
      </trkpt>
      <trkpt lat="45.28398" lon="6.23577">
        <ele>1554</ele>
        <time>2015-11-15T09:18:37.550Z</time>
      </trkpt>
      <trkpt lat="45.2839" lon="6.23577">
        <ele>1555</ele>
        <time>2015-11-15T09:18:46.550Z</time>
      </trkpt>
      <trkpt lat="45.28383" lon="6.23576">
        <ele>1556</ele>
        <time>2015-11-15T09:18:53.550Z</time>
      </trkpt>
      <trkpt lat="45.28377" lon="6.23573">
        <ele>1556</ele>
        <time>2015-11-15T09:19:00.550Z</time>
      </trkpt>
      <trkpt lat="45.2837" lon="6.23571">
        <ele>1558</ele>
        <time>2015-11-15T09:19:10.550Z</time>
      </trkpt>
      <trkpt lat="45.28367" lon="6.23577">
        <ele>1560</ele>
        <time>2015-11-15T09:22:42.550Z</time>
      </trkpt>
      <trkpt lat="45.28372" lon="6.23585">
        <ele>1560</ele>
        <time>2015-11-15T09:22:50.550Z</time>
      </trkpt>
      <trkpt lat="45.2838" lon="6.23587">
        <ele>1561</ele>
        <time>2015-11-15T09:22:58.550Z</time>
      </trkpt>
      <trkpt lat="45.28389" lon="6.2359">
        <ele>1563</ele>
        <time>2015-11-15T09:23:07.550Z</time>
      </trkpt>
      <trkpt lat="45.28397" lon="6.23597">
        <ele>1564</ele>
        <time>2015-11-15T09:23:17.550Z</time>
      </trkpt>
      <trkpt lat="45.28406" lon="6.23603">
        <ele>1566</ele>
        <time>2015-11-15T09:23:26.550Z</time>
      </trkpt>
      <trkpt lat="45.28415" lon="6.23611">
        <ele>1567</ele>
        <time>2015-11-15T09:23:33.550Z</time>
      </trkpt>
      <trkpt lat="45.28422" lon="6.2362">
        <ele>1567</ele>
        <time>2015-11-15T09:23:39.550Z</time>
      </trkpt>
      <trkpt lat="45.28429" lon="6.23629">
        <ele>1568</ele>
        <time>2015-11-15T09:23:46.550Z</time>
      </trkpt>
      <trkpt lat="45.28434" lon="6.23637">
        <ele>1570</ele>
        <time>2015-11-15T09:23:52.550Z</time>
      </trkpt>
      <trkpt lat="45.2844" lon="6.23645">
        <ele>1570</ele>
        <time>2015-11-15T09:23:58.550Z</time>
      </trkpt>
      <trkpt lat="45.28447" lon="6.23653">
        <ele>1571</ele>
        <time>2015-11-15T09:24:04.550Z</time>
      </trkpt>
      <trkpt lat="45.28452" lon="6.23661">
        <ele>1571</ele>
        <time>2015-11-15T09:24:09.550Z</time>
      </trkpt>
      <trkpt lat="45.28456" lon="6.2367">
        <ele>1572</ele>
        <time>2015-11-15T09:24:15.550Z</time>
      </trkpt>
      <trkpt lat="45.28461" lon="6.23679">
        <ele>1573</ele>
        <time>2015-11-15T09:24:22.550Z</time>
      </trkpt>
      <trkpt lat="45.28466" lon="6.2369">
        <ele>1573</ele>
        <time>2015-11-15T09:24:29.550Z</time>
      </trkpt>
      <trkpt lat="45.2847" lon="6.23702">
        <ele>1575</ele>
        <time>2015-11-15T09:24:37.550Z</time>
      </trkpt>
      <trkpt lat="45.28474" lon="6.23714">
        <ele>1577</ele>
        <time>2015-11-15T09:24:44.550Z</time>
      </trkpt>
      <trkpt lat="45.28477" lon="6.23724">
        <ele>1577</ele>
        <time>2015-11-15T09:24:51.550Z</time>
      </trkpt>
      <trkpt lat="45.28483" lon="6.23733">
        <ele>1577</ele>
        <time>2015-11-15T09:24:58.550Z</time>
      </trkpt>
      <trkpt lat="45.28486" lon="6.23744">
        <ele>1578</ele>
        <time>2015-11-15T09:25:05.550Z</time>
      </trkpt>
      <trkpt lat="45.28492" lon="6.23753">
        <ele>1578.3777822024</ele>
        <time>2015-11-15T09:25:12.550Z</time>
      </trkpt>
      <trkpt lat="45.28496" lon="6.23763">
        <ele>1579</ele>
        <time>2015-11-15T09:25:18.550Z</time>
      </trkpt>
      <trkpt lat="45.28501" lon="6.23773">
        <ele>1582</ele>
        <time>2015-11-15T09:25:25.550Z</time>
      </trkpt>
      <trkpt lat="45.28504" lon="6.23789">
        <ele>1583</ele>
        <time>2015-11-15T09:25:34.550Z</time>
      </trkpt>
      <trkpt lat="45.28507" lon="6.23801">
        <ele>1583</ele>
        <time>2015-11-15T09:25:42.550Z</time>
      </trkpt>
      <trkpt lat="45.2851" lon="6.23809">
        <ele>1583.4112186427</ele>
        <time>2015-11-15T09:25:47.550Z</time>
      </trkpt>
      <trkpt lat="45.28513" lon="6.23819">
        <ele>1584</ele>
        <time>2015-11-15T09:25:53.550Z</time>
      </trkpt>
      <trkpt lat="45.28516" lon="6.23833">
        <ele>1587</ele>
        <time>2015-11-15T09:26:02.550Z</time>
      </trkpt>
      <trkpt lat="45.28519" lon="6.23844">
        <ele>1587</ele>
        <time>2015-11-15T09:26:09.550Z</time>
      </trkpt>
      <trkpt lat="45.28523" lon="6.23854">
        <ele>1588</ele>
        <time>2015-11-15T09:26:16.550Z</time>
      </trkpt>
      <trkpt lat="45.28528" lon="6.23866">
        <ele>1590</ele>
        <time>2015-11-15T09:26:24.550Z</time>
      </trkpt>
      <trkpt lat="45.28532" lon="6.23877">
        <ele>1590</ele>
        <time>2015-11-15T09:26:31.550Z</time>
      </trkpt>
      <trkpt lat="45.28537" lon="6.2389">
        <ele>1590</ele>
        <time>2015-11-15T09:26:40.550Z</time>
      </trkpt>
      <trkpt lat="45.28542" lon="6.23901">
        <ele>1592</ele>
        <time>2015-11-15T09:26:47.550Z</time>
      </trkpt>
      <trkpt lat="45.28546" lon="6.23912">
        <ele>1594</ele>
        <time>2015-11-15T09:26:54.550Z</time>
      </trkpt>
      <trkpt lat="45.28549" lon="6.23924">
        <ele>1594.3925281719</ele>
        <time>2015-11-15T09:27:01.550Z</time>
      </trkpt>
      <trkpt lat="45.28551" lon="6.23936">
        <ele>1595</ele>
        <time>2015-11-15T09:27:08.550Z</time>
      </trkpt>
      <trkpt lat="45.28554" lon="6.23947">
        <ele>1596</ele>
        <time>2015-11-15T09:27:15.550Z</time>
      </trkpt>
      <trkpt lat="45.28557" lon="6.23959">
        <ele>1597</ele>
        <time>2015-11-15T09:27:23.550Z</time>
      </trkpt>
      <trkpt lat="45.2856" lon="6.23971">
        <ele>1597</ele>
        <time>2015-11-15T09:27:30.550Z</time>
      </trkpt>
      <trkpt lat="45.28563" lon="6.23982">
        <ele>1599</ele>
        <time>2015-11-15T09:27:37.550Z</time>
      </trkpt>
      <trkpt lat="45.28565" lon="6.23991">
        <ele>1600</ele>
        <time>2015-11-15T09:27:43.550Z</time>
      </trkpt>
      <trkpt lat="45.28568" lon="6.24001">
        <ele>1600</ele>
        <time>2015-11-15T09:27:49.550Z</time>
      </trkpt>
      <trkpt lat="45.28572" lon="6.24011">
        <ele>1602</ele>
        <time>2015-11-15T09:27:56.550Z</time>
      </trkpt>
      <trkpt lat="45.28575" lon="6.24023">
        <ele>1603</ele>
        <time>2015-11-15T09:28:04.550Z</time>
      </trkpt>
      <trkpt lat="45.28577" lon="6.24037">
        <ele>1605</ele>
        <time>2015-11-15T09:28:13.550Z</time>
      </trkpt>
      <trkpt lat="45.28576" lon="6.2405">
        <ele>1605.48</ele>
        <time>2015-11-15T09:28:22.550Z</time>
      </trkpt>
      <trkpt lat="45.28579" lon="6.24065">
        <ele>1606.2900058879</ele>
        <time>2015-11-15T09:28:32.550Z</time>
      </trkpt>
      <trkpt lat="45.2858" lon="6.24079">
        <ele>1607</ele>
        <time>2015-11-15T09:28:41.550Z</time>
      </trkpt>
      <trkpt lat="45.2858" lon="6.24093">
        <ele>1608</ele>
        <time>2015-11-15T09:28:49.550Z</time>
      </trkpt>
      <trkpt lat="45.28579" lon="6.24105">
        <ele>1610</ele>
        <time>2015-11-15T09:28:57.550Z</time>
      </trkpt>
      <trkpt lat="45.28575" lon="6.24116">
        <ele>1612</ele>
        <time>2015-11-15T09:29:04.550Z</time>
      </trkpt>
      <trkpt lat="45.2857" lon="6.24128">
        <ele>1613</ele>
        <time>2015-11-15T09:29:13.550Z</time>
      </trkpt>
      <trkpt lat="45.28564" lon="6.24138">
        <ele>1614</ele>
        <time>2015-11-15T09:29:23.550Z</time>
      </trkpt>
      <trkpt lat="45.2856" lon="6.24149">
        <ele>1614.3976003948</ele>
        <time>2015-11-15T09:29:31.550Z</time>
      </trkpt>
      <trkpt lat="45.28557" lon="6.24163">
        <ele>1615</ele>
        <time>2015-11-15T09:29:40.550Z</time>
      </trkpt>
      <trkpt lat="45.28555" lon="6.24176">
        <ele>1616</ele>
        <time>2015-11-15T09:29:48.550Z</time>
      </trkpt>
      <trkpt lat="45.28552" lon="6.24189">
        <ele>1618</ele>
        <time>2015-11-15T09:29:57.550Z</time>
      </trkpt>
      <trkpt lat="45.2855" lon="6.24203">
        <ele>1620</ele>
        <time>2015-11-15T09:30:05.550Z</time>
      </trkpt>
      <trkpt lat="45.2855" lon="6.24218">
        <ele>1620</ele>
        <time>2015-11-15T09:30:14.550Z</time>
      </trkpt>
      <trkpt lat="45.28553" lon="6.24233">
        <ele>1621</ele>
        <time>2015-11-15T09:30:23.550Z</time>
      </trkpt>
      <trkpt lat="45.28556" lon="6.24248">
        <ele>1621.7400097279</ele>
        <time>2015-11-15T09:30:32.550Z</time>
      </trkpt>
      <trkpt lat="45.28559" lon="6.24262">
        <ele>1623.3800064</ele>
        <time>2015-11-15T09:30:42.550Z</time>
      </trkpt>
      <trkpt lat="45.28563" lon="6.24277">
        <ele>1624</ele>
        <time>2015-11-15T09:30:51.550Z</time>
      </trkpt>
      <trkpt lat="45.28567" lon="6.2429">
        <ele>1626</ele>
        <time>2015-11-15T09:31:00.550Z</time>
      </trkpt>
      <trkpt lat="45.2857" lon="6.24304">
        <ele>1627</ele>
        <time>2015-11-15T09:31:09.550Z</time>
      </trkpt>
      <trkpt lat="45.2857" lon="6.24319">
        <ele>1627</ele>
        <time>2015-11-15T09:31:19.550Z</time>
      </trkpt>
      <trkpt lat="45.28569" lon="6.24333">
        <ele>1629</ele>
        <time>2015-11-15T09:31:29.550Z</time>
      </trkpt>
      <trkpt lat="45.28567" lon="6.24347">
        <ele>1630</ele>
        <time>2015-11-15T09:31:40.550Z</time>
      </trkpt>
      <trkpt lat="45.28563" lon="6.24362">
        <ele>1631</ele>
        <time>2015-11-15T09:31:50.550Z</time>
      </trkpt>
      <trkpt lat="45.28563" lon="6.24378">
        <ele>1632</ele>
        <time>2015-11-15T09:32:00.550Z</time>
      </trkpt>
      <trkpt lat="45.28565" lon="6.24392">
        <ele>1634</ele>
        <time>2015-11-15T09:32:10.550Z</time>
      </trkpt>
      <trkpt lat="45.28566" lon="6.24406">
        <ele>1634</ele>
        <time>2015-11-15T09:32:19.550Z</time>
      </trkpt>
      <trkpt lat="45.28566" lon="6.2442">
        <ele>1636</ele>
        <time>2015-11-15T09:32:29.550Z</time>
      </trkpt>
      <trkpt lat="45.2857" lon="6.24435">
        <ele>1638</ele>
        <time>2015-11-15T09:32:38.550Z</time>
      </trkpt>
      <trkpt lat="45.28576" lon="6.24447">
        <ele>1639</ele>
        <time>2015-11-15T09:32:47.550Z</time>
      </trkpt>
      <trkpt lat="45.28579" lon="6.24461">
        <ele>1640</ele>
        <time>2015-11-15T09:32:58.550Z</time>
      </trkpt>
      <trkpt lat="45.28579" lon="6.24474">
        <ele>1642</ele>
        <time>2015-11-15T09:33:06.550Z</time>
      </trkpt>
      <trkpt lat="45.2858" lon="6.24486">
        <ele>1643</ele>
        <time>2015-11-15T09:33:14.550Z</time>
      </trkpt>
      <trkpt lat="45.28579" lon="6.24497">
        <ele>1643.3877591003</ele>
        <time>2015-11-15T09:33:21.550Z</time>
      </trkpt>
      <trkpt lat="45.2858" lon="6.24508">
        <ele>1644</ele>
        <time>2015-11-15T09:33:28.550Z</time>
      </trkpt>
      <trkpt lat="45.28581" lon="6.24518">
        <ele>1645</ele>
        <time>2015-11-15T09:33:34.550Z</time>
      </trkpt>
      <trkpt lat="45.28583" lon="6.24529">
        <ele>1645.48</ele>
        <time>2015-11-15T09:33:41.550Z</time>
      </trkpt>
      <trkpt lat="45.28586" lon="6.2454">
        <ele>1646</ele>
        <time>2015-11-15T09:33:48.550Z</time>
      </trkpt>
      <trkpt lat="45.28589" lon="6.2455">
        <ele>1648</ele>
        <time>2015-11-15T09:33:55.550Z</time>
      </trkpt>
      <trkpt lat="45.28593" lon="6.2456">
        <ele>1649</ele>
        <time>2015-11-15T09:34:03.550Z</time>
      </trkpt>
      <trkpt lat="45.28596" lon="6.24571">
        <ele>1649.3947362512</ele>
        <time>2015-11-15T09:34:11.550Z</time>
      </trkpt>
      <trkpt lat="45.28601" lon="6.24579">
        <ele>1650</ele>
        <time>2015-11-15T09:34:18.550Z</time>
      </trkpt>
      <trkpt lat="45.28606" lon="6.24589">
        <ele>1652</ele>
        <time>2015-11-15T09:34:27.550Z</time>
      </trkpt>
      <trkpt lat="45.28614" lon="6.24598">
        <ele>1654</ele>
        <time>2015-11-15T09:34:38.550Z</time>
      </trkpt>
      <trkpt lat="45.28617" lon="6.24605">
        <ele>1654</ele>
        <time>2015-11-15T09:34:45.550Z</time>
      </trkpt>
      <trkpt lat="45.28624" lon="6.24616">
        <ele>1655</ele>
        <time>2015-11-15T09:34:55.550Z</time>
      </trkpt>
      <trkpt lat="45.28628" lon="6.24627">
        <ele>1656</ele>
        <time>2015-11-15T09:35:03.550Z</time>
      </trkpt>
      <trkpt lat="45.28632" lon="6.24638">
        <ele>1656.43104</ele>
        <time>2015-11-15T09:35:12.550Z</time>
      </trkpt>
      <trkpt lat="45.28631" lon="6.24648">
        <ele>1657</ele>
        <time>2015-11-15T09:35:20.550Z</time>
      </trkpt>
      <trkpt lat="45.2863" lon="6.24659">
        <ele>1658</ele>
        <time>2015-11-15T09:35:28.550Z</time>
      </trkpt>
      <trkpt lat="45.28629" lon="6.24674">
        <ele>1659</ele>
        <time>2015-11-15T09:35:38.550Z</time>
      </trkpt>
      <trkpt lat="45.28629" lon="6.24685">
        <ele>1660</ele>
        <time>2015-11-15T09:35:46.550Z</time>
      </trkpt>
      <trkpt lat="45.28626" lon="6.24695">
        <ele>1662</ele>
        <time>2015-11-15T09:35:53.550Z</time>
      </trkpt>
      <trkpt lat="45.28622" lon="6.24705">
        <ele>1663</ele>
        <time>2015-11-15T09:36:01.550Z</time>
      </trkpt>
      <trkpt lat="45.28616" lon="6.24715">
        <ele>1663.7951822093</ele>
        <time>2015-11-15T09:36:10.550Z</time>
      </trkpt>
      <trkpt lat="45.28611" lon="6.24728">
        <ele>1665</ele>
        <time>2015-11-15T09:36:21.550Z</time>
      </trkpt>
      <trkpt lat="45.28606" lon="6.24737">
        <ele>1665</ele>
        <time>2015-11-15T09:36:28.550Z</time>
      </trkpt>
      <trkpt lat="45.28601" lon="6.24749">
        <ele>1667</ele>
        <time>2015-11-15T09:36:38.550Z</time>
      </trkpt>
      <trkpt lat="45.28596" lon="6.24756">
        <ele>1668</ele>
        <time>2015-11-15T09:36:45.550Z</time>
      </trkpt>
      <trkpt lat="45.2859" lon="6.24765">
        <ele>1670</ele>
        <time>2015-11-15T09:36:54.550Z</time>
      </trkpt>
      <trkpt lat="45.28586" lon="6.24772">
        <ele>1671</ele>
        <time>2015-11-15T09:37:01.550Z</time>
      </trkpt>
      <trkpt lat="45.28582" lon="6.24781">
        <ele>1670</ele>
        <time>2015-11-15T09:37:09.550Z</time>
      </trkpt>
      <trkpt lat="45.28577" lon="6.24789">
        <ele>1671</ele>
        <time>2015-11-15T09:37:17.550Z</time>
      </trkpt>
      <trkpt lat="45.28573" lon="6.24798">
        <ele>1673</ele>
        <time>2015-11-15T09:37:25.550Z</time>
      </trkpt>
      <trkpt lat="45.28569" lon="6.24806">
        <ele>1674</ele>
        <time>2015-11-15T09:37:31.550Z</time>
      </trkpt>
      <trkpt lat="45.28565" lon="6.24813">
        <ele>1674</ele>
        <time>2015-11-15T09:37:39.550Z</time>
      </trkpt>
      <trkpt lat="45.28561" lon="6.24822">
        <ele>1675</ele>
        <time>2015-11-15T09:37:47.550Z</time>
      </trkpt>
      <trkpt lat="45.28556" lon="6.24832">
        <ele>1676</ele>
        <time>2015-11-15T09:37:55.550Z</time>
      </trkpt>
      <trkpt lat="45.28552" lon="6.24841">
        <ele>1677</ele>
        <time>2015-11-15T09:38:03.550Z</time>
      </trkpt>
      <trkpt lat="45.28549" lon="6.24851">
        <ele>1678</ele>
        <time>2015-11-15T09:38:12.550Z</time>
      </trkpt>
      <trkpt lat="45.28544" lon="6.24853">
        <ele>1678</ele>
        <time>2015-11-15T09:38:18.550Z</time>
      </trkpt>
      <trkpt lat="45.28537" lon="6.24845">
        <ele>1678</ele>
        <time>2015-11-15T09:38:29.550Z</time>
      </trkpt>
      <trkpt lat="45.28541" lon="6.24837">
        <ele>1680</ele>
        <time>2015-11-15T09:38:35.550Z</time>
      </trkpt>
      <trkpt lat="45.28545" lon="6.24828">
        <ele>1681</ele>
        <time>2015-11-15T09:38:43.550Z</time>
      </trkpt>
      <trkpt lat="45.28548" lon="6.24821">
        <ele>1682</ele>
        <time>2015-11-15T09:38:52.550Z</time>
      </trkpt>
      <trkpt lat="45.28552" lon="6.24814">
        <ele>1682</ele>
        <time>2015-11-15T09:38:57.550Z</time>
      </trkpt>
      <trkpt lat="45.28554" lon="6.24807">
        <ele>1683</ele>
        <time>2015-11-15T09:39:03.550Z</time>
      </trkpt>
      <trkpt lat="45.28557" lon="6.24801">
        <ele>1683</ele>
        <time>2015-11-15T09:39:08.550Z</time>
      </trkpt>
      <trkpt lat="45.28559" lon="6.24795">
        <ele>1684</ele>
        <time>2015-11-15T09:39:13.550Z</time>
      </trkpt>
      <trkpt lat="45.28562" lon="6.24788">
        <ele>1684</ele>
        <time>2015-11-15T09:39:18.550Z</time>
      </trkpt>
      <trkpt lat="45.28563" lon="6.2478">
        <ele>1685</ele>
        <time>2015-11-15T09:39:25.550Z</time>
      </trkpt>
      <trkpt lat="45.28564" lon="6.24773">
        <ele>1685.9130573913</ele>
        <time>2015-11-15T09:39:30.550Z</time>
      </trkpt>
      <trkpt lat="45.28566" lon="6.24766">
        <ele>1687</ele>
        <time>2015-11-15T09:39:36.550Z</time>
      </trkpt>
      <trkpt lat="45.28568" lon="6.24756">
        <ele>1688</ele>
        <time>2015-11-15T09:39:43.550Z</time>
      </trkpt>
      <trkpt lat="45.2857" lon="6.24746">
        <ele>1688</ele>
        <time>2015-11-15T09:39:50.550Z</time>
      </trkpt>
      <trkpt lat="45.28572" lon="6.24736">
        <ele>1689</ele>
        <time>2015-11-15T09:39:56.550Z</time>
      </trkpt>
      <trkpt lat="45.28574" lon="6.24726">
        <ele>1690</ele>
        <time>2015-11-15T09:40:03.550Z</time>
      </trkpt>
      <trkpt lat="45.28576" lon="6.24717">
        <ele>1690.5000064</ele>
        <time>2015-11-15T09:40:10.550Z</time>
      </trkpt>
      <trkpt lat="45.28577" lon="6.24707">
        <ele>1691</ele>
        <time>2015-11-15T09:40:16.550Z</time>
      </trkpt>
      <trkpt lat="45.28578" lon="6.24696">
        <ele>1693</ele>
        <time>2015-11-15T09:40:23.550Z</time>
      </trkpt>
      <trkpt lat="45.28577" lon="6.24688">
        <ele>1693.4565286956</ele>
        <time>2015-11-15T09:40:30.550Z</time>
      </trkpt>
      <trkpt lat="45.28577" lon="6.24679">
        <ele>1694</ele>
        <time>2015-11-15T09:40:37.550Z</time>
      </trkpt>
      <trkpt lat="45.28576" lon="6.24669">
        <ele>1695</ele>
        <time>2015-11-15T09:40:44.550Z</time>
      </trkpt>
      <trkpt lat="45.28574" lon="6.2466">
        <ele>1695.9259377778</ele>
        <time>2015-11-15T09:40:50.550Z</time>
      </trkpt>
      <trkpt lat="45.28571" lon="6.2465">
        <ele>1697</ele>
        <time>2015-11-15T09:40:56.550Z</time>
      </trkpt>
      <trkpt lat="45.28568" lon="6.2464">
        <ele>1698</ele>
        <time>2015-11-15T09:41:03.550Z</time>
      </trkpt>
      <trkpt lat="45.28565" lon="6.2463">
        <ele>1698</ele>
        <time>2015-11-15T09:41:09.550Z</time>
      </trkpt>
      <trkpt lat="45.28561" lon="6.24623">
        <ele>1700</ele>
        <time>2015-11-15T09:42:42.550Z</time>
      </trkpt>
      <trkpt lat="45.28556" lon="6.24616">
        <ele>1700</ele>
        <time>2015-11-15T09:42:48.550Z</time>
      </trkpt>
      <trkpt lat="45.28551" lon="6.2461">
        <ele>1701</ele>
        <time>2015-11-15T09:42:53.550Z</time>
      </trkpt>
      <trkpt lat="45.28548" lon="6.24605">
        <ele>1701</ele>
        <time>2015-11-15T09:42:57.550Z</time>
      </trkpt>
      <trkpt lat="45.28544" lon="6.246">
        <ele>1701.4333338074</ele>
        <time>2015-11-15T09:43:01.550Z</time>
      </trkpt>
      <trkpt lat="45.2854" lon="6.24595">
        <ele>1702</ele>
        <time>2015-11-15T09:43:06.550Z</time>
      </trkpt>
      <trkpt lat="45.28534" lon="6.24588">
        <ele>1702.371683922</ele>
        <time>2015-11-15T09:43:12.550Z</time>
      </trkpt>
      <trkpt lat="45.28529" lon="6.24582">
        <ele>1703</ele>
        <time>2015-11-15T09:43:18.550Z</time>
      </trkpt>
      <trkpt lat="45.28523" lon="6.24572">
        <ele>1705</ele>
        <time>2015-11-15T09:43:27.550Z</time>
      </trkpt>
      <trkpt lat="45.28517" lon="6.24564">
        <ele>1706</ele>
        <time>2015-11-15T09:43:35.550Z</time>
      </trkpt>
      <trkpt lat="45.28511" lon="6.24557">
        <ele>1706.9009098352</ele>
        <time>2015-11-15T09:43:42.550Z</time>
      </trkpt>
      <trkpt lat="45.28505" lon="6.24548">
        <ele>1709</ele>
        <time>2015-11-15T09:43:50.550Z</time>
      </trkpt>
      <trkpt lat="45.28499" lon="6.24541">
        <ele>1709</ele>
        <time>2015-11-15T09:43:57.550Z</time>
      </trkpt>
      <trkpt lat="45.28493" lon="6.24532">
        <ele>1710</ele>
        <time>2015-11-15T09:44:06.550Z</time>
      </trkpt>
      <trkpt lat="45.28486" lon="6.24522">
        <ele>1712</ele>
        <time>2015-11-15T09:44:15.550Z</time>
      </trkpt>
      <trkpt lat="45.28481" lon="6.24514">
        <ele>1713</ele>
        <time>2015-11-15T09:44:22.550Z</time>
      </trkpt>
      <trkpt lat="45.28475" lon="6.24505">
        <ele>1714</ele>
        <time>2015-11-15T09:44:30.550Z</time>
      </trkpt>
      <trkpt lat="45.2847" lon="6.24499">
        <ele>1714</ele>
        <time>2015-11-15T09:44:35.550Z</time>
      </trkpt>
      <trkpt lat="45.28465" lon="6.24491">
        <ele>1715</ele>
        <time>2015-11-15T09:44:42.550Z</time>
      </trkpt>
      <trkpt lat="45.28459" lon="6.24482">
        <ele>1716</ele>
        <time>2015-11-15T09:44:51.550Z</time>
      </trkpt>
      <trkpt lat="45.28456" lon="6.24475">
        <ele>1716</ele>
        <time>2015-11-15T09:44:56.550Z</time>
      </trkpt>
      <trkpt lat="45.28453" lon="6.24466">
        <ele>1717</ele>
        <time>2015-11-15T09:45:03.550Z</time>
      </trkpt>
      <trkpt lat="45.28452" lon="6.24457">
        <ele>1717</ele>
        <time>2015-11-15T09:45:09.550Z</time>
      </trkpt>
      <trkpt lat="45.28451" lon="6.24449">
        <ele>1719</ele>
        <time>2015-11-15T09:45:14.550Z</time>
      </trkpt>
      <trkpt lat="45.2845" lon="6.2444">
        <ele>1720</ele>
        <time>2015-11-15T09:45:20.550Z</time>
      </trkpt>
      <trkpt lat="45.28449" lon="6.24431">
        <ele>1720</ele>
        <time>2015-11-15T09:45:27.550Z</time>
      </trkpt>
      <trkpt lat="45.28447" lon="6.24421">
        <ele>1721</ele>
        <time>2015-11-15T09:45:34.550Z</time>
      </trkpt>
      <trkpt lat="45.28446" lon="6.24411">
        <ele>1721.8928685714</ele>
        <time>2015-11-15T09:45:41.550Z</time>
      </trkpt>
      <trkpt lat="45.28444" lon="6.24402">
        <ele>1723</ele>
        <time>2015-11-15T09:45:48.550Z</time>
      </trkpt>
      <trkpt lat="45.28441" lon="6.24393">
        <ele>1724</ele>
        <time>2015-11-15T09:45:54.550Z</time>
      </trkpt>
      <trkpt lat="45.28439" lon="6.24385">
        <ele>1724</ele>
        <time>2015-11-15T09:45:59.550Z</time>
      </trkpt>
      <trkpt lat="45.28438" lon="6.24376">
        <ele>1725</ele>
        <time>2015-11-15T09:46:05.550Z</time>
      </trkpt>
      <trkpt lat="45.28436" lon="6.24367">
        <ele>1726</ele>
        <time>2015-11-15T09:46:11.550Z</time>
      </trkpt>
      <trkpt lat="45.28434" lon="6.24358">
        <ele>1726</ele>
        <time>2015-11-15T09:46:18.550Z</time>
      </trkpt>
      <trkpt lat="45.28431" lon="6.24347">
        <ele>1728</ele>
        <time>2015-11-15T09:46:26.550Z</time>
      </trkpt>
      <trkpt lat="45.28428" lon="6.24339">
        <ele>1730</ele>
        <time>2015-11-15T09:46:32.550Z</time>
      </trkpt>
      <trkpt lat="45.28424" lon="6.24331">
        <ele>1730</ele>
        <time>2015-11-15T09:46:38.550Z</time>
      </trkpt>
      <trkpt lat="45.28421" lon="6.24324">
        <ele>1731</ele>
        <time>2015-11-15T09:46:43.550Z</time>
      </trkpt>
      <trkpt lat="45.28417" lon="6.24315">
        <ele>1731</ele>
        <time>2015-11-15T09:46:49.550Z</time>
      </trkpt>
      <trkpt lat="45.28415" lon="6.2431">
        <ele>1732</ele>
        <time>2015-11-15T09:46:53.550Z</time>
      </trkpt>
      <trkpt lat="45.28411" lon="6.24303">
        <ele>1732</ele>
        <time>2015-11-15T09:46:58.550Z</time>
      </trkpt>
      <trkpt lat="45.28407" lon="6.24298">
        <ele>1733</ele>
        <time>2015-11-15T09:47:02.550Z</time>
      </trkpt>
      <trkpt lat="45.28404" lon="6.24291">
        <ele>1733</ele>
        <time>2015-11-15T09:47:07.550Z</time>
      </trkpt>
      <trkpt lat="45.28398" lon="6.24281">
        <ele>1735</ele>
        <time>2015-11-15T09:47:15.550Z</time>
      </trkpt>
      <trkpt lat="45.28393" lon="6.24269">
        <ele>1736</ele>
        <time>2015-11-15T09:47:25.550Z</time>
      </trkpt>
      <trkpt lat="45.28389" lon="6.24265">
        <ele>1736</ele>
        <time>2015-11-15T09:47:29.550Z</time>
      </trkpt>
      <trkpt lat="45.28385" lon="6.24259">
        <ele>1737</ele>
        <time>2015-11-15T09:47:34.550Z</time>
      </trkpt>
      <trkpt lat="45.28381" lon="6.24254">
        <ele>1737</ele>
        <time>2015-11-15T09:47:38.550Z</time>
      </trkpt>
      <trkpt lat="45.28379" lon="6.24249">
        <ele>1737.8666676148</ele>
        <time>2015-11-15T09:47:41.550Z</time>
      </trkpt>
      <trkpt lat="45.28375" lon="6.24244">
        <ele>1739</ele>
        <time>2015-11-15T09:47:45.550Z</time>
      </trkpt>
      <trkpt lat="45.28372" lon="6.24239">
        <ele>1739</ele>
        <time>2015-11-15T09:47:49.550Z</time>
      </trkpt>
      <trkpt lat="45.28368" lon="6.24232">
        <ele>1740</ele>
        <time>2015-11-15T09:47:54.550Z</time>
      </trkpt>
      <trkpt lat="45.28364" lon="6.24226">
        <ele>1740</ele>
        <time>2015-11-15T09:47:59.550Z</time>
      </trkpt>
      <trkpt lat="45.2836" lon="6.2422">
        <ele>1741</ele>
        <time>2015-11-15T09:48:04.550Z</time>
      </trkpt>
      <trkpt lat="45.28356" lon="6.24213">
        <ele>1741.4545486281</ele>
        <time>2015-11-15T09:48:11.550Z</time>
      </trkpt>
      <trkpt lat="45.28352" lon="6.24207">
        <ele>1742</ele>
        <time>2015-11-15T09:48:17.550Z</time>
      </trkpt>
      <trkpt lat="45.28348" lon="6.24199">
        <ele>1743</ele>
        <time>2015-11-15T09:48:24.550Z</time>
      </trkpt>
      <trkpt lat="45.28343" lon="6.2419">
        <ele>1745</ele>
        <time>2015-11-15T09:48:32.550Z</time>
      </trkpt>
      <trkpt lat="45.28338" lon="6.24182">
        <ele>1745</ele>
        <time>2015-11-15T09:48:40.550Z</time>
      </trkpt>
      <trkpt lat="45.28333" lon="6.24175">
        <ele>1746</ele>
        <time>2015-11-15T09:48:46.550Z</time>
      </trkpt>
      <trkpt lat="45.2833" lon="6.2417">
        <ele>1746.444447605</ele>
        <time>2015-11-15T09:48:51.550Z</time>
      </trkpt>
      <trkpt lat="45.28326" lon="6.24164">
        <ele>1747</ele>
        <time>2015-11-15T09:48:56.550Z</time>
      </trkpt>
      <trkpt lat="45.28322" lon="6.24159">
        <ele>1747</ele>
        <time>2015-11-15T09:49:01.550Z</time>
      </trkpt>
      <trkpt lat="45.28319" lon="6.24154">
        <ele>1747</ele>
        <time>2015-11-15T09:49:05.550Z</time>
      </trkpt>
      <trkpt lat="45.28316" lon="6.2415">
        <ele>1747</ele>
        <time>2015-11-15T09:49:08.550Z</time>
      </trkpt>
      <trkpt lat="45.28314" lon="6.24147">
        <ele>1747</ele>
        <time>2015-11-15T09:49:11.550Z</time>
      </trkpt>
      <trkpt lat="45.28311" lon="6.24143">
        <ele>1749</ele>
        <time>2015-11-15T09:49:14.550Z</time>
      </trkpt>
      <trkpt lat="45.28309" lon="6.24139">
        <ele>1749</ele>
        <time>2015-11-15T09:49:17.550Z</time>
      </trkpt>
      <trkpt lat="45.28306" lon="6.24136">
        <ele>1749</ele>
        <time>2015-11-15T09:49:20.550Z</time>
      </trkpt>
      <trkpt lat="45.28304" lon="6.24133">
        <ele>1750</ele>
        <time>2015-11-15T09:49:23.550Z</time>
      </trkpt>
      <trkpt lat="45.28301" lon="6.24129">
        <ele>1750</ele>
        <time>2015-11-15T09:49:27.550Z</time>
      </trkpt>
      <trkpt lat="45.28297" lon="6.24124">
        <ele>1750</ele>
        <time>2015-11-15T09:49:31.550Z</time>
      </trkpt>
      <trkpt lat="45.28293" lon="6.2412">
        <ele>1750</ele>
        <time>2015-11-15T09:49:36.550Z</time>
      </trkpt>
      <trkpt lat="45.2829" lon="6.24117">
        <ele>1750</ele>
        <time>2015-11-15T09:49:41.550Z</time>
      </trkpt>
      <trkpt lat="45.28287" lon="6.24118">
        <ele>1750</ele>
        <time>2015-11-15T09:49:45.550Z</time>
      </trkpt>
      <trkpt lat="45.28283" lon="6.24119">
        <ele>1750</ele>
        <time>2015-11-15T09:50:57.550Z</time>
      </trkpt>
      <trkpt lat="45.28285" lon="6.24117">
        <ele>1752</ele>
        <time>2015-11-15T09:54:00.550Z</time>
      </trkpt>
      <trkpt lat="45.28285" lon="6.24123">
        <ele>1751</ele>
        <time>2015-11-15T09:54:44.550Z</time>
      </trkpt>
      <trkpt lat="45.28286" lon="6.24129">
        <ele>1751</ele>
        <time>2015-11-15T09:54:47.550Z</time>
      </trkpt>
      <trkpt lat="45.28287" lon="6.24132">
        <ele>1751</ele>
        <time>2015-11-15T09:54:49.550Z</time>
      </trkpt>
      <trkpt lat="45.2829" lon="6.24137">
        <ele>1752</ele>
        <time>2015-11-15T09:54:52.550Z</time>
      </trkpt>
      <trkpt lat="45.28292" lon="6.2414">
        <ele>1752</ele>
        <time>2015-11-15T09:54:55.550Z</time>
      </trkpt>
      <trkpt lat="45.28296" lon="6.24143">
        <ele>1752</ele>
        <time>2015-11-15T09:54:58.550Z</time>
      </trkpt>
      <trkpt lat="45.28299" lon="6.24148">
        <ele>1753</ele>
        <time>2015-11-15T09:55:02.550Z</time>
      </trkpt>
      <trkpt lat="45.28302" lon="6.24153">
        <ele>1753</ele>
        <time>2015-11-15T09:55:06.550Z</time>
      </trkpt>
      <trkpt lat="45.28305" lon="6.24157">
        <ele>1753</ele>
        <time>2015-11-15T09:55:09.550Z</time>
      </trkpt>
      <trkpt lat="45.28308" lon="6.24161">
        <ele>1755</ele>
        <time>2015-11-15T09:55:13.550Z</time>
      </trkpt>
      <trkpt lat="45.2831" lon="6.24167">
        <ele>1755</ele>
        <time>2015-11-15T09:55:17.550Z</time>
      </trkpt>
      <trkpt lat="45.28312" lon="6.24174">
        <ele>1755</ele>
        <time>2015-11-15T09:55:21.550Z</time>
      </trkpt>
      <trkpt lat="45.28314" lon="6.2418">
        <ele>1757</ele>
        <time>2015-11-15T09:55:25.550Z</time>
      </trkpt>
      <trkpt lat="45.28315" lon="6.24187">
        <ele>1757</ele>
        <time>2015-11-15T09:55:29.550Z</time>
      </trkpt>
      <trkpt lat="45.28316" lon="6.24194">
        <ele>1758</ele>
        <time>2015-11-15T09:55:33.550Z</time>
      </trkpt>
      <trkpt lat="45.28317" lon="6.24201">
        <ele>1758</ele>
        <time>2015-11-15T09:55:37.550Z</time>
      </trkpt>
      <trkpt lat="45.28319" lon="6.24206">
        <ele>1758</ele>
        <time>2015-11-15T09:55:41.550Z</time>
      </trkpt>
      <trkpt lat="45.2832" lon="6.24211">
        <ele>1760</ele>
        <time>2015-11-15T09:55:44.550Z</time>
      </trkpt>
      <trkpt lat="45.28322" lon="6.24216">
        <ele>1760</ele>
        <time>2015-11-15T09:55:47.550Z</time>
      </trkpt>
      <trkpt lat="45.28324" lon="6.24222">
        <ele>1760</ele>
        <time>2015-11-15T09:55:51.550Z</time>
      </trkpt>
      <trkpt lat="45.28326" lon="6.24228">
        <ele>1761</ele>
        <time>2015-11-15T09:55:55.550Z</time>
      </trkpt>
      <trkpt lat="45.28328" lon="6.24232">
        <ele>1761</ele>
        <time>2015-11-15T09:55:58.550Z</time>
      </trkpt>
      <trkpt lat="45.2833" lon="6.24238">
        <ele>1762</ele>
        <time>2015-11-15T09:56:02.550Z</time>
      </trkpt>
      <trkpt lat="45.28332" lon="6.24245">
        <ele>1762</ele>
        <time>2015-11-15T09:56:06.550Z</time>
      </trkpt>
      <trkpt lat="45.28334" lon="6.24253">
        <ele>1762.7912060089</ele>
        <time>2015-11-15T09:56:12.550Z</time>
      </trkpt>
      <trkpt lat="45.28336" lon="6.24261">
        <ele>1764.4285696871</ele>
        <time>2015-11-15T09:56:17.550Z</time>
      </trkpt>
      <trkpt lat="45.28338" lon="6.24267">
        <ele>1765</ele>
        <time>2015-11-15T09:56:21.550Z</time>
      </trkpt>
      <trkpt lat="45.28339" lon="6.24276">
        <ele>1765</ele>
        <time>2015-11-15T09:56:26.550Z</time>
      </trkpt>
      <trkpt lat="45.28341" lon="6.24283">
        <ele>1765</ele>
        <time>2015-11-15T09:56:30.550Z</time>
      </trkpt>
      <trkpt lat="45.28342" lon="6.2429">
        <ele>1765</ele>
        <time>2015-11-15T09:56:34.550Z</time>
      </trkpt>
      <trkpt lat="45.28343" lon="6.24297">
        <ele>1765</ele>
        <time>2015-11-15T09:56:38.550Z</time>
      </trkpt>
      <trkpt lat="45.28344" lon="6.24302">
        <ele>1765</ele>
        <time>2015-11-15T09:56:41.550Z</time>
      </trkpt>
      <trkpt lat="45.28345" lon="6.24308">
        <ele>1766</ele>
        <time>2015-11-15T09:56:45.550Z</time>
      </trkpt>
      <trkpt lat="45.28348" lon="6.24315">
        <ele>1766</ele>
        <time>2015-11-15T09:56:49.550Z</time>
      </trkpt>
      <trkpt lat="45.2835" lon="6.24321">
        <ele>1767</ele>
        <time>2015-11-15T09:56:53.550Z</time>
      </trkpt>
      <trkpt lat="45.28353" lon="6.24327">
        <ele>1767</ele>
        <time>2015-11-15T09:56:57.550Z</time>
      </trkpt>
      <trkpt lat="45.28356" lon="6.24331">
        <ele>1767</ele>
        <time>2015-11-15T09:57:00.550Z</time>
      </trkpt>
      <trkpt lat="45.28358" lon="6.24335">
        <ele>1769</ele>
        <time>2015-11-15T09:57:03.550Z</time>
      </trkpt>
      <trkpt lat="45.28358" lon="6.24342">
        <ele>1769</ele>
        <time>2015-11-15T09:57:07.550Z</time>
      </trkpt>
      <trkpt lat="45.28355" lon="6.24345">
        <ele>1769</ele>
        <time>2015-11-15T09:57:11.550Z</time>
      </trkpt>
      <trkpt lat="45.28352" lon="6.24342">
        <ele>1770</ele>
        <time>2015-11-15T09:57:15.550Z</time>
      </trkpt>
      <trkpt lat="45.28349" lon="6.24338">
        <ele>1771</ele>
        <time>2015-11-15T09:57:18.550Z</time>
      </trkpt>
      <trkpt lat="45.28347" lon="6.24332">
        <ele>1771.375008</ele>
        <time>2015-11-15T09:57:22.550Z</time>
      </trkpt>
      <trkpt lat="45.28345" lon="6.24327">
        <ele>1772</ele>
        <time>2015-11-15T09:57:26.550Z</time>
      </trkpt>
      <trkpt lat="45.28343" lon="6.24323">
        <ele>1772</ele>
        <time>2015-11-15T09:57:29.550Z</time>
      </trkpt>
      <trkpt lat="45.28341" lon="6.24319">
        <ele>1772.4505506871</ele>
        <time>2015-11-15T09:57:32.550Z</time>
      </trkpt>
      <trkpt lat="45.28337" lon="6.24314">
        <ele>1773</ele>
        <time>2015-11-15T09:57:36.550Z</time>
      </trkpt>
      <trkpt lat="45.28335" lon="6.2431">
        <ele>1773</ele>
        <time>2015-11-15T09:57:39.550Z</time>
      </trkpt>
      <trkpt lat="45.28332" lon="6.24304">
        <ele>1775</ele>
        <time>2015-11-15T09:57:43.550Z</time>
      </trkpt>
      <trkpt lat="45.28329" lon="6.24299">
        <ele>1775</ele>
        <time>2015-11-15T09:57:47.550Z</time>
      </trkpt>
      <trkpt lat="45.28326" lon="6.24293">
        <ele>1775</ele>
        <time>2015-11-15T09:57:51.550Z</time>
      </trkpt>
      <trkpt lat="45.28323" lon="6.24288">
        <ele>1775</ele>
        <time>2015-11-15T09:57:55.550Z</time>
      </trkpt>
      <trkpt lat="45.2832" lon="6.24282">
        <ele>1775</ele>
        <time>2015-11-15T09:58:00.550Z</time>
      </trkpt>
      <trkpt lat="45.28317" lon="6.24277">
        <ele>1777</ele>
        <time>2015-11-15T09:58:04.550Z</time>
      </trkpt>
      <trkpt lat="45.28315" lon="6.24273">
        <ele>1777</ele>
        <time>2015-11-15T09:58:08.550Z</time>
      </trkpt>
      <trkpt lat="45.28312" lon="6.24268">
        <ele>1778</ele>
        <time>2015-11-15T09:58:12.550Z</time>
      </trkpt>
      <trkpt lat="45.28309" lon="6.24264">
        <ele>1779</ele>
        <time>2015-11-15T09:58:15.550Z</time>
      </trkpt>
      <trkpt lat="45.28305" lon="6.24261">
        <ele>1779</ele>
        <time>2015-11-15T09:58:18.550Z</time>
      </trkpt>
      <trkpt lat="45.283" lon="6.24259">
        <ele>1779.4222263308</ele>
        <time>2015-11-15T09:58:22.550Z</time>
      </trkpt>
      <trkpt lat="45.28296" lon="6.2426">
        <ele>1780</ele>
        <time>2015-11-15T09:58:25.550Z</time>
      </trkpt>
      <trkpt lat="45.28293" lon="6.24262">
        <ele>1780</ele>
        <time>2015-11-15T09:58:28.550Z</time>
      </trkpt>
      <trkpt lat="45.2829" lon="6.24266">
        <ele>1780.3444455506</ele>
        <time>2015-11-15T09:58:31.550Z</time>
      </trkpt>
      <trkpt lat="45.28287" lon="6.24271">
        <ele>1781</ele>
        <time>2015-11-15T09:58:34.550Z</time>
      </trkpt>
      <trkpt lat="45.28285" lon="6.24276">
        <ele>1781</ele>
        <time>2015-11-15T09:58:38.550Z</time>
      </trkpt>
      <trkpt lat="45.28283" lon="6.24282">
        <ele>1783</ele>
        <time>2015-11-15T09:58:42.550Z</time>
      </trkpt>
      <trkpt lat="45.28282" lon="6.24287">
        <ele>1783</ele>
        <time>2015-11-15T09:58:45.550Z</time>
      </trkpt>
      <trkpt lat="45.28281" lon="6.24292">
        <ele>1783</ele>
        <time>2015-11-15T09:58:48.550Z</time>
      </trkpt>
      <trkpt lat="45.2828" lon="6.24297">
        <ele>1783.4065941795</ele>
        <time>2015-11-15T09:58:51.550Z</time>
      </trkpt>
      <trkpt lat="45.28278" lon="6.24302">
        <ele>1784</ele>
        <time>2015-11-15T09:58:54.550Z</time>
      </trkpt>
      <trkpt lat="45.28277" lon="6.24308">
        <ele>1784</ele>
        <time>2015-11-15T09:58:58.550Z</time>
      </trkpt>
      <trkpt lat="45.28275" lon="6.24315">
        <ele>1785</ele>
        <time>2015-11-15T09:59:02.550Z</time>
      </trkpt>
      <trkpt lat="45.28274" lon="6.2432">
        <ele>1785</ele>
        <time>2015-11-15T09:59:05.550Z</time>
      </trkpt>
      <trkpt lat="45.28273" lon="6.24325">
        <ele>1785</ele>
        <time>2015-11-15T09:59:08.550Z</time>
      </trkpt>
      <trkpt lat="45.28271" lon="6.24331">
        <ele>1786</ele>
        <time>2015-11-15T09:59:11.550Z</time>
      </trkpt>
      <trkpt lat="45.2827" lon="6.24337">
        <ele>1786</ele>
        <time>2015-11-15T09:59:14.550Z</time>
      </trkpt>
      <trkpt lat="45.28269" lon="6.24344">
        <ele>1786</ele>
        <time>2015-11-15T09:59:17.550Z</time>
      </trkpt>
      <trkpt lat="45.28269" lon="6.2435">
        <ele>1786</ele>
        <time>2015-11-15T09:59:20.550Z</time>
      </trkpt>
      <trkpt lat="45.28269" lon="6.24356">
        <ele>1786</ele>
        <time>2015-11-15T09:59:23.550Z</time>
      </trkpt>
      <trkpt lat="45.28268" lon="6.24363">
        <ele>1786</ele>
        <time>2015-11-15T09:59:26.550Z</time>
      </trkpt>
      <trkpt lat="45.28267" lon="6.2437">
        <ele>1786</ele>
        <time>2015-11-15T09:59:29.550Z</time>
      </trkpt>
      <trkpt lat="45.28267" lon="6.24377">
        <ele>1787</ele>
        <time>2015-11-15T09:59:32.550Z</time>
      </trkpt>
      <trkpt lat="45.28265" lon="6.24383">
        <ele>1787</ele>
        <time>2015-11-15T09:59:35.550Z</time>
      </trkpt>
      <trkpt lat="45.28264" lon="6.24389">
        <ele>1788</ele>
        <time>2015-11-15T09:59:38.550Z</time>
      </trkpt>
      <trkpt lat="45.28262" lon="6.24395">
        <ele>1788.3859670791</ele>
        <time>2015-11-15T09:59:41.550Z</time>
      </trkpt>
      <trkpt lat="45.28261" lon="6.24403">
        <ele>1789</ele>
        <time>2015-11-15T09:59:45.550Z</time>
      </trkpt>
      <trkpt lat="45.28259" lon="6.24409">
        <ele>1789</ele>
        <time>2015-11-15T09:59:48.550Z</time>
      </trkpt>
      <trkpt lat="45.28258" lon="6.24418">
        <ele>1791</ele>
        <time>2015-11-15T09:59:52.550Z</time>
      </trkpt>
      <trkpt lat="45.28256" lon="6.24427">
        <ele>1791</ele>
        <time>2015-11-15T09:59:56.550Z</time>
      </trkpt>
      <trkpt lat="45.28256" lon="6.24435">
        <ele>1791</ele>
        <time>2015-11-15T10:00:00.550Z</time>
      </trkpt>
      <trkpt lat="45.28256" lon="6.24442">
        <ele>1792</ele>
        <time>2015-11-15T10:00:03.550Z</time>
      </trkpt>
      <trkpt lat="45.28256" lon="6.24448">
        <ele>1792</ele>
        <time>2015-11-15T10:00:06.550Z</time>
      </trkpt>
      <trkpt lat="45.28256" lon="6.24454">
        <ele>1793</ele>
        <time>2015-11-15T10:00:09.550Z</time>
      </trkpt>
      <trkpt lat="45.28257" lon="6.24461">
        <ele>1793</ele>
        <time>2015-11-15T10:00:13.550Z</time>
      </trkpt>
      <trkpt lat="45.28257" lon="6.24468">
        <ele>1793</ele>
        <time>2015-11-15T10:00:16.550Z</time>
      </trkpt>
      <trkpt lat="45.28256" lon="6.24477">
        <ele>1793</ele>
        <time>2015-11-15T10:00:20.550Z</time>
      </trkpt>
      <trkpt lat="45.28255" lon="6.24486">
        <ele>1794</ele>
        <time>2015-11-15T10:00:24.550Z</time>
      </trkpt>
      <trkpt lat="45.28254" lon="6.24495">
        <ele>1794</ele>
        <time>2015-11-15T10:00:28.550Z</time>
      </trkpt>
      <trkpt lat="45.28253" lon="6.24504">
        <ele>1794.410002048</ele>
        <time>2015-11-15T10:00:32.550Z</time>
      </trkpt>
      <trkpt lat="45.28252" lon="6.2451">
        <ele>1795</ele>
        <time>2015-11-15T10:00:35.550Z</time>
      </trkpt>
      <trkpt lat="45.28252" lon="6.24519">
        <ele>1795</ele>
        <time>2015-11-15T10:00:39.550Z</time>
      </trkpt>
      <trkpt lat="45.2825" lon="6.24526">
        <ele>1795.5800117758</ele>
        <time>2015-11-15T10:00:42.550Z</time>
      </trkpt>
      <trkpt lat="45.28248" lon="6.24533">
        <ele>1797</ele>
        <time>2015-11-15T10:00:45.550Z</time>
      </trkpt>
      <trkpt lat="45.28244" lon="6.24539">
        <ele>1797</ele>
        <time>2015-11-15T10:00:49.550Z</time>
      </trkpt>
      <trkpt lat="45.28239" lon="6.24544">
        <ele>1798</ele>
        <time>2015-11-15T10:00:53.550Z</time>
      </trkpt>
      <trkpt lat="45.28234" lon="6.24548">
        <ele>1798</ele>
        <time>2015-11-15T10:00:58.550Z</time>
      </trkpt>
      <trkpt lat="45.2823" lon="6.24552">
        <ele>1800</ele>
        <time>2015-11-15T10:01:02.550Z</time>
      </trkpt>
      <trkpt lat="45.28226" lon="6.24557">
        <ele>1800</ele>
        <time>2015-11-15T10:01:06.550Z</time>
      </trkpt>
      <trkpt lat="45.28224" lon="6.24561">
        <ele>1800</ele>
        <time>2015-11-15T10:01:09.550Z</time>
      </trkpt>
      <trkpt lat="45.28221" lon="6.24568">
        <ele>1802</ele>
        <time>2015-11-15T10:01:13.550Z</time>
      </trkpt>
      <trkpt lat="45.2822" lon="6.24575">
        <ele>1802</ele>
        <time>2015-11-15T10:01:17.550Z</time>
      </trkpt>
      <trkpt lat="45.28219" lon="6.24581">
        <ele>1802</ele>
        <time>2015-11-15T10:01:20.550Z</time>
      </trkpt>
      <trkpt lat="45.28218" lon="6.24587">
        <ele>1803</ele>
        <time>2015-11-15T10:01:23.550Z</time>
      </trkpt>
      <trkpt lat="45.28218" lon="6.24593">
        <ele>1803</ele>
        <time>2015-11-15T10:01:26.550Z</time>
      </trkpt>
      <trkpt lat="45.28217" lon="6.24602">
        <ele>1803</ele>
        <time>2015-11-15T10:01:30.550Z</time>
      </trkpt>
      <trkpt lat="45.28217" lon="6.2461">
        <ele>1803</ele>
        <time>2015-11-15T10:01:34.550Z</time>
      </trkpt>
      <trkpt lat="45.28216" lon="6.24619">
        <ele>1803</ele>
        <time>2015-11-15T10:01:38.550Z</time>
      </trkpt>
      <trkpt lat="45.28214" lon="6.24628">
        <ele>1803.3444504494</ele>
        <time>2015-11-15T10:01:42.550Z</time>
      </trkpt>
      <trkpt lat="45.28213" lon="6.24636">
        <ele>1804</ele>
        <time>2015-11-15T10:01:46.550Z</time>
      </trkpt>
      <trkpt lat="45.28213" lon="6.24644">
        <ele>1804</ele>
        <time>2015-11-15T10:01:50.550Z</time>
      </trkpt>
      <trkpt lat="45.28213" lon="6.24653">
        <ele>1804</ele>
        <time>2015-11-15T10:01:54.550Z</time>
      </trkpt>
      <trkpt lat="45.28213" lon="6.24661">
        <ele>1804</ele>
        <time>2015-11-15T10:01:58.550Z</time>
      </trkpt>
      <trkpt lat="45.28212" lon="6.24668">
        <ele>1804.4065941795</ele>
        <time>2015-11-15T10:02:01.550Z</time>
      </trkpt>
      <trkpt lat="45.28209" lon="6.24675">
        <ele>1805</ele>
        <time>2015-11-15T10:02:05.550Z</time>
      </trkpt>
      <trkpt lat="45.28205" lon="6.2468">
        <ele>1805</ele>
        <time>2015-11-15T10:02:10.550Z</time>
      </trkpt>
      <trkpt lat="45.28201" lon="6.24685">
        <ele>1806</ele>
        <time>2015-11-15T10:02:14.550Z</time>
      </trkpt>
      <trkpt lat="45.28197" lon="6.2469">
        <ele>1806</ele>
        <time>2015-11-15T10:02:18.550Z</time>
      </trkpt>
      <trkpt lat="45.28193" lon="6.24695">
        <ele>1808</ele>
        <time>2015-11-15T10:02:22.550Z</time>
      </trkpt>
      <trkpt lat="45.28189" lon="6.247">
        <ele>1808.388889679</ele>
        <time>2015-11-15T10:02:26.550Z</time>
      </trkpt>
      <trkpt lat="45.28184" lon="6.24706">
        <ele>1809</ele>
        <time>2015-11-15T10:02:31.550Z</time>
      </trkpt>
      <trkpt lat="45.2818" lon="6.24711">
        <ele>1810.4587228146</ele>
        <time>2015-11-15T10:02:36.550Z</time>
      </trkpt>
      <trkpt lat="45.28175" lon="6.24716">
        <ele>1811</ele>
        <time>2015-11-15T10:02:41.550Z</time>
      </trkpt>
      <trkpt lat="45.2817" lon="6.24721">
        <ele>1811</ele>
        <time>2015-11-15T10:02:45.550Z</time>
      </trkpt>
      <trkpt lat="45.28166" lon="6.24725">
        <ele>1811</ele>
        <time>2015-11-15T10:02:49.550Z</time>
      </trkpt>
      <trkpt lat="45.28162" lon="6.24728">
        <ele>1811.438599643</ele>
        <time>2015-11-15T10:02:52.550Z</time>
      </trkpt>
      <trkpt lat="45.28157" lon="6.24732">
        <ele>1812</ele>
        <time>2015-11-15T10:02:56.550Z</time>
      </trkpt>
      <trkpt lat="45.28151" lon="6.24734">
        <ele>1812</ele>
        <time>2015-11-15T10:03:00.550Z</time>
      </trkpt>
      <trkpt lat="45.28147" lon="6.24736">
        <ele>1814</ele>
        <time>2015-11-15T10:03:03.550Z</time>
      </trkpt>
      <trkpt lat="45.28143" lon="6.24737">
        <ele>1814</ele>
        <time>2015-11-15T10:03:06.550Z</time>
      </trkpt>
      <trkpt lat="45.28137" lon="6.24739">
        <ele>1814</ele>
        <time>2015-11-15T10:03:10.550Z</time>
      </trkpt>
      <trkpt lat="45.28132" lon="6.2474">
        <ele>1815</ele>
        <time>2015-11-15T10:03:14.550Z</time>
      </trkpt>
      <trkpt lat="45.28127" lon="6.24742">
        <ele>1816</ele>
        <time>2015-11-15T10:03:18.550Z</time>
      </trkpt>
      <trkpt lat="45.28121" lon="6.24742">
        <ele>1817</ele>
        <time>2015-11-15T10:03:22.550Z</time>
      </trkpt>
      <trkpt lat="45.28115" lon="6.24743">
        <ele>1817</ele>
        <time>2015-11-15T10:03:27.550Z</time>
      </trkpt>
      <trkpt lat="45.28109" lon="6.24744">
        <ele>1817</ele>
        <time>2015-11-15T10:03:31.550Z</time>
      </trkpt>
      <trkpt lat="45.28103" lon="6.24746">
        <ele>1817.4424797807</ele>
        <time>2015-11-15T10:03:36.550Z</time>
      </trkpt>
      <trkpt lat="45.28097" lon="6.24747">
        <ele>1818</ele>
        <time>2015-11-15T10:03:40.550Z</time>
      </trkpt>
      <trkpt lat="45.2809" lon="6.24748">
        <ele>1818</ele>
        <time>2015-11-15T10:03:45.550Z</time>
      </trkpt>
      <trkpt lat="45.28083" lon="6.24749">
        <ele>1819</ele>
        <time>2015-11-15T10:03:50.550Z</time>
      </trkpt>
      <trkpt lat="45.28076" lon="6.24749">
        <ele>1819</ele>
        <time>2015-11-15T10:03:55.550Z</time>
      </trkpt>
      <trkpt lat="45.28069" lon="6.24749">
        <ele>1820.4000028445</ele>
        <time>2015-11-15T10:04:00.550Z</time>
      </trkpt>
      <trkpt lat="45.28063" lon="6.24751">
        <ele>1821</ele>
        <time>2015-11-15T10:04:05.550Z</time>
      </trkpt>
      <trkpt lat="45.28058" lon="6.24752">
        <ele>1821</ele>
        <time>2015-11-15T10:04:29.550Z</time>
      </trkpt>
      <trkpt lat="45.28065" lon="6.2475">
        <ele>1821</ele>
        <time>2015-11-15T10:05:03.550Z</time>
      </trkpt>
      <trkpt lat="45.28072" lon="6.24749">
        <ele>1821</ele>
        <time>2015-11-15T10:05:06.550Z</time>
      </trkpt>
      <trkpt lat="45.2808" lon="6.24749">
        <ele>1821</ele>
        <time>2015-11-15T10:05:09.550Z</time>
      </trkpt>
      <trkpt lat="45.28086" lon="6.24749">
        <ele>1821</ele>
        <time>2015-11-15T10:05:11.550Z</time>
      </trkpt>
      <trkpt lat="45.28091" lon="6.24748">
        <ele>1821</ele>
        <time>2015-11-15T10:05:13.550Z</time>
      </trkpt>
      <trkpt lat="45.28097" lon="6.24748">
        <ele>1821</ele>
        <time>2015-11-15T10:05:15.550Z</time>
      </trkpt>
      <trkpt lat="45.28103" lon="6.24747">
        <ele>1821</ele>
        <time>2015-11-15T10:05:17.550Z</time>
      </trkpt>
      <trkpt lat="45.2811" lon="6.24745">
        <ele>1821</ele>
        <time>2015-11-15T10:05:19.550Z</time>
      </trkpt>
      <trkpt lat="45.28117" lon="6.24744">
        <ele>1819.7288041828</ele>
        <time>2015-11-15T10:05:21.550Z</time>
      </trkpt>
      <trkpt lat="45.28124" lon="6.24742">
        <ele>1818</ele>
        <time>2015-11-15T10:05:23.550Z</time>
      </trkpt>
      <trkpt lat="45.28132" lon="6.2474">
        <ele>1817.1868116411</ele>
        <time>2015-11-15T10:05:25.550Z</time>
      </trkpt>
      <trkpt lat="45.2814" lon="6.24738">
        <ele>1816</ele>
        <time>2015-11-15T10:05:27.550Z</time>
      </trkpt>
      <trkpt lat="45.28149" lon="6.24736">
        <ele>1816</ele>
        <time>2015-11-15T10:05:29.550Z</time>
      </trkpt>
      <trkpt lat="45.28157" lon="6.24733">
        <ele>1814.6725456214</ele>
        <time>2015-11-15T10:05:31.550Z</time>
      </trkpt>
      <trkpt lat="45.28166" lon="6.24729">
        <ele>1813</ele>
        <time>2015-11-15T10:05:33.550Z</time>
      </trkpt>
      <trkpt lat="45.2817" lon="6.24726">
        <ele>1813</ele>
        <time>2015-11-15T10:05:34.550Z</time>
      </trkpt>
      <trkpt lat="45.28174" lon="6.24723">
        <ele>1813</ele>
        <time>2015-11-15T10:05:35.550Z</time>
      </trkpt>
      <trkpt lat="45.28178" lon="6.24719">
        <ele>1812.644441916</ele>
        <time>2015-11-15T10:05:36.550Z</time>
      </trkpt>
      <trkpt lat="45.28181" lon="6.24715">
        <ele>1812</ele>
        <time>2015-11-15T10:05:37.550Z</time>
      </trkpt>
      <trkpt lat="45.28185" lon="6.24711">
        <ele>1812</ele>
        <time>2015-11-15T10:05:38.550Z</time>
      </trkpt>
      <trkpt lat="45.28188" lon="6.24706">
        <ele>1812</ele>
        <time>2015-11-15T10:05:39.550Z</time>
      </trkpt>
      <trkpt lat="45.28194" lon="6.24698">
        <ele>1810</ele>
        <time>2015-11-15T10:05:41.550Z</time>
      </trkpt>
      <trkpt lat="45.28199" lon="6.24691">
        <ele>1810</ele>
        <time>2015-11-15T10:05:43.550Z</time>
      </trkpt>
      <trkpt lat="45.28203" lon="6.24685">
        <ele>1810</ele>
        <time>2015-11-15T10:05:45.550Z</time>
      </trkpt>
      <trkpt lat="45.28208" lon="6.24677">
        <ele>1809</ele>
        <time>2015-11-15T10:05:47.550Z</time>
      </trkpt>
      <trkpt lat="45.28215" lon="6.24673">
        <ele>1809</ele>
        <time>2015-11-15T10:05:49.550Z</time>
      </trkpt>
      <trkpt lat="45.28218" lon="6.24679">
        <ele>1809</ele>
        <time>2015-11-15T10:05:57.550Z</time>
      </trkpt>
      <trkpt lat="45.28215" lon="6.24684">
        <ele>1810</ele>
        <time>2015-11-15T10:06:03.550Z</time>
      </trkpt>
      <trkpt lat="45.28211" lon="6.24687">
        <ele>1810</ele>
        <time>2015-11-15T10:06:09.550Z</time>
      </trkpt>
      <trkpt lat="45.28206" lon="6.2469">
        <ele>1811</ele>
        <time>2015-11-15T10:06:15.550Z</time>
      </trkpt>
      <trkpt lat="45.28203" lon="6.24693">
        <ele>1811</ele>
        <time>2015-11-15T10:06:22.550Z</time>
      </trkpt>
      <trkpt lat="45.282" lon="6.24701">
        <ele>1811.41072</ele>
        <time>2015-11-15T10:07:25.550Z</time>
      </trkpt>
      <trkpt lat="45.28196" lon="6.24705">
        <ele>1813</ele>
        <time>2015-11-15T10:07:35.550Z</time>
      </trkpt>
      <trkpt lat="45.28192" lon="6.24712">
        <ele>1813.7777904198</ele>
        <time>2015-11-15T10:07:41.550Z</time>
      </trkpt>
      <trkpt lat="45.28189" lon="6.24721">
        <ele>1815.4587228146</ele>
        <time>2015-11-15T10:07:46.550Z</time>
      </trkpt>
      <trkpt lat="45.28184" lon="6.2473">
        <ele>1816.8474638782</ele>
        <time>2015-11-15T10:07:52.550Z</time>
      </trkpt>
      <trkpt lat="45.28181" lon="6.2474">
        <ele>1819.7865268729</ele>
        <time>2015-11-15T10:08:00.550Z</time>
      </trkpt>
      <trkpt lat="45.28178" lon="6.24749">
        <ele>1821</ele>
        <time>2015-11-15T10:08:06.550Z</time>
      </trkpt>
      <trkpt lat="45.28176" lon="6.24756">
        <ele>1822</ele>
        <time>2015-11-15T10:08:12.550Z</time>
      </trkpt>
      <trkpt lat="45.28173" lon="6.24762">
        <ele>1822</ele>
        <time>2015-11-15T10:08:17.550Z</time>
      </trkpt>
      <trkpt lat="45.28169" lon="6.24767">
        <ele>1822</ele>
        <time>2015-11-15T10:08:22.550Z</time>
      </trkpt>
      <trkpt lat="45.28164" lon="6.24773">
        <ele>1824</ele>
        <time>2015-11-15T10:08:29.550Z</time>
      </trkpt>
      <trkpt lat="45.2816" lon="6.24776">
        <ele>1826</ele>
        <time>2015-11-15T10:08:40.550Z</time>
      </trkpt>
      <trkpt lat="45.28156" lon="6.24778">
        <ele>1827</ele>
        <time>2015-11-15T10:08:49.550Z</time>
      </trkpt>
      <trkpt lat="45.28151" lon="6.24779">
        <ele>1828</ele>
        <time>2015-11-15T10:08:57.550Z</time>
      </trkpt>
      <trkpt lat="45.28147" lon="6.2478">
        <ele>1830</ele>
        <time>2015-11-15T10:09:04.550Z</time>
      </trkpt>
      <trkpt lat="45.28143" lon="6.24781">
        <ele>1830</ele>
        <time>2015-11-15T10:09:09.550Z</time>
      </trkpt>
      <trkpt lat="45.28138" lon="6.24782">
        <ele>1830</ele>
        <time>2015-11-15T10:09:18.550Z</time>
      </trkpt>
      <trkpt lat="45.28134" lon="6.24784">
        <ele>1830.8771992859</ele>
        <time>2015-11-15T10:09:30.550Z</time>
      </trkpt>
      <trkpt lat="45.28128" lon="6.24785">
        <ele>1832</ele>
        <time>2015-11-15T10:09:37.550Z</time>
      </trkpt>
      <trkpt lat="45.28124" lon="6.24787">
        <ele>1833</ele>
        <time>2015-11-15T10:09:42.550Z</time>
      </trkpt>
      <trkpt lat="45.2812" lon="6.24789">
        <ele>1835</ele>
        <time>2015-11-15T10:09:47.550Z</time>
      </trkpt>
      <trkpt lat="45.28116" lon="6.24791">
        <ele>1835</ele>
        <time>2015-11-15T10:09:54.550Z</time>
      </trkpt>
      <trkpt lat="45.28112" lon="6.24793">
        <ele>1835.4554533242</ele>
        <time>2015-11-15T10:10:01.550Z</time>
      </trkpt>
      <trkpt lat="45.28108" lon="6.24794">
        <ele>1836</ele>
        <time>2015-11-15T10:10:08.550Z</time>
      </trkpt>
      <trkpt lat="45.28102" lon="6.24796">
        <ele>1837</ele>
        <time>2015-11-15T10:10:19.550Z</time>
      </trkpt>
      <trkpt lat="45.28096" lon="6.24798">
        <ele>1839</ele>
        <time>2015-11-15T10:10:28.550Z</time>
      </trkpt>
      <trkpt lat="45.2809" lon="6.24799">
        <ele>1840</ele>
        <time>2015-11-15T10:10:38.550Z</time>
      </trkpt>
      <trkpt lat="45.28084" lon="6.24799">
        <ele>1842</ele>
        <time>2015-11-15T10:10:46.550Z</time>
      </trkpt>
      <trkpt lat="45.28079" lon="6.24801">
        <ele>1842</ele>
        <time>2015-11-15T10:11:00.550Z</time>
      </trkpt>
      <trkpt lat="45.28079" lon="6.24809">
        <ele>1844</ele>
        <time>2015-11-15T10:11:17.550Z</time>
      </trkpt>
      <trkpt lat="45.28082" lon="6.24816">
        <ele>1846</ele>
        <time>2015-11-15T10:11:26.550Z</time>
      </trkpt>
      <trkpt lat="45.28086" lon="6.24822">
        <ele>1847</ele>
        <time>2015-11-15T10:11:36.550Z</time>
      </trkpt>
      <trkpt lat="45.28088" lon="6.24829">
        <ele>1848</ele>
        <time>2015-11-15T10:11:45.550Z</time>
      </trkpt>
      <trkpt lat="45.28089" lon="6.24836">
        <ele>1849</ele>
        <time>2015-11-15T10:11:58.550Z</time>
      </trkpt>
      <trkpt lat="45.28086" lon="6.2484">
        <ele>1852</ele>
        <time>2015-11-15T10:13:58.550Z</time>
      </trkpt>
      <trkpt lat="45.28082" lon="6.24844">
        <ele>1852</ele>
        <time>2015-11-15T10:14:07.550Z</time>
      </trkpt>
      <trkpt lat="45.28077" lon="6.24848">
        <ele>1851.4044958364</ele>
        <time>2015-11-15T10:14:20.550Z</time>
      </trkpt>
      <trkpt lat="45.28072" lon="6.2485">
        <ele>1852</ele>
        <time>2015-11-15T10:14:25.550Z</time>
      </trkpt>
      <trkpt lat="45.28067" lon="6.24852">
        <ele>1852.438599643</ele>
        <time>2015-11-15T10:14:30.550Z</time>
      </trkpt>
      <trkpt lat="45.28064" lon="6.24855">
        <ele>1853</ele>
        <time>2015-11-15T10:14:50.550Z</time>
      </trkpt>
      <trkpt lat="45.28061" lon="6.24857">
        <ele>1853</ele>
        <time>2015-11-15T10:14:54.550Z</time>
      </trkpt>
      <trkpt lat="45.28057" lon="6.2486">
        <ele>1853</ele>
        <time>2015-11-15T10:14:59.550Z</time>
      </trkpt>
      <trkpt lat="45.28055" lon="6.24864">
        <ele>1855</ele>
        <time>2015-11-15T10:15:04.550Z</time>
      </trkpt>
      <trkpt lat="45.28053" lon="6.24868">
        <ele>1855</ele>
        <time>2015-11-15T10:15:08.550Z</time>
      </trkpt>
      <trkpt lat="45.28051" lon="6.24876">
        <ele>1855</ele>
        <time>2015-11-15T10:15:18.550Z</time>
      </trkpt>
      <trkpt lat="45.28049" lon="6.24881">
        <ele>1856</ele>
        <time>2015-11-15T10:15:25.550Z</time>
      </trkpt>
      <trkpt lat="45.28047" lon="6.24884">
        <ele>1856.9708831973</ele>
        <time>2015-11-15T10:15:30.550Z</time>
      </trkpt>
      <trkpt lat="45.28043" lon="6.24885">
        <ele>1857</ele>
        <time>2015-11-15T10:15:46.550Z</time>
      </trkpt>
      <trkpt lat="45.2804" lon="6.24887">
        <ele>1859</ele>
        <time>2015-11-15T10:15:54.550Z</time>
      </trkpt>
      <trkpt lat="45.28037" lon="6.2489">
        <ele>1860</ele>
        <time>2015-11-15T10:16:04.550Z</time>
      </trkpt>
      <trkpt lat="45.28032" lon="6.2489">
        <ele>1861</ele>
        <time>2015-11-15T10:16:16.550Z</time>
      </trkpt>
      <trkpt lat="45.28028" lon="6.24889">
        <ele>1862</ele>
        <time>2015-11-15T10:16:21.550Z</time>
      </trkpt>
      <trkpt lat="45.28028" lon="6.24898">
        <ele>1864</ele>
        <time>2015-11-15T10:16:33.550Z</time>
      </trkpt>
      <trkpt lat="45.28026" lon="6.24904">
        <ele>1866</ele>
        <time>2015-11-15T10:16:44.550Z</time>
      </trkpt>
      <trkpt lat="45.28022" lon="6.24903">
        <ele>1867</ele>
        <time>2015-11-15T10:16:54.550Z</time>
      </trkpt>
      <trkpt lat="45.28018" lon="6.24902">
        <ele>1867</ele>
        <time>2015-11-15T10:17:04.550Z</time>
      </trkpt>
      <trkpt lat="45.28017" lon="6.2491">
        <ele>1870</ele>
        <time>2015-11-15T10:17:22.550Z</time>
      </trkpt>
      <trkpt lat="45.28015" lon="6.24914">
        <ele>1871</ele>
        <time>2015-11-15T10:17:32.550Z</time>
      </trkpt>
      <trkpt lat="45.28013" lon="6.24913">
        <ele>1871</ele>
        <time>2015-11-15T10:17:38.550Z</time>
      </trkpt>
      <trkpt lat="45.28009" lon="6.24911">
        <ele>1873</ele>
        <time>2015-11-15T10:17:49.550Z</time>
      </trkpt>
      <trkpt lat="45.28005" lon="6.2491">
        <ele>1873</ele>
        <time>2015-11-15T10:18:00.550Z</time>
      </trkpt>
      <trkpt lat="45.28001" lon="6.24909">
        <ele>1875.425288371</ele>
        <time>2015-11-15T10:18:11.550Z</time>
      </trkpt>
      <trkpt lat="45.27997" lon="6.24909">
        <ele>1876.4234250856</ele>
        <time>2015-11-15T10:18:21.550Z</time>
      </trkpt>
      <trkpt lat="45.27994" lon="6.24914">
        <ele>1879</ele>
        <time>2015-11-15T10:18:33.550Z</time>
      </trkpt>
      <trkpt lat="45.27995" lon="6.24919">
        <ele>1879</ele>
        <time>2015-11-15T10:18:50.550Z</time>
      </trkpt>
      <trkpt lat="45.27995" lon="6.24926">
        <ele>1882</ele>
        <time>2015-11-15T10:19:03.550Z</time>
      </trkpt>
      <trkpt lat="45.27992" lon="6.2493">
        <ele>1883</ele>
        <time>2015-11-15T10:19:11.550Z</time>
      </trkpt>
      <trkpt lat="45.27988" lon="6.24928">
        <ele>1884</ele>
        <time>2015-11-15T10:19:21.550Z</time>
      </trkpt>
      <trkpt lat="45.27985" lon="6.24926">
        <ele>1884</ele>
        <time>2015-11-15T10:19:30.550Z</time>
      </trkpt>
      <trkpt lat="45.27982" lon="6.24933">
        <ele>1886</ele>
        <time>2015-11-15T10:19:43.550Z</time>
      </trkpt>
      <trkpt lat="45.27983" lon="6.24938">
        <ele>1886</ele>
        <time>2015-11-15T10:19:49.550Z</time>
      </trkpt>
      <trkpt lat="45.27983" lon="6.24946">
        <ele>1888</ele>
        <time>2015-11-15T10:20:02.550Z</time>
      </trkpt>
      <trkpt lat="45.2798" lon="6.24948">
        <ele>1890</ele>
        <time>2015-11-15T10:20:15.550Z</time>
      </trkpt>
      <trkpt lat="45.27976" lon="6.24946">
        <ele>1891</ele>
        <time>2015-11-15T10:20:22.550Z</time>
      </trkpt>
      <trkpt lat="45.27971" lon="6.24944">
        <ele>1892</ele>
        <time>2015-11-15T10:20:31.550Z</time>
      </trkpt>
      <trkpt lat="45.27967" lon="6.24941">
        <ele>1894</ele>
        <time>2015-11-15T10:20:43.550Z</time>
      </trkpt>
      <trkpt lat="45.27962" lon="6.24939">
        <ele>1895</ele>
        <time>2015-11-15T10:20:52.550Z</time>
      </trkpt>
      <trkpt lat="45.27961" lon="6.24947">
        <ele>1897</ele>
        <time>2015-11-15T10:21:03.550Z</time>
      </trkpt>
      <trkpt lat="45.2796" lon="6.24953">
        <ele>1898</ele>
        <time>2015-11-15T10:21:12.550Z</time>
      </trkpt>
      <trkpt lat="45.27961" lon="6.24961">
        <ele>1899</ele>
        <time>2015-11-15T10:21:25.550Z</time>
      </trkpt>
      <trkpt lat="45.27959" lon="6.24967">
        <ele>1900</ele>
        <time>2015-11-15T10:21:39.550Z</time>
      </trkpt>
      <trkpt lat="45.27955" lon="6.24966">
        <ele>1902</ele>
        <time>2015-11-15T10:21:48.550Z</time>
      </trkpt>
      <trkpt lat="45.27951" lon="6.24963">
        <ele>1904</ele>
        <time>2015-11-15T10:21:58.550Z</time>
      </trkpt>
      <trkpt lat="45.27947" lon="6.24961">
        <ele>1904.4423138462</ele>
        <time>2015-11-15T10:22:05.550Z</time>
      </trkpt>
      <trkpt lat="45.27943" lon="6.24959">
        <ele>1905.9345886068</ele>
        <time>2015-11-15T10:22:15.550Z</time>
      </trkpt>
      <trkpt lat="45.27939" lon="6.24956">
        <ele>1907</ele>
        <time>2015-11-15T10:22:24.550Z</time>
      </trkpt>
      <trkpt lat="45.27934" lon="6.24955">
        <ele>1907.9690819599</ele>
        <time>2015-11-15T10:22:35.550Z</time>
      </trkpt>
      <trkpt lat="45.2793" lon="6.24952">
        <ele>1909</ele>
        <time>2015-11-15T10:22:44.550Z</time>
      </trkpt>
      <trkpt lat="45.27924" lon="6.2495">
        <ele>1910</ele>
        <time>2015-11-15T10:22:53.550Z</time>
      </trkpt>
      <trkpt lat="45.27919" lon="6.24947">
        <ele>1913</ele>
        <time>2015-11-15T10:23:02.550Z</time>
      </trkpt>
      <trkpt lat="45.27915" lon="6.24945">
        <ele>1913</ele>
        <time>2015-11-15T10:23:09.550Z</time>
      </trkpt>
      <trkpt lat="45.27909" lon="6.24944">
        <ele>1914</ele>
        <time>2015-11-15T10:23:17.550Z</time>
      </trkpt>
      <trkpt lat="45.27905" lon="6.24942">
        <ele>1915</ele>
        <time>2015-11-15T10:23:24.550Z</time>
      </trkpt>
      <trkpt lat="45.27901" lon="6.24941">
        <ele>1916</ele>
        <time>2015-11-15T10:23:32.550Z</time>
      </trkpt>
      <trkpt lat="45.27895" lon="6.24939">
        <ele>1918</ele>
        <time>2015-11-15T10:23:43.550Z</time>
      </trkpt>
      <trkpt lat="45.2789" lon="6.24937">
        <ele>1919</ele>
        <time>2015-11-15T10:23:55.550Z</time>
      </trkpt>
      <trkpt lat="45.27885" lon="6.24936">
        <ele>1920</ele>
        <time>2015-11-15T10:24:03.550Z</time>
      </trkpt>
      <trkpt lat="45.2788" lon="6.24935">
        <ele>1921</ele>
        <time>2015-11-15T10:24:13.550Z</time>
      </trkpt>
      <trkpt lat="45.27874" lon="6.24936">
        <ele>1922</ele>
        <time>2015-11-15T10:24:25.550Z</time>
      </trkpt>
      <trkpt lat="45.27869" lon="6.24935">
        <ele>1925</ele>
        <time>2015-11-15T10:24:41.550Z</time>
      </trkpt>
      <trkpt lat="45.27865" lon="6.24934">
        <ele>1925</ele>
        <time>2015-11-15T10:24:48.550Z</time>
      </trkpt>
      <trkpt lat="45.27862" lon="6.24935">
        <ele>1926</ele>
        <time>2015-11-15T10:24:56.550Z</time>
      </trkpt>
      <trkpt lat="45.2786" lon="6.24942">
        <ele>1928</ele>
        <time>2015-11-15T10:27:34.550Z</time>
      </trkpt>
      <trkpt lat="45.27861" lon="6.24947">
        <ele>1930</ele>
        <time>2015-11-15T10:27:42.550Z</time>
      </trkpt>
      <trkpt lat="45.27863" lon="6.24953">
        <ele>1930.4623706232</ele>
        <time>2015-11-15T10:27:50.550Z</time>
      </trkpt>
      <trkpt lat="45.27866" lon="6.24959">
        <ele>1931</ele>
        <time>2015-11-15T10:27:57.550Z</time>
      </trkpt>
      <trkpt lat="45.2787" lon="6.24965">
        <ele>1932</ele>
        <time>2015-11-15T10:28:05.550Z</time>
      </trkpt>
      <trkpt lat="45.27874" lon="6.24972">
        <ele>1933</ele>
        <time>2015-11-15T10:28:29.550Z</time>
      </trkpt>
      <trkpt lat="45.27877" lon="6.24979">
        <ele>1935</ele>
        <time>2015-11-15T10:28:37.550Z</time>
      </trkpt>
      <trkpt lat="45.27881" lon="6.24982">
        <ele>1937</ele>
        <time>2015-11-15T10:28:44.550Z</time>
      </trkpt>
      <trkpt lat="45.27885" lon="6.24988">
        <ele>1939</ele>
        <time>2015-11-15T10:28:52.550Z</time>
      </trkpt>
      <trkpt lat="45.2789" lon="6.24994">
        <ele>1939.9708831973</ele>
        <time>2015-11-15T10:29:00.550Z</time>
      </trkpt>
      <trkpt lat="45.27893" lon="6.24999">
        <ele>1941</ele>
        <time>2015-11-15T10:29:07.550Z</time>
      </trkpt>
      <trkpt lat="45.27894" lon="6.25008">
        <ele>1943</ele>
        <time>2015-11-15T10:29:25.550Z</time>
      </trkpt>
      <trkpt lat="45.27895" lon="6.25014">
        <ele>1945</ele>
        <time>2015-11-15T10:29:36.550Z</time>
      </trkpt>
      <trkpt lat="45.27891" lon="6.25017">
        <ele>1946</ele>
        <time>2015-11-15T10:29:49.550Z</time>
      </trkpt>
      <trkpt lat="45.27887" lon="6.25015">
        <ele>1947</ele>
        <time>2015-11-15T10:29:57.550Z</time>
      </trkpt>
      <trkpt lat="45.27881" lon="6.25013">
        <ele>1949</ele>
        <time>2015-11-15T10:30:16.550Z</time>
      </trkpt>
      <trkpt lat="45.27877" lon="6.2501">
        <ele>1950</ele>
        <time>2015-11-15T10:30:23.550Z</time>
      </trkpt>
      <trkpt lat="45.27872" lon="6.25011">
        <ele>1952</ele>
        <time>2015-11-15T10:30:34.550Z</time>
      </trkpt>
      <trkpt lat="45.27867" lon="6.25009">
        <ele>1954</ele>
        <time>2015-11-15T10:30:43.550Z</time>
      </trkpt>
      <trkpt lat="45.27862" lon="6.25007">
        <ele>1955</ele>
        <time>2015-11-15T10:30:51.550Z</time>
      </trkpt>
      <trkpt lat="45.27856" lon="6.25008">
        <ele>1957</ele>
        <time>2015-11-15T10:31:03.550Z</time>
      </trkpt>
      <trkpt lat="45.27852" lon="6.2501">
        <ele>1958</ele>
        <time>2015-11-15T10:31:15.550Z</time>
      </trkpt>
      <trkpt lat="45.27848" lon="6.25012">
        <ele>1960</ele>
        <time>2015-11-15T10:31:25.550Z</time>
      </trkpt>
      <trkpt lat="45.27847" lon="6.25019">
        <ele>1961</ele>
        <time>2015-11-15T10:31:38.550Z</time>
      </trkpt>
      <trkpt lat="45.27852" lon="6.25025">
        <ele>1963</ele>
        <time>2015-11-15T10:31:50.550Z</time>
      </trkpt>
      <trkpt lat="45.27855" lon="6.25034">
        <ele>1964</ele>
        <time>2015-11-15T10:32:22.550Z</time>
      </trkpt>
      <trkpt lat="45.27858" lon="6.25044">
        <ele>1967</ele>
        <time>2015-11-15T10:32:38.550Z</time>
      </trkpt>
      <trkpt lat="45.2786" lon="6.25053">
        <ele>1970</ele>
        <time>2015-11-15T10:32:56.550Z</time>
      </trkpt>
      <trkpt lat="45.27862" lon="6.25061">
        <ele>1970</ele>
        <time>2015-11-15T10:33:09.550Z</time>
      </trkpt>
      <trkpt lat="45.2786" lon="6.25068">
        <ele>1972</ele>
        <time>2015-11-15T10:33:26.550Z</time>
      </trkpt>
      <trkpt lat="45.27853" lon="6.2507">
        <ele>1976</ele>
        <time>2015-11-15T10:33:48.550Z</time>
      </trkpt>
      <trkpt lat="45.27845" lon="6.2507">
        <ele>1977</ele>
        <time>2015-11-15T10:34:07.550Z</time>
      </trkpt>
      <trkpt lat="45.27838" lon="6.25073">
        <ele>1980</ele>
        <time>2015-11-15T10:34:29.550Z</time>
      </trkpt>
      <trkpt lat="45.27831" lon="6.25073">
        <ele>1982</ele>
        <time>2015-11-15T10:34:47.550Z</time>
      </trkpt>
      <trkpt lat="45.27825" lon="6.25075">
        <ele>1986</ele>
        <time>2015-11-15T10:35:13.550Z</time>
      </trkpt>
      <trkpt lat="45.27819" lon="6.2508">
        <ele>1987</ele>
        <time>2015-11-15T10:35:30.550Z</time>
      </trkpt>
      <trkpt lat="45.27814" lon="6.25087">
        <ele>1989</ele>
        <time>2015-11-15T10:35:48.550Z</time>
      </trkpt>
      <trkpt lat="45.27807" lon="6.25088">
        <ele>1993</ele>
        <time>2015-11-15T10:36:15.550Z</time>
      </trkpt>
      <trkpt lat="45.27801" lon="6.2509">
        <ele>1994.3557784615</ele>
        <time>2015-11-15T10:36:32.550Z</time>
      </trkpt>
      <trkpt lat="45.27796" lon="6.25094">
        <ele>1997.6024088953</ele>
        <time>2015-11-15T10:36:56.550Z</time>
      </trkpt>
      <trkpt lat="45.2779" lon="6.251">
        <ele>2000</ele>
        <time>2015-11-15T10:37:18.550Z</time>
      </trkpt>
      <trkpt lat="45.27784" lon="6.25106">
        <ele>2004</ele>
        <time>2015-11-15T10:37:38.550Z</time>
      </trkpt>
      <trkpt lat="45.27779" lon="6.2511">
        <ele>2005</ele>
        <time>2015-11-15T10:38:14.550Z</time>
      </trkpt>
      <trkpt lat="45.27772" lon="6.25111">
        <ele>2006.3976003948</ele>
        <time>2015-11-15T10:38:31.550Z</time>
      </trkpt>
      <trkpt lat="45.27767" lon="6.25113">
        <ele>2008</ele>
        <time>2015-11-15T10:38:49.550Z</time>
      </trkpt>
      <trkpt lat="45.27765" lon="6.25122">
        <ele>2011</ele>
        <time>2015-11-15T10:39:18.550Z</time>
      </trkpt>
      <trkpt lat="45.27768" lon="6.25131">
        <ele>2013</ele>
        <time>2015-11-15T10:39:35.550Z</time>
      </trkpt>
      <trkpt lat="45.27771" lon="6.2514">
        <ele>2013.7951822093</ele>
        <time>2015-11-15T10:39:52.550Z</time>
      </trkpt>
      <trkpt lat="45.27772" lon="6.25149">
        <ele>2018</ele>
        <time>2015-11-15T10:40:12.550Z</time>
      </trkpt>
      <trkpt lat="45.27767" lon="6.25151">
        <ele>2020</ele>
        <time>2015-11-15T10:40:42.550Z</time>
      </trkpt>
      <trkpt lat="45.27762" lon="6.25153">
        <ele>2024</ele>
        <time>2015-11-15T10:41:13.550Z</time>
      </trkpt>
      <trkpt lat="45.27757" lon="6.25152">
        <ele>2026</ele>
        <time>2015-11-15T10:41:31.550Z</time>
      </trkpt>
      <trkpt lat="45.27752" lon="6.25153">
        <ele>2027.4111188543</ele>
        <time>2015-11-15T10:41:50.550Z</time>
      </trkpt>
      <trkpt lat="45.27745" lon="6.2515">
        <ele>2029</ele>
        <time>2015-11-15T10:42:09.550Z</time>
      </trkpt>
      <trkpt lat="45.27739" lon="6.25148">
        <ele>2031</ele>
        <time>2015-11-15T10:42:23.550Z</time>
      </trkpt>
      <trkpt lat="45.27736" lon="6.25157">
        <ele>2035</ele>
        <time>2015-11-15T10:42:58.550Z</time>
      </trkpt>
      <trkpt lat="45.27738" lon="6.25165">
        <ele>2038</ele>
        <time>2015-11-15T10:43:19.550Z</time>
      </trkpt>
      <trkpt lat="45.27739" lon="6.25172">
        <ele>2039</ele>
        <time>2015-11-15T10:43:38.550Z</time>
      </trkpt>
      <trkpt lat="45.27736" lon="6.25181">
        <ele>2043</ele>
        <time>2015-11-15T10:44:09.550Z</time>
      </trkpt>
      <trkpt lat="45.27732" lon="6.25185">
        <ele>2046</ele>
        <time>2015-11-15T10:44:32.550Z</time>
      </trkpt>
      <trkpt lat="45.27726" lon="6.25182">
        <ele>2053</ele>
        <time>2015-11-15T10:45:22.550Z</time>
      </trkpt>
      <trkpt lat="45.27721" lon="6.25182">
        <ele>2052</ele>
        <time>2015-11-15T10:54:15.550Z</time>
      </trkpt>
      <trkpt lat="45.27714" lon="6.25176">
        <ele>2052</ele>
        <time>2015-11-15T10:54:52.550Z</time>
      </trkpt>
      <trkpt lat="45.27707" lon="6.25173">
        <ele>2052.4273570663</ele>
        <time>2015-11-15T10:55:00.550Z</time>
      </trkpt>
      <trkpt lat="45.277" lon="6.25173">
        <ele>2055</ele>
        <time>2015-11-15T10:55:11.550Z</time>
      </trkpt>
      <trkpt lat="45.27695" lon="6.25177">
        <ele>2057</ele>
        <time>2015-11-15T10:55:22.550Z</time>
      </trkpt>
      <trkpt lat="45.27689" lon="6.25177">
        <ele>2057</ele>
        <time>2015-11-15T10:55:33.550Z</time>
      </trkpt>
      <trkpt lat="45.27683" lon="6.25179">
        <ele>2057</ele>
        <time>2015-11-15T10:55:38.550Z</time>
      </trkpt>
      <trkpt lat="45.27679" lon="6.25181">
        <ele>2059</ele>
        <time>2015-11-15T10:55:41.550Z</time>
      </trkpt>
      <trkpt lat="45.27675" lon="6.25182">
        <ele>2059</ele>
        <time>2015-11-15T10:55:44.550Z</time>
      </trkpt>
      <trkpt lat="45.27669" lon="6.25186">
        <ele>2059</ele>
        <time>2015-11-15T10:55:53.550Z</time>
      </trkpt>
      <trkpt lat="45.27667" lon="6.2519">
        <ele>2060</ele>
        <time>2015-11-15T10:56:01.550Z</time>
      </trkpt>
      <trkpt lat="45.27662" lon="6.25193">
        <ele>2060</ele>
        <time>2015-11-15T10:56:08.550Z</time>
      </trkpt>
      <trkpt lat="45.27658" lon="6.25194">
        <ele>2061</ele>
        <time>2015-11-15T10:56:15.550Z</time>
      </trkpt>
      <trkpt lat="45.27654" lon="6.25198">
        <ele>2063</ele>
        <time>2015-11-15T10:56:23.550Z</time>
      </trkpt>
      <trkpt lat="45.27649" lon="6.252">
        <ele>2063</ele>
        <time>2015-11-15T10:56:32.550Z</time>
      </trkpt>
      <trkpt lat="45.27642" lon="6.25204">
        <ele>2063</ele>
        <time>2015-11-15T10:56:37.550Z</time>
      </trkpt>
      <trkpt lat="45.27634" lon="6.25208">
        <ele>2064</ele>
        <time>2015-11-15T10:56:42.550Z</time>
      </trkpt>
      <trkpt lat="45.27627" lon="6.2521">
        <ele>2064</ele>
        <time>2015-11-15T10:56:45.550Z</time>
      </trkpt>
      <trkpt lat="45.27621" lon="6.25212">
        <ele>2064</ele>
        <time>2015-11-15T10:56:48.550Z</time>
      </trkpt>
      <trkpt lat="45.27616" lon="6.25213">
        <ele>2066</ele>
        <time>2015-11-15T10:56:51.550Z</time>
      </trkpt>
      <trkpt lat="45.27611" lon="6.25215">
        <ele>2066</ele>
        <time>2015-11-15T10:56:54.550Z</time>
      </trkpt>
      <trkpt lat="45.27606" lon="6.25217">
        <ele>2066</ele>
        <time>2015-11-15T10:56:57.550Z</time>
      </trkpt>
      <trkpt lat="45.27602" lon="6.25219">
        <ele>2066</ele>
        <time>2015-11-15T10:57:00.550Z</time>
      </trkpt>
      <trkpt lat="45.27596" lon="6.25223">
        <ele>2065</ele>
        <time>2015-11-15T10:57:04.550Z</time>
      </trkpt>
      <trkpt lat="45.27591" lon="6.25226">
        <ele>2065</ele>
        <time>2015-11-15T10:57:07.550Z</time>
      </trkpt>
      <trkpt lat="45.27588" lon="6.25227">
        <ele>2065</ele>
        <time>2015-11-15T10:57:10.550Z</time>
      </trkpt>
      <trkpt lat="45.27585" lon="6.25229">
        <ele>2066</ele>
        <time>2015-11-15T10:57:15.550Z</time>
      </trkpt>
      <trkpt lat="45.27582" lon="6.25233">
        <ele>2066.8771992859</ele>
        <time>2015-11-15T10:57:21.550Z</time>
      </trkpt>
      <trkpt lat="45.2758" lon="6.25236">
        <ele>2069</ele>
        <time>2015-11-15T10:57:28.550Z</time>
      </trkpt>
      <trkpt lat="45.27577" lon="6.25239">
        <ele>2069</ele>
        <time>2015-11-15T10:57:37.550Z</time>
      </trkpt>
      <trkpt lat="45.27574" lon="6.25241">
        <ele>2070</ele>
        <time>2015-11-15T10:57:42.550Z</time>
      </trkpt>
      <trkpt lat="45.2757" lon="6.25243">
        <ele>2070</ele>
        <time>2015-11-15T10:57:47.550Z</time>
      </trkpt>
      <trkpt lat="45.27565" lon="6.25247">
        <ele>2072</ele>
        <time>2015-11-15T10:57:55.550Z</time>
      </trkpt>
      <trkpt lat="45.27559" lon="6.2525">
        <ele>2072</ele>
        <time>2015-11-15T10:58:04.550Z</time>
      </trkpt>
      <trkpt lat="45.27552" lon="6.25252">
        <ele>2073</ele>
        <time>2015-11-15T10:58:12.550Z</time>
      </trkpt>
      <trkpt lat="45.27546" lon="6.25256">
        <ele>2074</ele>
        <time>2015-11-15T10:58:22.550Z</time>
      </trkpt>
      <trkpt lat="45.27541" lon="6.25257">
        <ele>2076</ele>
        <time>2015-11-15T10:58:31.550Z</time>
      </trkpt>
      <trkpt lat="45.27534" lon="6.2526">
        <ele>2075.5811981708</ele>
        <time>2015-11-15T10:58:48.550Z</time>
      </trkpt>
      <trkpt lat="45.27527" lon="6.25262">
        <ele>2075</ele>
        <time>2015-11-15T10:58:52.550Z</time>
      </trkpt>
      <trkpt lat="45.27519" lon="6.25264">
        <ele>2075</ele>
        <time>2015-11-15T10:58:54.550Z</time>
      </trkpt>
      <trkpt lat="45.2751" lon="6.25269">
        <ele>2077</ele>
        <time>2015-11-15T10:58:59.550Z</time>
      </trkpt>
      <trkpt lat="45.27503" lon="6.25274">
        <ele>2075</ele>
        <time>2015-11-15T10:59:04.550Z</time>
      </trkpt>
      <trkpt lat="45.27497" lon="6.25278">
        <ele>2075</ele>
        <time>2015-11-15T10:59:09.550Z</time>
      </trkpt>
      <trkpt lat="45.27494" lon="6.25281">
        <ele>2077</ele>
        <time>2015-11-15T10:59:20.550Z</time>
      </trkpt>
      <trkpt lat="45.27485" lon="6.25283">
        <ele>2077</ele>
        <time>2015-11-15T10:59:28.550Z</time>
      </trkpt>
      <trkpt lat="45.27477" lon="6.25283">
        <ele>2079</ele>
        <time>2015-11-15T10:59:43.550Z</time>
      </trkpt>
      <trkpt lat="45.2747" lon="6.25282">
        <ele>2080</ele>
        <time>2015-11-15T10:59:53.550Z</time>
      </trkpt>
      <trkpt lat="45.27464" lon="6.25284">
        <ele>2081</ele>
        <time>2015-11-15T11:00:01.550Z</time>
      </trkpt>
      <trkpt lat="45.27459" lon="6.25287">
        <ele>2081</ele>
        <time>2015-11-15T11:00:10.550Z</time>
      </trkpt>
      <trkpt lat="45.27452" lon="6.2529">
        <ele>2081</ele>
        <time>2015-11-15T11:00:15.550Z</time>
      </trkpt>
      <trkpt lat="45.2745" lon="6.25294">
        <ele>2082</ele>
        <time>2015-11-15T11:00:29.550Z</time>
      </trkpt>
      <trkpt lat="45.27449" lon="6.25295">
        <ele>2084</ele>
        <time>2015-11-15T11:00:34.550Z</time>
      </trkpt>
      <trkpt lat="45.27446" lon="6.25296">
        <ele>2084</ele>
        <time>2015-11-15T11:00:39.550Z</time>
      </trkpt>
      <trkpt lat="45.2744" lon="6.25294">
        <ele>2082</ele>
        <time>2015-11-15T11:00:53.550Z</time>
      </trkpt>
      <trkpt lat="45.27438" lon="6.25294">
        <ele>2082</ele>
        <time>2015-11-15T11:00:56.550Z</time>
      </trkpt>
      <trkpt lat="45.27435" lon="6.25294">
        <ele>2082</ele>
        <time>2015-11-15T11:01:04.550Z</time>
      </trkpt>
      <trkpt lat="45.27428" lon="6.25294">
        <ele>2085</ele>
        <time>2015-11-15T11:01:21.550Z</time>
      </trkpt>
      <trkpt lat="45.27425" lon="6.25293">
        <ele>2087</ele>
        <time>2015-11-15T11:01:34.550Z</time>
      </trkpt>
      <trkpt lat="45.27421" lon="6.25297">
        <ele>2087</ele>
        <time>2015-11-15T11:01:59.550Z</time>
      </trkpt>
      <trkpt lat="45.27416" lon="6.253">
        <ele>2090</ele>
        <time>2015-11-15T11:02:08.550Z</time>
      </trkpt>
      <trkpt lat="45.27412" lon="6.25303">
        <ele>2090.4090909091</ele>
        <time>2015-11-15T11:02:20.550Z</time>
      </trkpt>
      <trkpt lat="45.27406" lon="6.25302">
        <ele>2091</ele>
        <time>2015-11-15T11:02:38.550Z</time>
      </trkpt>
      <trkpt lat="45.274" lon="6.25303">
        <ele>2092</ele>
        <time>2015-11-15T11:02:51.550Z</time>
      </trkpt>
      <trkpt lat="45.27398" lon="6.25294">
        <ele>2094</ele>
        <time>2015-11-15T11:03:14.550Z</time>
      </trkpt>
      <trkpt lat="45.27391" lon="6.25289">
        <ele>2095</ele>
        <time>2015-11-15T11:03:32.550Z</time>
      </trkpt>
      <trkpt lat="45.27383" lon="6.25285">
        <ele>2095.7674584747</ele>
        <time>2015-11-15T11:03:41.550Z</time>
      </trkpt>
      <trkpt lat="45.27379" lon="6.25278">
        <ele>2097</ele>
        <time>2015-11-15T11:03:50.550Z</time>
      </trkpt>
      <trkpt lat="45.27373" lon="6.25272">
        <ele>2098</ele>
        <time>2015-11-15T11:04:03.550Z</time>
      </trkpt>
      <trkpt lat="45.27366" lon="6.25267">
        <ele>2099</ele>
        <time>2015-11-15T11:04:18.550Z</time>
      </trkpt>
      <trkpt lat="45.2736" lon="6.25262">
        <ele>2101</ele>
        <time>2015-11-15T11:04:33.550Z</time>
      </trkpt>
      <trkpt lat="45.27358" lon="6.2526">
        <ele>2101</ele>
        <time>2015-11-15T11:04:49.550Z</time>
      </trkpt>
      <trkpt lat="45.27352" lon="6.25256">
        <ele>2102</ele>
        <time>2015-11-15T11:10:08.550Z</time>
      </trkpt>
      <trkpt lat="45.27347" lon="6.25254">
        <ele>2103</ele>
        <time>2015-11-15T11:10:14.550Z</time>
      </trkpt>
      <trkpt lat="45.27342" lon="6.25251">
        <ele>2103</ele>
        <time>2015-11-15T11:10:19.550Z</time>
      </trkpt>
      <trkpt lat="45.27335" lon="6.25246">
        <ele>2102</ele>
        <time>2015-11-15T11:10:23.550Z</time>
      </trkpt>
      <trkpt lat="45.27329" lon="6.25242">
        <ele>2102</ele>
        <time>2015-11-15T11:10:26.550Z</time>
      </trkpt>
      <trkpt lat="45.27323" lon="6.25237">
        <ele>2103</ele>
        <time>2015-11-15T11:10:43.550Z</time>
      </trkpt>
      <trkpt lat="45.27318" lon="6.25232">
        <ele>2103</ele>
        <time>2015-11-15T11:10:51.550Z</time>
      </trkpt>
      <trkpt lat="45.27314" lon="6.25224">
        <ele>2103</ele>
        <time>2015-11-15T11:10:57.550Z</time>
      </trkpt>
      <trkpt lat="45.27309" lon="6.25218">
        <ele>2103</ele>
        <time>2015-11-15T11:11:01.550Z</time>
      </trkpt>
      <trkpt lat="45.27303" lon="6.25211">
        <ele>2103</ele>
        <time>2015-11-15T11:11:05.550Z</time>
      </trkpt>
      <trkpt lat="45.27297" lon="6.25202">
        <ele>2103</ele>
        <time>2015-11-15T11:11:10.550Z</time>
      </trkpt>
      <trkpt lat="45.27293" lon="6.25195">
        <ele>2104</ele>
        <time>2015-11-15T11:11:13.550Z</time>
      </trkpt>
      <trkpt lat="45.27288" lon="6.25189">
        <ele>2104</ele>
        <time>2015-11-15T11:11:17.550Z</time>
      </trkpt>
      <trkpt lat="45.27282" lon="6.25183">
        <ele>2104</ele>
        <time>2015-11-15T11:11:21.550Z</time>
      </trkpt>
      <trkpt lat="45.27278" lon="6.2518">
        <ele>2105</ele>
        <time>2015-11-15T11:11:24.550Z</time>
      </trkpt>
      <trkpt lat="45.27271" lon="6.25179">
        <ele>2105</ele>
        <time>2015-11-15T11:11:29.550Z</time>
      </trkpt>
      <trkpt lat="45.27265" lon="6.25179">
        <ele>2106</ele>
        <time>2015-11-15T11:11:33.550Z</time>
      </trkpt>
      <trkpt lat="45.27259" lon="6.25178">
        <ele>2106</ele>
        <time>2015-11-15T11:11:38.550Z</time>
      </trkpt>
      <trkpt lat="45.27253" lon="6.25178">
        <ele>2107</ele>
        <time>2015-11-15T11:11:43.550Z</time>
      </trkpt>
      <trkpt lat="45.27247" lon="6.25182">
        <ele>2107</ele>
        <time>2015-11-15T11:11:49.550Z</time>
      </trkpt>
      <trkpt lat="45.27241" lon="6.25185">
        <ele>2108</ele>
        <time>2015-11-15T11:11:54.550Z</time>
      </trkpt>
      <trkpt lat="45.27235" lon="6.25185">
        <ele>2108</ele>
        <time>2015-11-15T11:12:06.550Z</time>
      </trkpt>
      <trkpt lat="45.27229" lon="6.25186">
        <ele>2111</ele>
        <time>2015-11-15T11:12:15.550Z</time>
      </trkpt>
      <trkpt lat="45.27225" lon="6.25188">
        <ele>2112</ele>
        <time>2015-11-15T11:12:23.550Z</time>
      </trkpt>
      <trkpt lat="45.27219" lon="6.2519">
        <ele>2113</ele>
        <time>2015-11-15T11:12:34.550Z</time>
      </trkpt>
      <trkpt lat="45.27216" lon="6.25191">
        <ele>2113</ele>
        <time>2015-11-15T11:12:40.550Z</time>
      </trkpt>
      <trkpt lat="45.27212" lon="6.25191">
        <ele>2114</ele>
        <time>2015-11-15T11:12:47.550Z</time>
      </trkpt>
      <trkpt lat="45.27211" lon="6.25197">
        <ele>2116</ele>
        <time>2015-11-15T11:12:54.550Z</time>
      </trkpt>
      <trkpt lat="45.27211" lon="6.25202">
        <ele>2117</ele>
        <time>2015-11-15T11:13:01.550Z</time>
      </trkpt>
      <trkpt lat="45.27211" lon="6.25207">
        <ele>2117</ele>
        <time>2015-11-15T11:13:09.550Z</time>
      </trkpt>
      <trkpt lat="45.27212" lon="6.25211">
        <ele>2118</ele>
        <time>2015-11-15T11:13:14.550Z</time>
      </trkpt>
      <trkpt lat="45.27213" lon="6.25219">
        <ele>2120</ele>
        <time>2015-11-15T11:13:24.550Z</time>
      </trkpt>
      <trkpt lat="45.27216" lon="6.25227">
        <ele>2121</ele>
        <time>2015-11-15T11:13:38.550Z</time>
      </trkpt>
      <trkpt lat="45.27219" lon="6.25233">
        <ele>2122</ele>
        <time>2015-11-15T11:13:47.550Z</time>
      </trkpt>
      <trkpt lat="45.27221" lon="6.25237">
        <ele>2123</ele>
        <time>2015-11-15T11:13:53.550Z</time>
      </trkpt>
      <trkpt lat="45.27224" lon="6.25242">
        <ele>2123.9009098352</ele>
        <time>2015-11-15T11:14:00.550Z</time>
      </trkpt>
      <trkpt lat="45.27227" lon="6.2525">
        <ele>2126</ele>
        <time>2015-11-15T11:14:11.550Z</time>
      </trkpt>
      <trkpt lat="45.27229" lon="6.25255">
        <ele>2127</ele>
        <time>2015-11-15T11:14:17.550Z</time>
      </trkpt>
      <trkpt lat="45.27231" lon="6.25259">
        <ele>2127</ele>
        <time>2015-11-15T11:14:23.550Z</time>
      </trkpt>
      <trkpt lat="45.27233" lon="6.25263">
        <ele>2127</ele>
        <time>2015-11-15T11:14:28.550Z</time>
      </trkpt>
      <trkpt lat="45.27235" lon="6.25266">
        <ele>2129</ele>
        <time>2015-11-15T11:14:33.550Z</time>
      </trkpt>
      <trkpt lat="45.27236" lon="6.2527">
        <ele>2129</ele>
        <time>2015-11-15T11:14:38.550Z</time>
      </trkpt>
      <trkpt lat="45.27238" lon="6.25274">
        <ele>2130</ele>
        <time>2015-11-15T11:14:44.550Z</time>
      </trkpt>
      <trkpt lat="45.27241" lon="6.25278">
        <ele>2131</ele>
        <time>2015-11-15T11:14:51.550Z</time>
      </trkpt>
      <trkpt lat="45.27243" lon="6.25283">
        <ele>2131</ele>
        <time>2015-11-15T11:14:58.550Z</time>
      </trkpt>
      <trkpt lat="45.27246" lon="6.25288">
        <ele>2133</ele>
        <time>2015-11-15T11:15:04.550Z</time>
      </trkpt>
      <trkpt lat="45.27248" lon="6.25294">
        <ele>2133</ele>
        <time>2015-11-15T11:15:12.550Z</time>
      </trkpt>
      <trkpt lat="45.27251" lon="6.25299">
        <ele>2133</ele>
        <time>2015-11-15T11:15:19.550Z</time>
      </trkpt>
      <trkpt lat="45.27253" lon="6.25303">
        <ele>2133</ele>
        <time>2015-11-15T11:15:24.550Z</time>
      </trkpt>
      <trkpt lat="45.27255" lon="6.25307">
        <ele>2133</ele>
        <time>2015-11-15T11:15:28.550Z</time>
      </trkpt>
      <trkpt lat="45.27258" lon="6.25311">
        <ele>2134</ele>
        <time>2015-11-15T11:15:34.550Z</time>
      </trkpt>
      <trkpt lat="45.27261" lon="6.25316">
        <ele>2135</ele>
        <time>2015-11-15T11:15:41.550Z</time>
      </trkpt>
      <trkpt lat="45.27262" lon="6.25321">
        <ele>2135</ele>
        <time>2015-11-15T11:15:47.550Z</time>
      </trkpt>
      <trkpt lat="45.2726" lon="6.25328">
        <ele>2137</ele>
        <time>2015-11-15T11:15:54.550Z</time>
      </trkpt>
      <trkpt lat="45.27255" lon="6.25328">
        <ele>2137</ele>
        <time>2015-11-15T11:16:07.550Z</time>
      </trkpt>
      <trkpt lat="45.27252" lon="6.25324">
        <ele>2140</ele>
        <time>2015-11-15T11:16:20.550Z</time>
      </trkpt>
      <trkpt lat="45.27247" lon="6.25321">
        <ele>2142</ele>
        <time>2015-11-15T11:16:31.550Z</time>
      </trkpt>
      <trkpt lat="45.27242" lon="6.2532">
        <ele>2142.4464342857</ele>
        <time>2015-11-15T11:16:41.550Z</time>
      </trkpt>
      <trkpt lat="45.27237" lon="6.25319">
        <ele>2146</ele>
        <time>2015-11-15T11:16:52.550Z</time>
      </trkpt>
      <trkpt lat="45.27232" lon="6.25318">
        <ele>2146</ele>
        <time>2015-11-15T11:17:01.550Z</time>
      </trkpt>
      <trkpt lat="45.27229" lon="6.25317">
        <ele>2146</ele>
        <time>2015-11-15T11:17:08.550Z</time>
      </trkpt>
      <trkpt lat="45.27226" lon="6.25318">
        <ele>2148</ele>
        <time>2015-11-15T11:17:16.550Z</time>
      </trkpt>
      <trkpt lat="45.27222" lon="6.25318">
        <ele>2148</ele>
        <time>2015-11-15T11:17:23.550Z</time>
      </trkpt>
      <trkpt lat="45.27219" lon="6.25319">
        <ele>2150</ele>
        <time>2015-11-15T11:17:30.550Z</time>
      </trkpt>
      <trkpt lat="45.27216" lon="6.25319">
        <ele>2150</ele>
        <time>2015-11-15T11:17:36.550Z</time>
      </trkpt>
      <trkpt lat="45.27213" lon="6.25319">
        <ele>2150</ele>
        <time>2015-11-15T11:17:42.550Z</time>
      </trkpt>
      <trkpt lat="45.27211" lon="6.25319">
        <ele>2152</ele>
        <time>2015-11-15T11:17:47.550Z</time>
      </trkpt>
      <trkpt lat="45.27208" lon="6.2532">
        <ele>2152</ele>
        <time>2015-11-15T11:17:53.550Z</time>
      </trkpt>
      <trkpt lat="45.27205" lon="6.2532">
        <ele>2153</ele>
        <time>2015-11-15T11:17:58.550Z</time>
      </trkpt>
      <trkpt lat="45.27202" lon="6.2532">
        <ele>2154</ele>
        <time>2015-11-15T11:18:04.550Z</time>
      </trkpt>
      <trkpt lat="45.27199" lon="6.2532">
        <ele>2155</ele>
        <time>2015-11-15T11:18:10.550Z</time>
      </trkpt>
      <trkpt lat="45.27196" lon="6.25319">
        <ele>2157</ele>
        <time>2015-11-15T11:18:17.550Z</time>
      </trkpt>
      <trkpt lat="45.27193" lon="6.25319">
        <ele>2157</ele>
        <time>2015-11-15T11:18:24.550Z</time>
      </trkpt>
      <trkpt lat="45.2719" lon="6.25319">
        <ele>2157.8125066667</ele>
        <time>2015-11-15T11:18:31.550Z</time>
      </trkpt>
      <trkpt lat="45.27187" lon="6.25319">
        <ele>2159</ele>
        <time>2015-11-15T11:18:39.550Z</time>
      </trkpt>
      <trkpt lat="45.27183" lon="6.25318">
        <ele>2161</ele>
        <time>2015-11-15T11:18:49.550Z</time>
      </trkpt>
      <trkpt lat="45.2718" lon="6.25319">
        <ele>2161</ele>
        <time>2015-11-15T11:18:58.550Z</time>
      </trkpt>
      <trkpt lat="45.27176" lon="6.25318">
        <ele>2162</ele>
        <time>2015-11-15T11:19:10.550Z</time>
      </trkpt>
      <trkpt lat="45.27171" lon="6.25317">
        <ele>2164</ele>
        <time>2015-11-15T11:19:20.550Z</time>
      </trkpt>
      <trkpt lat="45.27167" lon="6.25318">
        <ele>2164</ele>
        <time>2015-11-15T11:19:31.550Z</time>
      </trkpt>
      <trkpt lat="45.27163" lon="6.25321">
        <ele>2166</ele>
        <time>2015-11-15T11:19:41.550Z</time>
      </trkpt>
      <trkpt lat="45.27161" lon="6.25325">
        <ele>2166</ele>
        <time>2015-11-15T11:19:49.550Z</time>
      </trkpt>
      <trkpt lat="45.27162" lon="6.25334">
        <ele>2167</ele>
        <time>2015-11-15T11:21:18.550Z</time>
      </trkpt>
      <trkpt lat="45.27166" lon="6.2534">
        <ele>2167</ele>
        <time>2015-11-15T11:21:22.550Z</time>
      </trkpt>
      <trkpt lat="45.2717" lon="6.25346">
        <ele>2167</ele>
        <time>2015-11-15T11:21:26.550Z</time>
      </trkpt>
      <trkpt lat="45.27173" lon="6.25354">
        <ele>2167</ele>
        <time>2015-11-15T11:21:30.550Z</time>
      </trkpt>
      <trkpt lat="45.27177" lon="6.25361">
        <ele>2169</ele>
        <time>2015-11-15T11:21:34.550Z</time>
      </trkpt>
      <trkpt lat="45.2718" lon="6.25367">
        <ele>2169</ele>
        <time>2015-11-15T11:21:37.550Z</time>
      </trkpt>
      <trkpt lat="45.27183" lon="6.25374">
        <ele>2169</ele>
        <time>2015-11-15T11:21:41.550Z</time>
      </trkpt>
      <trkpt lat="45.27187" lon="6.25381">
        <ele>2169</ele>
        <time>2015-11-15T11:21:45.550Z</time>
      </trkpt>
      <trkpt lat="45.2719" lon="6.25386">
        <ele>2169</ele>
        <time>2015-11-15T11:21:48.550Z</time>
      </trkpt>
      <trkpt lat="45.27193" lon="6.25393">
        <ele>2169.4210549954</ele>
        <time>2015-11-15T11:21:52.550Z</time>
      </trkpt>
      <trkpt lat="45.27196" lon="6.25398">
        <ele>2170</ele>
        <time>2015-11-15T11:21:55.550Z</time>
      </trkpt>
      <trkpt lat="45.27198" lon="6.25403">
        <ele>2170</ele>
        <time>2015-11-15T11:21:58.550Z</time>
      </trkpt>
      <trkpt lat="45.27201" lon="6.25408">
        <ele>2170.4224174078</ele>
        <time>2015-11-15T11:22:01.550Z</time>
      </trkpt>
      <trkpt lat="45.27204" lon="6.25415">
        <ele>2171</ele>
        <time>2015-11-15T11:22:05.550Z</time>
      </trkpt>
      <trkpt lat="45.27206" lon="6.25418">
        <ele>2171</ele>
        <time>2015-11-15T11:22:07.550Z</time>
      </trkpt>
      <trkpt lat="45.27208" lon="6.25423">
        <ele>2171</ele>
        <time>2015-11-15T11:22:10.550Z</time>
      </trkpt>
      <trkpt lat="45.2721" lon="6.25426">
        <ele>2171.4257470915</ele>
        <time>2015-11-15T11:22:12.550Z</time>
      </trkpt>
      <trkpt lat="45.27213" lon="6.2543">
        <ele>2172</ele>
        <time>2015-11-15T11:22:15.550Z</time>
      </trkpt>
      <trkpt lat="45.27215" lon="6.25436">
        <ele>2173</ele>
        <time>2015-11-15T11:22:18.550Z</time>
      </trkpt>
      <trkpt lat="45.27219" lon="6.25444">
        <ele>2173</ele>
        <time>2015-11-15T11:22:24.550Z</time>
      </trkpt>
      <trkpt lat="45.27223" lon="6.25454">
        <ele>2173</ele>
        <time>2015-11-15T11:22:30.550Z</time>
      </trkpt>
      <trkpt lat="45.27226" lon="6.25462">
        <ele>2175</ele>
        <time>2015-11-15T11:22:35.550Z</time>
      </trkpt>
      <trkpt lat="45.27229" lon="6.25468">
        <ele>2175</ele>
        <time>2015-11-15T11:22:39.550Z</time>
      </trkpt>
      <trkpt lat="45.27232" lon="6.25476">
        <ele>2175</ele>
        <time>2015-11-15T11:22:45.550Z</time>
      </trkpt>
      <trkpt lat="45.27235" lon="6.25483">
        <ele>2176</ele>
        <time>2015-11-15T11:22:50.550Z</time>
      </trkpt>
      <trkpt lat="45.27239" lon="6.25493">
        <ele>2177</ele>
        <time>2015-11-15T11:22:57.550Z</time>
      </trkpt>
      <trkpt lat="45.27243" lon="6.255">
        <ele>2177</ele>
        <time>2015-11-15T11:23:02.550Z</time>
      </trkpt>
      <trkpt lat="45.27247" lon="6.25506">
        <ele>2177</ele>
        <time>2015-11-15T11:23:06.550Z</time>
      </trkpt>
      <trkpt lat="45.27251" lon="6.25513">
        <ele>2177</ele>
        <time>2015-11-15T11:23:11.550Z</time>
      </trkpt>
      <trkpt lat="45.27256" lon="6.25522">
        <ele>2179</ele>
        <time>2015-11-15T11:23:17.550Z</time>
      </trkpt>
      <trkpt lat="45.27263" lon="6.25531">
        <ele>2180</ele>
        <time>2015-11-15T11:23:24.550Z</time>
      </trkpt>
      <trkpt lat="45.27268" lon="6.25537">
        <ele>2180</ele>
        <time>2015-11-15T11:23:29.550Z</time>
      </trkpt>
      <trkpt lat="45.27271" lon="6.25542">
        <ele>2180</ele>
        <time>2015-11-15T11:23:33.550Z</time>
      </trkpt>
      <trkpt lat="45.27278" lon="6.25549">
        <ele>2181</ele>
        <time>2015-11-15T11:23:39.550Z</time>
      </trkpt>
      <trkpt lat="45.27283" lon="6.25556">
        <ele>2181</ele>
        <time>2015-11-15T11:23:44.550Z</time>
      </trkpt>
      <trkpt lat="45.27289" lon="6.25562">
        <ele>2182</ele>
        <time>2015-11-15T11:23:49.550Z</time>
      </trkpt>
      <trkpt lat="45.27294" lon="6.25569">
        <ele>2182</ele>
        <time>2015-11-15T11:23:54.550Z</time>
      </trkpt>
      <trkpt lat="45.27298" lon="6.25574">
        <ele>2183</ele>
        <time>2015-11-15T11:23:58.550Z</time>
      </trkpt>
      <trkpt lat="45.27302" lon="6.25578">
        <ele>2183</ele>
        <time>2015-11-15T11:24:01.550Z</time>
      </trkpt>
      <trkpt lat="45.27307" lon="6.25585">
        <ele>2183</ele>
        <time>2015-11-15T11:24:06.550Z</time>
      </trkpt>
      <trkpt lat="45.27312" lon="6.25592">
        <ele>2184</ele>
        <time>2015-11-15T11:24:11.550Z</time>
      </trkpt>
      <trkpt lat="45.27316" lon="6.25599">
        <ele>2184</ele>
        <time>2015-11-15T11:24:15.550Z</time>
      </trkpt>
      <trkpt lat="45.2732" lon="6.25606">
        <ele>2184.3980588557</ele>
        <time>2015-11-15T11:24:20.550Z</time>
      </trkpt>
      <trkpt lat="45.27324" lon="6.25614">
        <ele>2185</ele>
        <time>2015-11-15T11:24:25.550Z</time>
      </trkpt>
      <trkpt lat="45.27328" lon="6.25622">
        <ele>2185.8444526617</ele>
        <time>2015-11-15T11:24:30.550Z</time>
      </trkpt>
      <trkpt lat="45.27331" lon="6.2563">
        <ele>2187</ele>
        <time>2015-11-15T11:24:35.550Z</time>
      </trkpt>
      <trkpt lat="45.27333" lon="6.25636">
        <ele>2187</ele>
        <time>2015-11-15T11:24:39.550Z</time>
      </trkpt>
      <trkpt lat="45.27337" lon="6.25646">
        <ele>2188</ele>
        <time>2015-11-15T11:24:45.550Z</time>
      </trkpt>
      <trkpt lat="45.2734" lon="6.25653">
        <ele>2188</ele>
        <time>2015-11-15T11:24:50.550Z</time>
      </trkpt>
      <trkpt lat="45.27343" lon="6.25661">
        <ele>2188</ele>
        <time>2015-11-15T11:24:55.550Z</time>
      </trkpt>
      <trkpt lat="45.27346" lon="6.25669">
        <ele>2188.89584</ele>
        <time>2015-11-15T11:25:01.550Z</time>
      </trkpt>
      <trkpt lat="45.27348" lon="6.25676">
        <ele>2190</ele>
        <time>2015-11-15T11:25:06.550Z</time>
      </trkpt>
      <trkpt lat="45.27351" lon="6.25683">
        <ele>2190</ele>
        <time>2015-11-15T11:25:11.550Z</time>
      </trkpt>
      <trkpt lat="45.27355" lon="6.2569">
        <ele>2190</ele>
        <time>2015-11-15T11:25:17.550Z</time>
      </trkpt>
      <trkpt lat="45.27359" lon="6.25697">
        <ele>2191</ele>
        <time>2015-11-15T11:25:22.550Z</time>
      </trkpt>
      <trkpt lat="45.27363" lon="6.25703">
        <ele>2191</ele>
        <time>2015-11-15T11:25:28.550Z</time>
      </trkpt>
      <trkpt lat="45.27367" lon="6.2571">
        <ele>2193</ele>
        <time>2015-11-15T11:25:35.550Z</time>
      </trkpt>
      <trkpt lat="45.27371" lon="6.25716">
        <ele>2193</ele>
        <time>2015-11-15T11:25:41.550Z</time>
      </trkpt>
      <trkpt lat="45.27377" lon="6.25721">
        <ele>2193</ele>
        <time>2015-11-15T11:25:47.550Z</time>
      </trkpt>
      <trkpt lat="45.27381" lon="6.25724">
        <ele>2193</ele>
        <time>2015-11-15T11:26:01.550Z</time>
      </trkpt>
      <trkpt lat="45.27385" lon="6.25721">
        <ele>2192</ele>
        <time>2015-11-15T11:26:39.550Z</time>
      </trkpt>
      <trkpt lat="45.27389" lon="6.25718">
        <ele>2193</ele>
        <time>2015-11-15T11:26:50.550Z</time>
      </trkpt>
      <trkpt lat="45.27392" lon="6.25716">
        <ele>2195</ele>
        <time>2015-11-15T11:27:22.550Z</time>
      </trkpt>
      <trkpt lat="45.27393" lon="6.25708">
        <ele>2196</ele>
        <time>2015-11-15T11:28:28.550Z</time>
      </trkpt>
      <trkpt lat="45.27395" lon="6.25699">
        <ele>2199</ele>
        <time>2015-11-15T11:29:05.550Z</time>
      </trkpt>
      <trkpt lat="45.27397" lon="6.25692">
        <ele>2201</ele>
        <time>2015-11-15T11:29:16.550Z</time>
      </trkpt>
      <trkpt lat="45.27402" lon="6.25684">
        <ele>2205</ele>
        <time>2015-11-15T11:30:07.550Z</time>
      </trkpt>
      <trkpt lat="45.27404" lon="6.25677">
        <ele>2206</ele>
        <time>2015-11-15T11:30:47.550Z</time>
      </trkpt>
      <trkpt lat="45.27405" lon="6.25669">
        <ele>2208</ele>
        <time>2015-11-15T11:30:59.550Z</time>
      </trkpt>
      <trkpt lat="45.27407" lon="6.25664">
        <ele>2210</ele>
        <time>2015-11-15T11:31:41.550Z</time>
      </trkpt>
      <trkpt lat="45.2741" lon="6.2566">
        <ele>2213</ele>
        <time>2015-11-15T11:31:59.550Z</time>
      </trkpt>
      <trkpt lat="45.27413" lon="6.25656">
        <ele>2214</ele>
        <time>2015-11-15T11:32:23.550Z</time>
      </trkpt>
      <trkpt lat="45.27417" lon="6.25655">
        <ele>2214</ele>
        <time>2015-11-15T11:32:45.550Z</time>
      </trkpt>
      <trkpt lat="45.2742" lon="6.25652">
        <ele>2217</ele>
        <time>2015-11-15T11:32:58.550Z</time>
      </trkpt>
      <trkpt lat="45.27428" lon="6.25662">
        <ele>2217</ele>
        <time>2015-11-15T11:53:05.550Z</time>
      </trkpt>
      <trkpt lat="45.27435" lon="6.25678">
        <ele>2217</ele>
        <time>2015-11-15T11:53:08.550Z</time>
      </trkpt>
      <trkpt lat="45.27444" lon="6.257">
        <ele>2212.24992</ele>
        <time>2015-11-15T11:53:12.550Z</time>
      </trkpt>
      <trkpt lat="45.27451" lon="6.25716">
        <ele>2197</ele>
        <time>2015-11-15T11:53:15.550Z</time>
      </trkpt>
      <trkpt lat="45.2746" lon="6.25735">
        <ele>2191</ele>
        <time>2015-11-15T11:53:19.550Z</time>
      </trkpt>
      <trkpt lat="45.27467" lon="6.25754">
        <ele>2187.75</ele>
        <time>2015-11-15T11:53:22.550Z</time>
      </trkpt>
      <trkpt lat="45.27472" lon="6.25769">
        <ele>2185.1867949475</ele>
        <time>2015-11-15T11:53:24.550Z</time>
      </trkpt>
      <trkpt lat="45.27482" lon="6.25794">
        <ele>2181</ele>
        <time>2015-11-15T11:53:27.550Z</time>
      </trkpt>
      <trkpt lat="45.27489" lon="6.25812">
        <ele>2180</ele>
        <time>2015-11-15T11:53:29.550Z</time>
      </trkpt>
      <trkpt lat="45.27494" lon="6.25833">
        <ele>2180</ele>
        <time>2015-11-15T11:53:32.550Z</time>
      </trkpt>
      <trkpt lat="45.27498" lon="6.25844">
        <ele>2181</ele>
        <time>2015-11-15T11:53:36.550Z</time>
      </trkpt>
      <trkpt lat="45.27502" lon="6.25855">
        <ele>2180</ele>
        <time>2015-11-15T11:53:57.550Z</time>
      </trkpt>
      <trkpt lat="45.27506" lon="6.25863">
        <ele>2180</ele>
        <time>2015-11-15T11:53:59.550Z</time>
      </trkpt>
      <trkpt lat="45.27509" lon="6.25873">
        <ele>2178.6944355556</ele>
        <time>2015-11-15T11:54:01.550Z</time>
      </trkpt>
      <trkpt lat="45.27512" lon="6.25884">
        <ele>2177</ele>
        <time>2015-11-15T11:54:03.550Z</time>
      </trkpt>
      <trkpt lat="45.27516" lon="6.25896">
        <ele>2177</ele>
        <time>2015-11-15T11:54:06.550Z</time>
      </trkpt>
      <trkpt lat="45.27519" lon="6.25911">
        <ele>2177</ele>
        <time>2015-11-15T11:54:09.550Z</time>
      </trkpt>
      <trkpt lat="45.27523" lon="6.25922">
        <ele>2177.7663560346</ele>
        <time>2015-11-15T11:54:12.550Z</time>
      </trkpt>
      <trkpt lat="45.27527" lon="6.25933">
        <ele>2179</ele>
        <time>2015-11-15T11:54:16.550Z</time>
      </trkpt>
      <trkpt lat="45.2753" lon="6.25944">
        <ele>2179</ele>
        <time>2015-11-15T11:54:19.550Z</time>
      </trkpt>
      <trkpt lat="45.27535" lon="6.25957">
        <ele>2178.5913951856</ele>
        <time>2015-11-15T11:54:22.550Z</time>
      </trkpt>
      <trkpt lat="45.27539" lon="6.25966">
        <ele>2178</ele>
        <time>2015-11-15T11:54:25.550Z</time>
      </trkpt>
      <trkpt lat="45.27544" lon="6.25976">
        <ele>2178</ele>
        <time>2015-11-15T11:54:29.550Z</time>
      </trkpt>
      <trkpt lat="45.27551" lon="6.25988">
        <ele>2175.6699101517</ele>
        <time>2015-11-15T11:54:32.550Z</time>
      </trkpt>
      <trkpt lat="45.27558" lon="6.26005">
        <ele>2167</ele>
        <time>2015-11-15T11:54:35.550Z</time>
      </trkpt>
      <trkpt lat="45.27562" lon="6.26022">
        <ele>2164</ele>
        <time>2015-11-15T11:54:37.550Z</time>
      </trkpt>
      <trkpt lat="45.27568" lon="6.26039">
        <ele>2160.5762680609</ele>
        <time>2015-11-15T11:54:39.550Z</time>
      </trkpt>
      <trkpt lat="45.27576" lon="6.26056">
        <ele>2158.5434713044</ele>
        <time>2015-11-15T11:54:41.550Z</time>
      </trkpt>
      <trkpt lat="45.27585" lon="6.2607">
        <ele>2157.411110479</ele>
        <time>2015-11-15T11:54:43.550Z</time>
      </trkpt>
      <trkpt lat="45.27597" lon="6.26092">
        <ele>2160</ele>
        <time>2015-11-15T11:54:46.550Z</time>
      </trkpt>
      <trkpt lat="45.27603" lon="6.26106">
        <ele>2160.7647169551</ele>
        <time>2015-11-15T11:54:49.550Z</time>
      </trkpt>
      <trkpt lat="45.27607" lon="6.26115">
        <ele>2161</ele>
        <time>2015-11-15T11:54:52.550Z</time>
      </trkpt>
      <trkpt lat="45.27613" lon="6.26126">
        <ele>2161</ele>
        <time>2015-11-15T11:54:56.550Z</time>
      </trkpt>
      <trkpt lat="45.27618" lon="6.26135">
        <ele>2162</ele>
        <time>2015-11-15T11:55:00.550Z</time>
      </trkpt>
      <trkpt lat="45.27622" lon="6.26143">
        <ele>2162</ele>
        <time>2015-11-15T11:55:05.550Z</time>
      </trkpt>
      <trkpt lat="45.27625" lon="6.26149">
        <ele>2162</ele>
        <time>2015-11-15T11:55:08.550Z</time>
      </trkpt>
      <trkpt lat="45.27629" lon="6.26158">
        <ele>2162</ele>
        <time>2015-11-15T11:55:13.550Z</time>
      </trkpt>
      <trkpt lat="45.27634" lon="6.26167">
        <ele>2162</ele>
        <time>2015-11-15T11:55:16.550Z</time>
      </trkpt>
      <trkpt lat="45.27638" lon="6.26179">
        <ele>2160</ele>
        <time>2015-11-15T11:55:18.550Z</time>
      </trkpt>
      <trkpt lat="45.27646" lon="6.26203">
        <ele>2158.0582336055</ele>
        <time>2015-11-15T11:55:21.550Z</time>
      </trkpt>
      <trkpt lat="45.27653" lon="6.2622">
        <ele>2156</ele>
        <time>2015-11-15T11:55:23.550Z</time>
      </trkpt>
      <trkpt lat="45.27663" lon="6.26236">
        <ele>2156</ele>
        <time>2015-11-15T11:55:25.550Z</time>
      </trkpt>
      <trkpt lat="45.27673" lon="6.26252">
        <ele>2156</ele>
        <time>2015-11-15T11:55:28.550Z</time>
      </trkpt>
      <trkpt lat="45.27678" lon="6.26262">
        <ele>2156</ele>
        <time>2015-11-15T11:55:31.550Z</time>
      </trkpt>
      <trkpt lat="45.27683" lon="6.26272">
        <ele>2156</ele>
        <time>2015-11-15T11:55:35.550Z</time>
      </trkpt>
      <trkpt lat="45.27689" lon="6.26278">
        <ele>2158</ele>
        <time>2015-11-15T11:55:39.550Z</time>
      </trkpt>
      <trkpt lat="45.27694" lon="6.26283">
        <ele>2158</ele>
        <time>2015-11-15T11:55:43.550Z</time>
      </trkpt>
      <trkpt lat="45.277" lon="6.26288">
        <ele>2158.3870981061</ele>
        <time>2015-11-15T11:55:47.550Z</time>
      </trkpt>
      <trkpt lat="45.27705" lon="6.26292">
        <ele>2159</ele>
        <time>2015-11-15T11:55:50.550Z</time>
      </trkpt>
      <trkpt lat="45.2771" lon="6.26296">
        <ele>2159</ele>
        <time>2015-11-15T11:55:54.550Z</time>
      </trkpt>
      <trkpt lat="45.27715" lon="6.26301">
        <ele>2162</ele>
        <time>2015-11-15T11:55:58.550Z</time>
      </trkpt>
      <trkpt lat="45.27719" lon="6.26306">
        <ele>2163</ele>
        <time>2015-11-15T11:56:02.550Z</time>
      </trkpt>
      <trkpt lat="45.27725" lon="6.26311">
        <ele>2165</ele>
        <time>2015-11-15T11:56:07.550Z</time>
      </trkpt>
      <trkpt lat="45.2773" lon="6.26318">
        <ele>2165</ele>
        <time>2015-11-15T11:56:12.550Z</time>
      </trkpt>
      <trkpt lat="45.27736" lon="6.26325">
        <ele>2165</ele>
        <time>2015-11-15T11:56:19.550Z</time>
      </trkpt>
      <trkpt lat="45.27742" lon="6.26333">
        <ele>2165</ele>
        <time>2015-11-15T11:56:23.550Z</time>
      </trkpt>
      <trkpt lat="45.27748" lon="6.2634">
        <ele>2165</ele>
        <time>2015-11-15T11:56:25.550Z</time>
      </trkpt>
      <trkpt lat="45.27755" lon="6.26349">
        <ele>2165</ele>
        <time>2015-11-15T11:56:27.550Z</time>
      </trkpt>
      <trkpt lat="45.27758" lon="6.2636">
        <ele>2165</ele>
        <time>2015-11-15T11:56:29.550Z</time>
      </trkpt>
      <trkpt lat="45.2776" lon="6.2637">
        <ele>2165</ele>
        <time>2015-11-15T11:56:32.550Z</time>
      </trkpt>
      <trkpt lat="45.27762" lon="6.26381">
        <ele>2165</ele>
        <time>2015-11-15T11:56:36.550Z</time>
      </trkpt>
      <trkpt lat="45.27765" lon="6.26391">
        <ele>2165</ele>
        <time>2015-11-15T11:56:40.550Z</time>
      </trkpt>
      <trkpt lat="45.27769" lon="6.26399">
        <ele>2165</ele>
        <time>2015-11-15T11:56:43.550Z</time>
      </trkpt>
      <trkpt lat="45.27772" lon="6.26408">
        <ele>2165</ele>
        <time>2015-11-15T11:56:46.550Z</time>
      </trkpt>
      <trkpt lat="45.27776" lon="6.26417">
        <ele>2165</ele>
        <time>2015-11-15T11:56:49.550Z</time>
      </trkpt>
      <trkpt lat="45.2778" lon="6.26427">
        <ele>2164.5473665773</ele>
        <time>2015-11-15T11:56:52.550Z</time>
      </trkpt>
      <trkpt lat="45.27786" lon="6.26434">
        <ele>2164</ele>
        <time>2015-11-15T11:56:55.550Z</time>
      </trkpt>
      <trkpt lat="45.27793" lon="6.26443">
        <ele>2164</ele>
        <time>2015-11-15T11:56:58.550Z</time>
      </trkpt>
      <trkpt lat="45.278" lon="6.26451">
        <ele>2161</ele>
        <time>2015-11-15T11:57:01.550Z</time>
      </trkpt>
      <trkpt lat="45.27806" lon="6.26459">
        <ele>2161</ele>
        <time>2015-11-15T11:57:04.550Z</time>
      </trkpt>
      <trkpt lat="45.27812" lon="6.26465">
        <ele>2161</ele>
        <time>2015-11-15T11:57:06.550Z</time>
      </trkpt>
      <trkpt lat="45.27818" lon="6.2647">
        <ele>2161</ele>
        <time>2015-11-15T11:57:08.550Z</time>
      </trkpt>
      <trkpt lat="45.27823" lon="6.26475">
        <ele>2161</ele>
        <time>2015-11-15T11:57:10.550Z</time>
      </trkpt>
      <trkpt lat="45.27829" lon="6.26481">
        <ele>2161</ele>
        <time>2015-11-15T11:57:13.550Z</time>
      </trkpt>
      <trkpt lat="45.27834" lon="6.26488">
        <ele>2162</ele>
        <time>2015-11-15T11:57:17.550Z</time>
      </trkpt>
      <trkpt lat="45.27839" lon="6.26494">
        <ele>2162</ele>
        <time>2015-11-15T11:57:21.550Z</time>
      </trkpt>
      <trkpt lat="45.27845" lon="6.26499">
        <ele>2162</ele>
        <time>2015-11-15T11:57:25.550Z</time>
      </trkpt>
      <trkpt lat="45.2785" lon="6.26505">
        <ele>2162</ele>
        <time>2015-11-15T11:57:29.550Z</time>
      </trkpt>
      <trkpt lat="45.27855" lon="6.26511">
        <ele>2161</ele>
        <time>2015-11-15T11:57:33.550Z</time>
      </trkpt>
      <trkpt lat="45.2786" lon="6.26516">
        <ele>2161</ele>
        <time>2015-11-15T11:57:37.550Z</time>
      </trkpt>
      <trkpt lat="45.27866" lon="6.26522">
        <ele>2162</ele>
        <time>2015-11-15T11:57:42.550Z</time>
      </trkpt>
      <trkpt lat="45.2787" lon="6.26528">
        <ele>2162</ele>
        <time>2015-11-15T11:57:46.550Z</time>
      </trkpt>
      <trkpt lat="45.27874" lon="6.26532">
        <ele>2162</ele>
        <time>2015-11-15T11:57:49.550Z</time>
      </trkpt>
      <trkpt lat="45.27879" lon="6.26537">
        <ele>2166</ele>
        <time>2015-11-15T11:57:53.550Z</time>
      </trkpt>
      <trkpt lat="45.27884" lon="6.26543">
        <ele>2168</ele>
        <time>2015-11-15T11:57:57.550Z</time>
      </trkpt>
      <trkpt lat="45.27889" lon="6.2655">
        <ele>2170</ele>
        <time>2015-11-15T11:58:02.550Z</time>
      </trkpt>
      <trkpt lat="45.27894" lon="6.26556">
        <ele>2170</ele>
        <time>2015-11-15T11:58:06.550Z</time>
      </trkpt>
      <trkpt lat="45.27899" lon="6.26563">
        <ele>2172</ele>
        <time>2015-11-15T11:58:11.550Z</time>
      </trkpt>
      <trkpt lat="45.27905" lon="6.26571">
        <ele>2173.3579002681</ele>
        <time>2015-11-15T11:58:17.550Z</time>
      </trkpt>
      <trkpt lat="45.27907" lon="6.26577">
        <ele>2175</ele>
        <time>2015-11-15T11:58:21.550Z</time>
      </trkpt>
      <trkpt lat="45.27909" lon="6.26582">
        <ele>2177</ele>
        <time>2015-11-15T11:58:36.550Z</time>
      </trkpt>
      <trkpt lat="45.27913" lon="6.26588">
        <ele>2178</ele>
        <time>2015-11-15T11:59:59.550Z</time>
      </trkpt>
      <trkpt lat="45.27913" lon="6.26595">
        <ele>2176.3110946767</ele>
        <time>2015-11-15T12:00:01.550Z</time>
      </trkpt>
      <trkpt lat="45.27916" lon="6.26605">
        <ele>2174</ele>
        <time>2015-11-15T12:00:05.550Z</time>
      </trkpt>
      <trkpt lat="45.27922" lon="6.26611">
        <ele>2174</ele>
        <time>2015-11-15T12:00:09.550Z</time>
      </trkpt>
      <trkpt lat="45.27928" lon="6.26616">
        <ele>2166</ele>
        <time>2015-11-15T12:00:23.550Z</time>
      </trkpt>
      <trkpt lat="45.27934" lon="6.26625">
        <ele>2162</ele>
        <time>2015-11-15T12:00:29.550Z</time>
      </trkpt>
      <trkpt lat="45.27942" lon="6.26633">
        <ele>2159.2830024634</ele>
        <time>2015-11-15T12:00:33.550Z</time>
      </trkpt>
      <trkpt lat="45.27954" lon="6.26641">
        <ele>2153</ele>
        <time>2015-11-15T12:00:37.550Z</time>
      </trkpt>
      <trkpt lat="45.2796" lon="6.26644">
        <ele>2152.411110479</ele>
        <time>2015-11-15T12:00:39.550Z</time>
      </trkpt>
      <trkpt lat="45.27966" lon="6.26649">
        <ele>2152.5471670772</ele>
        <time>2015-11-15T12:00:42.550Z</time>
      </trkpt>
      <trkpt lat="45.27972" lon="6.26658">
        <ele>2152</ele>
        <time>2015-11-15T12:00:47.550Z</time>
      </trkpt>
      <trkpt lat="45.27978" lon="6.26666">
        <ele>2152</ele>
        <time>2015-11-15T12:00:52.550Z</time>
      </trkpt>
      <trkpt lat="45.27982" lon="6.26671">
        <ele>2152</ele>
        <time>2015-11-15T12:00:56.550Z</time>
      </trkpt>
      <trkpt lat="45.27983" lon="6.26676">
        <ele>2152</ele>
        <time>2015-11-15T12:00:58.550Z</time>
      </trkpt>
      <trkpt lat="45.27988" lon="6.26683">
        <ele>2151.0988831688</ele>
        <time>2015-11-15T12:01:01.550Z</time>
      </trkpt>
      <trkpt lat="45.27993" lon="6.26686">
        <ele>2150</ele>
        <time>2015-11-15T12:01:04.550Z</time>
      </trkpt>
      <trkpt lat="45.27996" lon="6.26689">
        <ele>2150</ele>
        <time>2015-11-15T12:01:06.550Z</time>
      </trkpt>
      <trkpt lat="45.27999" lon="6.26692">
        <ele>2150</ele>
        <time>2015-11-15T12:01:09.550Z</time>
      </trkpt>
      <trkpt lat="45.28001" lon="6.26699">
        <ele>2149</ele>
        <time>2015-11-15T12:01:13.550Z</time>
      </trkpt>
      <trkpt lat="45.27999" lon="6.26706">
        <ele>2148</ele>
        <time>2015-11-15T12:01:19.550Z</time>
      </trkpt>
      <trkpt lat="45.28001" lon="6.26714">
        <ele>2147</ele>
        <time>2015-11-15T12:01:24.550Z</time>
      </trkpt>
      <trkpt lat="45.28007" lon="6.26718">
        <ele>2146</ele>
        <time>2015-11-15T12:01:31.550Z</time>
      </trkpt>
      <trkpt lat="45.2801" lon="6.26722">
        <ele>2146</ele>
        <time>2015-11-15T12:01:35.550Z</time>
      </trkpt>
      <trkpt lat="45.28016" lon="6.26725">
        <ele>2145.6404481454</ele>
        <time>2015-11-15T12:01:41.550Z</time>
      </trkpt>
      <trkpt lat="45.28025" lon="6.26728">
        <ele>2145</ele>
        <time>2015-11-15T12:01:46.550Z</time>
      </trkpt>
      <trkpt lat="45.28032" lon="6.26734">
        <ele>2145</ele>
        <time>2015-11-15T12:01:52.550Z</time>
      </trkpt>
      <trkpt lat="45.28037" lon="6.26739">
        <ele>2145</ele>
        <time>2015-11-15T12:01:54.550Z</time>
      </trkpt>
      <trkpt lat="45.28044" lon="6.26746">
        <ele>2145</ele>
        <time>2015-11-15T12:01:57.550Z</time>
      </trkpt>
      <trkpt lat="45.28051" lon="6.26753">
        <ele>2145</ele>
        <time>2015-11-15T12:02:00.550Z</time>
      </trkpt>
      <trkpt lat="45.28058" lon="6.26759">
        <ele>2140</ele>
        <time>2015-11-15T12:02:03.550Z</time>
      </trkpt>
      <trkpt lat="45.28065" lon="6.26761">
        <ele>2140</ele>
        <time>2015-11-15T12:02:06.550Z</time>
      </trkpt>
      <trkpt lat="45.28072" lon="6.26763">
        <ele>2140</ele>
        <time>2015-11-15T12:02:09.550Z</time>
      </trkpt>
      <trkpt lat="45.28076" lon="6.26769">
        <ele>2132.2909073984</ele>
        <time>2015-11-15T12:02:12.550Z</time>
      </trkpt>
      <trkpt lat="45.28081" lon="6.26774">
        <ele>2128.5565980776</ele>
        <time>2015-11-15T12:02:14.550Z</time>
      </trkpt>
      <trkpt lat="45.2809" lon="6.26785">
        <ele>2128</ele>
        <time>2015-11-15T12:02:16.550Z</time>
      </trkpt>
      <trkpt lat="45.28095" lon="6.26795">
        <ele>2128</ele>
        <time>2015-11-15T12:02:19.550Z</time>
      </trkpt>
      <trkpt lat="45.28101" lon="6.268">
        <ele>2128</ele>
        <time>2015-11-15T12:02:48.550Z</time>
      </trkpt>
      <trkpt lat="45.28104" lon="6.26802">
        <ele>2128</ele>
        <time>2015-11-15T12:02:53.550Z</time>
      </trkpt>
      <trkpt lat="45.28108" lon="6.26802">
        <ele>2127</ele>
        <time>2015-11-15T12:03:24.550Z</time>
      </trkpt>
      <trkpt lat="45.28115" lon="6.26804">
        <ele>2127</ele>
        <time>2015-11-15T12:03:26.550Z</time>
      </trkpt>
      <trkpt lat="45.28124" lon="6.26808">
        <ele>2127</ele>
        <time>2015-11-15T12:03:28.550Z</time>
      </trkpt>
      <trkpt lat="45.28135" lon="6.26814">
        <ele>2127</ele>
        <time>2015-11-15T12:03:30.550Z</time>
      </trkpt>
      <trkpt lat="45.28154" lon="6.26812">
        <ele>2123</ele>
        <time>2015-11-15T12:03:33.550Z</time>
      </trkpt>
      <trkpt lat="45.2816" lon="6.26812">
        <ele>2123</ele>
        <time>2015-11-15T12:03:34.550Z</time>
      </trkpt>
      <trkpt lat="45.28166" lon="6.26814">
        <ele>2123</ele>
        <time>2015-11-15T12:03:35.550Z</time>
      </trkpt>
      <trkpt lat="45.28179" lon="6.26817">
        <ele>2120.3333143702</ele>
        <time>2015-11-15T12:03:37.550Z</time>
      </trkpt>
      <trkpt lat="45.28186" lon="6.26819">
        <ele>2117</ele>
        <time>2015-11-15T12:03:38.550Z</time>
      </trkpt>
      <trkpt lat="45.28198" lon="6.26824">
        <ele>2117</ele>
        <time>2015-11-15T12:03:40.550Z</time>
      </trkpt>
      <trkpt lat="45.28208" lon="6.26827">
        <ele>2114</ele>
        <time>2015-11-15T12:03:42.550Z</time>
      </trkpt>
      <trkpt lat="45.28212" lon="6.2683">
        <ele>2114</ele>
        <time>2015-11-15T12:03:43.550Z</time>
      </trkpt>
      <trkpt lat="45.28221" lon="6.26838">
        <ele>2114</ele>
        <time>2015-11-15T12:03:46.550Z</time>
      </trkpt>
      <trkpt lat="45.28229" lon="6.26837">
        <ele>2109.5888811457</ele>
        <time>2015-11-15T12:03:48.550Z</time>
      </trkpt>
      <trkpt lat="45.2824" lon="6.26834">
        <ele>2107.5607459866</ele>
        <time>2015-11-15T12:03:51.550Z</time>
      </trkpt>
      <trkpt lat="45.28249" lon="6.26835">
        <ele>2106.5847398794</ele>
        <time>2015-11-15T12:03:53.550Z</time>
      </trkpt>
      <trkpt lat="45.2826" lon="6.26836">
        <ele>2105</ele>
        <time>2015-11-15T12:03:55.550Z</time>
      </trkpt>
      <trkpt lat="45.28272" lon="6.26833">
        <ele>2104.2307649028</ele>
        <time>2015-11-15T12:03:57.550Z</time>
      </trkpt>
      <trkpt lat="45.28291" lon="6.26828">
        <ele>2102</ele>
        <time>2015-11-15T12:04:00.550Z</time>
      </trkpt>
      <trkpt lat="45.28303" lon="6.26822">
        <ele>2101</ele>
        <time>2015-11-15T12:04:02.550Z</time>
      </trkpt>
      <trkpt lat="45.28317" lon="6.26818">
        <ele>2100</ele>
        <time>2015-11-15T12:04:04.550Z</time>
      </trkpt>
      <trkpt lat="45.28324" lon="6.26817">
        <ele>2098.4695524415</ele>
        <time>2015-11-15T12:04:05.550Z</time>
      </trkpt>
      <trkpt lat="45.28338" lon="6.26817">
        <ele>2095.5617925817</ele>
        <time>2015-11-15T12:04:07.550Z</time>
      </trkpt>
      <trkpt lat="45.28345" lon="6.26818">
        <ele>2095</ele>
        <time>2015-11-15T12:04:08.550Z</time>
      </trkpt>
      <trkpt lat="45.28352" lon="6.26819">
        <ele>2094.509996672</ele>
        <time>2015-11-15T12:04:09.550Z</time>
      </trkpt>
      <trkpt lat="45.28359" lon="6.26822">
        <ele>2094</ele>
        <time>2015-11-15T12:04:10.550Z</time>
      </trkpt>
      <trkpt lat="45.28366" lon="6.26825">
        <ele>2093.0199933441</ele>
        <time>2015-11-15T12:04:11.550Z</time>
      </trkpt>
      <trkpt lat="45.28372" lon="6.26829">
        <ele>2092</ele>
        <time>2015-11-15T12:04:12.550Z</time>
      </trkpt>
      <trkpt lat="45.28379" lon="6.26833">
        <ele>2090.5299900161</ele>
        <time>2015-11-15T12:04:13.550Z</time>
      </trkpt>
      <trkpt lat="45.28385" lon="6.26838">
        <ele>2089</ele>
        <time>2015-11-15T12:04:14.550Z</time>
      </trkpt>
      <trkpt lat="45.28391" lon="6.26843">
        <ele>2088.509996672</ele>
        <time>2015-11-15T12:04:15.550Z</time>
      </trkpt>
      <trkpt lat="45.28397" lon="6.26848">
        <ele>2088</ele>
        <time>2015-11-15T12:04:16.550Z</time>
      </trkpt>
      <trkpt lat="45.28402" lon="6.26853">
        <ele>2087.5701694306</ele>
        <time>2015-11-15T12:04:17.550Z</time>
      </trkpt>
      <trkpt lat="45.28407" lon="6.26857">
        <ele>2086.611110321</ele>
        <time>2015-11-15T12:04:18.550Z</time>
      </trkpt>
      <trkpt lat="45.28415" lon="6.26869">
        <ele>2085</ele>
        <time>2015-11-15T12:04:21.550Z</time>
      </trkpt>
      <trkpt lat="45.28416" lon="6.26877">
        <ele>2084</ele>
        <time>2015-11-15T12:04:23.550Z</time>
      </trkpt>
      <trkpt lat="45.28417" lon="6.26888">
        <ele>2084</ele>
        <time>2015-11-15T12:04:25.550Z</time>
      </trkpt>
      <trkpt lat="45.28418" lon="6.26902">
        <ele>2082</ele>
        <time>2015-11-15T12:04:28.550Z</time>
      </trkpt>
      <trkpt lat="45.28428" lon="6.26918">
        <ele>2081</ele>
        <time>2015-11-15T12:04:33.550Z</time>
      </trkpt>
      <trkpt lat="45.28437" lon="6.26928">
        <ele>2079</ele>
        <time>2015-11-15T12:04:37.550Z</time>
      </trkpt>
      <trkpt lat="45.28431" lon="6.26916">
        <ele>2078.1809437895</ele>
        <time>2015-11-15T12:04:44.550Z</time>
      </trkpt>
      <trkpt lat="45.28427" lon="6.26899">
        <ele>2077</ele>
        <time>2015-11-15T12:04:48.550Z</time>
      </trkpt>
      <trkpt lat="45.28431" lon="6.26881">
        <ele>2075</ele>
        <time>2015-11-15T12:04:51.550Z</time>
      </trkpt>
      <trkpt lat="45.28429" lon="6.26859">
        <ele>2073</ele>
        <time>2015-11-15T12:04:55.550Z</time>
      </trkpt>
      <trkpt lat="45.28428" lon="6.26845">
        <ele>2069</ele>
        <time>2015-11-15T12:05:02.550Z</time>
      </trkpt>
      <trkpt lat="45.28422" lon="6.26821">
        <ele>2067</ele>
        <time>2015-11-15T12:05:08.550Z</time>
      </trkpt>
      <trkpt lat="45.28415" lon="6.2681">
        <ele>2067</ele>
        <time>2015-11-15T12:05:10.550Z</time>
      </trkpt>
      <trkpt lat="45.28408" lon="6.26798">
        <ele>2065.7666434372</ele>
        <time>2015-11-15T12:05:12.550Z</time>
      </trkpt>
      <trkpt lat="45.28397" lon="6.26779">
        <ele>2062</ele>
        <time>2015-11-15T12:05:15.550Z</time>
      </trkpt>
      <trkpt lat="45.28394" lon="6.26763">
        <ele>2060.6111047901</ele>
        <time>2015-11-15T12:05:17.550Z</time>
      </trkpt>
      <trkpt lat="45.28388" lon="6.26744">
        <ele>2059</ele>
        <time>2015-11-15T12:05:20.550Z</time>
      </trkpt>
      <trkpt lat="45.28378" lon="6.26732">
        <ele>2058</ele>
        <time>2015-11-15T12:05:22.550Z</time>
      </trkpt>
      <trkpt lat="45.28367" lon="6.26722">
        <ele>2057</ele>
        <time>2015-11-15T12:05:24.550Z</time>
      </trkpt>
      <trkpt lat="45.28355" lon="6.26713">
        <ele>2055</ele>
        <time>2015-11-15T12:05:26.550Z</time>
      </trkpt>
      <trkpt lat="45.28343" lon="6.26704">
        <ele>2053</ele>
        <time>2015-11-15T12:05:28.550Z</time>
      </trkpt>
      <trkpt lat="45.28331" lon="6.26695">
        <ele>2051</ele>
        <time>2015-11-15T12:05:30.550Z</time>
      </trkpt>
      <trkpt lat="45.28317" lon="6.26691">
        <ele>2049</ele>
        <time>2015-11-15T12:05:32.550Z</time>
      </trkpt>
      <trkpt lat="45.28304" lon="6.26686">
        <ele>2047</ele>
        <time>2015-11-15T12:05:34.550Z</time>
      </trkpt>
      <trkpt lat="45.28296" lon="6.26686">
        <ele>2046</ele>
        <time>2015-11-15T12:05:37.550Z</time>
      </trkpt>
      <trkpt lat="45.28305" lon="6.2668">
        <ele>2043</ele>
        <time>2015-11-15T12:05:56.550Z</time>
      </trkpt>
      <trkpt lat="45.28298" lon="6.2667">
        <ele>2039</ele>
        <time>2015-11-15T12:06:02.550Z</time>
      </trkpt>
      <trkpt lat="45.28281" lon="6.26662">
        <ele>2039</ele>
        <time>2015-11-15T12:06:05.550Z</time>
      </trkpt>
      <trkpt lat="45.28271" lon="6.26657">
        <ele>2039</ele>
        <time>2015-11-15T12:06:07.550Z</time>
      </trkpt>
      <trkpt lat="45.28283" lon="6.26641">
        <ele>2027</ele>
        <time>2015-11-15T12:06:14.550Z</time>
      </trkpt>
      <trkpt lat="45.28296" lon="6.26634">
        <ele>2025</ele>
        <time>2015-11-15T12:06:16.550Z</time>
      </trkpt>
      <trkpt lat="45.28307" lon="6.26622">
        <ele>2021</ele>
        <time>2015-11-15T12:06:18.550Z</time>
      </trkpt>
      <trkpt lat="45.28318" lon="6.26611">
        <ele>2019</ele>
        <time>2015-11-15T12:06:20.550Z</time>
      </trkpt>
      <trkpt lat="45.28331" lon="6.26598">
        <ele>2015</ele>
        <time>2015-11-15T12:06:22.550Z</time>
      </trkpt>
      <trkpt lat="45.28345" lon="6.2659">
        <ele>2012</ele>
        <time>2015-11-15T12:06:24.550Z</time>
      </trkpt>
      <trkpt lat="45.28358" lon="6.26587">
        <ele>2011</ele>
        <time>2015-11-15T12:06:26.550Z</time>
      </trkpt>
      <trkpt lat="45.28352" lon="6.26572">
        <ele>2006.2079182825</ele>
        <time>2015-11-15T12:06:33.550Z</time>
      </trkpt>
      <trkpt lat="45.28343" lon="6.26565">
        <ele>2004.6060586471</ele>
        <time>2015-11-15T12:06:35.550Z</time>
      </trkpt>
      <trkpt lat="45.28334" lon="6.2656">
        <ele>2001.52</ele>
        <time>2015-11-15T12:06:38.550Z</time>
      </trkpt>
      <trkpt lat="45.28345" lon="6.26547">
        <ele>1997</ele>
        <time>2015-11-15T12:06:43.550Z</time>
      </trkpt>
      <trkpt lat="45.28357" lon="6.26542">
        <ele>1994</ele>
        <time>2015-11-15T12:06:45.550Z</time>
      </trkpt>
      <trkpt lat="45.28371" lon="6.26541">
        <ele>1993</ele>
        <time>2015-11-15T12:06:47.550Z</time>
      </trkpt>
      <trkpt lat="45.28386" lon="6.26541">
        <ele>1990</ele>
        <time>2015-11-15T12:06:49.550Z</time>
      </trkpt>
      <trkpt lat="45.2841" lon="6.26544">
        <ele>1986.009996928</ele>
        <time>2015-11-15T12:06:52.550Z</time>
      </trkpt>
      <trkpt lat="45.28423" lon="6.26545">
        <ele>1983.36</ele>
        <time>2015-11-15T12:06:54.550Z</time>
      </trkpt>
      <trkpt lat="45.28434" lon="6.26548">
        <ele>1981.6767645424</ele>
        <time>2015-11-15T12:06:56.550Z</time>
      </trkpt>
      <trkpt lat="45.28444" lon="6.26557">
        <ele>1980</ele>
        <time>2015-11-15T12:06:58.550Z</time>
      </trkpt>
      <trkpt lat="45.28454" lon="6.26569">
        <ele>1976.9799808</ele>
        <time>2015-11-15T12:07:00.550Z</time>
      </trkpt>
      <trkpt lat="45.28462" lon="6.26582">
        <ele>1974.6599936</ele>
        <time>2015-11-15T12:07:03.550Z</time>
      </trkpt>
      <trkpt lat="45.28465" lon="6.26569">
        <ele>1971</ele>
        <time>2015-11-15T12:07:25.550Z</time>
      </trkpt>
      <trkpt lat="45.28463" lon="6.26553">
        <ele>1971</ele>
        <time>2015-11-15T12:07:32.550Z</time>
      </trkpt>
      <trkpt lat="45.28462" lon="6.26535">
        <ele>1967</ele>
        <time>2015-11-15T12:07:35.550Z</time>
      </trkpt>
      <trkpt lat="45.28457" lon="6.26519">
        <ele>1967</ele>
        <time>2015-11-15T12:07:37.550Z</time>
      </trkpt>
      <trkpt lat="45.2845" lon="6.26504">
        <ele>1965.181785271</ele>
        <time>2015-11-15T12:07:39.550Z</time>
      </trkpt>
      <trkpt lat="45.28442" lon="6.2649">
        <ele>1961</ele>
        <time>2015-11-15T12:07:41.550Z</time>
      </trkpt>
      <trkpt lat="45.28433" lon="6.26476">
        <ele>1961</ele>
        <time>2015-11-15T12:07:43.550Z</time>
      </trkpt>
      <trkpt lat="45.28424" lon="6.26461">
        <ele>1954</ele>
        <time>2015-11-15T12:07:45.550Z</time>
      </trkpt>
      <trkpt lat="45.28415" lon="6.26445">
        <ele>1950</ele>
        <time>2015-11-15T12:07:47.550Z</time>
      </trkpt>
      <trkpt lat="45.28406" lon="6.2643">
        <ele>1948</ele>
        <time>2015-11-15T12:07:49.550Z</time>
      </trkpt>
      <trkpt lat="45.28395" lon="6.2642">
        <ele>1947</ele>
        <time>2015-11-15T12:07:51.550Z</time>
      </trkpt>
      <trkpt lat="45.28405" lon="6.26418">
        <ele>1941.6380924517</ele>
        <time>2015-11-15T12:07:57.550Z</time>
      </trkpt>
      <trkpt lat="45.28417" lon="6.26424">
        <ele>1942</ele>
        <time>2015-11-15T12:08:11.550Z</time>
      </trkpt>
      <trkpt lat="45.2843" lon="6.26433">
        <ele>1942</ele>
        <time>2015-11-15T12:08:14.550Z</time>
      </trkpt>
      <trkpt lat="45.28442" lon="6.26439">
        <ele>1937</ele>
        <time>2015-11-15T12:08:16.550Z</time>
      </trkpt>
      <trkpt lat="45.28455" lon="6.26442">
        <ele>1932</ele>
        <time>2015-11-15T12:08:18.550Z</time>
      </trkpt>
      <trkpt lat="45.28467" lon="6.26448">
        <ele>1931</ele>
        <time>2015-11-15T12:08:20.550Z</time>
      </trkpt>
      <trkpt lat="45.28479" lon="6.26457">
        <ele>1929.359206651</ele>
        <time>2015-11-15T12:08:23.550Z</time>
      </trkpt>
      <trkpt lat="45.28476" lon="6.26439">
        <ele>1922</ele>
        <time>2015-11-15T12:08:34.550Z</time>
      </trkpt>
      <trkpt lat="45.28468" lon="6.26421">
        <ele>1920.0699904</ele>
        <time>2015-11-15T12:08:37.550Z</time>
      </trkpt>
      <trkpt lat="45.28461" lon="6.26402">
        <ele>1917.6899968</ele>
        <time>2015-11-15T12:08:39.550Z</time>
      </trkpt>
      <trkpt lat="45.28453" lon="6.2638">
        <ele>1915.8928457143</ele>
        <time>2015-11-15T12:08:41.550Z</time>
      </trkpt>
      <trkpt lat="45.28444" lon="6.26359">
        <ele>1913.5299968</ele>
        <time>2015-11-15T12:08:43.550Z</time>
      </trkpt>
      <trkpt lat="45.28434" lon="6.26338">
        <ele>1912.5299968</ele>
        <time>2015-11-15T12:08:45.550Z</time>
      </trkpt>
      <trkpt lat="45.2842" lon="6.26328">
        <ele>1911.5208266667</ele>
        <time>2015-11-15T12:08:47.550Z</time>
      </trkpt>
      <trkpt lat="45.2843" lon="6.26333">
        <ele>1906.5050489379</ele>
        <time>2015-11-15T12:08:54.550Z</time>
      </trkpt>
      <trkpt lat="45.2844" lon="6.26344">
        <ele>1904.6499884801</ele>
        <time>2015-11-15T12:08:56.550Z</time>
      </trkpt>
      <trkpt lat="45.28452" lon="6.26356">
        <ele>1901.6499884801</ele>
        <time>2015-11-15T12:08:58.550Z</time>
      </trkpt>
      <trkpt lat="45.28465" lon="6.26368">
        <ele>1898.9499904</ele>
        <time>2015-11-15T12:09:00.550Z</time>
      </trkpt>
      <trkpt lat="45.28477" lon="6.26381">
        <ele>1896.6599936</ele>
        <time>2015-11-15T12:09:02.550Z</time>
      </trkpt>
      <trkpt lat="45.28492" lon="6.2639">
        <ele>1894.5000145455</ele>
        <time>2015-11-15T12:09:04.550Z</time>
      </trkpt>
      <trkpt lat="45.28504" lon="6.26401">
        <ele>1891.0297062327</ele>
        <time>2015-11-15T12:09:06.550Z</time>
      </trkpt>
      <trkpt lat="45.28512" lon="6.26412">
        <ele>1889.0302936271</ele>
        <time>2015-11-15T12:09:08.550Z</time>
      </trkpt>
      <trkpt lat="45.28521" lon="6.26426">
        <ele>1887.0199938559</ele>
        <time>2015-11-15T12:09:10.550Z</time>
      </trkpt>
      <trkpt lat="45.28529" lon="6.26435">
        <ele>1885.5148531164</ele>
        <time>2015-11-15T12:09:12.550Z</time>
      </trkpt>
      <trkpt lat="45.28537" lon="6.26447">
        <ele>1883</ele>
        <time>2015-11-15T12:09:15.550Z</time>
      </trkpt>
      <trkpt lat="45.28548" lon="6.26453">
        <ele>1881</ele>
        <time>2015-11-15T12:09:17.550Z</time>
      </trkpt>
      <trkpt lat="45.28551" lon="6.26469">
        <ele>1877</ele>
        <time>2015-11-15T12:09:21.550Z</time>
      </trkpt>
      <trkpt lat="45.28557" lon="6.26457">
        <ele>1873</ele>
        <time>2015-11-15T12:09:27.550Z</time>
      </trkpt>
      <trkpt lat="45.28553" lon="6.26442">
        <ele>1872.6</ele>
        <time>2015-11-15T12:09:30.550Z</time>
      </trkpt>
      <trkpt lat="45.28564" lon="6.26449">
        <ele>1869</ele>
        <time>2015-11-15T12:09:35.550Z</time>
      </trkpt>
      <trkpt lat="45.28573" lon="6.26458">
        <ele>1867.44</ele>
        <time>2015-11-15T12:09:38.550Z</time>
      </trkpt>
      <trkpt lat="45.28572" lon="6.26474">
        <ele>1864.7227713989</ele>
        <time>2015-11-15T12:09:42.550Z</time>
      </trkpt>
      <trkpt lat="45.28582" lon="6.26466">
        <ele>1862</ele>
        <time>2015-11-15T12:09:47.550Z</time>
      </trkpt>
      <trkpt lat="45.28586" lon="6.26455">
        <ele>1860</ele>
        <time>2015-11-15T12:10:15.550Z</time>
      </trkpt>
      <trkpt lat="45.28578" lon="6.26438">
        <ele>1860</ele>
        <time>2015-11-15T12:10:46.550Z</time>
      </trkpt>
      <trkpt lat="45.28569" lon="6.26425">
        <ele>1860</ele>
        <time>2015-11-15T12:10:48.550Z</time>
      </trkpt>
      <trkpt lat="45.28562" lon="6.26413">
        <ele>1860</ele>
        <time>2015-11-15T12:10:50.550Z</time>
      </trkpt>
      <trkpt lat="45.28549" lon="6.26401">
        <ele>1852.129998464</ele>
        <time>2015-11-15T12:10:53.550Z</time>
      </trkpt>
      <trkpt lat="45.28544" lon="6.26386">
        <ele>1849</ele>
        <time>2015-11-15T12:10:57.550Z</time>
      </trkpt>
      <trkpt lat="45.28546" lon="6.26372">
        <ele>1848</ele>
        <time>2015-11-15T12:11:00.550Z</time>
      </trkpt>
      <trkpt lat="45.2854" lon="6.26356">
        <ele>1844.709999488</ele>
        <time>2015-11-15T12:11:03.550Z</time>
      </trkpt>
      <trkpt lat="45.28537" lon="6.26338">
        <ele>1842</ele>
        <time>2015-11-15T12:11:06.550Z</time>
      </trkpt>
      <trkpt lat="45.28534" lon="6.26322">
        <ele>1840</ele>
        <time>2015-11-15T12:11:08.550Z</time>
      </trkpt>
      <trkpt lat="45.28531" lon="6.26303">
        <ele>1838</ele>
        <time>2015-11-15T12:11:10.550Z</time>
      </trkpt>
      <trkpt lat="45.28529" lon="6.26285">
        <ele>1836</ele>
        <time>2015-11-15T12:11:12.550Z</time>
      </trkpt>
      <trkpt lat="45.28524" lon="6.26268">
        <ele>1832.7128735457</ele>
        <time>2015-11-15T12:11:15.550Z</time>
      </trkpt>
      <trkpt lat="45.28521" lon="6.26253">
        <ele>1831.44</ele>
        <time>2015-11-15T12:11:19.550Z</time>
      </trkpt>
      <trkpt lat="45.2852" lon="6.26238">
        <ele>1828</ele>
        <time>2015-11-15T12:11:24.550Z</time>
      </trkpt>
      <trkpt lat="45.28515" lon="6.2622">
        <ele>1828</ele>
        <time>2015-11-15T12:11:28.550Z</time>
      </trkpt>
      <trkpt lat="45.28511" lon="6.26203">
        <ele>1826</ele>
        <time>2015-11-15T12:11:31.550Z</time>
      </trkpt>
      <trkpt lat="45.28508" lon="6.26188">
        <ele>1826</ele>
        <time>2015-11-15T12:11:33.550Z</time>
      </trkpt>
      <trkpt lat="45.28506" lon="6.26172">
        <ele>1822</ele>
        <time>2015-11-15T12:11:35.550Z</time>
      </trkpt>
      <trkpt lat="45.28504" lon="6.26156">
        <ele>1819</ele>
        <time>2015-11-15T12:11:37.550Z</time>
      </trkpt>
      <trkpt lat="45.28502" lon="6.26138">
        <ele>1818</ele>
        <time>2015-11-15T12:11:39.550Z</time>
      </trkpt>
      <trkpt lat="45.28496" lon="6.26125">
        <ele>1815</ele>
        <time>2015-11-15T12:11:41.550Z</time>
      </trkpt>
      <trkpt lat="45.28482" lon="6.26118">
        <ele>1814</ele>
        <time>2015-11-15T12:11:43.550Z</time>
      </trkpt>
      <trkpt lat="45.28468" lon="6.26112">
        <ele>1811</ele>
        <time>2015-11-15T12:11:45.550Z</time>
      </trkpt>
      <trkpt lat="45.28454" lon="6.26111">
        <ele>1809</ele>
        <time>2015-11-15T12:11:47.550Z</time>
      </trkpt>
      <trkpt lat="45.28443" lon="6.2611">
        <ele>1807</ele>
        <time>2015-11-15T12:11:49.550Z</time>
      </trkpt>
      <trkpt lat="45.28451" lon="6.261">
        <ele>1802</ele>
        <time>2015-11-15T12:11:58.550Z</time>
      </trkpt>
      <trkpt lat="45.28458" lon="6.26102">
        <ele>1800</ele>
        <time>2015-11-15T12:12:14.550Z</time>
      </trkpt>
      <trkpt lat="45.28468" lon="6.26096">
        <ele>1801</ele>
        <time>2015-11-15T12:12:34.550Z</time>
      </trkpt>
      <trkpt lat="45.28483" lon="6.26094">
        <ele>1797</ele>
        <time>2015-11-15T12:12:37.550Z</time>
      </trkpt>
      <trkpt lat="45.28495" lon="6.26095">
        <ele>1797</ele>
        <time>2015-11-15T12:12:39.550Z</time>
      </trkpt>
      <trkpt lat="45.28508" lon="6.26096">
        <ele>1795.0201696318</ele>
        <time>2015-11-15T12:12:41.550Z</time>
      </trkpt>
      <trkpt lat="45.28518" lon="6.26102">
        <ele>1793</ele>
        <time>2015-11-15T12:12:43.550Z</time>
      </trkpt>
      <trkpt lat="45.28526" lon="6.26114">
        <ele>1790.9999744</ele>
        <time>2015-11-15T12:12:46.550Z</time>
      </trkpt>
      <trkpt lat="45.28532" lon="6.26126">
        <ele>1785</ele>
        <time>2015-11-15T12:12:49.550Z</time>
      </trkpt>
      <trkpt lat="45.2854" lon="6.26148">
        <ele>1782</ele>
        <time>2015-11-15T12:12:53.550Z</time>
      </trkpt>
      <trkpt lat="45.28548" lon="6.26163">
        <ele>1779.4999808</ele>
        <time>2015-11-15T12:12:56.550Z</time>
      </trkpt>
      <trkpt lat="45.28555" lon="6.26173">
        <ele>1776.4999808</ele>
        <time>2015-11-15T12:12:58.550Z</time>
      </trkpt>
      <trkpt lat="45.28566" lon="6.26187">
        <ele>1773</ele>
        <time>2015-11-15T12:13:01.550Z</time>
      </trkpt>
      <trkpt lat="45.28574" lon="6.26197">
        <ele>1771</ele>
        <time>2015-11-15T12:13:03.550Z</time>
      </trkpt>
      <trkpt lat="45.28582" lon="6.26211">
        <ele>1768</ele>
        <time>2015-11-15T12:13:07.550Z</time>
      </trkpt>
      <trkpt lat="45.28586" lon="6.26223">
        <ele>1766</ele>
        <time>2015-11-15T12:13:44.550Z</time>
      </trkpt>
      <trkpt lat="45.28592" lon="6.26235">
        <ele>1764.1730707692</ele>
        <time>2015-11-15T12:14:01.550Z</time>
      </trkpt>
      <trkpt lat="45.2859" lon="6.26218">
        <ele>1763</ele>
        <time>2015-11-15T12:14:20.550Z</time>
      </trkpt>
      <trkpt lat="45.28589" lon="6.26203">
        <ele>1759</ele>
        <time>2015-11-15T12:14:57.550Z</time>
      </trkpt>
      <trkpt lat="45.28586" lon="6.26188">
        <ele>1759</ele>
        <time>2015-11-15T12:15:00.550Z</time>
      </trkpt>
      <trkpt lat="45.28583" lon="6.26172">
        <ele>1755</ele>
        <time>2015-11-15T12:15:03.550Z</time>
      </trkpt>
      <trkpt lat="45.28577" lon="6.26155">
        <ele>1755</ele>
        <time>2015-11-15T12:15:06.550Z</time>
      </trkpt>
      <trkpt lat="45.28573" lon="6.26141">
        <ele>1755</ele>
        <time>2015-11-15T12:15:08.550Z</time>
      </trkpt>
      <trkpt lat="45.28573" lon="6.26127">
        <ele>1755</ele>
        <time>2015-11-15T12:15:10.550Z</time>
      </trkpt>
      <trkpt lat="45.28573" lon="6.26111">
        <ele>1752.4774616866</ele>
        <time>2015-11-15T12:15:12.550Z</time>
      </trkpt>
      <trkpt lat="45.28573" lon="6.26092">
        <ele>1744.0588043369</ele>
        <time>2015-11-15T12:15:14.550Z</time>
      </trkpt>
      <trkpt lat="45.28573" lon="6.26076">
        <ele>1740.52</ele>
        <time>2015-11-15T12:15:16.550Z</time>
      </trkpt>
      <trkpt lat="45.28579" lon="6.26093">
        <ele>1738</ele>
        <time>2015-11-15T12:15:40.550Z</time>
      </trkpt>
      <trkpt lat="45.28586" lon="6.26109">
        <ele>1738</ele>
        <time>2015-11-15T12:15:43.550Z</time>
      </trkpt>
      <trkpt lat="45.28589" lon="6.26122">
        <ele>1730</ele>
        <time>2015-11-15T12:15:59.550Z</time>
      </trkpt>
      <trkpt lat="45.28592" lon="6.26136">
        <ele>1730</ele>
        <time>2015-11-15T12:16:20.550Z</time>
      </trkpt>
      <trkpt lat="45.28593" lon="6.26121">
        <ele>1727</ele>
        <time>2015-11-15T12:16:45.550Z</time>
      </trkpt>
      <trkpt lat="45.28593" lon="6.26103">
        <ele>1724</ele>
        <time>2015-11-15T12:16:48.550Z</time>
      </trkpt>
      <trkpt lat="45.28592" lon="6.26075">
        <ele>1720</ele>
        <time>2015-11-15T12:16:52.550Z</time>
      </trkpt>
      <trkpt lat="45.28593" lon="6.26058">
        <ele>1720</ele>
        <time>2015-11-15T12:16:54.550Z</time>
      </trkpt>
      <trkpt lat="45.28593" lon="6.26039">
        <ele>1716</ele>
        <time>2015-11-15T12:16:57.550Z</time>
      </trkpt>
      <trkpt lat="45.28593" lon="6.26024">
        <ele>1712</ele>
        <time>2015-11-15T12:17:01.550Z</time>
      </trkpt>
      <trkpt lat="45.28601" lon="6.2604">
        <ele>1708.5346488227</ele>
        <time>2015-11-15T12:17:06.550Z</time>
      </trkpt>
      <trkpt lat="45.28604" lon="6.26057">
        <ele>1708</ele>
        <time>2015-11-15T12:17:09.550Z</time>
      </trkpt>
      <trkpt lat="45.28609" lon="6.26072">
        <ele>1705.52</ele>
        <time>2015-11-15T12:17:12.550Z</time>
      </trkpt>
      <trkpt lat="45.28615" lon="6.26085">
        <ele>1704</ele>
        <time>2015-11-15T12:17:15.550Z</time>
      </trkpt>
      <trkpt lat="45.28615" lon="6.26072">
        <ele>1700</ele>
        <time>2015-11-15T12:17:34.550Z</time>
      </trkpt>
      <trkpt lat="45.28615" lon="6.26055">
        <ele>1696</ele>
        <time>2015-11-15T12:18:03.550Z</time>
      </trkpt>
      <trkpt lat="45.28615" lon="6.26036">
        <ele>1696</ele>
        <time>2015-11-15T12:18:06.550Z</time>
      </trkpt>
      <trkpt lat="45.28615" lon="6.26016">
        <ele>1696</ele>
        <time>2015-11-15T12:18:09.550Z</time>
      </trkpt>
      <trkpt lat="45.28616" lon="6.25999">
        <ele>1694.049984</ele>
        <time>2015-11-15T12:18:12.550Z</time>
      </trkpt>
      <trkpt lat="45.28614" lon="6.25982">
        <ele>1687</ele>
        <time>2015-11-15T12:18:15.550Z</time>
      </trkpt>
      <trkpt lat="45.28612" lon="6.25968">
        <ele>1686</ele>
        <time>2015-11-15T12:18:18.550Z</time>
      </trkpt>
      <trkpt lat="45.28609" lon="6.2595">
        <ele>1685</ele>
        <time>2015-11-15T12:18:21.550Z</time>
      </trkpt>
      <trkpt lat="45.28608" lon="6.25934">
        <ele>1683.2199936</ele>
        <time>2015-11-15T12:18:24.550Z</time>
      </trkpt>
      <trkpt lat="45.28605" lon="6.25916">
        <ele>1681</ele>
        <time>2015-11-15T12:18:27.550Z</time>
      </trkpt>
      <trkpt lat="45.28605" lon="6.25896">
        <ele>1678.6</ele>
        <time>2015-11-15T12:18:30.550Z</time>
      </trkpt>
      <trkpt lat="45.286" lon="6.25881">
        <ele>1677.6</ele>
        <time>2015-11-15T12:18:32.550Z</time>
      </trkpt>
      <trkpt lat="45.28595" lon="6.25866">
        <ele>1676.595955678</ele>
        <time>2015-11-15T12:18:34.550Z</time>
      </trkpt>
      <trkpt lat="45.28587" lon="6.25854">
        <ele>1675.6</ele>
        <time>2015-11-15T12:18:36.550Z</time>
      </trkpt>
      <trkpt lat="45.28577" lon="6.25847">
        <ele>1674.6</ele>
        <time>2015-11-15T12:18:38.550Z</time>
      </trkpt>
      <trkpt lat="45.28563" lon="6.25843">
        <ele>1673</ele>
        <time>2015-11-15T12:18:41.550Z</time>
      </trkpt>
      <trkpt lat="45.28552" lon="6.25839">
        <ele>1669.5604349233</ele>
        <time>2015-11-15T12:18:44.550Z</time>
      </trkpt>
      <trkpt lat="45.28564" lon="6.25831">
        <ele>1667</ele>
        <time>2015-11-15T12:18:56.550Z</time>
      </trkpt>
      <trkpt lat="45.28575" lon="6.25827">
        <ele>1665</ele>
        <time>2015-11-15T12:19:00.550Z</time>
      </trkpt>
      <trkpt lat="45.28586" lon="6.25822">
        <ele>1663</ele>
        <time>2015-11-15T12:19:04.550Z</time>
      </trkpt>
      <trkpt lat="45.28596" lon="6.25817">
        <ele>1661</ele>
        <time>2015-11-15T12:19:08.550Z</time>
      </trkpt>
      <trkpt lat="45.28608" lon="6.25825">
        <ele>1658.5495450824</ele>
        <time>2015-11-15T12:19:11.550Z</time>
      </trkpt>
      <trkpt lat="45.28616" lon="6.25839">
        <ele>1655.6099968</ele>
        <time>2015-11-15T12:19:14.550Z</time>
      </trkpt>
      <trkpt lat="45.28621" lon="6.2585">
        <ele>1654</ele>
        <time>2015-11-15T12:19:17.550Z</time>
      </trkpt>
      <trkpt lat="45.28623" lon="6.25833">
        <ele>1649</ele>
        <time>2015-11-15T12:19:25.550Z</time>
      </trkpt>
      <trkpt lat="45.28624" lon="6.25815">
        <ele>1646.2199936</ele>
        <time>2015-11-15T12:19:28.550Z</time>
      </trkpt>
      <trkpt lat="45.28621" lon="6.25796">
        <ele>1643</ele>
        <time>2015-11-15T12:19:31.550Z</time>
      </trkpt>
      <trkpt lat="45.28614" lon="6.25785">
        <ele>1641</ele>
        <time>2015-11-15T12:19:33.550Z</time>
      </trkpt>
      <trkpt lat="45.28625" lon="6.25785">
        <ele>1639</ele>
        <time>2015-11-15T12:19:39.550Z</time>
      </trkpt>
      <trkpt lat="45.28631" lon="6.25796">
        <ele>1636.6099968</ele>
        <time>2015-11-15T12:19:44.550Z</time>
      </trkpt>
      <trkpt lat="45.28637" lon="6.25812">
        <ele>1634</ele>
        <time>2015-11-15T12:19:49.550Z</time>
      </trkpt>
      <trkpt lat="45.28646" lon="6.25803">
        <ele>1633</ele>
        <time>2015-11-15T12:19:58.550Z</time>
      </trkpt>
      <trkpt lat="45.28648" lon="6.25786">
        <ele>1627</ele>
        <time>2015-11-15T12:20:03.550Z</time>
      </trkpt>
      <trkpt lat="45.28656" lon="6.25793">
        <ele>1622</ele>
        <time>2015-11-15T12:20:16.550Z</time>
      </trkpt>
      <trkpt lat="45.28659" lon="6.25809">
        <ele>1620</ele>
        <time>2015-11-15T12:20:46.550Z</time>
      </trkpt>
      <trkpt lat="45.28664" lon="6.25826">
        <ele>1620</ele>
        <time>2015-11-15T12:20:49.550Z</time>
      </trkpt>
      <trkpt lat="45.28672" lon="6.25816">
        <ele>1615</ele>
        <time>2015-11-15T12:20:59.550Z</time>
      </trkpt>
      <trkpt lat="45.28675" lon="6.25798">
        <ele>1608</ele>
        <time>2015-11-15T12:21:02.550Z</time>
      </trkpt>
      <trkpt lat="45.28676" lon="6.25782">
        <ele>1607</ele>
        <time>2015-11-15T12:21:04.550Z</time>
      </trkpt>
      <trkpt lat="45.28678" lon="6.25766">
        <ele>1604.7272574472</ele>
        <time>2015-11-15T12:21:07.550Z</time>
      </trkpt>
      <trkpt lat="45.28684" lon="6.2575">
        <ele>1602</ele>
        <time>2015-11-15T12:21:10.550Z</time>
      </trkpt>
      <trkpt lat="45.28684" lon="6.25734">
        <ele>1600</ele>
        <time>2015-11-15T12:21:13.550Z</time>
      </trkpt>
      <trkpt lat="45.2868" lon="6.25725">
        <ele>1599</ele>
        <time>2015-11-15T12:21:28.550Z</time>
      </trkpt>
      <trkpt lat="45.28676" lon="6.25707">
        <ele>1599</ele>
        <time>2015-11-15T12:22:18.550Z</time>
      </trkpt>
      <trkpt lat="45.28669" lon="6.25693">
        <ele>1597.7599872</ele>
        <time>2015-11-15T12:22:22.550Z</time>
      </trkpt>
      <trkpt lat="45.2866" lon="6.25678">
        <ele>1595</ele>
        <time>2015-11-15T12:22:25.550Z</time>
      </trkpt>
      <trkpt lat="45.28652" lon="6.25668">
        <ele>1593.12496</ele>
        <time>2015-11-15T12:22:27.550Z</time>
      </trkpt>
      <trkpt lat="45.28642" lon="6.25659">
        <ele>1590</ele>
        <time>2015-11-15T12:22:29.550Z</time>
      </trkpt>
      <trkpt lat="45.2863" lon="6.25652">
        <ele>1588.2181830876</ele>
        <time>2015-11-15T12:22:32.550Z</time>
      </trkpt>
      <trkpt lat="45.28635" lon="6.25639">
        <ele>1583.2</ele>
        <time>2015-11-15T12:22:37.550Z</time>
      </trkpt>
      <trkpt lat="45.28647" lon="6.25634">
        <ele>1581</ele>
        <time>2015-11-15T12:22:40.550Z</time>
      </trkpt>
      <trkpt lat="45.2866" lon="6.25629">
        <ele>1578.1919218039</ele>
        <time>2015-11-15T12:22:43.550Z</time>
      </trkpt>
      <trkpt lat="45.28672" lon="6.25629">
        <ele>1576.1683120636</ele>
        <time>2015-11-15T12:22:45.550Z</time>
      </trkpt>
      <trkpt lat="45.28684" lon="6.25634">
        <ele>1574.5858502276</ele>
        <time>2015-11-15T12:22:47.550Z</time>
      </trkpt>
      <trkpt lat="45.28695" lon="6.25643">
        <ele>1573.1799912961</ele>
        <time>2015-11-15T12:22:49.550Z</time>
      </trkpt>
      <trkpt lat="45.28706" lon="6.25652">
        <ele>1571.2566237356</ele>
        <time>2015-11-15T12:22:51.550Z</time>
      </trkpt>
      <trkpt lat="45.28715" lon="6.25658">
        <ele>1569</ele>
        <time>2015-11-15T12:22:57.550Z</time>
      </trkpt>
      <trkpt lat="45.28724" lon="6.25668">
        <ele>1567</ele>
        <time>2015-11-15T12:23:01.550Z</time>
      </trkpt>
      <trkpt lat="45.28718" lon="6.25652">
        <ele>1567</ele>
        <time>2015-11-15T12:23:11.550Z</time>
      </trkpt>
      <trkpt lat="45.28723" lon="6.25636">
        <ele>1566.1599872</ele>
        <time>2015-11-15T12:23:14.550Z</time>
      </trkpt>
      <trkpt lat="45.28733" lon="6.2563">
        <ele>1565</ele>
        <time>2015-11-15T12:23:18.550Z</time>
      </trkpt>
      <trkpt lat="45.28737" lon="6.25614">
        <ele>1563.7227587256</ele>
        <time>2015-11-15T12:23:24.550Z</time>
      </trkpt>
      <trkpt lat="45.28735" lon="6.25597">
        <ele>1560.5299900161</ele>
        <time>2015-11-15T12:23:29.550Z</time>
      </trkpt>
      <trkpt lat="45.28728" lon="6.25586">
        <ele>1559</ele>
        <time>2015-11-15T12:23:32.550Z</time>
      </trkpt>
      <trkpt lat="45.28716" lon="6.25571">
        <ele>1555</ele>
        <time>2015-11-15T12:23:35.550Z</time>
      </trkpt>
      <trkpt lat="45.28707" lon="6.25564">
        <ele>1553.6391707684</ele>
        <time>2015-11-15T12:23:36.550Z</time>
      </trkpt>
      <trkpt lat="45.28694" lon="6.25554">
        <ele>1551.6138569944</ele>
        <time>2015-11-15T12:23:38.550Z</time>
      </trkpt>
      <trkpt lat="45.28685" lon="6.25545">
        <ele>1549.5555555556</ele>
        <time>2015-11-15T12:23:41.550Z</time>
      </trkpt>
      <trkpt lat="45.28694" lon="6.25538">
        <ele>1546.5742529085</ele>
        <time>2015-11-15T12:23:46.550Z</time>
      </trkpt>
      <trkpt lat="45.28704" lon="6.25534">
        <ele>1545.148505817</ele>
        <time>2015-11-15T12:23:48.550Z</time>
      </trkpt>
      <trkpt lat="45.28718" lon="6.25535">
        <ele>1543.5757524824</ele>
        <time>2015-11-15T12:23:50.550Z</time>
      </trkpt>
      <trkpt lat="45.28732" lon="6.25539">
        <ele>1541.9090944352</ele>
        <time>2015-11-15T12:23:52.550Z</time>
      </trkpt>
      <trkpt lat="45.28752" lon="6.25545">
        <ele>1538</ele>
        <time>2015-11-15T12:23:55.550Z</time>
      </trkpt>
      <trkpt lat="45.28766" lon="6.25554">
        <ele>1535</ele>
        <time>2015-11-15T12:23:57.550Z</time>
      </trkpt>
      <trkpt lat="45.2878" lon="6.25566">
        <ele>1532</ele>
        <time>2015-11-15T12:23:59.550Z</time>
      </trkpt>
      <trkpt lat="45.28792" lon="6.25575">
        <ele>1530</ele>
        <time>2015-11-15T12:24:01.550Z</time>
      </trkpt>
      <trkpt lat="45.28803" lon="6.25582">
        <ele>1529.3737329334</ele>
        <time>2015-11-15T12:24:04.550Z</time>
      </trkpt>
      <trkpt lat="45.2881" lon="6.25602">
        <ele>1527.36</ele>
        <time>2015-11-15T12:24:06.550Z</time>
      </trkpt>
      <trkpt lat="45.28813" lon="6.25622">
        <ele>1525.009996928</ele>
        <time>2015-11-15T12:24:08.550Z</time>
      </trkpt>
      <trkpt lat="45.28816" lon="6.2564">
        <ele>1522.669998976</ele>
        <time>2015-11-15T12:24:10.550Z</time>
      </trkpt>
      <trkpt lat="45.28825" lon="6.25629">
        <ele>1516.2438887328</ele>
        <time>2015-11-15T12:24:16.550Z</time>
      </trkpt>
      <trkpt lat="45.28829" lon="6.25613">
        <ele>1514.4084263282</ele>
        <time>2015-11-15T12:24:18.550Z</time>
      </trkpt>
      <trkpt lat="45.28832" lon="6.25587">
        <ele>1511</ele>
        <time>2015-11-15T12:24:21.550Z</time>
      </trkpt>
      <trkpt lat="45.2884" lon="6.25603">
        <ele>1506</ele>
        <time>2015-11-15T12:24:29.550Z</time>
      </trkpt>
      <trkpt lat="45.28843" lon="6.25621">
        <ele>1502.5384615385</ele>
        <time>2015-11-15T12:24:32.550Z</time>
      </trkpt>
      <trkpt lat="45.28844" lon="6.25605">
        <ele>1501</ele>
        <time>2015-11-15T12:24:58.550Z</time>
      </trkpt>
      <trkpt lat="45.28846" lon="6.25589">
        <ele>1499.32</ele>
        <time>2015-11-15T12:25:01.550Z</time>
      </trkpt>
      <trkpt lat="45.28845" lon="6.25569">
        <ele>1495</ele>
        <time>2015-11-15T12:25:04.550Z</time>
      </trkpt>
      <trkpt lat="45.28839" lon="6.25555">
        <ele>1495</ele>
        <time>2015-11-15T12:25:06.550Z</time>
      </trkpt>
      <trkpt lat="45.28837" lon="6.25537">
        <ele>1495</ele>
        <time>2015-11-15T12:25:08.550Z</time>
      </trkpt>
      <trkpt lat="45.28832" lon="6.25518">
        <ele>1495</ele>
        <time>2015-11-15T12:25:10.550Z</time>
      </trkpt>
      <trkpt lat="45.28822" lon="6.255">
        <ele>1493.3799808</ele>
        <time>2015-11-15T12:25:12.550Z</time>
      </trkpt>
      <trkpt lat="45.28815" lon="6.25489">
        <ele>1487.909081506</ele>
        <time>2015-11-15T12:25:14.550Z</time>
      </trkpt>
      <trkpt lat="45.28828" lon="6.25485">
        <ele>1481.3333160943</ele>
        <time>2015-11-15T12:25:21.550Z</time>
      </trkpt>
      <trkpt lat="45.28838" lon="6.25492">
        <ele>1479.6599936</ele>
        <time>2015-11-15T12:25:23.550Z</time>
      </trkpt>
      <trkpt lat="45.28847" lon="6.255">
        <ele>1478.6599936</ele>
        <time>2015-11-15T12:25:25.550Z</time>
      </trkpt>
      <trkpt lat="45.28858" lon="6.25511">
        <ele>1477.3399892481</ele>
        <time>2015-11-15T12:25:27.550Z</time>
      </trkpt>
      <trkpt lat="45.28867" lon="6.25522">
        <ele>1475.3399892481</ele>
        <time>2015-11-15T12:25:29.550Z</time>
      </trkpt>
      <trkpt lat="45.28873" lon="6.25536">
        <ele>1473.6699946241</ele>
        <time>2015-11-15T12:25:31.550Z</time>
      </trkpt>
      <trkpt lat="45.28881" lon="6.25551">
        <ele>1472.6699946241</ele>
        <time>2015-11-15T12:25:33.550Z</time>
      </trkpt>
      <trkpt lat="45.28888" lon="6.25567">
        <ele>1471.0099838722</ele>
        <time>2015-11-15T12:25:35.550Z</time>
      </trkpt>
      <trkpt lat="45.28896" lon="6.2558">
        <ele>1468.6699946241</ele>
        <time>2015-11-15T12:25:37.550Z</time>
      </trkpt>
      <trkpt lat="45.28899" lon="6.25596">
        <ele>1467</ele>
        <time>2015-11-15T12:25:40.550Z</time>
      </trkpt>
      <trkpt lat="45.28908" lon="6.25582">
        <ele>1462</ele>
        <time>2015-11-15T12:25:46.550Z</time>
      </trkpt>
      <trkpt lat="45.28909" lon="6.25568">
        <ele>1460</ele>
        <time>2015-11-15T12:25:50.550Z</time>
      </trkpt>
      <trkpt lat="45.28901" lon="6.25555">
        <ele>1458.6764632065</ele>
        <time>2015-11-15T12:25:59.550Z</time>
      </trkpt>
      <trkpt lat="45.28899" lon="6.25541">
        <ele>1457</ele>
        <time>2015-11-15T12:26:03.550Z</time>
      </trkpt>
      <trkpt lat="45.28897" lon="6.25526">
        <ele>1457</ele>
        <time>2015-11-15T12:26:08.550Z</time>
      </trkpt>
      <trkpt lat="45.28899" lon="6.25512">
        <ele>1457</ele>
        <time>2015-11-15T12:26:11.550Z</time>
      </trkpt>
      <trkpt lat="45.28907" lon="6.25488">
        <ele>1457</ele>
        <time>2015-11-15T12:26:15.550Z</time>
      </trkpt>
      <trkpt lat="45.28915" lon="6.25501">
        <ele>1447</ele>
        <time>2015-11-15T12:26:23.550Z</time>
      </trkpt>
      <trkpt lat="45.28918" lon="6.25517">
        <ele>1447</ele>
        <time>2015-11-15T12:26:25.550Z</time>
      </trkpt>
      <trkpt lat="45.28922" lon="6.25534">
        <ele>1444</ele>
        <time>2015-11-15T12:26:28.550Z</time>
      </trkpt>
      <trkpt lat="45.28925" lon="6.25553">
        <ele>1442.1287101108</ele>
        <time>2015-11-15T12:26:31.550Z</time>
      </trkpt>
      <trkpt lat="45.28926" lon="6.25574">
        <ele>1440</ele>
        <time>2015-11-15T12:26:34.550Z</time>
      </trkpt>
      <trkpt lat="45.28927" lon="6.25589">
        <ele>1439</ele>
        <time>2015-11-15T12:26:37.550Z</time>
      </trkpt>
      <trkpt lat="45.28933" lon="6.25574">
        <ele>1434</ele>
        <time>2015-11-15T12:26:46.550Z</time>
      </trkpt>
      <trkpt lat="45.28937" lon="6.25557">
        <ele>1430.9999872</ele>
        <time>2015-11-15T12:26:49.550Z</time>
      </trkpt>
      <trkpt lat="45.2894" lon="6.25541">
        <ele>1429.5049488638</ele>
        <time>2015-11-15T12:26:51.550Z</time>
      </trkpt>
      <trkpt lat="45.28943" lon="6.25522">
        <ele>1428.0199933441</ele>
        <time>2015-11-15T12:26:53.550Z</time>
      </trkpt>
      <trkpt lat="45.28948" lon="6.25506">
        <ele>1426.509996672</ele>
        <time>2015-11-15T12:26:55.550Z</time>
      </trkpt>
      <trkpt lat="45.28952" lon="6.25489">
        <ele>1425.0100848159</ele>
        <time>2015-11-15T12:26:57.550Z</time>
      </trkpt>
      <trkpt lat="45.28952" lon="6.2547">
        <ele>1422</ele>
        <time>2015-11-15T12:27:00.550Z</time>
      </trkpt>
      <trkpt lat="45.28943" lon="6.25459">
        <ele>1417</ele>
        <time>2015-11-15T12:27:04.550Z</time>
      </trkpt>
      <trkpt lat="45.28953" lon="6.25467">
        <ele>1412</ele>
        <time>2015-11-15T12:27:18.550Z</time>
      </trkpt>
      <trkpt lat="45.28955" lon="6.25482">
        <ele>1412</ele>
        <time>2015-11-15T12:27:21.550Z</time>
      </trkpt>
      <trkpt lat="45.28965" lon="6.2548">
        <ele>1409</ele>
        <time>2015-11-15T12:27:31.550Z</time>
      </trkpt>
      <trkpt lat="45.2897" lon="6.25465">
        <ele>1406</ele>
        <time>2015-11-15T12:27:36.550Z</time>
      </trkpt>
      <trkpt lat="45.28973" lon="6.25448">
        <ele>1402</ele>
        <time>2015-11-15T12:27:39.550Z</time>
      </trkpt>
      <trkpt lat="45.2898" lon="6.25434">
        <ele>1398</ele>
        <time>2015-11-15T12:27:43.550Z</time>
      </trkpt>
      <trkpt lat="45.2899" lon="6.25443">
        <ele>1395</ele>
        <time>2015-11-15T12:27:47.550Z</time>
      </trkpt>
      <trkpt lat="45.28993" lon="6.2546">
        <ele>1394.509996928</ele>
        <time>2015-11-15T12:27:50.550Z</time>
      </trkpt>
      <trkpt lat="45.28994" lon="6.25475">
        <ele>1392</ele>
        <time>2015-11-15T12:27:53.550Z</time>
      </trkpt>
      <trkpt lat="45.2899" lon="6.25493">
        <ele>1388.9999872</ele>
        <time>2015-11-15T12:27:56.550Z</time>
      </trkpt>
      <trkpt lat="45.28987" lon="6.25506">
        <ele>1387.4999936</ele>
        <time>2015-11-15T12:27:58.550Z</time>
      </trkpt>
      <trkpt lat="45.29" lon="6.25491">
        <ele>1381.0297062327</ele>
        <time>2015-11-15T12:28:06.550Z</time>
      </trkpt>
      <trkpt lat="45.29009" lon="6.25474">
        <ele>1379.6476131266</ele>
        <time>2015-11-15T12:28:08.550Z</time>
      </trkpt>
      <trkpt lat="45.29023" lon="6.25457">
        <ele>1378.1980077561</ele>
        <time>2015-11-15T12:28:10.550Z</time>
      </trkpt>
      <trkpt lat="45.29034" lon="6.25438">
        <ele>1376</ele>
        <time>2015-11-15T12:28:12.550Z</time>
      </trkpt>
      <trkpt lat="45.29042" lon="6.2542">
        <ele>1372</ele>
        <time>2015-11-15T12:28:14.550Z</time>
      </trkpt>
      <trkpt lat="45.29037" lon="6.25398">
        <ele>1370.5999955478</ele>
        <time>2015-11-15T12:28:18.550Z</time>
      </trkpt>
      <trkpt lat="45.29038" lon="6.25409">
        <ele>1368</ele>
        <time>2015-11-15T12:28:51.550Z</time>
      </trkpt>
      <trkpt lat="45.29043" lon="6.25421">
        <ele>1367</ele>
        <time>2015-11-15T12:29:43.550Z</time>
      </trkpt>
      <trkpt lat="45.29047" lon="6.25436">
        <ele>1367</ele>
        <time>2015-11-15T12:29:46.550Z</time>
      </trkpt>
      <trkpt lat="45.29045" lon="6.25453">
        <ele>1367</ele>
        <time>2015-11-15T12:29:50.550Z</time>
      </trkpt>
      <trkpt lat="45.29055" lon="6.2546">
        <ele>1363</ele>
        <time>2015-11-15T12:29:54.550Z</time>
      </trkpt>
      <trkpt lat="45.29065" lon="6.25448">
        <ele>1358</ele>
        <time>2015-11-15T12:29:58.550Z</time>
      </trkpt>
      <trkpt lat="45.29069" lon="6.25428">
        <ele>1358</ele>
        <time>2015-11-15T12:30:00.550Z</time>
      </trkpt>
      <trkpt lat="45.29073" lon="6.254">
        <ele>1354</ele>
        <time>2015-11-15T12:30:03.550Z</time>
      </trkpt>
      <trkpt lat="45.29073" lon="6.25381">
        <ele>1354</ele>
        <time>2015-11-15T12:30:05.550Z</time>
      </trkpt>
      <trkpt lat="45.29083" lon="6.25385">
        <ele>1344</ele>
        <time>2015-11-15T12:30:16.550Z</time>
      </trkpt>
      <trkpt lat="45.29083" lon="6.25394">
        <ele>1343</ele>
        <time>2015-11-15T12:31:04.550Z</time>
      </trkpt>
      <trkpt lat="45.29093" lon="6.25413">
        <ele>1341</ele>
        <time>2015-11-15T12:31:14.550Z</time>
      </trkpt>
      <trkpt lat="45.29091" lon="6.25428">
        <ele>1341</ele>
        <time>2015-11-15T12:31:18.550Z</time>
      </trkpt>
      <trkpt lat="45.29104" lon="6.25418">
        <ele>1337</ele>
        <time>2015-11-15T12:31:25.550Z</time>
      </trkpt>
      <trkpt lat="45.29116" lon="6.25397">
        <ele>1333</ele>
        <time>2015-11-15T12:31:29.550Z</time>
      </trkpt>
      <trkpt lat="45.29119" lon="6.25384">
        <ele>1333</ele>
        <time>2015-11-15T12:31:31.550Z</time>
      </trkpt>
      <trkpt lat="45.29119" lon="6.25368">
        <ele>1330</ele>
        <time>2015-11-15T12:31:34.550Z</time>
      </trkpt>
      <trkpt lat="45.29114" lon="6.2535">
        <ele>1328.7636202844</ele>
        <time>2015-11-15T12:31:37.550Z</time>
      </trkpt>
      <trkpt lat="45.29124" lon="6.25344">
        <ele>1321</ele>
        <time>2015-11-15T12:31:51.550Z</time>
      </trkpt>
      <trkpt lat="45.29135" lon="6.25351">
        <ele>1320</ele>
        <time>2015-11-15T12:32:15.550Z</time>
      </trkpt>
      <trkpt lat="45.29142" lon="6.25362">
        <ele>1320</ele>
        <time>2015-11-15T12:32:21.550Z</time>
      </trkpt>
      <trkpt lat="45.29146" lon="6.25376">
        <ele>1316</ele>
        <time>2015-11-15T12:32:28.550Z</time>
      </trkpt>
      <trkpt lat="45.29145" lon="6.25392">
        <ele>1313</ele>
        <time>2015-11-15T12:32:38.550Z</time>
      </trkpt>
      <trkpt lat="45.29156" lon="6.25386">
        <ele>1309</ele>
        <time>2015-11-15T12:32:48.550Z</time>
      </trkpt>
      <trkpt lat="45.29166" lon="6.25378">
        <ele>1307.9425179126</ele>
        <time>2015-11-15T12:32:50.550Z</time>
      </trkpt>
      <trkpt lat="45.29177" lon="6.25362">
        <ele>1304.0470439418</ele>
        <time>2015-11-15T12:32:52.550Z</time>
      </trkpt>
      <trkpt lat="45.29183" lon="6.25346">
        <ele>1301.4054060287</ele>
        <time>2015-11-15T12:32:54.550Z</time>
      </trkpt>
      <trkpt lat="45.29183" lon="6.25331">
        <ele>1299.6581187231</ele>
        <time>2015-11-15T12:32:56.550Z</time>
      </trkpt>
      <trkpt lat="45.29179" lon="6.25314">
        <ele>1298.4065743945</ele>
        <time>2015-11-15T12:32:58.550Z</time>
      </trkpt>
      <trkpt lat="45.29171" lon="6.25296">
        <ele>1296</ele>
        <time>2015-11-15T12:33:00.550Z</time>
      </trkpt>
      <trkpt lat="45.29164" lon="6.25286">
        <ele>1295</ele>
        <time>2015-11-15T12:33:02.550Z</time>
      </trkpt>
      <trkpt lat="45.29175" lon="6.25295">
        <ele>1291.2072094927</ele>
        <time>2015-11-15T12:33:07.550Z</time>
      </trkpt>
      <trkpt lat="45.29184" lon="6.25306">
        <ele>1289.4457775584</ele>
        <time>2015-11-15T12:33:09.550Z</time>
      </trkpt>
      <trkpt lat="45.29194" lon="6.25317">
        <ele>1287.2856990476</ele>
        <time>2015-11-15T12:33:11.550Z</time>
      </trkpt>
      <trkpt lat="45.29204" lon="6.25327">
        <ele>1286</ele>
        <time>2015-11-15T12:33:13.550Z</time>
      </trkpt>
      <trkpt lat="45.29211" lon="6.25338">
        <ele>1285.6272661686</ele>
        <time>2015-11-15T12:33:15.550Z</time>
      </trkpt>
      <trkpt lat="45.29219" lon="6.25326">
        <ele>1282.6756766107</ele>
        <time>2015-11-15T12:33:21.550Z</time>
      </trkpt>
      <trkpt lat="45.29217" lon="6.25314">
        <ele>1280</ele>
        <time>2015-11-15T12:34:28.550Z</time>
      </trkpt>
      <trkpt lat="45.29213" lon="6.25298">
        <ele>1278</ele>
        <time>2015-11-15T12:35:13.550Z</time>
      </trkpt>
      <trkpt lat="45.29207" lon="6.2528">
        <ele>1278</ele>
        <time>2015-11-15T12:35:16.550Z</time>
      </trkpt>
      <trkpt lat="45.292" lon="6.25269">
        <ele>1278</ele>
        <time>2015-11-15T12:35:18.550Z</time>
      </trkpt>
      <trkpt lat="45.29188" lon="6.25252">
        <ele>1278</ele>
        <time>2015-11-15T12:35:21.550Z</time>
      </trkpt>
      <trkpt lat="45.29178" lon="6.2524">
        <ele>1270.3333105779</ele>
        <time>2015-11-15T12:35:25.550Z</time>
      </trkpt>
      <trkpt lat="45.29192" lon="6.25241">
        <ele>1267</ele>
        <time>2015-11-15T12:35:30.550Z</time>
      </trkpt>
      <trkpt lat="45.29202" lon="6.25248">
        <ele>1263.9642813605</ele>
        <time>2015-11-15T12:35:33.550Z</time>
      </trkpt>
      <trkpt lat="45.29211" lon="6.25255">
        <ele>1261.3693654216</ele>
        <time>2015-11-15T12:35:35.550Z</time>
      </trkpt>
      <trkpt lat="45.29225" lon="6.25273">
        <ele>1258</ele>
        <time>2015-11-15T12:35:38.550Z</time>
      </trkpt>
      <trkpt lat="45.2924" lon="6.25288">
        <ele>1256.2289186355</ele>
        <time>2015-11-15T12:35:41.550Z</time>
      </trkpt>
      <trkpt lat="45.2925" lon="6.25298">
        <ele>1254.1333323852</ele>
        <time>2015-11-15T12:35:43.550Z</time>
      </trkpt>
      <trkpt lat="45.29258" lon="6.25306">
        <ele>1252.6545416463</ele>
        <time>2015-11-15T12:35:45.550Z</time>
      </trkpt>
      <trkpt lat="45.29258" lon="6.25292">
        <ele>1248.8292591552</ele>
        <time>2015-11-15T12:35:53.550Z</time>
      </trkpt>
      <trkpt lat="45.29249" lon="6.25265">
        <ele>1245.1818192397</ele>
        <time>2015-11-15T12:35:57.550Z</time>
      </trkpt>
      <trkpt lat="45.29245" lon="6.25249">
        <ele>1243</ele>
        <time>2015-11-15T12:36:00.550Z</time>
      </trkpt>
      <trkpt lat="45.29255" lon="6.25262">
        <ele>1239</ele>
        <time>2015-11-15T12:36:08.550Z</time>
      </trkpt>
      <trkpt lat="45.29264" lon="6.25274">
        <ele>1237.3176520194</ele>
        <time>2015-11-15T12:36:11.550Z</time>
      </trkpt>
      <trkpt lat="45.29273" lon="6.25289">
        <ele>1235.387377622</ele>
        <time>2015-11-15T12:36:13.550Z</time>
      </trkpt>
      <trkpt lat="45.29282" lon="6.25301">
        <ele>1233.5882299792</ele>
        <time>2015-11-15T12:36:15.550Z</time>
      </trkpt>
      <trkpt lat="45.29289" lon="6.25292">
        <ele>1228</ele>
        <time>2015-11-15T12:36:21.550Z</time>
      </trkpt>
      <trkpt lat="45.29286" lon="6.25275">
        <ele>1226.3333333333</ele>
        <time>2015-11-15T12:36:24.550Z</time>
      </trkpt>
      <trkpt lat="45.2928" lon="6.25259">
        <ele>1224.3333333333</ele>
        <time>2015-11-15T12:36:27.550Z</time>
      </trkpt>
      <trkpt lat="45.29272" lon="6.25244">
        <ele>1222.1351276552</ele>
        <time>2015-11-15T12:36:29.550Z</time>
      </trkpt>
      <trkpt lat="45.29263" lon="6.25227">
        <ele>1219</ele>
        <time>2015-11-15T12:36:32.550Z</time>
      </trkpt>
      <trkpt lat="45.29259" lon="6.25212">
        <ele>1216.6800013653</ele>
        <time>2015-11-15T12:36:35.550Z</time>
      </trkpt>
      <trkpt lat="45.2925" lon="6.25206">
        <ele>1215.3258258906</ele>
        <time>2015-11-15T12:36:38.550Z</time>
      </trkpt>
      <trkpt lat="45.29237" lon="6.25193">
        <ele>1211</ele>
        <time>2015-11-15T12:36:41.550Z</time>
      </trkpt>
      <trkpt lat="45.2923" lon="6.2518">
        <ele>1209</ele>
        <time>2015-11-15T12:36:43.550Z</time>
      </trkpt>
      <trkpt lat="45.29224" lon="6.25167">
        <ele>1207.6541976697</ele>
        <time>2015-11-15T12:36:46.550Z</time>
      </trkpt>
      <trkpt lat="45.29238" lon="6.25186">
        <ele>1203.2941105606</ele>
        <time>2015-11-15T12:36:52.550Z</time>
      </trkpt>
      <trkpt lat="45.29249" lon="6.25188">
        <ele>1201.6846827108</ele>
        <time>2015-11-15T12:36:54.550Z</time>
      </trkpt>
      <trkpt lat="45.29265" lon="6.25195">
        <ele>1200</ele>
        <time>2015-11-15T12:36:58.550Z</time>
      </trkpt>
      <trkpt lat="45.29276" lon="6.25203">
        <ele>1197</ele>
        <time>2015-11-15T12:37:00.550Z</time>
      </trkpt>
      <trkpt lat="45.29289" lon="6.25212">
        <ele>1194.6666666667</ele>
        <time>2015-11-15T12:37:03.550Z</time>
      </trkpt>
      <trkpt lat="45.29297" lon="6.25222">
        <ele>1194</ele>
        <time>2015-11-15T12:37:05.550Z</time>
      </trkpt>
      <trkpt lat="45.29307" lon="6.25235">
        <ele>1193</ele>
        <time>2015-11-15T12:37:07.550Z</time>
      </trkpt>
      <trkpt lat="45.29318" lon="6.25248">
        <ele>1191.3908105166</ele>
        <time>2015-11-15T12:37:09.550Z</time>
      </trkpt>
      <trkpt lat="45.29328" lon="6.25258">
        <ele>1187.2574042861</ele>
        <time>2015-11-15T12:37:11.550Z</time>
      </trkpt>
      <trkpt lat="45.29338" lon="6.25283">
        <ele>1183</ele>
        <time>2015-11-15T12:37:14.550Z</time>
      </trkpt>
      <trkpt lat="45.2934" lon="6.25271">
        <ele>1178.6727253686</ele>
        <time>2015-11-15T12:37:22.550Z</time>
      </trkpt>
      <trkpt lat="45.29335" lon="6.25251">
        <ele>1175.6666666667</ele>
        <time>2015-11-15T12:37:26.550Z</time>
      </trkpt>
      <trkpt lat="45.29344" lon="6.25258">
        <ele>1172.1171152471</ele>
        <time>2015-11-15T12:37:32.550Z</time>
      </trkpt>
      <trkpt lat="45.29351" lon="6.25272">
        <ele>1170</ele>
        <time>2015-11-15T12:37:35.550Z</time>
      </trkpt>
      <trkpt lat="45.29357" lon="6.25282">
        <ele>1168</ele>
        <time>2015-11-15T12:37:37.550Z</time>
      </trkpt>
      <trkpt lat="45.29366" lon="6.25293">
        <ele>1167</ele>
        <time>2015-11-15T12:37:39.550Z</time>
      </trkpt>
      <trkpt lat="45.29373" lon="6.25299">
        <ele>1165</ele>
        <time>2015-11-15T12:37:42.550Z</time>
      </trkpt>
      <trkpt lat="45.2937" lon="6.25282">
        <ele>1162</ele>
        <time>2015-11-15T12:37:46.550Z</time>
      </trkpt>
      <trkpt lat="45.29369" lon="6.25265">
        <ele>1160.9999705748</ele>
        <time>2015-11-15T12:37:48.550Z</time>
      </trkpt>
      <trkpt lat="45.2936" lon="6.25251">
        <ele>1158</ele>
        <time>2015-11-15T12:37:51.550Z</time>
      </trkpt>
      <trkpt lat="45.29369" lon="6.25243">
        <ele>1154.1171152471</ele>
        <time>2015-11-15T12:37:58.550Z</time>
      </trkpt>
      <trkpt lat="45.29381" lon="6.25254">
        <ele>1150</ele>
        <time>2015-11-15T12:38:01.550Z</time>
      </trkpt>
      <trkpt lat="45.29392" lon="6.25278">
        <ele>1149</ele>
        <time>2015-11-15T12:38:04.550Z</time>
      </trkpt>
      <trkpt lat="45.29399" lon="6.25296">
        <ele>1147</ele>
        <time>2015-11-15T12:38:07.550Z</time>
      </trkpt>
      <trkpt lat="45.29403" lon="6.25313">
        <ele>1146</ele>
        <time>2015-11-15T12:38:12.550Z</time>
      </trkpt>
      <trkpt lat="45.29413" lon="6.25314">
        <ele>1146.2804938965</ele>
        <time>2015-11-15T12:38:18.550Z</time>
      </trkpt>
      <trkpt lat="45.29419" lon="6.25302">
        <ele>1146.3636384793</ele>
        <time>2015-11-15T12:38:43.550Z</time>
      </trkpt>
      <trkpt lat="45.2942" lon="6.25288">
        <ele>1147</ele>
        <time>2015-11-15T12:38:53.550Z</time>
      </trkpt>
      <trkpt lat="45.29419" lon="6.25273">
        <ele>1147.3448336742</ele>
        <time>2015-11-15T12:39:01.550Z</time>
      </trkpt>
      <trkpt lat="45.29415" lon="6.2526">
        <ele>1148</ele>
        <time>2015-11-15T12:39:09.550Z</time>
      </trkpt>
      <trkpt lat="45.2941" lon="6.25243">
        <ele>1150</ele>
        <time>2015-11-15T12:39:17.550Z</time>
      </trkpt>
      <trkpt lat="45.29422" lon="6.25234">
        <ele>1148</ele>
        <time>2015-11-15T12:39:23.550Z</time>
      </trkpt>
      <trkpt lat="45.29432" lon="6.25228">
        <ele>1148</ele>
        <time>2015-11-15T12:39:25.550Z</time>
      </trkpt>
      <trkpt lat="45.29448" lon="6.25216">
        <ele>1148</ele>
        <time>2015-11-15T12:39:28.550Z</time>
      </trkpt>
      <trkpt lat="45.29462" lon="6.25209">
        <ele>1146.5</ele>
        <time>2015-11-15T12:39:32.550Z</time>
      </trkpt>
      <trkpt lat="45.29457" lon="6.25223">
        <ele>1135</ele>
        <time>2015-11-15T12:39:37.550Z</time>
      </trkpt>
      <trkpt lat="45.29463" lon="6.25234">
        <ele>1131.7474755311</ele>
        <time>2015-11-15T12:39:42.550Z</time>
      </trkpt>
      <trkpt lat="45.29469" lon="6.25247">
        <ele>1132</ele>
        <time>2015-11-15T12:41:03.550Z</time>
      </trkpt>
      <trkpt lat="45.29468" lon="6.25262">
        <ele>1132</ele>
        <time>2015-11-15T12:41:10.550Z</time>
      </trkpt>
      <trkpt lat="45.29467" lon="6.25277">
        <ele>1135</ele>
        <time>2015-11-15T12:41:18.550Z</time>
      </trkpt>
      <trkpt lat="45.2947" lon="6.25292">
        <ele>1137</ele>
        <time>2015-11-15T12:41:39.550Z</time>
      </trkpt>
      <trkpt lat="45.29464" lon="6.25301">
        <ele>1141</ele>
        <time>2015-11-15T12:42:09.550Z</time>
      </trkpt>
      <trkpt lat="45.29472" lon="6.2531">
        <ele>1146</ele>
        <time>2015-11-15T12:42:42.550Z</time>
      </trkpt>
      <trkpt lat="45.29481" lon="6.25311">
        <ele>1145</ele>
        <time>2015-11-15T12:42:55.550Z</time>
      </trkpt>
      <trkpt lat="45.29475" lon="6.25322">
        <ele>1149.6666666667</ele>
        <time>2015-11-15T12:43:34.550Z</time>
      </trkpt>
      <trkpt lat="45.29465" lon="6.25323">
        <ele>1154</ele>
        <time>2015-11-15T12:44:05.550Z</time>
      </trkpt>
      <trkpt lat="45.29455" lon="6.25316">
        <ele>1155.3000064</ele>
        <time>2015-11-15T12:44:21.550Z</time>
      </trkpt>
      <trkpt lat="45.29445" lon="6.25312">
        <ele>1159</ele>
        <time>2015-11-15T12:44:44.550Z</time>
      </trkpt>
      <trkpt lat="45.2944" lon="6.25322">
        <ele>1162</ele>
        <time>2015-11-15T12:45:18.550Z</time>
      </trkpt>
      <trkpt lat="45.29445" lon="6.25335">
        <ele>1165</ele>
        <time>2015-11-15T12:45:43.550Z</time>
      </trkpt>
      <trkpt lat="45.29449" lon="6.25349">
        <ele>1166</ele>
        <time>2015-11-15T12:46:00.550Z</time>
      </trkpt>
      <trkpt lat="45.29456" lon="6.25358">
        <ele>1171</ele>
        <time>2015-11-15T12:46:32.550Z</time>
      </trkpt>
      <trkpt lat="45.29466" lon="6.25359">
        <ele>1171</ele>
        <time>2015-11-15T12:46:46.550Z</time>
      </trkpt>
      <trkpt lat="45.29477" lon="6.2536">
        <ele>1173</ele>
        <time>2015-11-15T12:47:02.550Z</time>
      </trkpt>
      <trkpt lat="45.29487" lon="6.25362">
        <ele>1176</ele>
        <time>2015-11-15T12:47:33.550Z</time>
      </trkpt>
      <trkpt lat="45.29496" lon="6.25368">
        <ele>1178.2600064</ele>
        <time>2015-11-15T12:47:56.550Z</time>
      </trkpt>
      <trkpt lat="45.29489" lon="6.25375">
        <ele>1185</ele>
        <time>2015-11-15T12:50:31.550Z</time>
      </trkpt>
      <trkpt lat="45.29485" lon="6.25387">
        <ele>1186</ele>
        <time>2015-11-15T12:51:09.550Z</time>
      </trkpt>
      <trkpt lat="45.29477" lon="6.25394">
        <ele>1190</ele>
        <time>2015-11-15T12:51:42.550Z</time>
      </trkpt>
      <trkpt lat="45.2947" lon="6.25401">
        <ele>1192</ele>
        <time>2015-11-15T12:52:00.550Z</time>
      </trkpt>
      <trkpt lat="45.2946" lon="6.25406">
        <ele>1195</ele>
        <time>2015-11-15T12:52:55.550Z</time>
      </trkpt>
      <trkpt lat="45.2945" lon="6.25411">
        <ele>1195.7008511476</ele>
        <time>2015-11-15T12:53:10.550Z</time>
      </trkpt>
      <trkpt lat="45.2944" lon="6.25408">
        <ele>1199</ele>
        <time>2015-11-15T12:53:27.550Z</time>
      </trkpt>
      <trkpt lat="45.2943" lon="6.25409">
        <ele>1201</ele>
        <time>2015-11-15T12:53:49.550Z</time>
      </trkpt>
      <trkpt lat="45.29425" lon="6.2542">
        <ele>1205</ele>
        <time>2015-11-15T12:54:16.550Z</time>
      </trkpt>
      <trkpt lat="45.2942" lon="6.25431">
        <ele>1207</ele>
        <time>2015-11-15T12:54:39.550Z</time>
      </trkpt>
      <trkpt lat="45.29429" lon="6.25433">
        <ele>1212</ele>
        <time>2015-11-15T12:55:18.550Z</time>
      </trkpt>
      <trkpt lat="45.29427" lon="6.25444">
        <ele>1217</ele>
        <time>2015-11-15T12:56:05.550Z</time>
      </trkpt>
      <trkpt lat="45.29434" lon="6.25451">
        <ele>1220.7294220402</ele>
        <time>2015-11-15T12:56:42.550Z</time>
      </trkpt>
      <trkpt lat="45.29444" lon="6.25457">
        <ele>1224</ele>
        <time>2015-11-15T12:57:08.550Z</time>
      </trkpt>
      <trkpt lat="45.2945" lon="6.25459">
        <ele>1226</ele>
        <time>2015-11-15T12:57:43.550Z</time>
      </trkpt>
      <trkpt lat="45.29442" lon="6.25467">
        <ele>1229</ele>
        <time>2015-11-15T12:58:27.550Z</time>
      </trkpt>
      <trkpt lat="45.29439" lon="6.2548">
        <ele>1232</ele>
        <time>2015-11-15T12:59:02.550Z</time>
      </trkpt>
      <trkpt lat="45.29431" lon="6.25487">
        <ele>1233</ele>
        <time>2015-11-15T12:59:21.550Z</time>
      </trkpt>
      <trkpt lat="45.29425" lon="6.25494">
        <ele>1236</ele>
        <time>2015-11-15T12:59:54.550Z</time>
      </trkpt>
      <trkpt lat="45.29428" lon="6.25506">
        <ele>1243</ele>
        <time>2015-11-15T13:02:02.550Z</time>
      </trkpt>
      <trkpt lat="45.2943" lon="6.25519">
        <ele>1245</ele>
        <time>2015-11-15T13:02:22.550Z</time>
      </trkpt>
      <trkpt lat="45.29432" lon="6.25534">
        <ele>1249</ele>
        <time>2015-11-15T13:03:05.550Z</time>
      </trkpt>
      <trkpt lat="45.29431" lon="6.25549">
        <ele>1251</ele>
        <time>2015-11-15T13:03:28.550Z</time>
      </trkpt>
      <trkpt lat="45.29431" lon="6.25562">
        <ele>1256</ele>
        <time>2015-11-15T13:04:16.550Z</time>
      </trkpt>
      <trkpt lat="45.29435" lon="6.25575">
        <ele>1258</ele>
        <time>2015-11-15T13:04:46.550Z</time>
      </trkpt>
      <trkpt lat="45.29431" lon="6.25584">
        <ele>1261</ele>
        <time>2015-11-15T13:05:12.550Z</time>
      </trkpt>
      <trkpt lat="45.29439" lon="6.2559">
        <ele>1268</ele>
        <time>2015-11-15T13:07:45.550Z</time>
      </trkpt>
      <trkpt lat="45.29448" lon="6.25596">
        <ele>1271</ele>
        <time>2015-11-15T13:08:04.550Z</time>
      </trkpt>
      <trkpt lat="45.29457" lon="6.25595">
        <ele>1272</ele>
        <time>2015-11-15T13:08:20.550Z</time>
      </trkpt>
      <trkpt lat="45.29466" lon="6.2559">
        <ele>1273</ele>
        <time>2015-11-15T13:08:48.550Z</time>
      </trkpt>
      <trkpt lat="45.29476" lon="6.25588">
        <ele>1276</ele>
        <time>2015-11-15T13:09:19.550Z</time>
      </trkpt>
      <trkpt lat="45.29485" lon="6.25586">
        <ele>1279</ele>
        <time>2015-11-15T13:10:06.550Z</time>
      </trkpt>
      <trkpt lat="45.29492" lon="6.25582">
        <ele>1283</ele>
        <time>2015-11-15T13:10:43.550Z</time>
      </trkpt>
      <trkpt lat="45.29498" lon="6.2558">
        <ele>1285</ele>
        <time>2015-11-15T13:11:29.550Z</time>
      </trkpt>
      <trkpt lat="45.29506" lon="6.25578">
        <ele>1288</ele>
        <time>2015-11-15T13:11:55.550Z</time>
      </trkpt>
      <trkpt lat="45.29513" lon="6.25574">
        <ele>1292</ele>
        <time>2015-11-15T13:12:11.550Z</time>
      </trkpt>
      <trkpt lat="45.29521" lon="6.25574">
        <ele>1292</ele>
        <time>2015-11-15T13:12:22.550Z</time>
      </trkpt>
      <trkpt lat="45.29519" lon="6.25584">
        <ele>1297</ele>
        <time>2015-11-15T13:13:37.550Z</time>
      </trkpt>
      <trkpt lat="45.2952" lon="6.25591">
        <ele>1299</ele>
        <time>2015-11-15T13:13:57.550Z</time>
      </trkpt>
      <trkpt lat="45.29528" lon="6.25594">
        <ele>1302</ele>
        <time>2015-11-15T13:14:43.550Z</time>
      </trkpt>
      <trkpt lat="45.29532" lon="6.25599">
        <ele>1304</ele>
        <time>2015-11-15T13:15:05.550Z</time>
      </trkpt>
      <trkpt lat="45.29527" lon="6.2561">
        <ele>1307</ele>
        <time>2015-11-15T13:16:28.550Z</time>
      </trkpt>
      <trkpt lat="45.29522" lon="6.25619">
        <ele>1310.388889679</ele>
        <time>2015-11-15T13:16:46.550Z</time>
      </trkpt>
      <trkpt lat="45.2953" lon="6.25623">
        <ele>1314</ele>
        <time>2015-11-15T13:17:07.550Z</time>
      </trkpt>
      <trkpt lat="45.29536" lon="6.25626">
        <ele>1314</ele>
        <time>2015-11-15T13:17:26.550Z</time>
      </trkpt>
      <trkpt lat="45.29545" lon="6.25627">
        <ele>1317</ele>
        <time>2015-11-15T13:17:45.550Z</time>
      </trkpt>
      <trkpt lat="45.29554" lon="6.25628">
        <ele>1319</ele>
        <time>2015-11-15T13:18:00.550Z</time>
      </trkpt>
      <trkpt lat="45.29563" lon="6.25628">
        <ele>1321</ele>
        <time>2015-11-15T13:18:20.550Z</time>
      </trkpt>
      <trkpt lat="45.29573" lon="6.25626">
        <ele>1324</ele>
        <time>2015-11-15T13:18:42.550Z</time>
      </trkpt>
      <trkpt lat="45.29578" lon="6.25627">
        <ele>1324</ele>
        <time>2015-11-15T13:18:55.550Z</time>
      </trkpt>
      <trkpt lat="45.29583" lon="6.25628">
        <ele>1326</ele>
        <time>2015-11-15T13:19:05.550Z</time>
      </trkpt>
      <trkpt lat="45.29578" lon="6.25633">
        <ele>1328</ele>
        <time>2015-11-15T13:19:25.550Z</time>
      </trkpt>
      <trkpt lat="45.2958" lon="6.25642">
        <ele>1332</ele>
        <time>2015-11-15T13:19:57.550Z</time>
      </trkpt>
      <trkpt lat="45.29583" lon="6.25647">
        <ele>1334</ele>
        <time>2015-11-15T13:20:08.550Z</time>
      </trkpt>
      <trkpt lat="45.29588" lon="6.25646">
        <ele>1335</ele>
        <time>2015-11-15T13:20:17.550Z</time>
      </trkpt>
      <trkpt lat="45.29592" lon="6.25645">
        <ele>1335</ele>
        <time>2015-11-15T13:20:26.550Z</time>
      </trkpt>
      <trkpt lat="45.29597" lon="6.25644">
        <ele>1336</ele>
        <time>2015-11-15T13:20:34.550Z</time>
      </trkpt>
      <trkpt lat="45.29602" lon="6.25642">
        <ele>1338</ele>
        <time>2015-11-15T13:20:44.550Z</time>
      </trkpt>
      <trkpt lat="45.29608" lon="6.25643">
        <ele>1341</ele>
        <time>2015-11-15T13:21:06.550Z</time>
      </trkpt>
      <trkpt lat="45.29612" lon="6.25646">
        <ele>1342</ele>
        <time>2015-11-15T13:21:18.550Z</time>
      </trkpt>
      <trkpt lat="45.29612" lon="6.25654">
        <ele>1346</ele>
        <time>2015-11-15T13:21:34.550Z</time>
      </trkpt>
      <trkpt lat="45.29614" lon="6.25661">
        <ele>1348</ele>
        <time>2015-11-15T13:22:03.550Z</time>
      </trkpt>
      <trkpt lat="45.29618" lon="6.25666">
        <ele>1350</ele>
        <time>2015-11-15T13:22:29.550Z</time>
      </trkpt>
      <trkpt lat="45.29622" lon="6.25671">
        <ele>1352</ele>
        <time>2015-11-15T13:22:55.550Z</time>
      </trkpt>
      <trkpt lat="45.29632" lon="6.2567">
        <ele>1352</ele>
        <time>2015-11-15T13:24:36.550Z</time>
      </trkpt>
      <trkpt lat="45.29641" lon="6.25668">
        <ele>1352</ele>
        <time>2015-11-15T13:24:42.550Z</time>
      </trkpt>
      <trkpt lat="45.29651" lon="6.25662">
        <ele>1352</ele>
        <time>2015-11-15T13:24:47.550Z</time>
      </trkpt>
      <trkpt lat="45.2966" lon="6.25659">
        <ele>1352</ele>
        <time>2015-11-15T13:24:50.550Z</time>
      </trkpt>
      <trkpt lat="45.2967" lon="6.25659">
        <ele>1350.343431209</ele>
        <time>2015-11-15T13:24:52.550Z</time>
      </trkpt>
      <trkpt lat="45.29678" lon="6.25661">
        <ele>1348</ele>
        <time>2015-11-15T13:24:54.550Z</time>
      </trkpt>
      <trkpt lat="45.29694" lon="6.25672">
        <ele>1344</ele>
        <time>2015-11-15T13:24:59.550Z</time>
      </trkpt>
      <trkpt lat="45.29705" lon="6.25674">
        <ele>1341.7499871998</ele>
        <time>2015-11-15T13:25:01.550Z</time>
      </trkpt>
      <trkpt lat="45.29717" lon="6.25679">
        <ele>1339</ele>
        <time>2015-11-15T13:25:03.550Z</time>
      </trkpt>
      <trkpt lat="45.29728" lon="6.25689">
        <ele>1339</ele>
        <time>2015-11-15T13:25:05.550Z</time>
      </trkpt>
      <trkpt lat="45.29738" lon="6.25697">
        <ele>1337.24</ele>
        <time>2015-11-15T13:25:07.550Z</time>
      </trkpt>
      <trkpt lat="45.29748" lon="6.25704">
        <ele>1334</ele>
        <time>2015-11-15T13:25:10.550Z</time>
      </trkpt>
      <trkpt lat="45.29757" lon="6.25697">
        <ele>1329.1799912961</ele>
        <time>2015-11-15T13:25:17.550Z</time>
      </trkpt>
      <trkpt lat="45.29753" lon="6.25681">
        <ele>1326.624992</ele>
        <time>2015-11-15T13:25:21.550Z</time>
      </trkpt>
      <trkpt lat="45.29759" lon="6.2567">
        <ele>1319</ele>
        <time>2015-11-15T13:25:34.550Z</time>
      </trkpt>
      <trkpt lat="45.29769" lon="6.25671">
        <ele>1314.5282986971</ele>
        <time>2015-11-15T13:25:38.550Z</time>
      </trkpt>
      <trkpt lat="45.29778" lon="6.25677">
        <ele>1312</ele>
        <time>2015-11-15T13:25:42.550Z</time>
      </trkpt>
      <trkpt lat="45.29787" lon="6.25683">
        <ele>1309.2777718519</ele>
        <time>2015-11-15T13:25:46.550Z</time>
      </trkpt>
      <trkpt lat="45.29789" lon="6.25667">
        <ele>1305</ele>
        <time>2015-11-15T13:25:54.550Z</time>
      </trkpt>
      <trkpt lat="45.29784" lon="6.25651">
        <ele>1304.509996672</ele>
        <time>2015-11-15T13:25:57.550Z</time>
      </trkpt>
      <trkpt lat="45.29781" lon="6.25633">
        <ele>1304</ele>
        <time>2015-11-15T13:26:00.550Z</time>
      </trkpt>
      <trkpt lat="45.29781" lon="6.25618">
        <ele>1303</ele>
        <time>2015-11-15T13:26:05.550Z</time>
      </trkpt>
      <trkpt lat="45.29789" lon="6.25626">
        <ele>1300</ele>
        <time>2015-11-15T13:26:16.550Z</time>
      </trkpt>
      <trkpt lat="45.29797" lon="6.2564">
        <ele>1296</ele>
        <time>2015-11-15T13:26:20.550Z</time>
      </trkpt>
      <trkpt lat="45.29806" lon="6.25648">
        <ele>1288</ele>
        <time>2015-11-15T13:26:24.550Z</time>
      </trkpt>
      <trkpt lat="45.29817" lon="6.25654">
        <ele>1286</ele>
        <time>2015-11-15T13:26:29.550Z</time>
      </trkpt>
      <trkpt lat="45.29824" lon="6.25663">
        <ele>1281.6486352472</ele>
        <time>2015-11-15T13:26:33.550Z</time>
      </trkpt>
      <trkpt lat="45.29828" lon="6.25655">
        <ele>1281</ele>
        <time>2015-11-15T13:26:55.550Z</time>
      </trkpt>
      <trkpt lat="45.29839" lon="6.25652">
        <ele>1274</ele>
        <time>2015-11-15T13:27:21.550Z</time>
      </trkpt>
      <trkpt lat="45.29847" lon="6.2566">
        <ele>1270</ele>
        <time>2015-11-15T13:27:25.550Z</time>
      </trkpt>
      <trkpt lat="45.29854" lon="6.25669">
        <ele>1267</ele>
        <time>2015-11-15T13:27:29.550Z</time>
      </trkpt>
      <trkpt lat="45.29864" lon="6.25683">
        <ele>1263</ele>
        <time>2015-11-15T13:27:33.550Z</time>
      </trkpt>
      <trkpt lat="45.29871" lon="6.257">
        <ele>1260</ele>
        <time>2015-11-15T13:27:36.550Z</time>
      </trkpt>
      <trkpt lat="45.29877" lon="6.25714">
        <ele>1259.5999971555</ele>
        <time>2015-11-15T13:27:39.550Z</time>
      </trkpt>
      <trkpt lat="45.29885" lon="6.25724">
        <ele>1253.6956391078</ele>
        <time>2015-11-15T13:27:45.550Z</time>
      </trkpt>
      <trkpt lat="45.29892" lon="6.25733">
        <ele>1249.9120869846</ele>
        <time>2015-11-15T13:27:48.550Z</time>
      </trkpt>
      <trkpt lat="45.29904" lon="6.25742">
        <ele>1245</ele>
        <time>2015-11-15T13:27:51.550Z</time>
      </trkpt>
      <trkpt lat="45.29918" lon="6.25756">
        <ele>1239.1999943111</ele>
        <time>2015-11-15T13:27:55.550Z</time>
      </trkpt>
      <trkpt lat="45.29927" lon="6.25768">
        <ele>1237</ele>
        <time>2015-11-15T13:27:58.550Z</time>
      </trkpt>
      <trkpt lat="45.29937" lon="6.25775">
        <ele>1234</ele>
        <time>2015-11-15T13:28:02.550Z</time>
      </trkpt>
      <trkpt lat="45.29944" lon="6.25786">
        <ele>1231.2300808772</ele>
        <time>2015-11-15T13:28:06.550Z</time>
      </trkpt>
      <trkpt lat="45.29956" lon="6.25803">
        <ele>1223.5565980776</ele>
        <time>2015-11-15T13:28:10.550Z</time>
      </trkpt>
      <trkpt lat="45.29966" lon="6.25814">
        <ele>1222</ele>
        <time>2015-11-15T13:28:12.550Z</time>
      </trkpt>
      <trkpt lat="45.29977" lon="6.25824">
        <ele>1220</ele>
        <time>2015-11-15T13:28:14.550Z</time>
      </trkpt>
      <trkpt lat="45.29986" lon="6.25837">
        <ele>1219</ele>
        <time>2015-11-15T13:28:19.550Z</time>
      </trkpt>
      <trkpt lat="45.29995" lon="6.25831">
        <ele>1210.0890922225</ele>
        <time>2015-11-15T13:29:01.550Z</time>
      </trkpt>
      <trkpt lat="45.30006" lon="6.25838">
        <ele>1206</ele>
        <time>2015-11-15T13:29:07.550Z</time>
      </trkpt>
      <trkpt lat="45.3001" lon="6.25854">
        <ele>1201</ele>
        <time>2015-11-15T13:29:25.550Z</time>
      </trkpt>
      <trkpt lat="45.30022" lon="6.25862">
        <ele>1198</ele>
        <time>2015-11-15T13:29:30.550Z</time>
      </trkpt>
      <trkpt lat="45.30033" lon="6.25868">
        <ele>1191.5688031378</ele>
        <time>2015-11-15T13:29:34.550Z</time>
      </trkpt>
      <trkpt lat="45.30043" lon="6.25881">
        <ele>1187.5799936</ele>
        <time>2015-11-15T13:29:37.550Z</time>
      </trkpt>
      <trkpt lat="45.30048" lon="6.25897">
        <ele>1185.5826052113</ele>
        <time>2015-11-15T13:29:40.550Z</time>
      </trkpt>
      <trkpt lat="45.30057" lon="6.25887">
        <ele>1182</ele>
        <time>2015-11-15T13:29:47.550Z</time>
      </trkpt>
      <trkpt lat="45.30061" lon="6.25873">
        <ele>1179</ele>
        <time>2015-11-15T13:29:51.550Z</time>
      </trkpt>
      <trkpt lat="45.30066" lon="6.25888">
        <ele>1177</ele>
        <time>2015-11-15T13:29:57.550Z</time>
      </trkpt>
      <trkpt lat="45.30067" lon="6.25909">
        <ele>1173.2315579569</ele>
        <time>2015-11-15T13:30:00.550Z</time>
      </trkpt>
      <trkpt lat="45.30068" lon="6.25926">
        <ele>1170.0947331546</ele>
        <time>2015-11-15T13:30:03.550Z</time>
      </trkpt>
      <trkpt lat="45.30077" lon="6.25918">
        <ele>1164</ele>
        <time>2015-11-15T13:30:09.550Z</time>
      </trkpt>
      <trkpt lat="45.30085" lon="6.25905">
        <ele>1161.5282809255</ele>
        <time>2015-11-15T13:30:12.550Z</time>
      </trkpt>
      <trkpt lat="45.30098" lon="6.25887">
        <ele>1155.1698063083</ele>
        <time>2015-11-15T13:30:16.550Z</time>
      </trkpt>
      <trkpt lat="45.30105" lon="6.25875">
        <ele>1150.7666434372</ele>
        <time>2015-11-15T13:30:20.550Z</time>
      </trkpt>
      <trkpt lat="45.30109" lon="6.25893">
        <ele>1148</ele>
        <time>2015-11-15T13:30:26.550Z</time>
      </trkpt>
      <trkpt lat="45.30118" lon="6.25883">
        <ele>1145</ele>
        <time>2015-11-15T13:30:59.550Z</time>
      </trkpt>
      <trkpt lat="45.30127" lon="6.25893">
        <ele>1136</ele>
        <time>2015-11-15T13:31:16.550Z</time>
      </trkpt>
      <trkpt lat="45.30129" lon="6.25915">
        <ele>1132</ele>
        <time>2015-11-15T13:31:20.550Z</time>
      </trkpt>
      <trkpt lat="45.30133" lon="6.25936">
        <ele>1127.1010033099</ele>
        <time>2015-11-15T13:31:23.550Z</time>
      </trkpt>
      <trkpt lat="45.30138" lon="6.25951">
        <ele>1124.3269169231</ele>
        <time>2015-11-15T13:31:25.550Z</time>
      </trkpt>
      <trkpt lat="45.30146" lon="6.25978">
        <ele>1120</ele>
        <time>2015-11-15T13:31:28.550Z</time>
      </trkpt>
      <trkpt lat="45.30149" lon="6.26">
        <ele>1118</ele>
        <time>2015-11-15T13:31:30.550Z</time>
      </trkpt>
      <trkpt lat="45.30155" lon="6.26026">
        <ele>1117</ele>
        <time>2015-11-15T13:31:32.550Z</time>
      </trkpt>
      <trkpt lat="45.30158" lon="6.26048">
        <ele>1116</ele>
        <time>2015-11-15T13:31:34.550Z</time>
      </trkpt>
      <trkpt lat="45.30151" lon="6.26062">
        <ele>1115.5578894892</ele>
        <time>2015-11-15T13:31:36.550Z</time>
      </trkpt>
      <trkpt lat="45.30144" lon="6.26076">
        <ele>1114</ele>
        <time>2015-11-15T13:31:39.550Z</time>
      </trkpt>
      <trkpt lat="45.30144" lon="6.26094">
        <ele>1113</ele>
        <time>2015-11-15T13:31:43.550Z</time>
      </trkpt>
      <trkpt lat="45.3015" lon="6.26082">
        <ele>1113</ele>
        <time>2015-11-15T13:31:48.550Z</time>
      </trkpt>
      <trkpt lat="45.3016" lon="6.26077">
        <ele>1116</ele>
        <time>2015-11-15T13:31:56.550Z</time>
      </trkpt>
      <trkpt lat="45.30168" lon="6.26067">
        <ele>1114</ele>
        <time>2015-11-15T13:32:16.550Z</time>
      </trkpt>
      <trkpt lat="45.30177" lon="6.2606">
        <ele>1114</ele>
        <time>2015-11-15T13:32:19.550Z</time>
      </trkpt>
      <trkpt lat="45.30185" lon="6.26053">
        <ele>1114</ele>
        <time>2015-11-15T13:32:22.550Z</time>
      </trkpt>
      <trkpt lat="45.30202" lon="6.26037">
        <ele>1112</ele>
        <time>2015-11-15T13:32:27.550Z</time>
      </trkpt>
      <trkpt lat="45.30209" lon="6.2603">
        <ele>1112</ele>
        <time>2015-11-15T13:32:28.550Z</time>
      </trkpt>
      <trkpt lat="45.30225" lon="6.2602">
        <ele>1112</ele>
        <time>2015-11-15T13:32:31.550Z</time>
      </trkpt>
      <trkpt lat="45.30234" lon="6.26015">
        <ele>1112</ele>
        <time>2015-11-15T13:32:36.550Z</time>
      </trkpt>
      <trkpt lat="45.30246" lon="6.26007">
        <ele>1112</ele>
        <time>2015-11-15T13:32:40.550Z</time>
      </trkpt>
      <trkpt lat="45.30257" lon="6.26002">
        <ele>1112</ele>
        <time>2015-11-15T13:32:42.550Z</time>
      </trkpt>
      <trkpt lat="45.30278" lon="6.25988">
        <ele>1112</ele>
        <time>2015-11-15T13:32:45.550Z</time>
      </trkpt>
      <trkpt lat="45.30291" lon="6.25982">
        <ele>1106</ele>
        <time>2015-11-15T13:32:47.550Z</time>
      </trkpt>
      <trkpt lat="45.30302" lon="6.25983">
        <ele>1102.5999971555</ele>
        <time>2015-11-15T13:32:49.550Z</time>
      </trkpt>
      <trkpt lat="45.30316" lon="6.25996">
        <ele>1104</ele>
        <time>2015-11-15T13:32:52.550Z</time>
      </trkpt>
      <trkpt lat="45.30325" lon="6.26008">
        <ele>1104</ele>
        <time>2015-11-15T13:32:54.550Z</time>
      </trkpt>
      <trkpt lat="45.30333" lon="6.26017">
        <ele>1104</ele>
        <time>2015-11-15T13:32:56.550Z</time>
      </trkpt>
      <trkpt lat="45.30344" lon="6.26028">
        <ele>1104</ele>
        <time>2015-11-15T13:32:59.550Z</time>
      </trkpt>
      <trkpt lat="45.30353" lon="6.26036">
        <ele>1104</ele>
        <time>2015-11-15T13:33:02.550Z</time>
      </trkpt>
      <trkpt lat="45.30362" lon="6.26046">
        <ele>1104</ele>
        <time>2015-11-15T13:33:05.550Z</time>
      </trkpt>
      <trkpt lat="45.30372" lon="6.26058">
        <ele>1104</ele>
        <time>2015-11-15T13:33:08.550Z</time>
      </trkpt>
      <trkpt lat="45.30381" lon="6.26072">
        <ele>1104</ele>
        <time>2015-11-15T13:33:11.550Z</time>
      </trkpt>
      <trkpt lat="45.3039" lon="6.26085">
        <ele>1104</ele>
        <time>2015-11-15T13:33:14.550Z</time>
      </trkpt>
      <trkpt lat="45.30398" lon="6.26094">
        <ele>1104</ele>
        <time>2015-11-15T13:33:16.550Z</time>
      </trkpt>
      <trkpt lat="45.30408" lon="6.26106">
        <ele>1104</ele>
        <time>2015-11-15T13:33:19.550Z</time>
      </trkpt>
      <trkpt lat="45.30419" lon="6.26121">
        <ele>1103</ele>
        <time>2015-11-15T13:33:23.550Z</time>
      </trkpt>
      <trkpt lat="45.30425" lon="6.26132">
        <ele>1103</ele>
        <time>2015-11-15T13:33:26.550Z</time>
      </trkpt>
      <trkpt lat="45.3043" lon="6.26145">
        <ele>1103</ele>
        <time>2015-11-15T13:33:30.550Z</time>
      </trkpt>
      <trkpt lat="45.30438" lon="6.26163">
        <ele>1100</ele>
        <time>2015-11-15T13:33:34.550Z</time>
      </trkpt>
      <trkpt lat="45.30441" lon="6.26181">
        <ele>1098.6261454171</ele>
        <time>2015-11-15T13:33:37.550Z</time>
      </trkpt>
      <trkpt lat="45.30451" lon="6.26176">
        <ele>1095</ele>
        <time>2015-11-15T13:34:10.550Z</time>
      </trkpt>
      <trkpt lat="45.30461" lon="6.26167">
        <ele>1093</ele>
        <time>2015-11-15T13:34:14.550Z</time>
      </trkpt>
      <trkpt lat="45.30471" lon="6.26169">
        <ele>1090</ele>
        <time>2015-11-15T13:34:18.550Z</time>
      </trkpt>
      <trkpt lat="45.30486" lon="6.26166">
        <ele>1084.5566034318</ele>
        <time>2015-11-15T13:34:25.550Z</time>
      </trkpt>
      <trkpt lat="45.30495" lon="6.26177">
        <ele>1080.4999936</ele>
        <time>2015-11-15T13:34:29.550Z</time>
      </trkpt>
      <trkpt lat="45.30502" lon="6.2619">
        <ele>1074.4999936</ele>
        <time>2015-11-15T13:34:35.550Z</time>
      </trkpt>
      <trkpt lat="45.30498" lon="6.26202">
        <ele>1068.4999936</ele>
        <time>2015-11-15T13:34:43.550Z</time>
      </trkpt>
      <trkpt lat="45.30509" lon="6.26204">
        <ele>1065.5575152071</ele>
        <time>2015-11-15T13:34:47.550Z</time>
      </trkpt>
      <trkpt lat="45.3052" lon="6.26204">
        <ele>1060</ele>
        <time>2015-11-15T13:34:51.550Z</time>
      </trkpt>
      <trkpt lat="45.3053" lon="6.26203">
        <ele>1051.5727268496</ele>
        <time>2015-11-15T13:35:04.550Z</time>
      </trkpt>
      <trkpt lat="45.30539" lon="6.2619">
        <ele>1043</ele>
        <time>2015-11-15T13:35:17.550Z</time>
      </trkpt>
      <trkpt lat="45.30549" lon="6.26178">
        <ele>1038</ele>
        <time>2015-11-15T13:35:21.550Z</time>
      </trkpt>
      <trkpt lat="45.30559" lon="6.26182">
        <ele>1035.1150404386</ele>
        <time>2015-11-15T13:35:28.550Z</time>
      </trkpt>
      <trkpt lat="45.30573" lon="6.2618">
        <ele>1028</ele>
        <time>2015-11-15T13:35:32.550Z</time>
      </trkpt>
      <trkpt lat="45.30584" lon="6.26176">
        <ele>1024</ele>
        <time>2015-11-15T13:35:36.550Z</time>
      </trkpt>
      <trkpt lat="45.30592" lon="6.26159">
        <ele>1019</ele>
        <time>2015-11-15T13:35:39.550Z</time>
      </trkpt>
      <trkpt lat="45.30596" lon="6.26146">
        <ele>1017</ele>
        <time>2015-11-15T13:35:41.550Z</time>
      </trkpt>
      <trkpt lat="45.30602" lon="6.26124">
        <ele>1012</ele>
        <time>2015-11-15T13:35:45.550Z</time>
      </trkpt>
      <trkpt lat="45.306" lon="6.26106">
        <ele>1008</ele>
        <time>2015-11-15T13:35:48.550Z</time>
      </trkpt>
      <trkpt lat="45.30597" lon="6.26089">
        <ele>1005.3296480716</ele>
        <time>2015-11-15T13:35:51.550Z</time>
      </trkpt>
      <trkpt lat="45.30596" lon="6.26063">
        <ele>999</ele>
        <time>2015-11-15T13:35:54.550Z</time>
      </trkpt>
      <trkpt lat="45.306" lon="6.2605">
        <ele>994.44444128397</ele>
        <time>2015-11-15T13:35:56.550Z</time>
      </trkpt>
      <trkpt lat="45.30603" lon="6.26027">
        <ele>991</ele>
        <time>2015-11-15T13:35:59.550Z</time>
      </trkpt>
      <trkpt lat="45.30607" lon="6.26014">
        <ele>991</ele>
        <time>2015-11-15T13:36:03.550Z</time>
      </trkpt>
      <trkpt lat="45.30609" lon="6.25999">
        <ele>989</ele>
        <time>2015-11-15T13:36:38.550Z</time>
      </trkpt>
      <trkpt lat="45.30599" lon="6.25991">
        <ele>989</ele>
        <time>2015-11-15T13:36:42.550Z</time>
      </trkpt>
      <trkpt lat="45.30598" lon="6.25972">
        <ele>985.38316147092</ele>
        <time>2015-11-15T13:36:45.550Z</time>
      </trkpt>
      <trkpt lat="45.30603" lon="6.25959">
        <ele>978.06033721751</ele>
        <time>2015-11-15T13:36:47.550Z</time>
      </trkpt>
      <trkpt lat="45.30609" lon="6.25948">
        <ele>972</ele>
        <time>2015-11-15T13:36:50.550Z</time>
      </trkpt>
      <trkpt lat="45.30616" lon="6.25928">
        <ele>966</ele>
        <time>2015-11-15T13:36:54.550Z</time>
      </trkpt>
      <trkpt lat="45.30623" lon="6.25917">
        <ele>963</ele>
        <time>2015-11-15T13:36:56.550Z</time>
      </trkpt>
      <trkpt lat="45.30628" lon="6.25903">
        <ele>957.63635411576</ele>
        <time>2015-11-15T13:37:01.550Z</time>
      </trkpt>
      <trkpt lat="45.30641" lon="6.25893">
        <ele>951</ele>
        <time>2015-11-15T13:37:07.550Z</time>
      </trkpt>
      <trkpt lat="45.30647" lon="6.25881">
        <ele>943</ele>
        <time>2015-11-15T13:37:15.550Z</time>
      </trkpt>
      <trkpt lat="45.30639" lon="6.25872">
        <ele>938</ele>
        <time>2015-11-15T13:37:20.550Z</time>
      </trkpt>
      <trkpt lat="45.30649" lon="6.25865">
        <ele>934</ele>
        <time>2015-11-15T13:37:25.550Z</time>
      </trkpt>
      <trkpt lat="45.30637" lon="6.25853">
        <ele>927.22220958016</ele>
        <time>2015-11-15T13:37:30.550Z</time>
      </trkpt>
      <trkpt lat="45.30626" lon="6.25842">
        <ele>923.46152980561</ele>
        <time>2015-11-15T13:37:32.550Z</time>
      </trkpt>
      <trkpt lat="45.3061" lon="6.25835">
        <ele>918</ele>
        <time>2015-11-15T13:37:35.550Z</time>
      </trkpt>
      <trkpt lat="45.30601" lon="6.25808">
        <ele>912.5699968</ele>
        <time>2015-11-15T13:37:39.550Z</time>
      </trkpt>
      <trkpt lat="45.30593" lon="6.25795">
        <ele>911.57575248242</ele>
        <time>2015-11-15T13:37:41.550Z</time>
      </trkpt>
      <trkpt lat="45.30581" lon="6.2579">
        <ele>911</ele>
        <time>2015-11-15T13:37:44.550Z</time>
      </trkpt>
      <trkpt lat="45.3058" lon="6.25779">
        <ele>904.3199872</ele>
        <time>2015-11-15T13:37:52.550Z</time>
      </trkpt>
      <trkpt lat="45.30574" lon="6.25776">
        <ele>902.3199872</ele>
        <time>2015-11-15T13:37:54.550Z</time>
      </trkpt>
      <trkpt lat="45.30563" lon="6.25774">
        <ele>899.6399744</ele>
        <time>2015-11-15T13:37:56.550Z</time>
      </trkpt>
      <trkpt lat="45.30554" lon="6.25766">
        <ele>895.9799808</ele>
        <time>2015-11-15T13:37:58.550Z</time>
      </trkpt>
      <trkpt lat="45.30562" lon="6.2575">
        <ele>887</ele>
        <time>2015-11-15T13:38:05.550Z</time>
      </trkpt>
      <trkpt lat="45.30563" lon="6.25733">
        <ele>884</ele>
        <time>2015-11-15T13:38:09.550Z</time>
      </trkpt>
      <trkpt lat="45.3056" lon="6.25724">
        <ele>881</ele>
        <time>2015-11-15T13:38:11.550Z</time>
      </trkpt>
      <trkpt lat="45.30549" lon="6.25711">
        <ele>878.01999385592</ele>
        <time>2015-11-15T13:38:14.550Z</time>
      </trkpt>
      <trkpt lat="45.30538" lon="6.25702">
        <ele>875</ele>
        <time>2015-11-15T13:38:17.550Z</time>
      </trkpt>
      <trkpt lat="45.30526" lon="6.25688">
        <ele>872.50999692796</ele>
        <time>2015-11-15T13:38:20.550Z</time>
      </trkpt>
      <trkpt lat="45.30517" lon="6.2568">
        <ele>871.50999692796</ele>
        <time>2015-11-15T13:38:22.550Z</time>
      </trkpt>
      <trkpt lat="45.30512" lon="6.2568">
        <ele>871</ele>
        <time>2015-11-15T13:38:35.550Z</time>
      </trkpt>
      <trkpt lat="45.30507" lon="6.25682">
        <ele>872</ele>
        <time>2015-11-15T13:38:50.550Z</time>
      </trkpt>
      <trkpt lat="45.30507" lon="6.2568">
        <ele>871</ele>
        <time>2015-11-15T13:39:05.550Z</time>
      </trkpt>
      <trkpt lat="45.30505" lon="6.25677">
        <ele>871</ele>
        <time>2015-11-15T13:39:08.550Z</time>
      </trkpt>
      <trkpt lat="45.30505" lon="6.25674">
        <ele>871.44444760496</ele>
        <time>2015-11-15T13:39:11.550Z</time>
      </trkpt>
      <trkpt lat="45.30505" lon="6.25671">
        <ele>872</ele>
        <time>2015-11-15T13:39:14.550Z</time>
      </trkpt>
      <trkpt lat="45.30506" lon="6.25669">
        <ele>872</ele>
        <time>2015-11-15T13:39:16.550Z</time>
      </trkpt>
      <trkpt lat="45.30506" lon="6.25667">
        <ele>872</ele>
        <time>2015-11-15T13:39:18.550Z</time>
      </trkpt>
      <trkpt lat="45.30508" lon="6.25664">
        <ele>872.43820741827</ele>
        <time>2015-11-15T13:39:21.550Z</time>
      </trkpt>
      <trkpt lat="45.3051" lon="6.25662">
        <ele>873</ele>
        <time>2015-11-15T13:39:23.550Z</time>
      </trkpt>
      <trkpt lat="45.30511" lon="6.2566">
        <ele>873</ele>
        <time>2015-11-15T13:39:25.550Z</time>
      </trkpt>
      <trkpt lat="45.30512" lon="6.25658">
        <ele>873</ele>
        <time>2015-11-15T13:39:26.550Z</time>
      </trkpt>
      <trkpt lat="45.30514" lon="6.25657">
        <ele>873</ele>
        <time>2015-11-15T13:39:27.550Z</time>
      </trkpt>
      <trkpt lat="45.30518" lon="6.25655">
        <ele>873</ele>
        <time>2015-11-15T13:39:29.550Z</time>
      </trkpt>
      <trkpt lat="45.3052" lon="6.25655">
        <ele>873</ele>
        <time>2015-11-15T13:39:30.550Z</time>
      </trkpt>
      <trkpt lat="45.30522" lon="6.25654">
        <ele>873</ele>
        <time>2015-11-15T13:39:31.550Z</time>
      </trkpt>
      <trkpt lat="45.30527" lon="6.25653">
        <ele>874</ele>
        <time>2015-11-15T13:39:33.550Z</time>
      </trkpt>
      <trkpt lat="45.30533" lon="6.25653">
        <ele>874</ele>
        <time>2015-11-15T13:39:36.550Z</time>
      </trkpt>
      <trkpt lat="45.30539" lon="6.25653">
        <ele>874</ele>
        <time>2015-11-15T13:39:39.550Z</time>
      </trkpt>
      <trkpt lat="45.30547" lon="6.25653">
        <ele>875</ele>
        <time>2015-11-15T13:39:43.550Z</time>
      </trkpt>
      <trkpt lat="45.30558" lon="6.25653">
        <ele>875</ele>
        <time>2015-11-15T13:39:48.550Z</time>
      </trkpt>
      <trkpt lat="45.30569" lon="6.25655">
        <ele>876</ele>
        <time>2015-11-15T13:39:53.550Z</time>
      </trkpt>
      <trkpt lat="45.3058" lon="6.25657">
        <ele>876</ele>
        <time>2015-11-15T13:39:57.550Z</time>
      </trkpt>
      <trkpt lat="45.30592" lon="6.25659">
        <ele>876</ele>
        <time>2015-11-15T13:40:00.550Z</time>
      </trkpt>
      <trkpt lat="45.30603" lon="6.25661">
        <ele>875</ele>
        <time>2015-11-15T13:40:02.550Z</time>
      </trkpt>
      <trkpt lat="45.30616" lon="6.25663">
        <ele>875</ele>
        <time>2015-11-15T13:40:04.550Z</time>
      </trkpt>
      <trkpt lat="45.30628" lon="6.25665">
        <ele>875</ele>
        <time>2015-11-15T13:40:06.550Z</time>
      </trkpt>
      <trkpt lat="45.30642" lon="6.25668">
        <ele>875</ele>
        <time>2015-11-15T13:40:08.550Z</time>
      </trkpt>
      <trkpt lat="45.30658" lon="6.2567">
        <ele>875</ele>
        <time>2015-11-15T13:40:10.550Z</time>
      </trkpt>
      <trkpt lat="45.30672" lon="6.25668">
        <ele>873.78785684733</ele>
        <time>2015-11-15T13:40:12.550Z</time>
      </trkpt>
      <trkpt lat="45.30684" lon="6.25667">
        <ele>871</ele>
        <time>2015-11-15T13:40:14.550Z</time>
      </trkpt>
      <trkpt lat="45.30696" lon="6.25667">
        <ele>871.3100032</ele>
        <time>2015-11-15T13:40:17.550Z</time>
      </trkpt>
      <trkpt lat="45.30707" lon="6.25665">
        <ele>872</ele>
        <time>2015-11-15T13:40:21.550Z</time>
      </trkpt>
      <trkpt lat="45.30716" lon="6.25661">
        <ele>874</ele>
        <time>2015-11-15T13:40:25.550Z</time>
      </trkpt>
      <trkpt lat="45.30728" lon="6.25659">
        <ele>875</ele>
        <time>2015-11-15T13:40:29.550Z</time>
      </trkpt>
      <trkpt lat="45.3074" lon="6.25668">
        <ele>875</ele>
        <time>2015-11-15T13:40:35.550Z</time>
      </trkpt>
      <trkpt lat="45.30749" lon="6.25676">
        <ele>875</ele>
        <time>2015-11-15T13:40:40.550Z</time>
      </trkpt>
      <trkpt lat="45.30759" lon="6.25682">
        <ele>877</ele>
        <time>2015-11-15T13:40:47.550Z</time>
      </trkpt>
      <trkpt lat="45.30768" lon="6.25687">
        <ele>879</ele>
        <time>2015-11-15T13:40:53.550Z</time>
      </trkpt>
      <trkpt lat="45.30778" lon="6.25694">
        <ele>879</ele>
        <time>2015-11-15T13:41:00.550Z</time>
      </trkpt>
      <trkpt lat="45.30787" lon="6.257">
        <ele>880</ele>
        <time>2015-11-15T13:41:05.550Z</time>
      </trkpt>
      <trkpt lat="45.30798" lon="6.25705">
        <ele>880</ele>
        <time>2015-11-15T13:41:11.550Z</time>
      </trkpt>
      <trkpt lat="45.30808" lon="6.25709">
        <ele>881</ele>
        <time>2015-11-15T13:41:16.550Z</time>
      </trkpt>
      <trkpt lat="45.30817" lon="6.25715">
        <ele>881</ele>
        <time>2015-11-15T13:41:21.550Z</time>
      </trkpt>
      <trkpt lat="45.30828" lon="6.25721">
        <ele>881</ele>
        <time>2015-11-15T13:41:27.550Z</time>
      </trkpt>
      <trkpt lat="45.30837" lon="6.25726">
        <ele>884</ele>
        <time>2015-11-15T13:41:34.550Z</time>
      </trkpt>
      <trkpt lat="45.30848" lon="6.25733">
        <ele>884.43820741827</ele>
        <time>2015-11-15T13:41:42.550Z</time>
      </trkpt>
      <trkpt lat="45.30856" lon="6.25741">
        <ele>885</ele>
        <time>2015-11-15T13:41:49.550Z</time>
      </trkpt>
      <trkpt lat="45.30867" lon="6.25747">
        <ele>886</ele>
        <time>2015-11-15T13:41:57.550Z</time>
      </trkpt>
      <trkpt lat="45.30879" lon="6.25745">
        <ele>887</ele>
        <time>2015-11-15T13:42:04.550Z</time>
      </trkpt>
      <trkpt lat="45.30888" lon="6.25738">
        <ele>887</ele>
        <time>2015-11-15T13:42:10.550Z</time>
      </trkpt>
      <trkpt lat="45.30897" lon="6.25731">
        <ele>888</ele>
        <time>2015-11-15T13:42:17.550Z</time>
      </trkpt>
      <trkpt lat="45.30907" lon="6.25728">
        <ele>890</ele>
        <time>2015-11-15T13:42:25.550Z</time>
      </trkpt>
      <trkpt lat="45.30918" lon="6.25725">
        <ele>890</ele>
        <time>2015-11-15T13:42:32.550Z</time>
      </trkpt>
      <trkpt lat="45.3093" lon="6.25723">
        <ele>890</ele>
        <time>2015-11-15T13:42:39.550Z</time>
      </trkpt>
      <trkpt lat="45.30941" lon="6.25722">
        <ele>890</ele>
        <time>2015-11-15T13:42:46.550Z</time>
      </trkpt>
      <trkpt lat="45.30951" lon="6.25719">
        <ele>892</ele>
        <time>2015-11-15T13:42:53.550Z</time>
      </trkpt>
      <trkpt lat="45.3096" lon="6.25716">
        <ele>892</ele>
        <time>2015-11-15T13:42:59.550Z</time>
      </trkpt>
      <trkpt lat="45.30973" lon="6.25714">
        <ele>894</ele>
        <time>2015-11-15T13:43:07.550Z</time>
      </trkpt>
      <trkpt lat="45.30983" lon="6.25711">
        <ele>894</ele>
        <time>2015-11-15T13:43:14.550Z</time>
      </trkpt>
      <trkpt lat="45.30993" lon="6.25711">
        <ele>895</ele>
        <time>2015-11-15T13:43:24.550Z</time>
      </trkpt>
      <trkpt lat="45.31004" lon="6.25709">
        <ele>896</ele>
        <time>2015-11-15T13:43:34.550Z</time>
      </trkpt>
      <trkpt lat="45.31014" lon="6.25709">
        <ele>897</ele>
        <time>2015-11-15T13:43:42.550Z</time>
      </trkpt>
      <trkpt lat="45.31025" lon="6.25708">
        <ele>900</ele>
        <time>2015-11-15T13:43:52.550Z</time>
      </trkpt>
      <trkpt lat="45.31035" lon="6.25708">
        <ele>901</ele>
        <time>2015-11-15T13:44:04.550Z</time>
      </trkpt>
      <trkpt lat="45.31045" lon="6.25706">
        <ele>901</ele>
        <time>2015-11-15T13:44:12.550Z</time>
      </trkpt>
      <trkpt lat="45.31055" lon="6.25704">
        <ele>903</ele>
        <time>2015-11-15T13:44:22.550Z</time>
      </trkpt>
      <trkpt lat="45.31067" lon="6.25705">
        <ele>903</ele>
        <time>2015-11-15T13:44:29.550Z</time>
      </trkpt>
      <trkpt lat="45.31077" lon="6.25706">
        <ele>903</ele>
        <time>2015-11-15T13:44:33.550Z</time>
      </trkpt>
      <trkpt lat="45.31088" lon="6.25712">
        <ele>904</ele>
        <time>2015-11-15T13:44:39.550Z</time>
      </trkpt>
      <trkpt lat="45.3109" lon="6.25716">
        <ele>904</ele>
        <time>2015-11-15T13:44:46.550Z</time>
      </trkpt>
    </trkseg>
  </trk>
</gpx>